<?xml version="1.0" encoding="UTF-8" standalone="no" ?>
<gpx xmlns="http://www.topografix.com/GPX/1/1" xmlns:xsi="http://www.w3.org/2001/XMLSchema-instance" xsi:schemaLocation="http://www.topografix.com/GPX/1/1 http://www.topografix.com/GPX/1/1/gpx.xsd" version="1.1" creator="VisuGPX - https://www.visugpx.com">
  <metadata>
    <name>2020-06-11</name>
    <desc><![CDATA[Circuit de difficulté moyenne en Occitanie.
Il s'agit d'une boucle Trèbes Fabrezan Trèbes.]]></desc>
  </metadata>
  <trk>
    <name><![CDATA[2020-06-11-13-30-33 on AllTrails]]></name>
    <trkseg>
      <trkpt lat="43.21724" lon="2.48004">
        <ele>116</ele>
        <time>2020-06-11T11:30:33Z</time>
      </trkpt>
      <trkpt lat="43.21724" lon="2.48004">
        <ele>116</ele>
        <time>2020-06-11T11:30:34Z</time>
      </trkpt>
      <trkpt lat="43.21718" lon="2.48004">
        <ele>116</ele>
        <time>2020-06-11T11:30:40Z</time>
      </trkpt>
      <trkpt lat="43.21715" lon="2.48003">
        <ele>117</ele>
        <time>2020-06-11T11:30:42Z</time>
      </trkpt>
      <trkpt lat="43.21713" lon="2.47996">
        <ele>117</ele>
        <time>2020-06-11T11:30:45Z</time>
      </trkpt>
      <trkpt lat="43.21714" lon="2.47993">
        <ele>117</ele>
        <time>2020-06-11T11:30:46Z</time>
      </trkpt>
      <trkpt lat="43.21715" lon="2.47987">
        <ele>118</ele>
        <time>2020-06-11T11:30:48Z</time>
      </trkpt>
      <trkpt lat="43.21716" lon="2.4798">
        <ele>118</ele>
        <time>2020-06-11T11:30:50Z</time>
      </trkpt>
      <trkpt lat="43.21717" lon="2.47973">
        <ele>118</ele>
        <time>2020-06-11T11:30:52Z</time>
      </trkpt>
      <trkpt lat="43.2172" lon="2.47963">
        <ele>118</ele>
        <time>2020-06-11T11:30:55Z</time>
      </trkpt>
      <trkpt lat="43.21724" lon="2.47949">
        <ele>119</ele>
        <time>2020-06-11T11:30:59Z</time>
      </trkpt>
      <trkpt lat="43.21725" lon="2.47942">
        <ele>120</ele>
        <time>2020-06-11T11:31:01Z</time>
      </trkpt>
      <trkpt lat="43.21728" lon="2.47931">
        <ele>120</ele>
        <time>2020-06-11T11:31:04Z</time>
      </trkpt>
      <trkpt lat="43.21733" lon="2.47914">
        <ele>121</ele>
        <time>2020-06-11T11:31:09Z</time>
      </trkpt>
      <trkpt lat="43.21734" lon="2.47908">
        <ele>122</ele>
        <time>2020-06-11T11:31:11Z</time>
      </trkpt>
      <trkpt lat="43.21737" lon="2.47897">
        <ele>122</ele>
        <time>2020-06-11T11:31:15Z</time>
      </trkpt>
      <trkpt lat="43.21738" lon="2.47894">
        <ele>122</ele>
        <time>2020-06-11T11:31:16Z</time>
      </trkpt>
      <trkpt lat="43.21739" lon="2.47884">
        <ele>123</ele>
        <time>2020-06-11T11:31:20Z</time>
      </trkpt>
      <trkpt lat="43.21738" lon="2.47876">
        <ele>123</ele>
        <time>2020-06-11T11:31:23Z</time>
      </trkpt>
      <trkpt lat="43.21737" lon="2.47875">
        <ele>124</ele>
        <time>2020-06-11T11:31:24Z</time>
      </trkpt>
      <trkpt lat="43.21732" lon="2.4787">
        <ele>124</ele>
        <time>2020-06-11T11:31:27Z</time>
      </trkpt>
      <trkpt lat="43.2173" lon="2.47869">
        <ele>124</ele>
        <time>2020-06-11T11:31:28Z</time>
      </trkpt>
      <trkpt lat="43.21723" lon="2.47865">
        <ele>124</ele>
        <time>2020-06-11T11:31:31Z</time>
      </trkpt>
      <trkpt lat="43.2171" lon="2.47858">
        <ele>124</ele>
        <time>2020-06-11T11:31:36Z</time>
      </trkpt>
      <trkpt lat="43.21703" lon="2.4785">
        <ele>124</ele>
        <time>2020-06-11T11:31:39Z</time>
      </trkpt>
      <trkpt lat="43.217" lon="2.47842">
        <ele>124</ele>
        <time>2020-06-11T11:31:41Z</time>
      </trkpt>
      <trkpt lat="43.21701" lon="2.47824">
        <ele>125</ele>
        <time>2020-06-11T11:31:45Z</time>
      </trkpt>
      <trkpt lat="43.21701" lon="2.47815">
        <ele>125</ele>
        <time>2020-06-11T11:31:47Z</time>
      </trkpt>
      <trkpt lat="43.21705" lon="2.47778">
        <ele>126</ele>
        <time>2020-06-11T11:31:54Z</time>
      </trkpt>
      <trkpt lat="43.21708" lon="2.47744">
        <ele>125</ele>
        <time>2020-06-11T11:32:00Z</time>
      </trkpt>
      <trkpt lat="43.21709" lon="2.47732">
        <ele>125</ele>
        <time>2020-06-11T11:32:02Z</time>
      </trkpt>
      <trkpt lat="43.21709" lon="2.47721">
        <ele>125</ele>
        <time>2020-06-11T11:32:04Z</time>
      </trkpt>
      <trkpt lat="43.2171" lon="2.47702">
        <ele>125</ele>
        <time>2020-06-11T11:32:07Z</time>
      </trkpt>
      <trkpt lat="43.21708" lon="2.47676">
        <ele>125</ele>
        <time>2020-06-11T11:32:11Z</time>
      </trkpt>
      <trkpt lat="43.21705" lon="2.47657">
        <ele>125</ele>
        <time>2020-06-11T11:32:14Z</time>
      </trkpt>
      <trkpt lat="43.21703" lon="2.4765">
        <ele>125</ele>
        <time>2020-06-11T11:32:15Z</time>
      </trkpt>
      <trkpt lat="43.217" lon="2.47638">
        <ele>125</ele>
        <time>2020-06-11T11:32:17Z</time>
      </trkpt>
      <trkpt lat="43.21698" lon="2.47632">
        <ele>125</ele>
        <time>2020-06-11T11:32:18Z</time>
      </trkpt>
      <trkpt lat="43.21697" lon="2.47626">
        <ele>125</ele>
        <time>2020-06-11T11:32:19Z</time>
      </trkpt>
      <trkpt lat="43.21694" lon="2.47614">
        <ele>124</ele>
        <time>2020-06-11T11:32:21Z</time>
      </trkpt>
      <trkpt lat="43.2169" lon="2.47601">
        <ele>125</ele>
        <time>2020-06-11T11:32:23Z</time>
      </trkpt>
      <trkpt lat="43.21686" lon="2.47585">
        <ele>125</ele>
        <time>2020-06-11T11:32:26Z</time>
      </trkpt>
      <trkpt lat="43.21677" lon="2.47548">
        <ele>124</ele>
        <time>2020-06-11T11:32:32Z</time>
      </trkpt>
      <trkpt lat="43.21676" lon="2.47542">
        <ele>124</ele>
        <time>2020-06-11T11:32:33Z</time>
      </trkpt>
      <trkpt lat="43.21675" lon="2.47535">
        <ele>124</ele>
        <time>2020-06-11T11:32:34Z</time>
      </trkpt>
      <trkpt lat="43.21675" lon="2.47521">
        <ele>124</ele>
        <time>2020-06-11T11:32:36Z</time>
      </trkpt>
      <trkpt lat="43.21675" lon="2.47506">
        <ele>124</ele>
        <time>2020-06-11T11:32:38Z</time>
      </trkpt>
      <trkpt lat="43.21676" lon="2.47498">
        <ele>124</ele>
        <time>2020-06-11T11:32:39Z</time>
      </trkpt>
      <trkpt lat="43.21676" lon="2.4749">
        <ele>124</ele>
        <time>2020-06-11T11:32:40Z</time>
      </trkpt>
      <trkpt lat="43.21677" lon="2.4746">
        <ele>124</ele>
        <time>2020-06-11T11:32:44Z</time>
      </trkpt>
      <trkpt lat="43.21678" lon="2.47443">
        <ele>124</ele>
        <time>2020-06-11T11:32:46Z</time>
      </trkpt>
      <trkpt lat="43.21678" lon="2.47435">
        <ele>124</ele>
        <time>2020-06-11T11:32:47Z</time>
      </trkpt>
      <trkpt lat="43.21678" lon="2.47417">
        <ele>124</ele>
        <time>2020-06-11T11:32:49Z</time>
      </trkpt>
      <trkpt lat="43.21679" lon="2.47407">
        <ele>123</ele>
        <time>2020-06-11T11:32:50Z</time>
      </trkpt>
      <trkpt lat="43.21679" lon="2.47398">
        <ele>123</ele>
        <time>2020-06-11T11:32:51Z</time>
      </trkpt>
      <trkpt lat="43.2168" lon="2.47373">
        <ele>122</ele>
        <time>2020-06-11T11:32:54Z</time>
      </trkpt>
      <trkpt lat="43.21678" lon="2.47366">
        <ele>122</ele>
        <time>2020-06-11T11:32:55Z</time>
      </trkpt>
      <trkpt lat="43.21675" lon="2.47361">
        <ele>122</ele>
        <time>2020-06-11T11:32:56Z</time>
      </trkpt>
      <trkpt lat="43.21665" lon="2.47353">
        <ele>122</ele>
        <time>2020-06-11T11:32:58Z</time>
      </trkpt>
      <trkpt lat="43.21648" lon="2.47345">
        <ele>122</ele>
        <time>2020-06-11T11:33:01Z</time>
      </trkpt>
      <trkpt lat="43.21637" lon="2.47337">
        <ele>122</ele>
        <time>2020-06-11T11:33:03Z</time>
      </trkpt>
      <trkpt lat="43.21629" lon="2.47328">
        <ele>121</ele>
        <time>2020-06-11T11:33:05Z</time>
      </trkpt>
      <trkpt lat="43.21625" lon="2.47323">
        <ele>121</ele>
        <time>2020-06-11T11:33:06Z</time>
      </trkpt>
      <trkpt lat="43.21623" lon="2.47318">
        <ele>121</ele>
        <time>2020-06-11T11:33:07Z</time>
      </trkpt>
      <trkpt lat="43.2162" lon="2.47306">
        <ele>121</ele>
        <time>2020-06-11T11:33:09Z</time>
      </trkpt>
      <trkpt lat="43.21619" lon="2.473">
        <ele>121</ele>
        <time>2020-06-11T11:33:10Z</time>
      </trkpt>
      <trkpt lat="43.21618" lon="2.47293">
        <ele>121</ele>
        <time>2020-06-11T11:33:11Z</time>
      </trkpt>
      <trkpt lat="43.21616" lon="2.47287">
        <ele>121</ele>
        <time>2020-06-11T11:33:12Z</time>
      </trkpt>
      <trkpt lat="43.21612" lon="2.47276">
        <ele>121</ele>
        <time>2020-06-11T11:33:14Z</time>
      </trkpt>
      <trkpt lat="43.21609" lon="2.4727">
        <ele>121</ele>
        <time>2020-06-11T11:33:15Z</time>
      </trkpt>
      <trkpt lat="43.21605" lon="2.47266">
        <ele>122</ele>
        <time>2020-06-11T11:33:16Z</time>
      </trkpt>
      <trkpt lat="43.21593" lon="2.47259">
        <ele>122</ele>
        <time>2020-06-11T11:33:19Z</time>
      </trkpt>
      <trkpt lat="43.21567" lon="2.47251">
        <ele>122</ele>
        <time>2020-06-11T11:33:25Z</time>
      </trkpt>
      <trkpt lat="43.21558" lon="2.47247">
        <ele>122</ele>
        <time>2020-06-11T11:33:27Z</time>
      </trkpt>
      <trkpt lat="43.2155" lon="2.47243">
        <ele>122</ele>
        <time>2020-06-11T11:33:29Z</time>
      </trkpt>
      <trkpt lat="43.21542" lon="2.4724">
        <ele>123</ele>
        <time>2020-06-11T11:33:31Z</time>
      </trkpt>
      <trkpt lat="43.21528" lon="2.47236">
        <ele>123</ele>
        <time>2020-06-11T11:33:35Z</time>
      </trkpt>
      <trkpt lat="43.21515" lon="2.47232">
        <ele>123</ele>
        <time>2020-06-11T11:33:38Z</time>
      </trkpt>
      <trkpt lat="43.215" lon="2.47231">
        <ele>124</ele>
        <time>2020-06-11T11:33:42Z</time>
      </trkpt>
      <trkpt lat="43.21474" lon="2.47232">
        <ele>123</ele>
        <time>2020-06-11T11:33:48Z</time>
      </trkpt>
      <trkpt lat="43.21469" lon="2.47232">
        <ele>123</ele>
        <time>2020-06-11T11:33:49Z</time>
      </trkpt>
      <trkpt lat="43.21442" lon="2.47232">
        <ele>122</ele>
        <time>2020-06-11T11:33:55Z</time>
      </trkpt>
      <trkpt lat="43.2143" lon="2.47231">
        <ele>121</ele>
        <time>2020-06-11T11:33:58Z</time>
      </trkpt>
      <trkpt lat="43.21418" lon="2.47233">
        <ele>121</ele>
        <time>2020-06-11T11:34:01Z</time>
      </trkpt>
      <trkpt lat="43.21414" lon="2.47233">
        <ele>121</ele>
        <time>2020-06-11T11:34:02Z</time>
      </trkpt>
      <trkpt lat="43.21409" lon="2.47234">
        <ele>121</ele>
        <time>2020-06-11T11:34:03Z</time>
      </trkpt>
      <trkpt lat="43.21405" lon="2.47234">
        <ele>121</ele>
        <time>2020-06-11T11:34:04Z</time>
      </trkpt>
      <trkpt lat="43.21376" lon="2.47231">
        <ele>122</ele>
        <time>2020-06-11T11:34:10Z</time>
      </trkpt>
      <trkpt lat="43.21358" lon="2.47226">
        <ele>122</ele>
        <time>2020-06-11T11:34:14Z</time>
      </trkpt>
      <trkpt lat="43.21349" lon="2.47221">
        <ele>122</ele>
        <time>2020-06-11T11:34:16Z</time>
      </trkpt>
      <trkpt lat="43.21335" lon="2.47213">
        <ele>122</ele>
        <time>2020-06-11T11:34:19Z</time>
      </trkpt>
      <trkpt lat="43.21322" lon="2.472">
        <ele>123</ele>
        <time>2020-06-11T11:34:22Z</time>
      </trkpt>
      <trkpt lat="43.21319" lon="2.47196">
        <ele>123</ele>
        <time>2020-06-11T11:34:23Z</time>
      </trkpt>
      <trkpt lat="43.21315" lon="2.47191">
        <ele>124</ele>
        <time>2020-06-11T11:34:24Z</time>
      </trkpt>
      <trkpt lat="43.21313" lon="2.47185">
        <ele>124</ele>
        <time>2020-06-11T11:34:25Z</time>
      </trkpt>
      <trkpt lat="43.2131" lon="2.47179">
        <ele>124</ele>
        <time>2020-06-11T11:34:26Z</time>
      </trkpt>
      <trkpt lat="43.21308" lon="2.47172">
        <ele>124</ele>
        <time>2020-06-11T11:34:27Z</time>
      </trkpt>
      <trkpt lat="43.21303" lon="2.47152">
        <ele>124</ele>
        <time>2020-06-11T11:34:30Z</time>
      </trkpt>
      <trkpt lat="43.21302" lon="2.47144">
        <ele>124</ele>
        <time>2020-06-11T11:34:31Z</time>
      </trkpt>
      <trkpt lat="43.21301" lon="2.47129">
        <ele>124</ele>
        <time>2020-06-11T11:34:33Z</time>
      </trkpt>
      <trkpt lat="43.21303" lon="2.47106">
        <ele>123</ele>
        <time>2020-06-11T11:34:36Z</time>
      </trkpt>
      <trkpt lat="43.21306" lon="2.47091">
        <ele>123</ele>
        <time>2020-06-11T11:34:38Z</time>
      </trkpt>
      <trkpt lat="43.21321" lon="2.47037">
        <ele>123</ele>
        <time>2020-06-11T11:34:45Z</time>
      </trkpt>
      <trkpt lat="43.21323" lon="2.47029">
        <ele>122</ele>
        <time>2020-06-11T11:34:46Z</time>
      </trkpt>
      <trkpt lat="43.21325" lon="2.47021">
        <ele>122</ele>
        <time>2020-06-11T11:34:47Z</time>
      </trkpt>
      <trkpt lat="43.21328" lon="2.47014">
        <ele>123</ele>
        <time>2020-06-11T11:34:48Z</time>
      </trkpt>
      <trkpt lat="43.21339" lon="2.46976">
        <ele>122</ele>
        <time>2020-06-11T11:34:53Z</time>
      </trkpt>
      <trkpt lat="43.21341" lon="2.46968">
        <ele>122</ele>
        <time>2020-06-11T11:34:54Z</time>
      </trkpt>
      <trkpt lat="43.21361" lon="2.46898">
        <ele>123</ele>
        <time>2020-06-11T11:35:03Z</time>
      </trkpt>
      <trkpt lat="43.21367" lon="2.46875">
        <ele>123</ele>
        <time>2020-06-11T11:35:06Z</time>
      </trkpt>
      <trkpt lat="43.21374" lon="2.46826">
        <ele>122</ele>
        <time>2020-06-11T11:35:12Z</time>
      </trkpt>
      <trkpt lat="43.2137" lon="2.46783">
        <ele>121</ele>
        <time>2020-06-11T11:35:17Z</time>
      </trkpt>
      <trkpt lat="43.21368" lon="2.46773">
        <ele>121</ele>
        <time>2020-06-11T11:35:18Z</time>
      </trkpt>
      <trkpt lat="43.21361" lon="2.46744">
        <ele>120</ele>
        <time>2020-06-11T11:35:21Z</time>
      </trkpt>
      <trkpt lat="43.21356" lon="2.46721">
        <ele>119</ele>
        <time>2020-06-11T11:35:23Z</time>
      </trkpt>
      <trkpt lat="43.21354" lon="2.4671">
        <ele>119</ele>
        <time>2020-06-11T11:35:24Z</time>
      </trkpt>
      <trkpt lat="43.21351" lon="2.46698">
        <ele>118</ele>
        <time>2020-06-11T11:35:25Z</time>
      </trkpt>
      <trkpt lat="43.21348" lon="2.46685">
        <ele>117</ele>
        <time>2020-06-11T11:35:26Z</time>
      </trkpt>
      <trkpt lat="43.21345" lon="2.46673">
        <ele>116</ele>
        <time>2020-06-11T11:35:27Z</time>
      </trkpt>
      <trkpt lat="43.21342" lon="2.4666">
        <ele>115</ele>
        <time>2020-06-11T11:35:28Z</time>
      </trkpt>
      <trkpt lat="43.2134" lon="2.46647">
        <ele>114</ele>
        <time>2020-06-11T11:35:29Z</time>
      </trkpt>
      <trkpt lat="43.21333" lon="2.4662">
        <ele>112</ele>
        <time>2020-06-11T11:35:31Z</time>
      </trkpt>
      <trkpt lat="43.2133" lon="2.46606">
        <ele>111</ele>
        <time>2020-06-11T11:35:32Z</time>
      </trkpt>
      <trkpt lat="43.21324" lon="2.46577">
        <ele>110</ele>
        <time>2020-06-11T11:35:34Z</time>
      </trkpt>
      <trkpt lat="43.21318" lon="2.46547">
        <ele>110</ele>
        <time>2020-06-11T11:35:36Z</time>
      </trkpt>
      <trkpt lat="43.21314" lon="2.46532">
        <ele>110</ele>
        <time>2020-06-11T11:35:37Z</time>
      </trkpt>
      <trkpt lat="43.21308" lon="2.46501">
        <ele>111</ele>
        <time>2020-06-11T11:35:39Z</time>
      </trkpt>
      <trkpt lat="43.21304" lon="2.46486">
        <ele>110</ele>
        <time>2020-06-11T11:35:40Z</time>
      </trkpt>
      <trkpt lat="43.21292" lon="2.46426">
        <ele>109</ele>
        <time>2020-06-11T11:35:44Z</time>
      </trkpt>
      <trkpt lat="43.21288" lon="2.46397">
        <ele>109</ele>
        <time>2020-06-11T11:35:46Z</time>
      </trkpt>
      <trkpt lat="43.21281" lon="2.46339">
        <ele>107</ele>
        <time>2020-06-11T11:35:50Z</time>
      </trkpt>
      <trkpt lat="43.21276" lon="2.4627">
        <ele>108</ele>
        <time>2020-06-11T11:35:55Z</time>
      </trkpt>
      <trkpt lat="43.21274" lon="2.46256">
        <ele>108</ele>
        <time>2020-06-11T11:35:56Z</time>
      </trkpt>
      <trkpt lat="43.21272" lon="2.46243">
        <ele>108</ele>
        <time>2020-06-11T11:35:57Z</time>
      </trkpt>
      <trkpt lat="43.21267" lon="2.46217">
        <ele>108</ele>
        <time>2020-06-11T11:35:59Z</time>
      </trkpt>
      <trkpt lat="43.2126" lon="2.46193">
        <ele>107</ele>
        <time>2020-06-11T11:36:01Z</time>
      </trkpt>
      <trkpt lat="43.21256" lon="2.46181">
        <ele>107</ele>
        <time>2020-06-11T11:36:02Z</time>
      </trkpt>
      <trkpt lat="43.21251" lon="2.46169">
        <ele>107</ele>
        <time>2020-06-11T11:36:03Z</time>
      </trkpt>
      <trkpt lat="43.2124" lon="2.46135">
        <ele>106</ele>
        <time>2020-06-11T11:36:06Z</time>
      </trkpt>
      <trkpt lat="43.21233" lon="2.46112">
        <ele>106</ele>
        <time>2020-06-11T11:36:08Z</time>
      </trkpt>
      <trkpt lat="43.2123" lon="2.46101">
        <ele>105</ele>
        <time>2020-06-11T11:36:09Z</time>
      </trkpt>
      <trkpt lat="43.21227" lon="2.4609">
        <ele>105</ele>
        <time>2020-06-11T11:36:10Z</time>
      </trkpt>
      <trkpt lat="43.21224" lon="2.46078">
        <ele>105</ele>
        <time>2020-06-11T11:36:11Z</time>
      </trkpt>
      <trkpt lat="43.21213" lon="2.46007">
        <ele>106</ele>
        <time>2020-06-11T11:36:17Z</time>
      </trkpt>
      <trkpt lat="43.21208" lon="2.45948">
        <ele>106</ele>
        <time>2020-06-11T11:36:22Z</time>
      </trkpt>
      <trkpt lat="43.21204" lon="2.459">
        <ele>106</ele>
        <time>2020-06-11T11:36:26Z</time>
      </trkpt>
      <trkpt lat="43.21203" lon="2.45888">
        <ele>105</ele>
        <time>2020-06-11T11:36:27Z</time>
      </trkpt>
      <trkpt lat="43.21194" lon="2.4583">
        <ele>104</ele>
        <time>2020-06-11T11:36:32Z</time>
      </trkpt>
      <trkpt lat="43.21188" lon="2.45796">
        <ele>104</ele>
        <time>2020-06-11T11:36:35Z</time>
      </trkpt>
      <trkpt lat="43.21186" lon="2.45785">
        <ele>103</ele>
        <time>2020-06-11T11:36:36Z</time>
      </trkpt>
      <trkpt lat="43.21183" lon="2.45763">
        <ele>103</ele>
        <time>2020-06-11T11:36:38Z</time>
      </trkpt>
      <trkpt lat="43.2118" lon="2.45731">
        <ele>104</ele>
        <time>2020-06-11T11:36:41Z</time>
      </trkpt>
      <trkpt lat="43.21178" lon="2.4571">
        <ele>103</ele>
        <time>2020-06-11T11:36:43Z</time>
      </trkpt>
      <trkpt lat="43.21175" lon="2.4567">
        <ele>103</ele>
        <time>2020-06-11T11:36:47Z</time>
      </trkpt>
      <trkpt lat="43.21173" lon="2.4564">
        <ele>103</ele>
        <time>2020-06-11T11:36:50Z</time>
      </trkpt>
      <trkpt lat="43.21172" lon="2.45621">
        <ele>104</ele>
        <time>2020-06-11T11:36:52Z</time>
      </trkpt>
      <trkpt lat="43.21167" lon="2.45546">
        <ele>106</ele>
        <time>2020-06-11T11:37:00Z</time>
      </trkpt>
      <trkpt lat="43.21166" lon="2.45537">
        <ele>106</ele>
        <time>2020-06-11T11:37:01Z</time>
      </trkpt>
      <trkpt lat="43.21164" lon="2.45503">
        <ele>107</ele>
        <time>2020-06-11T11:37:05Z</time>
      </trkpt>
      <trkpt lat="43.21159" lon="2.4547">
        <ele>107</ele>
        <time>2020-06-11T11:37:09Z</time>
      </trkpt>
      <trkpt lat="43.21143" lon="2.45415">
        <ele>107</ele>
        <time>2020-06-11T11:37:16Z</time>
      </trkpt>
      <trkpt lat="43.21123" lon="2.4537">
        <ele>105</ele>
        <time>2020-06-11T11:37:22Z</time>
      </trkpt>
      <trkpt lat="43.21122" lon="2.45351">
        <ele>104</ele>
        <time>2020-06-11T11:37:24Z</time>
      </trkpt>
      <trkpt lat="43.21122" lon="2.45342">
        <ele>103</ele>
        <time>2020-06-11T11:37:25Z</time>
      </trkpt>
      <trkpt lat="43.21122" lon="2.45333">
        <ele>103</ele>
        <time>2020-06-11T11:37:26Z</time>
      </trkpt>
      <trkpt lat="43.2112" lon="2.45324">
        <ele>102</ele>
        <time>2020-06-11T11:37:27Z</time>
      </trkpt>
      <trkpt lat="43.21116" lon="2.45314">
        <ele>102</ele>
        <time>2020-06-11T11:37:28Z</time>
      </trkpt>
      <trkpt lat="43.21109" lon="2.45295">
        <ele>101</ele>
        <time>2020-06-11T11:37:30Z</time>
      </trkpt>
      <trkpt lat="43.21106" lon="2.45285">
        <ele>101</ele>
        <time>2020-06-11T11:37:31Z</time>
      </trkpt>
      <trkpt lat="43.21105" lon="2.45273">
        <ele>101</ele>
        <time>2020-06-11T11:37:32Z</time>
      </trkpt>
      <trkpt lat="43.21101" lon="2.45237">
        <ele>101</ele>
        <time>2020-06-11T11:37:35Z</time>
      </trkpt>
      <trkpt lat="43.211" lon="2.45225">
        <ele>101</ele>
        <time>2020-06-11T11:37:36Z</time>
      </trkpt>
      <trkpt lat="43.21095" lon="2.45189">
        <ele>101</ele>
        <time>2020-06-11T11:37:39Z</time>
      </trkpt>
      <trkpt lat="43.21086" lon="2.45132">
        <ele>101</ele>
        <time>2020-06-11T11:37:44Z</time>
      </trkpt>
      <trkpt lat="43.21081" lon="2.45099">
        <ele>101</ele>
        <time>2020-06-11T11:37:47Z</time>
      </trkpt>
      <trkpt lat="43.2108" lon="2.45089">
        <ele>101</ele>
        <time>2020-06-11T11:37:48Z</time>
      </trkpt>
      <trkpt lat="43.21071" lon="2.45024">
        <ele>100</ele>
        <time>2020-06-11T11:37:55Z</time>
      </trkpt>
      <trkpt lat="43.21068" lon="2.44976">
        <ele>99</ele>
        <time>2020-06-11T11:38:00Z</time>
      </trkpt>
      <trkpt lat="43.21071" lon="2.44946">
        <ele>98</ele>
        <time>2020-06-11T11:38:04Z</time>
      </trkpt>
      <trkpt lat="43.21075" lon="2.44934">
        <ele>98</ele>
        <time>2020-06-11T11:38:07Z</time>
      </trkpt>
      <trkpt lat="43.21077" lon="2.44933">
        <ele>98</ele>
        <time>2020-06-11T11:38:08Z</time>
      </trkpt>
      <trkpt lat="43.21087" lon="2.44937">
        <ele>99</ele>
        <time>2020-06-11T11:38:12Z</time>
      </trkpt>
      <trkpt lat="43.2109" lon="2.44938">
        <ele>99</ele>
        <time>2020-06-11T11:38:13Z</time>
      </trkpt>
      <trkpt lat="43.21101" lon="2.44941">
        <ele>99</ele>
        <time>2020-06-11T11:38:18Z</time>
      </trkpt>
      <trkpt lat="43.211" lon="2.44938">
        <ele>99</ele>
        <time>2020-06-11T11:38:21Z</time>
      </trkpt>
      <trkpt lat="43.21089" lon="2.44936">
        <ele>99</ele>
        <time>2020-06-11T11:38:28Z</time>
      </trkpt>
      <trkpt lat="43.21088" lon="2.44936">
        <ele>99</ele>
        <time>2020-06-11T11:38:29Z</time>
      </trkpt>
      <trkpt lat="43.2108" lon="2.44937">
        <ele>98</ele>
        <time>2020-06-11T11:48:13Z</time>
      </trkpt>
      <trkpt lat="43.21079" lon="2.44937">
        <ele>98</ele>
        <time>2020-06-11T11:48:14Z</time>
      </trkpt>
      <trkpt lat="43.21077" lon="2.44937">
        <ele>98</ele>
        <time>2020-06-11T11:48:15Z</time>
      </trkpt>
      <trkpt lat="43.21075" lon="2.44938">
        <ele>98</ele>
        <time>2020-06-11T11:48:16Z</time>
      </trkpt>
      <trkpt lat="43.21074" lon="2.44939">
        <ele>98</ele>
        <time>2020-06-11T11:48:17Z</time>
      </trkpt>
      <trkpt lat="43.21072" lon="2.44946">
        <ele>98</ele>
        <time>2020-06-11T11:48:19Z</time>
      </trkpt>
      <trkpt lat="43.21071" lon="2.4495">
        <ele>98</ele>
        <time>2020-06-11T11:48:20Z</time>
      </trkpt>
      <trkpt lat="43.21068" lon="2.44962">
        <ele>99</ele>
        <time>2020-06-11T11:48:23Z</time>
      </trkpt>
      <trkpt lat="43.21067" lon="2.44977">
        <ele>99</ele>
        <time>2020-06-11T11:48:26Z</time>
      </trkpt>
      <trkpt lat="43.21067" lon="2.44982">
        <ele>99</ele>
        <time>2020-06-11T11:48:27Z</time>
      </trkpt>
      <trkpt lat="43.21067" lon="2.44987">
        <ele>99</ele>
        <time>2020-06-11T11:48:28Z</time>
      </trkpt>
      <trkpt lat="43.21067" lon="2.45007">
        <ele>100</ele>
        <time>2020-06-11T11:48:32Z</time>
      </trkpt>
      <trkpt lat="43.21068" lon="2.45012">
        <ele>100</ele>
        <time>2020-06-11T11:48:33Z</time>
      </trkpt>
      <trkpt lat="43.21071" lon="2.45038">
        <ele>101</ele>
        <time>2020-06-11T11:48:38Z</time>
      </trkpt>
      <trkpt lat="43.21072" lon="2.45043">
        <ele>101</ele>
        <time>2020-06-11T11:48:39Z</time>
      </trkpt>
      <trkpt lat="43.21073" lon="2.45049">
        <ele>101</ele>
        <time>2020-06-11T11:48:40Z</time>
      </trkpt>
      <trkpt lat="43.21074" lon="2.4506">
        <ele>101</ele>
        <time>2020-06-11T11:48:42Z</time>
      </trkpt>
      <trkpt lat="43.21076" lon="2.45075">
        <ele>101</ele>
        <time>2020-06-11T11:48:45Z</time>
      </trkpt>
      <trkpt lat="43.21077" lon="2.45079">
        <ele>101</ele>
        <time>2020-06-11T11:48:46Z</time>
      </trkpt>
      <trkpt lat="43.21079" lon="2.45093">
        <ele>101</ele>
        <time>2020-06-11T11:48:51Z</time>
      </trkpt>
      <trkpt lat="43.2108" lon="2.45094">
        <ele>101</ele>
        <time>2020-06-11T11:48:52Z</time>
      </trkpt>
      <trkpt lat="43.21081" lon="2.45097">
        <ele>101</ele>
        <time>2020-06-11T11:48:54Z</time>
      </trkpt>
      <trkpt lat="43.21082" lon="2.45104">
        <ele>101</ele>
        <time>2020-06-11T11:48:57Z</time>
      </trkpt>
      <trkpt lat="43.21082" lon="2.45117">
        <ele>100</ele>
        <time>2020-06-11T11:49:03Z</time>
      </trkpt>
      <trkpt lat="43.2108" lon="2.45121">
        <ele>100</ele>
        <time>2020-06-11T11:49:05Z</time>
      </trkpt>
      <trkpt lat="43.21076" lon="2.45122">
        <ele>100</ele>
        <time>2020-06-11T11:49:07Z</time>
      </trkpt>
      <trkpt lat="43.21073" lon="2.45115">
        <ele>100</ele>
        <time>2020-06-11T11:49:10Z</time>
      </trkpt>
      <trkpt lat="43.21072" lon="2.45113">
        <ele>100</ele>
        <time>2020-06-11T11:49:11Z</time>
      </trkpt>
      <trkpt lat="43.2107" lon="2.45098">
        <ele>101</ele>
        <time>2020-06-11T11:49:17Z</time>
      </trkpt>
      <trkpt lat="43.2107" lon="2.45095">
        <ele>101</ele>
        <time>2020-06-11T11:49:18Z</time>
      </trkpt>
      <trkpt lat="43.21066" lon="2.45077">
        <ele>101</ele>
        <time>2020-06-11T11:49:23Z</time>
      </trkpt>
      <trkpt lat="43.21065" lon="2.45072">
        <ele>101</ele>
        <time>2020-06-11T11:49:24Z</time>
      </trkpt>
      <trkpt lat="43.21063" lon="2.45054">
        <ele>101</ele>
        <time>2020-06-11T11:49:29Z</time>
      </trkpt>
      <trkpt lat="43.21061" lon="2.45053">
        <ele>101</ele>
        <time>2020-06-11T11:49:30Z</time>
      </trkpt>
      <trkpt lat="43.21058" lon="2.45055">
        <ele>101</ele>
        <time>2020-06-11T11:49:32Z</time>
      </trkpt>
      <trkpt lat="43.21061" lon="2.45065">
        <ele>101</ele>
        <time>2020-06-11T11:49:38Z</time>
      </trkpt>
      <trkpt lat="43.21061" lon="2.45075">
        <ele>101</ele>
        <time>2020-06-11T11:49:43Z</time>
      </trkpt>
      <trkpt lat="43.21062" lon="2.45079">
        <ele>101</ele>
        <time>2020-06-11T11:49:45Z</time>
      </trkpt>
      <trkpt lat="43.21065" lon="2.45086">
        <ele>101</ele>
        <time>2020-06-11T11:49:49Z</time>
      </trkpt>
      <trkpt lat="43.21067" lon="2.45094">
        <ele>101</ele>
        <time>2020-06-11T11:49:53Z</time>
      </trkpt>
      <trkpt lat="43.21068" lon="2.45098">
        <ele>101</ele>
        <time>2020-06-11T11:49:55Z</time>
      </trkpt>
      <trkpt lat="43.21068" lon="2.45102">
        <ele>101</ele>
        <time>2020-06-11T11:49:57Z</time>
      </trkpt>
      <trkpt lat="43.21071" lon="2.45108">
        <ele>101</ele>
        <time>2020-06-11T11:50:01Z</time>
      </trkpt>
      <trkpt lat="43.21071" lon="2.45109">
        <ele>101</ele>
        <time>2020-06-11T11:50:03Z</time>
      </trkpt>
      <trkpt lat="43.21075" lon="2.45119">
        <ele>100</ele>
        <time>2020-06-11T11:54:23Z</time>
      </trkpt>
      <trkpt lat="43.21076" lon="2.45121">
        <ele>100</ele>
        <time>2020-06-11T11:54:24Z</time>
      </trkpt>
      <trkpt lat="43.21078" lon="2.45123">
        <ele>100</ele>
        <time>2020-06-11T11:54:26Z</time>
      </trkpt>
      <trkpt lat="43.21084" lon="2.45127">
        <ele>101</ele>
        <time>2020-06-11T11:54:30Z</time>
      </trkpt>
      <trkpt lat="43.21085" lon="2.45129">
        <ele>101</ele>
        <time>2020-06-11T11:54:31Z</time>
      </trkpt>
      <trkpt lat="43.21088" lon="2.45144">
        <ele>100</ele>
        <time>2020-06-11T11:54:36Z</time>
      </trkpt>
      <trkpt lat="43.21092" lon="2.45172">
        <ele>100</ele>
        <time>2020-06-11T11:54:43Z</time>
      </trkpt>
      <trkpt lat="43.21098" lon="2.45211">
        <ele>101</ele>
        <time>2020-06-11T11:54:52Z</time>
      </trkpt>
      <trkpt lat="43.21099" lon="2.4522">
        <ele>101</ele>
        <time>2020-06-11T11:54:54Z</time>
      </trkpt>
      <trkpt lat="43.21101" lon="2.45234">
        <ele>101</ele>
        <time>2020-06-11T11:54:57Z</time>
      </trkpt>
      <trkpt lat="43.21101" lon="2.45243">
        <ele>101</ele>
        <time>2020-06-11T11:54:59Z</time>
      </trkpt>
      <trkpt lat="43.21102" lon="2.45257">
        <ele>101</ele>
        <time>2020-06-11T11:55:02Z</time>
      </trkpt>
      <trkpt lat="43.21101" lon="2.45267">
        <ele>101</ele>
        <time>2020-06-11T11:55:04Z</time>
      </trkpt>
      <trkpt lat="43.21101" lon="2.45294">
        <ele>101</ele>
        <time>2020-06-11T11:55:10Z</time>
      </trkpt>
      <trkpt lat="43.21098" lon="2.45314">
        <ele>102</ele>
        <time>2020-06-11T11:55:15Z</time>
      </trkpt>
      <trkpt lat="43.21095" lon="2.45322">
        <ele>102</ele>
        <time>2020-06-11T11:55:17Z</time>
      </trkpt>
      <trkpt lat="43.2109" lon="2.45345">
        <ele>103</ele>
        <time>2020-06-11T11:55:22Z</time>
      </trkpt>
      <trkpt lat="43.21096" lon="2.45361">
        <ele>104</ele>
        <time>2020-06-11T11:55:26Z</time>
      </trkpt>
      <trkpt lat="43.21099" lon="2.45364">
        <ele>104</ele>
        <time>2020-06-11T11:55:27Z</time>
      </trkpt>
      <trkpt lat="43.21108" lon="2.45373">
        <ele>104</ele>
        <time>2020-06-11T11:55:30Z</time>
      </trkpt>
      <trkpt lat="43.21117" lon="2.45382">
        <ele>105</ele>
        <time>2020-06-11T11:55:33Z</time>
      </trkpt>
      <trkpt lat="43.21124" lon="2.45393">
        <ele>106</ele>
        <time>2020-06-11T11:55:36Z</time>
      </trkpt>
      <trkpt lat="43.21126" lon="2.45396">
        <ele>106</ele>
        <time>2020-06-11T11:55:37Z</time>
      </trkpt>
      <trkpt lat="43.2113" lon="2.45403">
        <ele>107</ele>
        <time>2020-06-11T11:55:39Z</time>
      </trkpt>
      <trkpt lat="43.21132" lon="2.45407">
        <ele>107</ele>
        <time>2020-06-11T11:55:40Z</time>
      </trkpt>
      <trkpt lat="43.21134" lon="2.45411">
        <ele>107</ele>
        <time>2020-06-11T11:55:41Z</time>
      </trkpt>
      <trkpt lat="43.21151" lon="2.45449">
        <ele>108</ele>
        <time>2020-06-11T11:55:50Z</time>
      </trkpt>
      <trkpt lat="43.21155" lon="2.45463">
        <ele>107</ele>
        <time>2020-06-11T11:55:53Z</time>
      </trkpt>
      <trkpt lat="43.21156" lon="2.45468">
        <ele>107</ele>
        <time>2020-06-11T11:55:54Z</time>
      </trkpt>
      <trkpt lat="43.21157" lon="2.45474">
        <ele>107</ele>
        <time>2020-06-11T11:55:55Z</time>
      </trkpt>
      <trkpt lat="43.2116" lon="2.45489">
        <ele>107</ele>
        <time>2020-06-11T11:55:58Z</time>
      </trkpt>
      <trkpt lat="43.21164" lon="2.45524">
        <ele>106</ele>
        <time>2020-06-11T11:56:04Z</time>
      </trkpt>
      <trkpt lat="43.21165" lon="2.4553">
        <ele>106</ele>
        <time>2020-06-11T11:56:05Z</time>
      </trkpt>
      <trkpt lat="43.21166" lon="2.45547">
        <ele>106</ele>
        <time>2020-06-11T11:56:08Z</time>
      </trkpt>
      <trkpt lat="43.21167" lon="2.45575">
        <ele>105</ele>
        <time>2020-06-11T11:56:13Z</time>
      </trkpt>
      <trkpt lat="43.21169" lon="2.45592">
        <ele>104</ele>
        <time>2020-06-11T11:56:16Z</time>
      </trkpt>
      <trkpt lat="43.21172" lon="2.4564">
        <ele>103</ele>
        <time>2020-06-11T11:56:24Z</time>
      </trkpt>
      <trkpt lat="43.21173" lon="2.45646">
        <ele>103</ele>
        <time>2020-06-11T11:56:25Z</time>
      </trkpt>
      <trkpt lat="43.21174" lon="2.4567">
        <ele>103</ele>
        <time>2020-06-11T11:56:29Z</time>
      </trkpt>
      <trkpt lat="43.21175" lon="2.45682">
        <ele>103</ele>
        <time>2020-06-11T11:56:31Z</time>
      </trkpt>
      <trkpt lat="43.21177" lon="2.457">
        <ele>103</ele>
        <time>2020-06-11T11:56:34Z</time>
      </trkpt>
      <trkpt lat="43.21182" lon="2.45768">
        <ele>103</ele>
        <time>2020-06-11T11:56:45Z</time>
      </trkpt>
      <trkpt lat="43.21184" lon="2.4578">
        <ele>103</ele>
        <time>2020-06-11T11:56:47Z</time>
      </trkpt>
      <trkpt lat="43.21191" lon="2.45826">
        <ele>104</ele>
        <time>2020-06-11T11:56:55Z</time>
      </trkpt>
      <trkpt lat="43.21197" lon="2.45862">
        <ele>105</ele>
        <time>2020-06-11T11:57:01Z</time>
      </trkpt>
      <trkpt lat="43.212" lon="2.45879">
        <ele>105</ele>
        <time>2020-06-11T11:57:04Z</time>
      </trkpt>
      <trkpt lat="43.21205" lon="2.45935">
        <ele>106</ele>
        <time>2020-06-11T11:57:14Z</time>
      </trkpt>
      <trkpt lat="43.21209" lon="2.45981">
        <ele>107</ele>
        <time>2020-06-11T11:57:22Z</time>
      </trkpt>
      <trkpt lat="43.2121" lon="2.45998">
        <ele>107</ele>
        <time>2020-06-11T11:57:25Z</time>
      </trkpt>
      <trkpt lat="43.21211" lon="2.4601">
        <ele>106</ele>
        <time>2020-06-11T11:57:27Z</time>
      </trkpt>
      <trkpt lat="43.21214" lon="2.46033">
        <ele>105</ele>
        <time>2020-06-11T11:57:31Z</time>
      </trkpt>
      <trkpt lat="43.21215" lon="2.46045">
        <ele>105</ele>
        <time>2020-06-11T11:57:33Z</time>
      </trkpt>
      <trkpt lat="43.21216" lon="2.46057">
        <ele>105</ele>
        <time>2020-06-11T11:57:35Z</time>
      </trkpt>
      <trkpt lat="43.21217" lon="2.46063">
        <ele>105</ele>
        <time>2020-06-11T11:57:36Z</time>
      </trkpt>
      <trkpt lat="43.2122" lon="2.46074">
        <ele>105</ele>
        <time>2020-06-11T11:57:38Z</time>
      </trkpt>
      <trkpt lat="43.21229" lon="2.46113">
        <ele>106</ele>
        <time>2020-06-11T11:57:45Z</time>
      </trkpt>
      <trkpt lat="43.21233" lon="2.46125">
        <ele>106</ele>
        <time>2020-06-11T11:57:47Z</time>
      </trkpt>
      <trkpt lat="43.21234" lon="2.4613">
        <ele>106</ele>
        <time>2020-06-11T11:57:48Z</time>
      </trkpt>
      <trkpt lat="43.2124" lon="2.46147">
        <ele>106</ele>
        <time>2020-06-11T11:57:51Z</time>
      </trkpt>
      <trkpt lat="43.21242" lon="2.46153">
        <ele>106</ele>
        <time>2020-06-11T11:57:52Z</time>
      </trkpt>
      <trkpt lat="43.21248" lon="2.46171">
        <ele>107</ele>
        <time>2020-06-11T11:57:55Z</time>
      </trkpt>
      <trkpt lat="43.21254" lon="2.46188">
        <ele>107</ele>
        <time>2020-06-11T11:57:58Z</time>
      </trkpt>
      <trkpt lat="43.21256" lon="2.46194">
        <ele>107</ele>
        <time>2020-06-11T11:57:59Z</time>
      </trkpt>
      <trkpt lat="43.21266" lon="2.4623">
        <ele>108</ele>
        <time>2020-06-11T11:58:05Z</time>
      </trkpt>
      <trkpt lat="43.21267" lon="2.46236">
        <ele>108</ele>
        <time>2020-06-11T11:58:06Z</time>
      </trkpt>
      <trkpt lat="43.21273" lon="2.46272">
        <ele>108</ele>
        <time>2020-06-11T11:58:12Z</time>
      </trkpt>
      <trkpt lat="43.21275" lon="2.46284">
        <ele>107</ele>
        <time>2020-06-11T11:58:14Z</time>
      </trkpt>
      <trkpt lat="43.21276" lon="2.4629">
        <ele>107</ele>
        <time>2020-06-11T11:58:15Z</time>
      </trkpt>
      <trkpt lat="43.21279" lon="2.46327">
        <ele>107</ele>
        <time>2020-06-11T11:58:21Z</time>
      </trkpt>
      <trkpt lat="43.21281" lon="2.46346">
        <ele>107</ele>
        <time>2020-06-11T11:58:24Z</time>
      </trkpt>
      <trkpt lat="43.21284" lon="2.46372">
        <ele>108</ele>
        <time>2020-06-11T11:58:28Z</time>
      </trkpt>
      <trkpt lat="43.21284" lon="2.46378">
        <ele>108</ele>
        <time>2020-06-11T11:58:29Z</time>
      </trkpt>
      <trkpt lat="43.21287" lon="2.46397">
        <ele>109</ele>
        <time>2020-06-11T11:58:32Z</time>
      </trkpt>
      <trkpt lat="43.21288" lon="2.4641">
        <ele>109</ele>
        <time>2020-06-11T11:58:34Z</time>
      </trkpt>
      <trkpt lat="43.21291" lon="2.46429">
        <ele>109</ele>
        <time>2020-06-11T11:58:37Z</time>
      </trkpt>
      <trkpt lat="43.21298" lon="2.46466">
        <ele>109</ele>
        <time>2020-06-11T11:58:43Z</time>
      </trkpt>
      <trkpt lat="43.21301" lon="2.46478">
        <ele>110</ele>
        <time>2020-06-11T11:58:45Z</time>
      </trkpt>
      <trkpt lat="43.21309" lon="2.4652">
        <ele>111</ele>
        <time>2020-06-11T11:58:52Z</time>
      </trkpt>
      <trkpt lat="43.21312" lon="2.46532">
        <ele>110</ele>
        <time>2020-06-11T11:58:54Z</time>
      </trkpt>
      <trkpt lat="43.21317" lon="2.46554">
        <ele>110</ele>
        <time>2020-06-11T11:58:58Z</time>
      </trkpt>
      <trkpt lat="43.21319" lon="2.46565">
        <ele>110</ele>
        <time>2020-06-11T11:59:00Z</time>
      </trkpt>
      <trkpt lat="43.21323" lon="2.46581">
        <ele>110</ele>
        <time>2020-06-11T11:59:03Z</time>
      </trkpt>
      <trkpt lat="43.21324" lon="2.46587">
        <ele>110</ele>
        <time>2020-06-11T11:59:04Z</time>
      </trkpt>
      <trkpt lat="43.21325" lon="2.46592">
        <ele>110</ele>
        <time>2020-06-11T11:59:05Z</time>
      </trkpt>
      <trkpt lat="43.21326" lon="2.46597">
        <ele>110</ele>
        <time>2020-06-11T11:59:06Z</time>
      </trkpt>
      <trkpt lat="43.21328" lon="2.46607">
        <ele>111</ele>
        <time>2020-06-11T11:59:08Z</time>
      </trkpt>
      <trkpt lat="43.21329" lon="2.46612">
        <ele>111</ele>
        <time>2020-06-11T11:59:09Z</time>
      </trkpt>
      <trkpt lat="43.21335" lon="2.46641">
        <ele>113</ele>
        <time>2020-06-11T11:59:15Z</time>
      </trkpt>
      <trkpt lat="43.21337" lon="2.46651">
        <ele>114</ele>
        <time>2020-06-11T11:59:17Z</time>
      </trkpt>
      <trkpt lat="43.21346" lon="2.4669">
        <ele>118</ele>
        <time>2020-06-11T11:59:25Z</time>
      </trkpt>
      <trkpt lat="43.21351" lon="2.46716">
        <ele>119</ele>
        <time>2020-06-11T11:59:30Z</time>
      </trkpt>
      <trkpt lat="43.21354" lon="2.46726">
        <ele>119</ele>
        <time>2020-06-11T11:59:32Z</time>
      </trkpt>
      <trkpt lat="43.21355" lon="2.46732">
        <ele>120</ele>
        <time>2020-06-11T11:59:33Z</time>
      </trkpt>
      <trkpt lat="43.21362" lon="2.46762">
        <ele>121</ele>
        <time>2020-06-11T11:59:39Z</time>
      </trkpt>
      <trkpt lat="43.21364" lon="2.46773">
        <ele>121</ele>
        <time>2020-06-11T11:59:41Z</time>
      </trkpt>
      <trkpt lat="43.21366" lon="2.46783">
        <ele>121</ele>
        <time>2020-06-11T11:59:43Z</time>
      </trkpt>
      <trkpt lat="43.21367" lon="2.46793">
        <ele>121</ele>
        <time>2020-06-11T11:59:45Z</time>
      </trkpt>
      <trkpt lat="43.21368" lon="2.46798">
        <ele>122</ele>
        <time>2020-06-11T11:59:46Z</time>
      </trkpt>
      <trkpt lat="43.2137" lon="2.46815">
        <ele>122</ele>
        <time>2020-06-11T11:59:49Z</time>
      </trkpt>
      <trkpt lat="43.21368" lon="2.46861">
        <ele>123</ele>
        <time>2020-06-11T11:59:57Z</time>
      </trkpt>
      <trkpt lat="43.21367" lon="2.46866">
        <ele>123</ele>
        <time>2020-06-11T11:59:58Z</time>
      </trkpt>
      <trkpt lat="43.21357" lon="2.46906">
        <ele>123</ele>
        <time>2020-06-11T12:00:05Z</time>
      </trkpt>
      <trkpt lat="43.21355" lon="2.46912">
        <ele>123</ele>
        <time>2020-06-11T12:00:06Z</time>
      </trkpt>
      <trkpt lat="43.21353" lon="2.46917">
        <ele>123</ele>
        <time>2020-06-11T12:00:07Z</time>
      </trkpt>
      <trkpt lat="43.21348" lon="2.46934">
        <ele>123</ele>
        <time>2020-06-11T12:00:10Z</time>
      </trkpt>
      <trkpt lat="43.21344" lon="2.4695">
        <ele>122</ele>
        <time>2020-06-11T12:00:13Z</time>
      </trkpt>
      <trkpt lat="43.21339" lon="2.46967">
        <ele>122</ele>
        <time>2020-06-11T12:00:16Z</time>
      </trkpt>
      <trkpt lat="43.21338" lon="2.46972">
        <ele>122</ele>
        <time>2020-06-11T12:00:17Z</time>
      </trkpt>
      <trkpt lat="43.21331" lon="2.46993">
        <ele>122</ele>
        <time>2020-06-11T12:00:21Z</time>
      </trkpt>
      <trkpt lat="43.21321" lon="2.47029">
        <ele>122</ele>
        <time>2020-06-11T12:00:27Z</time>
      </trkpt>
      <trkpt lat="43.21306" lon="2.47084">
        <ele>123</ele>
        <time>2020-06-11T12:00:36Z</time>
      </trkpt>
      <trkpt lat="43.21299" lon="2.4713">
        <ele>123</ele>
        <time>2020-06-11T12:00:43Z</time>
      </trkpt>
      <trkpt lat="43.21301" lon="2.47156">
        <ele>124</ele>
        <time>2020-06-11T12:00:47Z</time>
      </trkpt>
      <trkpt lat="43.21304" lon="2.47169">
        <ele>124</ele>
        <time>2020-06-11T12:00:49Z</time>
      </trkpt>
      <trkpt lat="43.21309" lon="2.47181">
        <ele>124</ele>
        <time>2020-06-11T12:00:51Z</time>
      </trkpt>
      <trkpt lat="43.21311" lon="2.47186">
        <ele>124</ele>
        <time>2020-06-11T12:00:52Z</time>
      </trkpt>
      <trkpt lat="43.2132" lon="2.47202">
        <ele>123</ele>
        <time>2020-06-11T12:00:55Z</time>
      </trkpt>
      <trkpt lat="43.21328" lon="2.47211">
        <ele>122</ele>
        <time>2020-06-11T12:00:57Z</time>
      </trkpt>
      <trkpt lat="43.21332" lon="2.47215">
        <ele>122</ele>
        <time>2020-06-11T12:00:58Z</time>
      </trkpt>
      <trkpt lat="43.21336" lon="2.47218">
        <ele>122</ele>
        <time>2020-06-11T12:00:59Z</time>
      </trkpt>
      <trkpt lat="43.21341" lon="2.47221">
        <ele>122</ele>
        <time>2020-06-11T12:01:00Z</time>
      </trkpt>
      <trkpt lat="43.21346" lon="2.47224">
        <ele>122</ele>
        <time>2020-06-11T12:01:01Z</time>
      </trkpt>
      <trkpt lat="43.21355" lon="2.47229">
        <ele>122</ele>
        <time>2020-06-11T12:01:03Z</time>
      </trkpt>
      <trkpt lat="43.2136" lon="2.47231">
        <ele>122</ele>
        <time>2020-06-11T12:01:04Z</time>
      </trkpt>
      <trkpt lat="43.21365" lon="2.47232">
        <ele>122</ele>
        <time>2020-06-11T12:01:05Z</time>
      </trkpt>
      <trkpt lat="43.2137" lon="2.47233">
        <ele>122</ele>
        <time>2020-06-11T12:01:06Z</time>
      </trkpt>
      <trkpt lat="43.21379" lon="2.47235">
        <ele>122</ele>
        <time>2020-06-11T12:01:08Z</time>
      </trkpt>
      <trkpt lat="43.21389" lon="2.47236">
        <ele>121</ele>
        <time>2020-06-11T12:01:10Z</time>
      </trkpt>
      <trkpt lat="43.21404" lon="2.47235">
        <ele>121</ele>
        <time>2020-06-11T12:01:13Z</time>
      </trkpt>
      <trkpt lat="43.21431" lon="2.47234">
        <ele>121</ele>
        <time>2020-06-11T12:01:19Z</time>
      </trkpt>
      <trkpt lat="43.21435" lon="2.47233">
        <ele>121</ele>
        <time>2020-06-11T12:01:20Z</time>
      </trkpt>
      <trkpt lat="43.21439" lon="2.47233">
        <ele>122</ele>
        <time>2020-06-11T12:01:21Z</time>
      </trkpt>
      <trkpt lat="43.21443" lon="2.47233">
        <ele>122</ele>
        <time>2020-06-11T12:01:22Z</time>
      </trkpt>
      <trkpt lat="43.21455" lon="2.47233">
        <ele>122</ele>
        <time>2020-06-11T12:01:25Z</time>
      </trkpt>
      <trkpt lat="43.21484" lon="2.47231">
        <ele>123</ele>
        <time>2020-06-11T12:01:32Z</time>
      </trkpt>
      <trkpt lat="43.21508" lon="2.47233">
        <ele>123</ele>
        <time>2020-06-11T12:01:37Z</time>
      </trkpt>
      <trkpt lat="43.21513" lon="2.47233">
        <ele>123</ele>
        <time>2020-06-11T12:01:38Z</time>
      </trkpt>
      <trkpt lat="43.21539" lon="2.47241">
        <ele>122</ele>
        <time>2020-06-11T12:01:43Z</time>
      </trkpt>
      <trkpt lat="43.21548" lon="2.47244">
        <ele>122</ele>
        <time>2020-06-11T12:01:45Z</time>
      </trkpt>
      <trkpt lat="43.2156" lon="2.47248">
        <ele>122</ele>
        <time>2020-06-11T12:01:49Z</time>
      </trkpt>
      <trkpt lat="43.21563" lon="2.47249">
        <ele>122</ele>
        <time>2020-06-11T12:01:50Z</time>
      </trkpt>
      <trkpt lat="43.21573" lon="2.4725">
        <ele>122</ele>
        <time>2020-06-11T12:01:55Z</time>
      </trkpt>
      <trkpt lat="43.21583" lon="2.47255">
        <ele>122</ele>
        <time>2020-06-11T12:01:59Z</time>
      </trkpt>
      <trkpt lat="43.21596" lon="2.47261">
        <ele>122</ele>
        <time>2020-06-11T12:02:02Z</time>
      </trkpt>
      <trkpt lat="43.216" lon="2.47265">
        <ele>122</ele>
        <time>2020-06-11T12:02:03Z</time>
      </trkpt>
      <trkpt lat="43.21605" lon="2.47269">
        <ele>121</ele>
        <time>2020-06-11T12:02:04Z</time>
      </trkpt>
      <trkpt lat="43.21612" lon="2.47283">
        <ele>121</ele>
        <time>2020-06-11T12:02:06Z</time>
      </trkpt>
      <trkpt lat="43.21613" lon="2.47291">
        <ele>121</ele>
        <time>2020-06-11T12:02:07Z</time>
      </trkpt>
      <trkpt lat="43.21618" lon="2.47311">
        <ele>121</ele>
        <time>2020-06-11T12:02:10Z</time>
      </trkpt>
      <trkpt lat="43.2162" lon="2.47317">
        <ele>121</ele>
        <time>2020-06-11T12:02:11Z</time>
      </trkpt>
      <trkpt lat="43.21623" lon="2.47323">
        <ele>121</ele>
        <time>2020-06-11T12:02:12Z</time>
      </trkpt>
      <trkpt lat="43.21637" lon="2.47344">
        <ele>122</ele>
        <time>2020-06-11T12:02:16Z</time>
      </trkpt>
      <trkpt lat="43.21642" lon="2.47347">
        <ele>122</ele>
        <time>2020-06-11T12:02:17Z</time>
      </trkpt>
      <trkpt lat="43.21661" lon="2.47358">
        <ele>122</ele>
        <time>2020-06-11T12:02:22Z</time>
      </trkpt>
      <trkpt lat="43.21667" lon="2.47361">
        <ele>122</ele>
        <time>2020-06-11T12:02:24Z</time>
      </trkpt>
      <trkpt lat="43.21672" lon="2.4737">
        <ele>122</ele>
        <time>2020-06-11T12:02:26Z</time>
      </trkpt>
      <trkpt lat="43.21674" lon="2.47382">
        <ele>123</ele>
        <time>2020-06-11T12:02:28Z</time>
      </trkpt>
      <trkpt lat="43.21674" lon="2.47394">
        <ele>123</ele>
        <time>2020-06-11T12:02:30Z</time>
      </trkpt>
      <trkpt lat="43.21674" lon="2.47407">
        <ele>124</ele>
        <time>2020-06-11T12:02:32Z</time>
      </trkpt>
      <trkpt lat="43.21676" lon="2.47425">
        <ele>124</ele>
        <time>2020-06-11T12:02:35Z</time>
      </trkpt>
      <trkpt lat="43.21676" lon="2.47456">
        <ele>124</ele>
        <time>2020-06-11T12:02:40Z</time>
      </trkpt>
      <trkpt lat="43.21675" lon="2.47479">
        <ele>124</ele>
        <time>2020-06-11T12:02:44Z</time>
      </trkpt>
      <trkpt lat="43.21675" lon="2.47485">
        <ele>124</ele>
        <time>2020-06-11T12:02:45Z</time>
      </trkpt>
      <trkpt lat="43.21675" lon="2.47491">
        <ele>124</ele>
        <time>2020-06-11T12:02:46Z</time>
      </trkpt>
      <trkpt lat="43.21675" lon="2.47517">
        <ele>124</ele>
        <time>2020-06-11T12:02:50Z</time>
      </trkpt>
      <trkpt lat="43.21675" lon="2.47535">
        <ele>124</ele>
        <time>2020-06-11T12:02:53Z</time>
      </trkpt>
      <trkpt lat="43.21677" lon="2.47547">
        <ele>124</ele>
        <time>2020-06-11T12:02:55Z</time>
      </trkpt>
      <trkpt lat="43.21679" lon="2.47552">
        <ele>124</ele>
        <time>2020-06-11T12:02:56Z</time>
      </trkpt>
      <trkpt lat="43.21682" lon="2.4757">
        <ele>125</ele>
        <time>2020-06-11T12:02:59Z</time>
      </trkpt>
      <trkpt lat="43.21692" lon="2.4761">
        <ele>124</ele>
        <time>2020-06-11T12:03:06Z</time>
      </trkpt>
      <trkpt lat="43.21695" lon="2.47623">
        <ele>125</ele>
        <time>2020-06-11T12:03:08Z</time>
      </trkpt>
      <trkpt lat="43.21702" lon="2.47652">
        <ele>125</ele>
        <time>2020-06-11T12:03:13Z</time>
      </trkpt>
      <trkpt lat="43.21705" lon="2.47666">
        <ele>125</ele>
        <time>2020-06-11T12:03:15Z</time>
      </trkpt>
      <trkpt lat="43.21706" lon="2.47679">
        <ele>125</ele>
        <time>2020-06-11T12:03:17Z</time>
      </trkpt>
      <trkpt lat="43.21707" lon="2.477">
        <ele>125</ele>
        <time>2020-06-11T12:03:20Z</time>
      </trkpt>
      <trkpt lat="43.21707" lon="2.47713">
        <ele>125</ele>
        <time>2020-06-11T12:03:22Z</time>
      </trkpt>
      <trkpt lat="43.21705" lon="2.47761">
        <ele>126</ele>
        <time>2020-06-11T12:03:29Z</time>
      </trkpt>
      <trkpt lat="43.21699" lon="2.4782">
        <ele>125</ele>
        <time>2020-06-11T12:03:38Z</time>
      </trkpt>
      <trkpt lat="43.21697" lon="2.47846">
        <ele>124</ele>
        <time>2020-06-11T12:03:42Z</time>
      </trkpt>
      <trkpt lat="43.21696" lon="2.47853">
        <ele>124</ele>
        <time>2020-06-11T12:03:43Z</time>
      </trkpt>
      <trkpt lat="43.21693" lon="2.47869">
        <ele>123</ele>
        <time>2020-06-11T12:03:45Z</time>
      </trkpt>
      <trkpt lat="43.21692" lon="2.47877">
        <ele>123</ele>
        <time>2020-06-11T12:03:46Z</time>
      </trkpt>
      <trkpt lat="43.21687" lon="2.47905">
        <ele>123</ele>
        <time>2020-06-11T12:03:49Z</time>
      </trkpt>
      <trkpt lat="43.21684" lon="2.47914">
        <ele>123</ele>
        <time>2020-06-11T12:03:50Z</time>
      </trkpt>
      <trkpt lat="43.21682" lon="2.47923">
        <ele>122</ele>
        <time>2020-06-11T12:03:51Z</time>
      </trkpt>
      <trkpt lat="43.21676" lon="2.47942">
        <ele>122</ele>
        <time>2020-06-11T12:03:53Z</time>
      </trkpt>
      <trkpt lat="43.21663" lon="2.47983">
        <ele>121</ele>
        <time>2020-06-11T12:03:57Z</time>
      </trkpt>
      <trkpt lat="43.21659" lon="2.47994">
        <ele>120</ele>
        <time>2020-06-11T12:03:58Z</time>
      </trkpt>
      <trkpt lat="43.21656" lon="2.48005">
        <ele>120</ele>
        <time>2020-06-11T12:03:59Z</time>
      </trkpt>
      <trkpt lat="43.21653" lon="2.48016">
        <ele>119</ele>
        <time>2020-06-11T12:04:00Z</time>
      </trkpt>
      <trkpt lat="43.2165" lon="2.48027">
        <ele>118</ele>
        <time>2020-06-11T12:04:01Z</time>
      </trkpt>
      <trkpt lat="43.21646" lon="2.48038">
        <ele>117</ele>
        <time>2020-06-11T12:04:02Z</time>
      </trkpt>
      <trkpt lat="43.21643" lon="2.48049">
        <ele>116</ele>
        <time>2020-06-11T12:04:03Z</time>
      </trkpt>
      <trkpt lat="43.21639" lon="2.4806">
        <ele>115</ele>
        <time>2020-06-11T12:04:04Z</time>
      </trkpt>
      <trkpt lat="43.21627" lon="2.48095">
        <ele>113</ele>
        <time>2020-06-11T12:04:07Z</time>
      </trkpt>
      <trkpt lat="43.21619" lon="2.48119">
        <ele>112</ele>
        <time>2020-06-11T12:04:09Z</time>
      </trkpt>
      <trkpt lat="43.21607" lon="2.48158">
        <ele>107</ele>
        <time>2020-06-11T12:04:12Z</time>
      </trkpt>
      <trkpt lat="43.21604" lon="2.48172">
        <ele>106</ele>
        <time>2020-06-11T12:04:13Z</time>
      </trkpt>
      <trkpt lat="43.21601" lon="2.48186">
        <ele>105</ele>
        <time>2020-06-11T12:04:14Z</time>
      </trkpt>
      <trkpt lat="43.21598" lon="2.482">
        <ele>105</ele>
        <time>2020-06-11T12:04:15Z</time>
      </trkpt>
      <trkpt lat="43.21592" lon="2.48229">
        <ele>104</ele>
        <time>2020-06-11T12:04:17Z</time>
      </trkpt>
      <trkpt lat="43.2159" lon="2.48242">
        <ele>104</ele>
        <time>2020-06-11T12:04:18Z</time>
      </trkpt>
      <trkpt lat="43.21587" lon="2.48256">
        <ele>103</ele>
        <time>2020-06-11T12:04:19Z</time>
      </trkpt>
      <trkpt lat="43.21585" lon="2.4827">
        <ele>103</ele>
        <time>2020-06-11T12:04:20Z</time>
      </trkpt>
      <trkpt lat="43.21575" lon="2.48322">
        <ele>102</ele>
        <time>2020-06-11T12:04:24Z</time>
      </trkpt>
      <trkpt lat="43.2157" lon="2.48346">
        <ele>102</ele>
        <time>2020-06-11T12:04:26Z</time>
      </trkpt>
      <trkpt lat="43.21564" lon="2.48369">
        <ele>102</ele>
        <time>2020-06-11T12:04:28Z</time>
      </trkpt>
      <trkpt lat="43.21559" lon="2.48391">
        <ele>102</ele>
        <time>2020-06-11T12:04:30Z</time>
      </trkpt>
      <trkpt lat="43.21555" lon="2.48413">
        <ele>101</ele>
        <time>2020-06-11T12:04:32Z</time>
      </trkpt>
      <trkpt lat="43.21552" lon="2.48424">
        <ele>101</ele>
        <time>2020-06-11T12:04:33Z</time>
      </trkpt>
      <trkpt lat="43.21546" lon="2.48454">
        <ele>100</ele>
        <time>2020-06-11T12:04:36Z</time>
      </trkpt>
      <trkpt lat="43.21541" lon="2.48482">
        <ele>99</ele>
        <time>2020-06-11T12:04:39Z</time>
      </trkpt>
      <trkpt lat="43.2154" lon="2.48491">
        <ele>99</ele>
        <time>2020-06-11T12:04:40Z</time>
      </trkpt>
      <trkpt lat="43.21533" lon="2.48552">
        <ele>100</ele>
        <time>2020-06-11T12:04:47Z</time>
      </trkpt>
      <trkpt lat="43.21528" lon="2.48585">
        <ele>98</ele>
        <time>2020-06-11T12:04:51Z</time>
      </trkpt>
      <trkpt lat="43.21522" lon="2.48624">
        <ele>98</ele>
        <time>2020-06-11T12:04:56Z</time>
      </trkpt>
      <trkpt lat="43.21518" lon="2.48648">
        <ele>98</ele>
        <time>2020-06-11T12:04:59Z</time>
      </trkpt>
      <trkpt lat="43.21507" lon="2.48696">
        <ele>98</ele>
        <time>2020-06-11T12:05:05Z</time>
      </trkpt>
      <trkpt lat="43.21505" lon="2.48703">
        <ele>98</ele>
        <time>2020-06-11T12:05:06Z</time>
      </trkpt>
      <trkpt lat="43.21493" lon="2.48767">
        <ele>98</ele>
        <time>2020-06-11T12:05:14Z</time>
      </trkpt>
      <trkpt lat="43.21491" lon="2.48774">
        <ele>98</ele>
        <time>2020-06-11T12:05:15Z</time>
      </trkpt>
      <trkpt lat="43.21486" lon="2.48804">
        <ele>97</ele>
        <time>2020-06-11T12:05:19Z</time>
      </trkpt>
      <trkpt lat="43.21479" lon="2.48842">
        <ele>98</ele>
        <time>2020-06-11T12:05:24Z</time>
      </trkpt>
      <trkpt lat="43.21474" lon="2.48864">
        <ele>98</ele>
        <time>2020-06-11T12:05:27Z</time>
      </trkpt>
      <trkpt lat="43.21469" lon="2.48886">
        <ele>97</ele>
        <time>2020-06-11T12:05:30Z</time>
      </trkpt>
      <trkpt lat="43.21462" lon="2.48922">
        <ele>98</ele>
        <time>2020-06-11T12:05:35Z</time>
      </trkpt>
      <trkpt lat="43.21457" lon="2.48959">
        <ele>98</ele>
        <time>2020-06-11T12:05:40Z</time>
      </trkpt>
      <trkpt lat="43.21456" lon="2.48981">
        <ele>98</ele>
        <time>2020-06-11T12:05:43Z</time>
      </trkpt>
      <trkpt lat="43.21458" lon="2.49033">
        <ele>98</ele>
        <time>2020-06-11T12:05:50Z</time>
      </trkpt>
      <trkpt lat="43.21458" lon="2.4904">
        <ele>98</ele>
        <time>2020-06-11T12:05:51Z</time>
      </trkpt>
      <trkpt lat="43.21462" lon="2.49077">
        <ele>98</ele>
        <time>2020-06-11T12:05:56Z</time>
      </trkpt>
      <trkpt lat="43.21464" lon="2.49092">
        <ele>98</ele>
        <time>2020-06-11T12:05:58Z</time>
      </trkpt>
      <trkpt lat="43.21464" lon="2.49099">
        <ele>98</ele>
        <time>2020-06-11T12:05:59Z</time>
      </trkpt>
      <trkpt lat="43.21467" lon="2.49122">
        <ele>98</ele>
        <time>2020-06-11T12:06:02Z</time>
      </trkpt>
      <trkpt lat="43.21469" lon="2.49151">
        <ele>98</ele>
        <time>2020-06-11T12:06:06Z</time>
      </trkpt>
      <trkpt lat="43.2147" lon="2.49166">
        <ele>98</ele>
        <time>2020-06-11T12:06:08Z</time>
      </trkpt>
      <trkpt lat="43.21471" lon="2.49187">
        <ele>99</ele>
        <time>2020-06-11T12:06:11Z</time>
      </trkpt>
      <trkpt lat="43.2147" lon="2.49215">
        <ele>100</ele>
        <time>2020-06-11T12:06:15Z</time>
      </trkpt>
      <trkpt lat="43.21469" lon="2.49235">
        <ele>100</ele>
        <time>2020-06-11T12:06:18Z</time>
      </trkpt>
      <trkpt lat="43.21469" lon="2.49241">
        <ele>100</ele>
        <time>2020-06-11T12:06:19Z</time>
      </trkpt>
      <trkpt lat="43.21469" lon="2.49247">
        <ele>100</ele>
        <time>2020-06-11T12:06:20Z</time>
      </trkpt>
      <trkpt lat="43.21468" lon="2.4926">
        <ele>101</ele>
        <time>2020-06-11T12:06:22Z</time>
      </trkpt>
      <trkpt lat="43.21467" lon="2.49273">
        <ele>101</ele>
        <time>2020-06-11T12:06:24Z</time>
      </trkpt>
      <trkpt lat="43.21466" lon="2.4928">
        <ele>102</ele>
        <time>2020-06-11T12:06:25Z</time>
      </trkpt>
      <trkpt lat="43.21466" lon="2.493">
        <ele>102</ele>
        <time>2020-06-11T12:06:28Z</time>
      </trkpt>
      <trkpt lat="43.21466" lon="2.49327">
        <ele>102</ele>
        <time>2020-06-11T12:06:32Z</time>
      </trkpt>
      <trkpt lat="43.21466" lon="2.49334">
        <ele>103</ele>
        <time>2020-06-11T12:06:33Z</time>
      </trkpt>
      <trkpt lat="43.21466" lon="2.4934">
        <ele>103</ele>
        <time>2020-06-11T12:06:34Z</time>
      </trkpt>
      <trkpt lat="43.21468" lon="2.49353">
        <ele>103</ele>
        <time>2020-06-11T12:06:36Z</time>
      </trkpt>
      <trkpt lat="43.21471" lon="2.49373">
        <ele>103</ele>
        <time>2020-06-11T12:06:39Z</time>
      </trkpt>
      <trkpt lat="43.21482" lon="2.49417">
        <ele>106</ele>
        <time>2020-06-11T12:06:46Z</time>
      </trkpt>
      <trkpt lat="43.21498" lon="2.49463">
        <ele>108</ele>
        <time>2020-06-11T12:06:54Z</time>
      </trkpt>
      <trkpt lat="43.21505" lon="2.49479">
        <ele>109</ele>
        <time>2020-06-11T12:06:57Z</time>
      </trkpt>
      <trkpt lat="43.21516" lon="2.49507">
        <ele>108</ele>
        <time>2020-06-11T12:07:02Z</time>
      </trkpt>
      <trkpt lat="43.21526" lon="2.49524">
        <ele>107</ele>
        <time>2020-06-11T12:07:05Z</time>
      </trkpt>
      <trkpt lat="43.21529" lon="2.4953">
        <ele>106</ele>
        <time>2020-06-11T12:07:06Z</time>
      </trkpt>
      <trkpt lat="43.21548" lon="2.49564">
        <ele>104</ele>
        <time>2020-06-11T12:07:11Z</time>
      </trkpt>
      <trkpt lat="43.2156" lon="2.49587">
        <ele>104</ele>
        <time>2020-06-11T12:07:14Z</time>
      </trkpt>
      <trkpt lat="43.21577" lon="2.49621">
        <ele>103</ele>
        <time>2020-06-11T12:07:18Z</time>
      </trkpt>
      <trkpt lat="43.21593" lon="2.49659">
        <ele>102</ele>
        <time>2020-06-11T12:07:22Z</time>
      </trkpt>
      <trkpt lat="43.21597" lon="2.49669">
        <ele>102</ele>
        <time>2020-06-11T12:07:23Z</time>
      </trkpt>
      <trkpt lat="43.21604" lon="2.49689">
        <ele>101</ele>
        <time>2020-06-11T12:07:25Z</time>
      </trkpt>
      <trkpt lat="43.21621" lon="2.4975">
        <ele>98</ele>
        <time>2020-06-11T12:07:31Z</time>
      </trkpt>
      <trkpt lat="43.21626" lon="2.49771">
        <ele>97</ele>
        <time>2020-06-11T12:07:33Z</time>
      </trkpt>
      <trkpt lat="43.21629" lon="2.49782">
        <ele>97</ele>
        <time>2020-06-11T12:07:34Z</time>
      </trkpt>
      <trkpt lat="43.21631" lon="2.49792">
        <ele>97</ele>
        <time>2020-06-11T12:07:35Z</time>
      </trkpt>
      <trkpt lat="43.21634" lon="2.49802">
        <ele>97</ele>
        <time>2020-06-11T12:07:36Z</time>
      </trkpt>
      <trkpt lat="43.21639" lon="2.49823">
        <ele>96</ele>
        <time>2020-06-11T12:07:38Z</time>
      </trkpt>
      <trkpt lat="43.21642" lon="2.49833">
        <ele>95</ele>
        <time>2020-06-11T12:07:39Z</time>
      </trkpt>
      <trkpt lat="43.21646" lon="2.49853">
        <ele>95</ele>
        <time>2020-06-11T12:07:41Z</time>
      </trkpt>
      <trkpt lat="43.21654" lon="2.49882">
        <ele>95</ele>
        <time>2020-06-11T12:07:44Z</time>
      </trkpt>
      <trkpt lat="43.21662" lon="2.4991">
        <ele>95</ele>
        <time>2020-06-11T12:07:47Z</time>
      </trkpt>
      <trkpt lat="43.2167" lon="2.49937">
        <ele>95</ele>
        <time>2020-06-11T12:07:50Z</time>
      </trkpt>
      <trkpt lat="43.2168" lon="2.49963">
        <ele>95</ele>
        <time>2020-06-11T12:07:53Z</time>
      </trkpt>
      <trkpt lat="43.21687" lon="2.4998">
        <ele>94</ele>
        <time>2020-06-11T12:07:55Z</time>
      </trkpt>
      <trkpt lat="43.2169" lon="2.49988">
        <ele>94</ele>
        <time>2020-06-11T12:07:56Z</time>
      </trkpt>
      <trkpt lat="43.21701" lon="2.50012">
        <ele>93</ele>
        <time>2020-06-11T12:07:59Z</time>
      </trkpt>
      <trkpt lat="43.21705" lon="2.5002">
        <ele>93</ele>
        <time>2020-06-11T12:08:00Z</time>
      </trkpt>
      <trkpt lat="43.21713" lon="2.50035">
        <ele>93</ele>
        <time>2020-06-11T12:08:02Z</time>
      </trkpt>
      <trkpt lat="43.21724" lon="2.50059">
        <ele>93</ele>
        <time>2020-06-11T12:08:05Z</time>
      </trkpt>
      <trkpt lat="43.21731" lon="2.50076">
        <ele>93</ele>
        <time>2020-06-11T12:08:07Z</time>
      </trkpt>
      <trkpt lat="43.21734" lon="2.50084">
        <ele>93</ele>
        <time>2020-06-11T12:08:08Z</time>
      </trkpt>
      <trkpt lat="43.2174" lon="2.501">
        <ele>93</ele>
        <time>2020-06-11T12:08:10Z</time>
      </trkpt>
      <trkpt lat="43.21747" lon="2.50116">
        <ele>92</ele>
        <time>2020-06-11T12:08:12Z</time>
      </trkpt>
      <trkpt lat="43.21759" lon="2.5015">
        <ele>92</ele>
        <time>2020-06-11T12:08:16Z</time>
      </trkpt>
      <trkpt lat="43.21784" lon="2.50219">
        <ele>91</ele>
        <time>2020-06-11T12:08:24Z</time>
      </trkpt>
      <trkpt lat="43.21793" lon="2.50246">
        <ele>90</ele>
        <time>2020-06-11T12:08:27Z</time>
      </trkpt>
      <trkpt lat="43.21796" lon="2.50255">
        <ele>90</ele>
        <time>2020-06-11T12:08:28Z</time>
      </trkpt>
      <trkpt lat="43.21806" lon="2.50292">
        <ele>89</ele>
        <time>2020-06-11T12:08:32Z</time>
      </trkpt>
      <trkpt lat="43.21809" lon="2.50301">
        <ele>89</ele>
        <time>2020-06-11T12:08:33Z</time>
      </trkpt>
      <trkpt lat="43.21811" lon="2.5031">
        <ele>88</ele>
        <time>2020-06-11T12:08:34Z</time>
      </trkpt>
      <trkpt lat="43.21818" lon="2.50339">
        <ele>88</ele>
        <time>2020-06-11T12:08:37Z</time>
      </trkpt>
      <trkpt lat="43.21824" lon="2.50379">
        <ele>87</ele>
        <time>2020-06-11T12:08:41Z</time>
      </trkpt>
      <trkpt lat="43.21826" lon="2.50399">
        <ele>87</ele>
        <time>2020-06-11T12:08:43Z</time>
      </trkpt>
      <trkpt lat="43.2183" lon="2.50439">
        <ele>87</ele>
        <time>2020-06-11T12:08:47Z</time>
      </trkpt>
      <trkpt lat="43.21831" lon="2.50449">
        <ele>86</ele>
        <time>2020-06-11T12:08:48Z</time>
      </trkpt>
      <trkpt lat="43.21832" lon="2.50459">
        <ele>86</ele>
        <time>2020-06-11T12:08:49Z</time>
      </trkpt>
      <trkpt lat="43.21835" lon="2.505">
        <ele>86</ele>
        <time>2020-06-11T12:08:53Z</time>
      </trkpt>
      <trkpt lat="43.21836" lon="2.5051">
        <ele>86</ele>
        <time>2020-06-11T12:08:54Z</time>
      </trkpt>
      <trkpt lat="43.21839" lon="2.50532">
        <ele>85</ele>
        <time>2020-06-11T12:08:56Z</time>
      </trkpt>
      <trkpt lat="43.21843" lon="2.50566">
        <ele>84</ele>
        <time>2020-06-11T12:08:59Z</time>
      </trkpt>
      <trkpt lat="43.21844" lon="2.50578">
        <ele>84</ele>
        <time>2020-06-11T12:09:00Z</time>
      </trkpt>
      <trkpt lat="43.21847" lon="2.506">
        <ele>84</ele>
        <time>2020-06-11T12:09:02Z</time>
      </trkpt>
      <trkpt lat="43.21847" lon="2.50611">
        <ele>83</ele>
        <time>2020-06-11T12:09:03Z</time>
      </trkpt>
      <trkpt lat="43.21851" lon="2.50644">
        <ele>83</ele>
        <time>2020-06-11T12:09:06Z</time>
      </trkpt>
      <trkpt lat="43.21854" lon="2.50665">
        <ele>83</ele>
        <time>2020-06-11T12:09:08Z</time>
      </trkpt>
      <trkpt lat="43.21856" lon="2.50674">
        <ele>82</ele>
        <time>2020-06-11T12:09:09Z</time>
      </trkpt>
      <trkpt lat="43.21858" lon="2.50682">
        <ele>82</ele>
        <time>2020-06-11T12:09:10Z</time>
      </trkpt>
      <trkpt lat="43.21861" lon="2.5069">
        <ele>82</ele>
        <time>2020-06-11T12:09:11Z</time>
      </trkpt>
      <trkpt lat="43.21869" lon="2.50703">
        <ele>82</ele>
        <time>2020-06-11T12:09:13Z</time>
      </trkpt>
      <trkpt lat="43.21876" lon="2.50716">
        <ele>82</ele>
        <time>2020-06-11T12:09:15Z</time>
      </trkpt>
      <trkpt lat="43.21881" lon="2.50728">
        <ele>82</ele>
        <time>2020-06-11T12:09:17Z</time>
      </trkpt>
      <trkpt lat="43.21882" lon="2.50735">
        <ele>82</ele>
        <time>2020-06-11T12:09:18Z</time>
      </trkpt>
      <trkpt lat="43.21883" lon="2.50743">
        <ele>82</ele>
        <time>2020-06-11T12:09:19Z</time>
      </trkpt>
      <trkpt lat="43.21882" lon="2.50751">
        <ele>82</ele>
        <time>2020-06-11T12:09:20Z</time>
      </trkpt>
      <trkpt lat="43.2188" lon="2.50758">
        <ele>82</ele>
        <time>2020-06-11T12:09:21Z</time>
      </trkpt>
      <trkpt lat="43.21878" lon="2.50765">
        <ele>82</ele>
        <time>2020-06-11T12:09:22Z</time>
      </trkpt>
      <trkpt lat="43.2187" lon="2.50787">
        <ele>82</ele>
        <time>2020-06-11T12:09:25Z</time>
      </trkpt>
      <trkpt lat="43.21866" lon="2.50801">
        <ele>82</ele>
        <time>2020-06-11T12:09:27Z</time>
      </trkpt>
      <trkpt lat="43.21862" lon="2.50815">
        <ele>82</ele>
        <time>2020-06-11T12:09:29Z</time>
      </trkpt>
      <trkpt lat="43.2186" lon="2.50827">
        <ele>82</ele>
        <time>2020-06-11T12:09:31Z</time>
      </trkpt>
      <trkpt lat="43.21859" lon="2.50831">
        <ele>82</ele>
        <time>2020-06-11T12:09:32Z</time>
      </trkpt>
      <trkpt lat="43.21859" lon="2.50855">
        <ele>82</ele>
        <time>2020-06-11T12:09:37Z</time>
      </trkpt>
      <trkpt lat="43.21859" lon="2.50859">
        <ele>82</ele>
        <time>2020-06-11T12:09:38Z</time>
      </trkpt>
      <trkpt lat="43.21859" lon="2.50873">
        <ele>82</ele>
        <time>2020-06-11T12:09:40Z</time>
      </trkpt>
      <trkpt lat="43.21861" lon="2.5088">
        <ele>82</ele>
        <time>2020-06-11T12:09:41Z</time>
      </trkpt>
      <trkpt lat="43.21867" lon="2.50904">
        <ele>81</ele>
        <time>2020-06-11T12:09:44Z</time>
      </trkpt>
      <trkpt lat="43.21877" lon="2.50933">
        <ele>80</ele>
        <time>2020-06-11T12:09:48Z</time>
      </trkpt>
      <trkpt lat="43.21884" lon="2.50954">
        <ele>80</ele>
        <time>2020-06-11T12:09:51Z</time>
      </trkpt>
      <trkpt lat="43.21886" lon="2.5096">
        <ele>80</ele>
        <time>2020-06-11T12:09:52Z</time>
      </trkpt>
      <trkpt lat="43.21892" lon="2.50973">
        <ele>81</ele>
        <time>2020-06-11T12:09:54Z</time>
      </trkpt>
      <trkpt lat="43.21901" lon="2.51003">
        <ele>81</ele>
        <time>2020-06-11T12:09:58Z</time>
      </trkpt>
      <trkpt lat="43.21903" lon="2.51011">
        <ele>81</ele>
        <time>2020-06-11T12:09:59Z</time>
      </trkpt>
      <trkpt lat="43.21905" lon="2.51019">
        <ele>81</ele>
        <time>2020-06-11T12:10:00Z</time>
      </trkpt>
      <trkpt lat="43.21908" lon="2.51027">
        <ele>81</ele>
        <time>2020-06-11T12:10:01Z</time>
      </trkpt>
      <trkpt lat="43.21915" lon="2.51051">
        <ele>81</ele>
        <time>2020-06-11T12:10:05Z</time>
      </trkpt>
      <trkpt lat="43.21913" lon="2.5106">
        <ele>81</ele>
        <time>2020-06-11T12:10:07Z</time>
      </trkpt>
      <trkpt lat="43.2191" lon="2.51063">
        <ele>81</ele>
        <time>2020-06-11T12:10:08Z</time>
      </trkpt>
      <trkpt lat="43.21906" lon="2.51066">
        <ele>81</ele>
        <time>2020-06-11T12:10:09Z</time>
      </trkpt>
      <trkpt lat="43.21899" lon="2.51072">
        <ele>81</ele>
        <time>2020-06-11T12:10:11Z</time>
      </trkpt>
      <trkpt lat="43.21892" lon="2.51078">
        <ele>81</ele>
        <time>2020-06-11T12:10:13Z</time>
      </trkpt>
      <trkpt lat="43.21873" lon="2.51093">
        <ele>81</ele>
        <time>2020-06-11T12:10:18Z</time>
      </trkpt>
      <trkpt lat="43.21869" lon="2.51097">
        <ele>81</ele>
        <time>2020-06-11T12:10:19Z</time>
      </trkpt>
      <trkpt lat="43.2185" lon="2.5112">
        <ele>80</ele>
        <time>2020-06-11T12:10:24Z</time>
      </trkpt>
      <trkpt lat="43.21843" lon="2.51131">
        <ele>80</ele>
        <time>2020-06-11T12:10:26Z</time>
      </trkpt>
      <trkpt lat="43.21833" lon="2.51148">
        <ele>80</ele>
        <time>2020-06-11T12:10:29Z</time>
      </trkpt>
      <trkpt lat="43.2183" lon="2.51154">
        <ele>80</ele>
        <time>2020-06-11T12:10:30Z</time>
      </trkpt>
      <trkpt lat="43.21824" lon="2.51165">
        <ele>80</ele>
        <time>2020-06-11T12:10:32Z</time>
      </trkpt>
      <trkpt lat="43.21817" lon="2.51176">
        <ele>80</ele>
        <time>2020-06-11T12:10:34Z</time>
      </trkpt>
      <trkpt lat="43.21813" lon="2.51181">
        <ele>80</ele>
        <time>2020-06-11T12:10:35Z</time>
      </trkpt>
      <trkpt lat="43.2181" lon="2.51186">
        <ele>80</ele>
        <time>2020-06-11T12:10:36Z</time>
      </trkpt>
      <trkpt lat="43.21807" lon="2.51191">
        <ele>80</ele>
        <time>2020-06-11T12:10:37Z</time>
      </trkpt>
      <trkpt lat="43.21792" lon="2.5122">
        <ele>80</ele>
        <time>2020-06-11T12:10:42Z</time>
      </trkpt>
      <trkpt lat="43.21783" lon="2.51238">
        <ele>80</ele>
        <time>2020-06-11T12:10:45Z</time>
      </trkpt>
      <trkpt lat="43.21772" lon="2.51261">
        <ele>81</ele>
        <time>2020-06-11T12:10:49Z</time>
      </trkpt>
      <trkpt lat="43.21755" lon="2.51289">
        <ele>81</ele>
        <time>2020-06-11T12:10:54Z</time>
      </trkpt>
      <trkpt lat="43.21752" lon="2.51295">
        <ele>81</ele>
        <time>2020-06-11T12:10:55Z</time>
      </trkpt>
      <trkpt lat="43.21743" lon="2.51312">
        <ele>81</ele>
        <time>2020-06-11T12:10:58Z</time>
      </trkpt>
      <trkpt lat="43.21731" lon="2.51334">
        <ele>80</ele>
        <time>2020-06-11T12:11:02Z</time>
      </trkpt>
      <trkpt lat="43.21726" lon="2.51346">
        <ele>80</ele>
        <time>2020-06-11T12:11:04Z</time>
      </trkpt>
      <trkpt lat="43.21696" lon="2.51412">
        <ele>79</ele>
        <time>2020-06-11T12:11:15Z</time>
      </trkpt>
      <trkpt lat="43.2169" lon="2.51424">
        <ele>78</ele>
        <time>2020-06-11T12:11:17Z</time>
      </trkpt>
      <trkpt lat="43.21673" lon="2.51462">
        <ele>78</ele>
        <time>2020-06-11T12:11:23Z</time>
      </trkpt>
      <trkpt lat="43.2167" lon="2.51468">
        <ele>78</ele>
        <time>2020-06-11T12:11:24Z</time>
      </trkpt>
      <trkpt lat="43.21662" lon="2.51487">
        <ele>79</ele>
        <time>2020-06-11T12:11:27Z</time>
      </trkpt>
      <trkpt lat="43.21659" lon="2.51493">
        <ele>79</ele>
        <time>2020-06-11T12:11:28Z</time>
      </trkpt>
      <trkpt lat="43.21654" lon="2.51506">
        <ele>79</ele>
        <time>2020-06-11T12:11:30Z</time>
      </trkpt>
      <trkpt lat="43.21642" lon="2.5153">
        <ele>80</ele>
        <time>2020-06-11T12:11:34Z</time>
      </trkpt>
      <trkpt lat="43.21621" lon="2.51577">
        <ele>82</ele>
        <time>2020-06-11T12:11:42Z</time>
      </trkpt>
      <trkpt lat="43.21619" lon="2.51582">
        <ele>82</ele>
        <time>2020-06-11T12:11:43Z</time>
      </trkpt>
      <trkpt lat="43.21603" lon="2.51617">
        <ele>83</ele>
        <time>2020-06-11T12:11:49Z</time>
      </trkpt>
      <trkpt lat="43.21595" lon="2.51635">
        <ele>83</ele>
        <time>2020-06-11T12:11:52Z</time>
      </trkpt>
      <trkpt lat="43.21593" lon="2.51641">
        <ele>83</ele>
        <time>2020-06-11T12:11:53Z</time>
      </trkpt>
      <trkpt lat="43.2159" lon="2.51647">
        <ele>84</ele>
        <time>2020-06-11T12:11:54Z</time>
      </trkpt>
      <trkpt lat="43.2158" lon="2.5167">
        <ele>85</ele>
        <time>2020-06-11T12:11:58Z</time>
      </trkpt>
      <trkpt lat="43.21576" lon="2.51681">
        <ele>86</ele>
        <time>2020-06-11T12:12:00Z</time>
      </trkpt>
      <trkpt lat="43.21568" lon="2.51698">
        <ele>87</ele>
        <time>2020-06-11T12:12:03Z</time>
      </trkpt>
      <trkpt lat="43.21557" lon="2.51726">
        <ele>87</ele>
        <time>2020-06-11T12:12:08Z</time>
      </trkpt>
      <trkpt lat="43.2155" lon="2.51742">
        <ele>88</ele>
        <time>2020-06-11T12:12:11Z</time>
      </trkpt>
      <trkpt lat="43.21546" lon="2.51754">
        <ele>88</ele>
        <time>2020-06-11T12:12:13Z</time>
      </trkpt>
      <trkpt lat="43.21542" lon="2.51771">
        <ele>89</ele>
        <time>2020-06-11T12:12:16Z</time>
      </trkpt>
      <trkpt lat="43.21538" lon="2.51788">
        <ele>90</ele>
        <time>2020-06-11T12:12:19Z</time>
      </trkpt>
      <trkpt lat="43.2153" lon="2.51829">
        <ele>93</ele>
        <time>2020-06-11T12:12:26Z</time>
      </trkpt>
      <trkpt lat="43.21528" lon="2.51841">
        <ele>93</ele>
        <time>2020-06-11T12:12:28Z</time>
      </trkpt>
      <trkpt lat="43.21527" lon="2.51847">
        <ele>94</ele>
        <time>2020-06-11T12:12:29Z</time>
      </trkpt>
      <trkpt lat="43.21522" lon="2.51869">
        <ele>94</ele>
        <time>2020-06-11T12:12:33Z</time>
      </trkpt>
      <trkpt lat="43.21519" lon="2.51879">
        <ele>94</ele>
        <time>2020-06-11T12:12:35Z</time>
      </trkpt>
      <trkpt lat="43.21518" lon="2.51884">
        <ele>94</ele>
        <time>2020-06-11T12:12:36Z</time>
      </trkpt>
      <trkpt lat="43.2151" lon="2.51913">
        <ele>94</ele>
        <time>2020-06-11T12:12:42Z</time>
      </trkpt>
      <trkpt lat="43.21506" lon="2.51923">
        <ele>93</ele>
        <time>2020-06-11T12:12:44Z</time>
      </trkpt>
      <trkpt lat="43.21489" lon="2.51959">
        <ele>94</ele>
        <time>2020-06-11T12:12:52Z</time>
      </trkpt>
      <trkpt lat="43.21482" lon="2.51973">
        <ele>95</ele>
        <time>2020-06-11T12:12:55Z</time>
      </trkpt>
      <trkpt lat="43.2148" lon="2.51978">
        <ele>95</ele>
        <time>2020-06-11T12:12:56Z</time>
      </trkpt>
      <trkpt lat="43.21477" lon="2.51983">
        <ele>95</ele>
        <time>2020-06-11T12:12:57Z</time>
      </trkpt>
      <trkpt lat="43.21467" lon="2.52003">
        <ele>96</ele>
        <time>2020-06-11T12:13:01Z</time>
      </trkpt>
      <trkpt lat="43.21448" lon="2.52043">
        <ele>97</ele>
        <time>2020-06-11T12:13:09Z</time>
      </trkpt>
      <trkpt lat="43.21446" lon="2.52049">
        <ele>97</ele>
        <time>2020-06-11T12:13:10Z</time>
      </trkpt>
      <trkpt lat="43.21442" lon="2.52059">
        <ele>98</ele>
        <time>2020-06-11T12:13:12Z</time>
      </trkpt>
      <trkpt lat="43.21437" lon="2.52069">
        <ele>98</ele>
        <time>2020-06-11T12:13:14Z</time>
      </trkpt>
      <trkpt lat="43.21431" lon="2.52084">
        <ele>98</ele>
        <time>2020-06-11T12:13:17Z</time>
      </trkpt>
      <trkpt lat="43.21422" lon="2.52106">
        <ele>98</ele>
        <time>2020-06-11T12:13:21Z</time>
      </trkpt>
      <trkpt lat="43.21413" lon="2.52128">
        <ele>98</ele>
        <time>2020-06-11T12:13:25Z</time>
      </trkpt>
      <trkpt lat="43.21409" lon="2.52139">
        <ele>98</ele>
        <time>2020-06-11T12:13:27Z</time>
      </trkpt>
      <trkpt lat="43.21407" lon="2.52144">
        <ele>98</ele>
        <time>2020-06-11T12:13:28Z</time>
      </trkpt>
      <trkpt lat="43.21405" lon="2.5215">
        <ele>98</ele>
        <time>2020-06-11T12:13:29Z</time>
      </trkpt>
      <trkpt lat="43.21392" lon="2.52184">
        <ele>98</ele>
        <time>2020-06-11T12:13:35Z</time>
      </trkpt>
      <trkpt lat="43.21387" lon="2.52195">
        <ele>98</ele>
        <time>2020-06-11T12:13:37Z</time>
      </trkpt>
      <trkpt lat="43.21366" lon="2.5224">
        <ele>98</ele>
        <time>2020-06-11T12:13:45Z</time>
      </trkpt>
      <trkpt lat="43.21343" lon="2.52282">
        <ele>99</ele>
        <time>2020-06-11T12:13:53Z</time>
      </trkpt>
      <trkpt lat="43.21337" lon="2.52291">
        <ele>100</ele>
        <time>2020-06-11T12:13:55Z</time>
      </trkpt>
      <trkpt lat="43.21319" lon="2.52323">
        <ele>100</ele>
        <time>2020-06-11T12:14:01Z</time>
      </trkpt>
      <trkpt lat="43.21315" lon="2.52328">
        <ele>100</ele>
        <time>2020-06-11T12:14:02Z</time>
      </trkpt>
      <trkpt lat="43.21298" lon="2.52359">
        <ele>100</ele>
        <time>2020-06-11T12:14:08Z</time>
      </trkpt>
      <trkpt lat="43.21288" lon="2.52372">
        <ele>102</ele>
        <time>2020-06-11T12:14:11Z</time>
      </trkpt>
      <trkpt lat="43.21273" lon="2.52387">
        <ele>104</ele>
        <time>2020-06-11T12:14:15Z</time>
      </trkpt>
      <trkpt lat="43.2127" lon="2.52389">
        <ele>104</ele>
        <time>2020-06-11T12:14:16Z</time>
      </trkpt>
      <trkpt lat="43.21266" lon="2.52392">
        <ele>105</ele>
        <time>2020-06-11T12:14:17Z</time>
      </trkpt>
      <trkpt lat="43.21262" lon="2.52394">
        <ele>105</ele>
        <time>2020-06-11T12:14:18Z</time>
      </trkpt>
      <trkpt lat="43.21258" lon="2.52396">
        <ele>105</ele>
        <time>2020-06-11T12:14:19Z</time>
      </trkpt>
      <trkpt lat="43.21234" lon="2.52403">
        <ele>107</ele>
        <time>2020-06-11T12:14:25Z</time>
      </trkpt>
      <trkpt lat="43.2123" lon="2.52404">
        <ele>108</ele>
        <time>2020-06-11T12:14:26Z</time>
      </trkpt>
      <trkpt lat="43.21203" lon="2.52415">
        <ele>106</ele>
        <time>2020-06-11T12:14:33Z</time>
      </trkpt>
      <trkpt lat="43.21199" lon="2.52418">
        <ele>106</ele>
        <time>2020-06-11T12:14:34Z</time>
      </trkpt>
      <trkpt lat="43.21191" lon="2.52423">
        <ele>105</ele>
        <time>2020-06-11T12:14:36Z</time>
      </trkpt>
      <trkpt lat="43.21173" lon="2.52437">
        <ele>104</ele>
        <time>2020-06-11T12:14:40Z</time>
      </trkpt>
      <trkpt lat="43.21163" lon="2.52447">
        <ele>103</ele>
        <time>2020-06-11T12:14:42Z</time>
      </trkpt>
      <trkpt lat="43.21147" lon="2.52465">
        <ele>103</ele>
        <time>2020-06-11T12:14:45Z</time>
      </trkpt>
      <trkpt lat="43.21137" lon="2.52479">
        <ele>102</ele>
        <time>2020-06-11T12:14:47Z</time>
      </trkpt>
      <trkpt lat="43.21124" lon="2.52503">
        <ele>101</ele>
        <time>2020-06-11T12:14:50Z</time>
      </trkpt>
      <trkpt lat="43.2112" lon="2.52512">
        <ele>101</ele>
        <time>2020-06-11T12:14:51Z</time>
      </trkpt>
      <trkpt lat="43.21116" lon="2.5252">
        <ele>101</ele>
        <time>2020-06-11T12:14:52Z</time>
      </trkpt>
      <trkpt lat="43.21112" lon="2.52529">
        <ele>100</ele>
        <time>2020-06-11T12:14:53Z</time>
      </trkpt>
      <trkpt lat="43.211" lon="2.52553">
        <ele>99</ele>
        <time>2020-06-11T12:14:56Z</time>
      </trkpt>
      <trkpt lat="43.21093" lon="2.52568">
        <ele>98</ele>
        <time>2020-06-11T12:14:58Z</time>
      </trkpt>
      <trkpt lat="43.21086" lon="2.52583">
        <ele>98</ele>
        <time>2020-06-11T12:15:00Z</time>
      </trkpt>
      <trkpt lat="43.2106" lon="2.52637">
        <ele>97</ele>
        <time>2020-06-11T12:15:07Z</time>
      </trkpt>
      <trkpt lat="43.21055" lon="2.52644">
        <ele>97</ele>
        <time>2020-06-11T12:15:08Z</time>
      </trkpt>
      <trkpt lat="43.21047" lon="2.52661">
        <ele>96</ele>
        <time>2020-06-11T12:15:10Z</time>
      </trkpt>
      <trkpt lat="43.21043" lon="2.52669">
        <ele>96</ele>
        <time>2020-06-11T12:15:11Z</time>
      </trkpt>
      <trkpt lat="43.21039" lon="2.52677">
        <ele>96</ele>
        <time>2020-06-11T12:15:12Z</time>
      </trkpt>
      <trkpt lat="43.21027" lon="2.52702">
        <ele>96</ele>
        <time>2020-06-11T12:15:15Z</time>
      </trkpt>
      <trkpt lat="43.21015" lon="2.52726">
        <ele>95</ele>
        <time>2020-06-11T12:15:18Z</time>
      </trkpt>
      <trkpt lat="43.21012" lon="2.52733">
        <ele>95</ele>
        <time>2020-06-11T12:15:19Z</time>
      </trkpt>
      <trkpt lat="43.21008" lon="2.52741">
        <ele>95</ele>
        <time>2020-06-11T12:15:20Z</time>
      </trkpt>
      <trkpt lat="43.21004" lon="2.52748">
        <ele>95</ele>
        <time>2020-06-11T12:15:21Z</time>
      </trkpt>
      <trkpt lat="43.21001" lon="2.52756">
        <ele>95</ele>
        <time>2020-06-11T12:15:22Z</time>
      </trkpt>
      <trkpt lat="43.20997" lon="2.52763">
        <ele>95</ele>
        <time>2020-06-11T12:15:23Z</time>
      </trkpt>
      <trkpt lat="43.20985" lon="2.52785">
        <ele>94</ele>
        <time>2020-06-11T12:15:26Z</time>
      </trkpt>
      <trkpt lat="43.20973" lon="2.52807">
        <ele>93</ele>
        <time>2020-06-11T12:15:29Z</time>
      </trkpt>
      <trkpt lat="43.20964" lon="2.52821">
        <ele>93</ele>
        <time>2020-06-11T12:15:31Z</time>
      </trkpt>
      <trkpt lat="43.2096" lon="2.52828">
        <ele>93</ele>
        <time>2020-06-11T12:15:32Z</time>
      </trkpt>
      <trkpt lat="43.20928" lon="2.52878">
        <ele>92</ele>
        <time>2020-06-11T12:15:39Z</time>
      </trkpt>
      <trkpt lat="43.20923" lon="2.52886">
        <ele>92</ele>
        <time>2020-06-11T12:15:40Z</time>
      </trkpt>
      <trkpt lat="43.20913" lon="2.52901">
        <ele>92</ele>
        <time>2020-06-11T12:15:42Z</time>
      </trkpt>
      <trkpt lat="43.20893" lon="2.52928">
        <ele>91</ele>
        <time>2020-06-11T12:15:46Z</time>
      </trkpt>
      <trkpt lat="43.20887" lon="2.52935">
        <ele>91</ele>
        <time>2020-06-11T12:15:47Z</time>
      </trkpt>
      <trkpt lat="43.20882" lon="2.52941">
        <ele>91</ele>
        <time>2020-06-11T12:15:48Z</time>
      </trkpt>
      <trkpt lat="43.20849" lon="2.5298">
        <ele>91</ele>
        <time>2020-06-11T12:15:54Z</time>
      </trkpt>
      <trkpt lat="43.20844" lon="2.52987">
        <ele>91</ele>
        <time>2020-06-11T12:15:55Z</time>
      </trkpt>
      <trkpt lat="43.20839" lon="2.52994">
        <ele>91</ele>
        <time>2020-06-11T12:15:56Z</time>
      </trkpt>
      <trkpt lat="43.20834" lon="2.53001">
        <ele>90</ele>
        <time>2020-06-11T12:15:57Z</time>
      </trkpt>
      <trkpt lat="43.20828" lon="2.53008">
        <ele>90</ele>
        <time>2020-06-11T12:15:58Z</time>
      </trkpt>
      <trkpt lat="43.20818" lon="2.53022">
        <ele>90</ele>
        <time>2020-06-11T12:16:00Z</time>
      </trkpt>
      <trkpt lat="43.20813" lon="2.53029">
        <ele>89</ele>
        <time>2020-06-11T12:16:01Z</time>
      </trkpt>
      <trkpt lat="43.20807" lon="2.53036">
        <ele>89</ele>
        <time>2020-06-11T12:16:02Z</time>
      </trkpt>
      <trkpt lat="43.20797" lon="2.5305">
        <ele>89</ele>
        <time>2020-06-11T12:16:04Z</time>
      </trkpt>
      <trkpt lat="43.20776" lon="2.53078">
        <ele>88</ele>
        <time>2020-06-11T12:16:08Z</time>
      </trkpt>
      <trkpt lat="43.20755" lon="2.53107">
        <ele>88</ele>
        <time>2020-06-11T12:16:12Z</time>
      </trkpt>
      <trkpt lat="43.20734" lon="2.53134">
        <ele>87</ele>
        <time>2020-06-11T12:16:16Z</time>
      </trkpt>
      <trkpt lat="43.20729" lon="2.53141">
        <ele>87</ele>
        <time>2020-06-11T12:16:17Z</time>
      </trkpt>
      <trkpt lat="43.20709" lon="2.53166">
        <ele>87</ele>
        <time>2020-06-11T12:16:21Z</time>
      </trkpt>
      <trkpt lat="43.20704" lon="2.53173">
        <ele>86</ele>
        <time>2020-06-11T12:16:22Z</time>
      </trkpt>
      <trkpt lat="43.20694" lon="2.53186">
        <ele>86</ele>
        <time>2020-06-11T12:16:24Z</time>
      </trkpt>
      <trkpt lat="43.20689" lon="2.53192">
        <ele>86</ele>
        <time>2020-06-11T12:16:25Z</time>
      </trkpt>
      <trkpt lat="43.20661" lon="2.53233">
        <ele>85</ele>
        <time>2020-06-11T12:16:31Z</time>
      </trkpt>
      <trkpt lat="43.20649" lon="2.53256">
        <ele>84</ele>
        <time>2020-06-11T12:16:34Z</time>
      </trkpt>
      <trkpt lat="43.20645" lon="2.53264">
        <ele>84</ele>
        <time>2020-06-11T12:16:35Z</time>
      </trkpt>
      <trkpt lat="43.20641" lon="2.53272">
        <ele>84</ele>
        <time>2020-06-11T12:16:36Z</time>
      </trkpt>
      <trkpt lat="43.20635" lon="2.53289">
        <ele>84</ele>
        <time>2020-06-11T12:16:38Z</time>
      </trkpt>
      <trkpt lat="43.20628" lon="2.53305">
        <ele>84</ele>
        <time>2020-06-11T12:16:40Z</time>
      </trkpt>
      <trkpt lat="43.20621" lon="2.53321">
        <ele>84</ele>
        <time>2020-06-11T12:16:42Z</time>
      </trkpt>
      <trkpt lat="43.2061" lon="2.53343">
        <ele>83</ele>
        <time>2020-06-11T12:16:45Z</time>
      </trkpt>
      <trkpt lat="43.20607" lon="2.53351">
        <ele>83</ele>
        <time>2020-06-11T12:16:46Z</time>
      </trkpt>
      <trkpt lat="43.20604" lon="2.53358">
        <ele>83</ele>
        <time>2020-06-11T12:16:47Z</time>
      </trkpt>
      <trkpt lat="43.20578" lon="2.5341">
        <ele>83</ele>
        <time>2020-06-11T12:16:54Z</time>
      </trkpt>
      <trkpt lat="43.20571" lon="2.53425">
        <ele>84</ele>
        <time>2020-06-11T12:16:56Z</time>
      </trkpt>
      <trkpt lat="43.20567" lon="2.53431">
        <ele>84</ele>
        <time>2020-06-11T12:16:57Z</time>
      </trkpt>
      <trkpt lat="43.2055" lon="2.53457">
        <ele>84</ele>
        <time>2020-06-11T12:17:01Z</time>
      </trkpt>
      <trkpt lat="43.20533" lon="2.53484">
        <ele>84</ele>
        <time>2020-06-11T12:17:05Z</time>
      </trkpt>
      <trkpt lat="43.2052" lon="2.53503">
        <ele>83</ele>
        <time>2020-06-11T12:17:08Z</time>
      </trkpt>
      <trkpt lat="43.20512" lon="2.53516">
        <ele>83</ele>
        <time>2020-06-11T12:17:10Z</time>
      </trkpt>
      <trkpt lat="43.20482" lon="2.53561">
        <ele>84</ele>
        <time>2020-06-11T12:17:17Z</time>
      </trkpt>
      <trkpt lat="43.20457" lon="2.53597">
        <ele>84</ele>
        <time>2020-06-11T12:17:23Z</time>
      </trkpt>
      <trkpt lat="43.20453" lon="2.53603">
        <ele>84</ele>
        <time>2020-06-11T12:17:24Z</time>
      </trkpt>
      <trkpt lat="43.2044" lon="2.53622">
        <ele>84</ele>
        <time>2020-06-11T12:17:27Z</time>
      </trkpt>
      <trkpt lat="43.20429" lon="2.53641">
        <ele>85</ele>
        <time>2020-06-11T12:17:30Z</time>
      </trkpt>
      <trkpt lat="43.20426" lon="2.53648">
        <ele>85</ele>
        <time>2020-06-11T12:17:31Z</time>
      </trkpt>
      <trkpt lat="43.20424" lon="2.53655">
        <ele>85</ele>
        <time>2020-06-11T12:17:32Z</time>
      </trkpt>
      <trkpt lat="43.20421" lon="2.53663">
        <ele>84</ele>
        <time>2020-06-11T12:17:33Z</time>
      </trkpt>
      <trkpt lat="43.20419" lon="2.5367">
        <ele>84</ele>
        <time>2020-06-11T12:17:34Z</time>
      </trkpt>
      <trkpt lat="43.20417" lon="2.53686">
        <ele>83</ele>
        <time>2020-06-11T12:17:36Z</time>
      </trkpt>
      <trkpt lat="43.20416" lon="2.53694">
        <ele>83</ele>
        <time>2020-06-11T12:17:37Z</time>
      </trkpt>
      <trkpt lat="43.20415" lon="2.5371">
        <ele>83</ele>
        <time>2020-06-11T12:17:39Z</time>
      </trkpt>
      <trkpt lat="43.20415" lon="2.53749">
        <ele>82</ele>
        <time>2020-06-11T12:17:44Z</time>
      </trkpt>
      <trkpt lat="43.20413" lon="2.53794">
        <ele>81</ele>
        <time>2020-06-11T12:17:50Z</time>
      </trkpt>
      <trkpt lat="43.20412" lon="2.53801">
        <ele>81</ele>
        <time>2020-06-11T12:17:51Z</time>
      </trkpt>
      <trkpt lat="43.2041" lon="2.53808">
        <ele>81</ele>
        <time>2020-06-11T12:17:52Z</time>
      </trkpt>
      <trkpt lat="43.20408" lon="2.53814">
        <ele>81</ele>
        <time>2020-06-11T12:17:53Z</time>
      </trkpt>
      <trkpt lat="43.204" lon="2.53822">
        <ele>82</ele>
        <time>2020-06-11T12:17:55Z</time>
      </trkpt>
      <trkpt lat="43.20392" lon="2.53827">
        <ele>82</ele>
        <time>2020-06-11T12:17:57Z</time>
      </trkpt>
      <trkpt lat="43.20389" lon="2.53829">
        <ele>83</ele>
        <time>2020-06-11T12:17:58Z</time>
      </trkpt>
      <trkpt lat="43.20382" lon="2.53831">
        <ele>83</ele>
        <time>2020-06-11T12:18:00Z</time>
      </trkpt>
      <trkpt lat="43.20373" lon="2.5383">
        <ele>83</ele>
        <time>2020-06-11T12:18:05Z</time>
      </trkpt>
      <trkpt lat="43.20366" lon="2.53833">
        <ele>83</ele>
        <time>2020-06-11T12:18:08Z</time>
      </trkpt>
      <trkpt lat="43.20364" lon="2.53836">
        <ele>83</ele>
        <time>2020-06-11T12:18:09Z</time>
      </trkpt>
      <trkpt lat="43.20362" lon="2.53841">
        <ele>83</ele>
        <time>2020-06-11T12:18:10Z</time>
      </trkpt>
      <trkpt lat="43.20359" lon="2.53855">
        <ele>82</ele>
        <time>2020-06-11T12:18:13Z</time>
      </trkpt>
      <trkpt lat="43.20351" lon="2.53891">
        <ele>83</ele>
        <time>2020-06-11T12:18:19Z</time>
      </trkpt>
      <trkpt lat="43.2035" lon="2.53898">
        <ele>83</ele>
        <time>2020-06-11T12:18:20Z</time>
      </trkpt>
      <trkpt lat="43.20347" lon="2.53911">
        <ele>83</ele>
        <time>2020-06-11T12:18:22Z</time>
      </trkpt>
      <trkpt lat="43.20345" lon="2.53918">
        <ele>83</ele>
        <time>2020-06-11T12:18:23Z</time>
      </trkpt>
      <trkpt lat="43.2034" lon="2.53939">
        <ele>83</ele>
        <time>2020-06-11T12:18:26Z</time>
      </trkpt>
      <trkpt lat="43.20339" lon="2.53946">
        <ele>83</ele>
        <time>2020-06-11T12:18:27Z</time>
      </trkpt>
      <trkpt lat="43.20337" lon="2.53953">
        <ele>83</ele>
        <time>2020-06-11T12:18:28Z</time>
      </trkpt>
      <trkpt lat="43.20335" lon="2.5396">
        <ele>83</ele>
        <time>2020-06-11T12:18:29Z</time>
      </trkpt>
      <trkpt lat="43.20332" lon="2.53975">
        <ele>82</ele>
        <time>2020-06-11T12:18:31Z</time>
      </trkpt>
      <trkpt lat="43.2033" lon="2.53983">
        <ele>82</ele>
        <time>2020-06-11T12:18:32Z</time>
      </trkpt>
      <trkpt lat="43.20326" lon="2.53989">
        <ele>82</ele>
        <time>2020-06-11T12:18:33Z</time>
      </trkpt>
      <trkpt lat="43.20322" lon="2.53993">
        <ele>82</ele>
        <time>2020-06-11T12:18:34Z</time>
      </trkpt>
      <trkpt lat="43.20316" lon="2.53996">
        <ele>82</ele>
        <time>2020-06-11T12:18:35Z</time>
      </trkpt>
      <trkpt lat="43.20311" lon="2.53997">
        <ele>82</ele>
        <time>2020-06-11T12:18:36Z</time>
      </trkpt>
      <trkpt lat="43.20284" lon="2.53995">
        <ele>81</ele>
        <time>2020-06-11T12:18:40Z</time>
      </trkpt>
      <trkpt lat="43.20277" lon="2.53995">
        <ele>80</ele>
        <time>2020-06-11T12:18:41Z</time>
      </trkpt>
      <trkpt lat="43.20253" lon="2.53996">
        <ele>80</ele>
        <time>2020-06-11T12:18:44Z</time>
      </trkpt>
      <trkpt lat="43.20237" lon="2.53996">
        <ele>79</ele>
        <time>2020-06-11T12:18:46Z</time>
      </trkpt>
      <trkpt lat="43.20228" lon="2.53996">
        <ele>79</ele>
        <time>2020-06-11T12:18:47Z</time>
      </trkpt>
      <trkpt lat="43.2022" lon="2.53997">
        <ele>78</ele>
        <time>2020-06-11T12:18:48Z</time>
      </trkpt>
      <trkpt lat="43.20212" lon="2.53997">
        <ele>78</ele>
        <time>2020-06-11T12:18:49Z</time>
      </trkpt>
      <trkpt lat="43.20194" lon="2.53997">
        <ele>76</ele>
        <time>2020-06-11T12:18:51Z</time>
      </trkpt>
      <trkpt lat="43.20158" lon="2.53997">
        <ele>73</ele>
        <time>2020-06-11T12:18:55Z</time>
      </trkpt>
      <trkpt lat="43.20149" lon="2.53996">
        <ele>72</ele>
        <time>2020-06-11T12:18:56Z</time>
      </trkpt>
      <trkpt lat="43.20111" lon="2.53998">
        <ele>70</ele>
        <time>2020-06-11T12:19:00Z</time>
      </trkpt>
      <trkpt lat="43.20102" lon="2.53999">
        <ele>70</ele>
        <time>2020-06-11T12:19:01Z</time>
      </trkpt>
      <trkpt lat="43.20093" lon="2.53999">
        <ele>70</ele>
        <time>2020-06-11T12:19:02Z</time>
      </trkpt>
      <trkpt lat="43.20058" lon="2.54">
        <ele>69</ele>
        <time>2020-06-11T12:19:06Z</time>
      </trkpt>
      <trkpt lat="43.20035" lon="2.54">
        <ele>68</ele>
        <time>2020-06-11T12:19:09Z</time>
      </trkpt>
      <trkpt lat="43.2002" lon="2.54">
        <ele>67</ele>
        <time>2020-06-11T12:19:11Z</time>
      </trkpt>
      <trkpt lat="43.19988" lon="2.54">
        <ele>67</ele>
        <time>2020-06-11T12:19:16Z</time>
      </trkpt>
      <trkpt lat="43.19976" lon="2.54">
        <ele>67</ele>
        <time>2020-06-11T12:19:18Z</time>
      </trkpt>
      <trkpt lat="43.19958" lon="2.54">
        <ele>68</ele>
        <time>2020-06-11T12:19:21Z</time>
      </trkpt>
      <trkpt lat="43.19952" lon="2.54001">
        <ele>68</ele>
        <time>2020-06-11T12:19:22Z</time>
      </trkpt>
      <trkpt lat="43.19945" lon="2.54001">
        <ele>68</ele>
        <time>2020-06-11T12:19:23Z</time>
      </trkpt>
      <trkpt lat="43.19925" lon="2.54001">
        <ele>70</ele>
        <time>2020-06-11T12:19:26Z</time>
      </trkpt>
      <trkpt lat="43.1988" lon="2.54001">
        <ele>70</ele>
        <time>2020-06-11T12:19:32Z</time>
      </trkpt>
      <trkpt lat="43.19871" lon="2.54001">
        <ele>70</ele>
        <time>2020-06-11T12:19:33Z</time>
      </trkpt>
      <trkpt lat="43.19863" lon="2.54001">
        <ele>70</ele>
        <time>2020-06-11T12:19:34Z</time>
      </trkpt>
      <trkpt lat="43.19836" lon="2.54002">
        <ele>69</ele>
        <time>2020-06-11T12:19:37Z</time>
      </trkpt>
      <trkpt lat="43.19826" lon="2.54003">
        <ele>68</ele>
        <time>2020-06-11T12:19:38Z</time>
      </trkpt>
      <trkpt lat="43.19807" lon="2.54003">
        <ele>68</ele>
        <time>2020-06-11T12:19:40Z</time>
      </trkpt>
      <trkpt lat="43.19771" lon="2.54003">
        <ele>67</ele>
        <time>2020-06-11T12:19:44Z</time>
      </trkpt>
      <trkpt lat="43.19753" lon="2.54004">
        <ele>67</ele>
        <time>2020-06-11T12:19:46Z</time>
      </trkpt>
      <trkpt lat="43.1973" lon="2.54004">
        <ele>66</ele>
        <time>2020-06-11T12:19:49Z</time>
      </trkpt>
      <trkpt lat="43.19708" lon="2.54005">
        <ele>66</ele>
        <time>2020-06-11T12:19:52Z</time>
      </trkpt>
      <trkpt lat="43.19694" lon="2.54008">
        <ele>66</ele>
        <time>2020-06-11T12:19:54Z</time>
      </trkpt>
      <trkpt lat="43.19682" lon="2.54016">
        <ele>66</ele>
        <time>2020-06-11T12:19:56Z</time>
      </trkpt>
      <trkpt lat="43.19673" lon="2.5403">
        <ele>66</ele>
        <time>2020-06-11T12:19:58Z</time>
      </trkpt>
      <trkpt lat="43.1967" lon="2.54037">
        <ele>66</ele>
        <time>2020-06-11T12:19:59Z</time>
      </trkpt>
      <trkpt lat="43.19661" lon="2.5407">
        <ele>66</ele>
        <time>2020-06-11T12:20:03Z</time>
      </trkpt>
      <trkpt lat="43.19659" lon="2.54078">
        <ele>66</ele>
        <time>2020-06-11T12:20:04Z</time>
      </trkpt>
      <trkpt lat="43.19657" lon="2.54086">
        <ele>66</ele>
        <time>2020-06-11T12:20:05Z</time>
      </trkpt>
      <trkpt lat="43.19654" lon="2.54103">
        <ele>66</ele>
        <time>2020-06-11T12:20:07Z</time>
      </trkpt>
      <trkpt lat="43.19652" lon="2.5411">
        <ele>66</ele>
        <time>2020-06-11T12:20:08Z</time>
      </trkpt>
      <trkpt lat="43.19648" lon="2.54126">
        <ele>66</ele>
        <time>2020-06-11T12:20:10Z</time>
      </trkpt>
      <trkpt lat="43.19645" lon="2.54141">
        <ele>66</ele>
        <time>2020-06-11T12:20:12Z</time>
      </trkpt>
      <trkpt lat="43.19643" lon="2.54149">
        <ele>66</ele>
        <time>2020-06-11T12:20:13Z</time>
      </trkpt>
      <trkpt lat="43.19639" lon="2.54164">
        <ele>66</ele>
        <time>2020-06-11T12:20:15Z</time>
      </trkpt>
      <trkpt lat="43.19628" lon="2.5421">
        <ele>67</ele>
        <time>2020-06-11T12:20:21Z</time>
      </trkpt>
      <trkpt lat="43.19624" lon="2.54225">
        <ele>67</ele>
        <time>2020-06-11T12:20:23Z</time>
      </trkpt>
      <trkpt lat="43.1962" lon="2.54241">
        <ele>67</ele>
        <time>2020-06-11T12:20:25Z</time>
      </trkpt>
      <trkpt lat="43.19613" lon="2.54271">
        <ele>67</ele>
        <time>2020-06-11T12:20:29Z</time>
      </trkpt>
      <trkpt lat="43.19608" lon="2.54294">
        <ele>67</ele>
        <time>2020-06-11T12:20:32Z</time>
      </trkpt>
      <trkpt lat="43.19602" lon="2.54318">
        <ele>68</ele>
        <time>2020-06-11T12:20:35Z</time>
      </trkpt>
      <trkpt lat="43.19592" lon="2.54348">
        <ele>68</ele>
        <time>2020-06-11T12:20:39Z</time>
      </trkpt>
      <trkpt lat="43.19573" lon="2.5438">
        <ele>68</ele>
        <time>2020-06-11T12:20:44Z</time>
      </trkpt>
      <trkpt lat="43.19564" lon="2.54391">
        <ele>68</ele>
        <time>2020-06-11T12:20:46Z</time>
      </trkpt>
      <trkpt lat="43.19559" lon="2.54396">
        <ele>68</ele>
        <time>2020-06-11T12:20:47Z</time>
      </trkpt>
      <trkpt lat="43.19548" lon="2.54403">
        <ele>67</ele>
        <time>2020-06-11T12:20:49Z</time>
      </trkpt>
      <trkpt lat="43.19536" lon="2.54408">
        <ele>67</ele>
        <time>2020-06-11T12:20:51Z</time>
      </trkpt>
      <trkpt lat="43.19518" lon="2.54411">
        <ele>67</ele>
        <time>2020-06-11T12:20:54Z</time>
      </trkpt>
      <trkpt lat="43.19496" lon="2.54411">
        <ele>67</ele>
        <time>2020-06-11T12:20:58Z</time>
      </trkpt>
      <trkpt lat="43.19479" lon="2.54411">
        <ele>67</ele>
        <time>2020-06-11T12:21:01Z</time>
      </trkpt>
      <trkpt lat="43.19468" lon="2.5441">
        <ele>68</ele>
        <time>2020-06-11T12:21:03Z</time>
      </trkpt>
      <trkpt lat="43.19444" lon="2.54408">
        <ele>68</ele>
        <time>2020-06-11T12:21:07Z</time>
      </trkpt>
      <trkpt lat="43.19398" lon="2.54407">
        <ele>68</ele>
        <time>2020-06-11T12:21:14Z</time>
      </trkpt>
      <trkpt lat="43.19371" lon="2.54407">
        <ele>68</ele>
        <time>2020-06-11T12:21:18Z</time>
      </trkpt>
      <trkpt lat="43.19353" lon="2.54408">
        <ele>69</ele>
        <time>2020-06-11T12:21:21Z</time>
      </trkpt>
      <trkpt lat="43.19347" lon="2.54408">
        <ele>69</ele>
        <time>2020-06-11T12:21:22Z</time>
      </trkpt>
      <trkpt lat="43.19294" lon="2.54414">
        <ele>69</ele>
        <time>2020-06-11T12:21:31Z</time>
      </trkpt>
      <trkpt lat="43.19282" lon="2.54415">
        <ele>69</ele>
        <time>2020-06-11T12:21:33Z</time>
      </trkpt>
      <trkpt lat="43.19276" lon="2.54416">
        <ele>69</ele>
        <time>2020-06-11T12:21:34Z</time>
      </trkpt>
      <trkpt lat="43.19263" lon="2.54417">
        <ele>68</ele>
        <time>2020-06-11T12:21:36Z</time>
      </trkpt>
      <trkpt lat="43.19239" lon="2.5442">
        <ele>68</ele>
        <time>2020-06-11T12:21:40Z</time>
      </trkpt>
      <trkpt lat="43.19221" lon="2.54422">
        <ele>68</ele>
        <time>2020-06-11T12:21:43Z</time>
      </trkpt>
      <trkpt lat="43.19192" lon="2.54424">
        <ele>68</ele>
        <time>2020-06-11T12:21:48Z</time>
      </trkpt>
      <trkpt lat="43.19181" lon="2.54425">
        <ele>69</ele>
        <time>2020-06-11T12:21:50Z</time>
      </trkpt>
      <trkpt lat="43.1917" lon="2.54426">
        <ele>69</ele>
        <time>2020-06-11T12:21:52Z</time>
      </trkpt>
      <trkpt lat="43.19147" lon="2.54429">
        <ele>70</ele>
        <time>2020-06-11T12:21:56Z</time>
      </trkpt>
      <trkpt lat="43.19104" lon="2.54432">
        <ele>70</ele>
        <time>2020-06-11T12:22:03Z</time>
      </trkpt>
      <trkpt lat="43.19098" lon="2.54433">
        <ele>70</ele>
        <time>2020-06-11T12:22:04Z</time>
      </trkpt>
      <trkpt lat="43.19086" lon="2.54433">
        <ele>70</ele>
        <time>2020-06-11T12:22:06Z</time>
      </trkpt>
      <trkpt lat="43.19043" lon="2.54435">
        <ele>70</ele>
        <time>2020-06-11T12:22:13Z</time>
      </trkpt>
      <trkpt lat="43.19009" lon="2.54447">
        <ele>70</ele>
        <time>2020-06-11T12:22:19Z</time>
      </trkpt>
      <trkpt lat="43.19004" lon="2.5445">
        <ele>70</ele>
        <time>2020-06-11T12:22:20Z</time>
      </trkpt>
      <trkpt lat="43.18985" lon="2.54469">
        <ele>70</ele>
        <time>2020-06-11T12:22:24Z</time>
      </trkpt>
      <trkpt lat="43.18953" lon="2.54506">
        <ele>71</ele>
        <time>2020-06-11T12:22:31Z</time>
      </trkpt>
      <trkpt lat="43.18946" lon="2.54519">
        <ele>71</ele>
        <time>2020-06-11T12:22:33Z</time>
      </trkpt>
      <trkpt lat="43.18943" lon="2.54526">
        <ele>71</ele>
        <time>2020-06-11T12:22:34Z</time>
      </trkpt>
      <trkpt lat="43.18938" lon="2.5454">
        <ele>72</ele>
        <time>2020-06-11T12:22:36Z</time>
      </trkpt>
      <trkpt lat="43.18925" lon="2.54575">
        <ele>74</ele>
        <time>2020-06-11T12:22:41Z</time>
      </trkpt>
      <trkpt lat="43.18923" lon="2.54582">
        <ele>74</ele>
        <time>2020-06-11T12:22:42Z</time>
      </trkpt>
      <trkpt lat="43.18913" lon="2.5461">
        <ele>75</ele>
        <time>2020-06-11T12:22:46Z</time>
      </trkpt>
      <trkpt lat="43.18909" lon="2.54624">
        <ele>75</ele>
        <time>2020-06-11T12:22:48Z</time>
      </trkpt>
      <trkpt lat="43.18905" lon="2.54636">
        <ele>75</ele>
        <time>2020-06-11T12:22:50Z</time>
      </trkpt>
      <trkpt lat="43.18897" lon="2.5466">
        <ele>75</ele>
        <time>2020-06-11T12:22:54Z</time>
      </trkpt>
      <trkpt lat="43.18895" lon="2.54665">
        <ele>75</ele>
        <time>2020-06-11T12:22:55Z</time>
      </trkpt>
      <trkpt lat="43.18893" lon="2.54671">
        <ele>75</ele>
        <time>2020-06-11T12:22:56Z</time>
      </trkpt>
      <trkpt lat="43.18882" lon="2.54702">
        <ele>76</ele>
        <time>2020-06-11T12:23:01Z</time>
      </trkpt>
      <trkpt lat="43.18878" lon="2.54714">
        <ele>76</ele>
        <time>2020-06-11T12:23:03Z</time>
      </trkpt>
      <trkpt lat="43.18864" lon="2.54756">
        <ele>77</ele>
        <time>2020-06-11T12:23:10Z</time>
      </trkpt>
      <trkpt lat="43.1885" lon="2.54808">
        <ele>76</ele>
        <time>2020-06-11T12:23:18Z</time>
      </trkpt>
      <trkpt lat="43.1884" lon="2.54847">
        <ele>77</ele>
        <time>2020-06-11T12:23:24Z</time>
      </trkpt>
      <trkpt lat="43.18839" lon="2.54853">
        <ele>78</ele>
        <time>2020-06-11T12:23:25Z</time>
      </trkpt>
      <trkpt lat="43.18835" lon="2.54865">
        <ele>78</ele>
        <time>2020-06-11T12:23:27Z</time>
      </trkpt>
      <trkpt lat="43.18813" lon="2.54919">
        <ele>79</ele>
        <time>2020-06-11T12:23:36Z</time>
      </trkpt>
      <trkpt lat="43.18808" lon="2.54929">
        <ele>79</ele>
        <time>2020-06-11T12:23:38Z</time>
      </trkpt>
      <trkpt lat="43.188" lon="2.54945">
        <ele>79</ele>
        <time>2020-06-11T12:23:42Z</time>
      </trkpt>
      <trkpt lat="43.18796" lon="2.54954">
        <ele>79</ele>
        <time>2020-06-11T12:23:45Z</time>
      </trkpt>
      <trkpt lat="43.18791" lon="2.54963">
        <ele>79</ele>
        <time>2020-06-11T12:23:49Z</time>
      </trkpt>
      <trkpt lat="43.18784" lon="2.54975">
        <ele>79</ele>
        <time>2020-06-11T12:23:55Z</time>
      </trkpt>
      <trkpt lat="43.18781" lon="2.54979">
        <ele>79</ele>
        <time>2020-06-11T12:23:59Z</time>
      </trkpt>
      <trkpt lat="43.18778" lon="2.54984">
        <ele>79</ele>
        <time>2020-06-11T12:24:20Z</time>
      </trkpt>
      <trkpt lat="43.18776" lon="2.54986">
        <ele>79</ele>
        <time>2020-06-11T12:24:21Z</time>
      </trkpt>
      <trkpt lat="43.18769" lon="2.54997">
        <ele>79</ele>
        <time>2020-06-11T12:24:24Z</time>
      </trkpt>
      <trkpt lat="43.18766" lon="2.55001">
        <ele>79</ele>
        <time>2020-06-11T12:24:25Z</time>
      </trkpt>
      <trkpt lat="43.18763" lon="2.55005">
        <ele>79</ele>
        <time>2020-06-11T12:24:26Z</time>
      </trkpt>
      <trkpt lat="43.18761" lon="2.55009">
        <ele>79</ele>
        <time>2020-06-11T12:24:27Z</time>
      </trkpt>
      <trkpt lat="43.18758" lon="2.55024">
        <ele>79</ele>
        <time>2020-06-11T12:24:30Z</time>
      </trkpt>
      <trkpt lat="43.18758" lon="2.5503">
        <ele>80</ele>
        <time>2020-06-11T12:24:31Z</time>
      </trkpt>
      <trkpt lat="43.18757" lon="2.55035">
        <ele>80</ele>
        <time>2020-06-11T12:24:32Z</time>
      </trkpt>
      <trkpt lat="43.18754" lon="2.55056">
        <ele>80</ele>
        <time>2020-06-11T12:24:36Z</time>
      </trkpt>
      <trkpt lat="43.18752" lon="2.5506">
        <ele>80</ele>
        <time>2020-06-11T12:24:37Z</time>
      </trkpt>
      <trkpt lat="43.1875" lon="2.55064">
        <ele>80</ele>
        <time>2020-06-11T12:24:38Z</time>
      </trkpt>
      <trkpt lat="43.1874" lon="2.55074">
        <ele>80</ele>
        <time>2020-06-11T12:24:41Z</time>
      </trkpt>
      <trkpt lat="43.18737" lon="2.55078">
        <ele>80</ele>
        <time>2020-06-11T12:24:42Z</time>
      </trkpt>
      <trkpt lat="43.18732" lon="2.55087">
        <ele>81</ele>
        <time>2020-06-11T12:24:44Z</time>
      </trkpt>
      <trkpt lat="43.18728" lon="2.55098">
        <ele>81</ele>
        <time>2020-06-11T12:24:46Z</time>
      </trkpt>
      <trkpt lat="43.18715" lon="2.55131">
        <ele>82</ele>
        <time>2020-06-11T12:24:52Z</time>
      </trkpt>
      <trkpt lat="43.18711" lon="2.55141">
        <ele>83</ele>
        <time>2020-06-11T12:24:54Z</time>
      </trkpt>
      <trkpt lat="43.18709" lon="2.55146">
        <ele>83</ele>
        <time>2020-06-11T12:24:55Z</time>
      </trkpt>
      <trkpt lat="43.18696" lon="2.55178">
        <ele>84</ele>
        <time>2020-06-11T12:25:01Z</time>
      </trkpt>
      <trkpt lat="43.18691" lon="2.55189">
        <ele>84</ele>
        <time>2020-06-11T12:25:03Z</time>
      </trkpt>
      <trkpt lat="43.18682" lon="2.5521">
        <ele>84</ele>
        <time>2020-06-11T12:25:07Z</time>
      </trkpt>
      <trkpt lat="43.18677" lon="2.55221">
        <ele>84</ele>
        <time>2020-06-11T12:25:09Z</time>
      </trkpt>
      <trkpt lat="43.18675" lon="2.55226">
        <ele>84</ele>
        <time>2020-06-11T12:25:10Z</time>
      </trkpt>
      <trkpt lat="43.18665" lon="2.55248">
        <ele>84</ele>
        <time>2020-06-11T12:25:14Z</time>
      </trkpt>
      <trkpt lat="43.18654" lon="2.55272">
        <ele>83</ele>
        <time>2020-06-11T12:25:19Z</time>
      </trkpt>
      <trkpt lat="43.18639" lon="2.553">
        <ele>83</ele>
        <time>2020-06-11T12:25:25Z</time>
      </trkpt>
      <trkpt lat="43.18634" lon="2.5531">
        <ele>83</ele>
        <time>2020-06-11T12:25:27Z</time>
      </trkpt>
      <trkpt lat="43.18625" lon="2.55328">
        <ele>83</ele>
        <time>2020-06-11T12:25:31Z</time>
      </trkpt>
      <trkpt lat="43.18618" lon="2.55343">
        <ele>84</ele>
        <time>2020-06-11T12:25:34Z</time>
      </trkpt>
      <trkpt lat="43.18602" lon="2.55372">
        <ele>84</ele>
        <time>2020-06-11T12:25:39Z</time>
      </trkpt>
      <trkpt lat="43.18593" lon="2.55392">
        <ele>83</ele>
        <time>2020-06-11T12:25:42Z</time>
      </trkpt>
      <trkpt lat="43.1859" lon="2.55398">
        <ele>83</ele>
        <time>2020-06-11T12:25:43Z</time>
      </trkpt>
      <trkpt lat="43.18587" lon="2.55405">
        <ele>83</ele>
        <time>2020-06-11T12:25:44Z</time>
      </trkpt>
      <trkpt lat="43.18584" lon="2.55411">
        <ele>83</ele>
        <time>2020-06-11T12:25:45Z</time>
      </trkpt>
      <trkpt lat="43.18581" lon="2.55418">
        <ele>83</ele>
        <time>2020-06-11T12:25:46Z</time>
      </trkpt>
      <trkpt lat="43.18578" lon="2.55425">
        <ele>83</ele>
        <time>2020-06-11T12:25:47Z</time>
      </trkpt>
      <trkpt lat="43.18573" lon="2.55439">
        <ele>82</ele>
        <time>2020-06-11T12:25:49Z</time>
      </trkpt>
      <trkpt lat="43.18571" lon="2.55446">
        <ele>82</ele>
        <time>2020-06-11T12:25:50Z</time>
      </trkpt>
      <trkpt lat="43.18566" lon="2.55467">
        <ele>81</ele>
        <time>2020-06-11T12:25:53Z</time>
      </trkpt>
      <trkpt lat="43.18554" lon="2.55502">
        <ele>81</ele>
        <time>2020-06-11T12:25:58Z</time>
      </trkpt>
      <trkpt lat="43.1855" lon="2.55516">
        <ele>81</ele>
        <time>2020-06-11T12:26:00Z</time>
      </trkpt>
      <trkpt lat="43.18548" lon="2.55523">
        <ele>81</ele>
        <time>2020-06-11T12:26:01Z</time>
      </trkpt>
      <trkpt lat="43.18542" lon="2.55544">
        <ele>80</ele>
        <time>2020-06-11T12:26:04Z</time>
      </trkpt>
      <trkpt lat="43.18535" lon="2.55564">
        <ele>79</ele>
        <time>2020-06-11T12:26:07Z</time>
      </trkpt>
      <trkpt lat="43.18531" lon="2.55579">
        <ele>79</ele>
        <time>2020-06-11T12:26:09Z</time>
      </trkpt>
      <trkpt lat="43.18529" lon="2.55586">
        <ele>78</ele>
        <time>2020-06-11T12:26:10Z</time>
      </trkpt>
      <trkpt lat="43.18522" lon="2.55607">
        <ele>79</ele>
        <time>2020-06-11T12:26:13Z</time>
      </trkpt>
      <trkpt lat="43.1852" lon="2.55614">
        <ele>79</ele>
        <time>2020-06-11T12:26:14Z</time>
      </trkpt>
      <trkpt lat="43.18514" lon="2.55621">
        <ele>79</ele>
        <time>2020-06-11T12:26:16Z</time>
      </trkpt>
      <trkpt lat="43.1851" lon="2.55623">
        <ele>79</ele>
        <time>2020-06-11T12:26:17Z</time>
      </trkpt>
      <trkpt lat="43.18506" lon="2.55625">
        <ele>79</ele>
        <time>2020-06-11T12:26:18Z</time>
      </trkpt>
      <trkpt lat="43.18493" lon="2.55631">
        <ele>80</ele>
        <time>2020-06-11T12:26:21Z</time>
      </trkpt>
      <trkpt lat="43.1849" lon="2.55634">
        <ele>80</ele>
        <time>2020-06-11T12:26:22Z</time>
      </trkpt>
      <trkpt lat="43.18477" lon="2.5564">
        <ele>81</ele>
        <time>2020-06-11T12:26:25Z</time>
      </trkpt>
      <trkpt lat="43.18463" lon="2.55647">
        <ele>82</ele>
        <time>2020-06-11T12:26:28Z</time>
      </trkpt>
      <trkpt lat="43.18459" lon="2.5565">
        <ele>82</ele>
        <time>2020-06-11T12:26:29Z</time>
      </trkpt>
      <trkpt lat="43.18448" lon="2.55662">
        <ele>82</ele>
        <time>2020-06-11T12:26:32Z</time>
      </trkpt>
      <trkpt lat="43.18445" lon="2.55667">
        <ele>81</ele>
        <time>2020-06-11T12:26:33Z</time>
      </trkpt>
      <trkpt lat="43.18442" lon="2.55671">
        <ele>82</ele>
        <time>2020-06-11T12:26:34Z</time>
      </trkpt>
      <trkpt lat="43.18431" lon="2.55688">
        <ele>83</ele>
        <time>2020-06-11T12:26:38Z</time>
      </trkpt>
      <trkpt lat="43.18428" lon="2.55693">
        <ele>83</ele>
        <time>2020-06-11T12:26:39Z</time>
      </trkpt>
      <trkpt lat="43.18426" lon="2.55698">
        <ele>83</ele>
        <time>2020-06-11T12:26:40Z</time>
      </trkpt>
      <trkpt lat="43.1841" lon="2.55714">
        <ele>84</ele>
        <time>2020-06-11T12:26:45Z</time>
      </trkpt>
      <trkpt lat="43.18408" lon="2.55718">
        <ele>84</ele>
        <time>2020-06-11T12:26:46Z</time>
      </trkpt>
      <trkpt lat="43.18402" lon="2.55729">
        <ele>85</ele>
        <time>2020-06-11T12:26:49Z</time>
      </trkpt>
      <trkpt lat="43.18399" lon="2.55739">
        <ele>85</ele>
        <time>2020-06-11T12:26:51Z</time>
      </trkpt>
      <trkpt lat="43.18387" lon="2.55765">
        <ele>86</ele>
        <time>2020-06-11T12:26:57Z</time>
      </trkpt>
      <trkpt lat="43.18386" lon="2.55769">
        <ele>86</ele>
        <time>2020-06-11T12:26:58Z</time>
      </trkpt>
      <trkpt lat="43.18386" lon="2.55782">
        <ele>86</ele>
        <time>2020-06-11T12:27:01Z</time>
      </trkpt>
      <trkpt lat="43.18385" lon="2.55795">
        <ele>86</ele>
        <time>2020-06-11T12:27:04Z</time>
      </trkpt>
      <trkpt lat="43.18383" lon="2.55798">
        <ele>86</ele>
        <time>2020-06-11T12:27:05Z</time>
      </trkpt>
      <trkpt lat="43.18376" lon="2.55801">
        <ele>86</ele>
        <time>2020-06-11T12:27:07Z</time>
      </trkpt>
      <trkpt lat="43.18364" lon="2.55805">
        <ele>86</ele>
        <time>2020-06-11T12:27:10Z</time>
      </trkpt>
      <trkpt lat="43.18347" lon="2.55817">
        <ele>87</ele>
        <time>2020-06-11T12:27:15Z</time>
      </trkpt>
      <trkpt lat="43.18346" lon="2.55821">
        <ele>88</ele>
        <time>2020-06-11T12:27:16Z</time>
      </trkpt>
      <trkpt lat="43.18343" lon="2.55835">
        <ele>88</ele>
        <time>2020-06-11T12:27:19Z</time>
      </trkpt>
      <trkpt lat="43.18339" lon="2.55847">
        <ele>89</ele>
        <time>2020-06-11T12:27:22Z</time>
      </trkpt>
      <trkpt lat="43.18336" lon="2.55849">
        <ele>89</ele>
        <time>2020-06-11T12:27:23Z</time>
      </trkpt>
      <trkpt lat="43.18326" lon="2.55848">
        <ele>89</ele>
        <time>2020-06-11T12:27:26Z</time>
      </trkpt>
      <trkpt lat="43.18322" lon="2.55847">
        <ele>89</ele>
        <time>2020-06-11T12:27:27Z</time>
      </trkpt>
      <trkpt lat="43.18299" lon="2.55843">
        <ele>88</ele>
        <time>2020-06-11T12:27:33Z</time>
      </trkpt>
      <trkpt lat="43.18288" lon="2.55839">
        <ele>87</ele>
        <time>2020-06-11T12:27:36Z</time>
      </trkpt>
      <trkpt lat="43.18283" lon="2.55836">
        <ele>87</ele>
        <time>2020-06-11T12:27:37Z</time>
      </trkpt>
      <trkpt lat="43.18264" lon="2.55827">
        <ele>86</ele>
        <time>2020-06-11T12:27:42Z</time>
      </trkpt>
      <trkpt lat="43.18261" lon="2.55826">
        <ele>86</ele>
        <time>2020-06-11T12:27:43Z</time>
      </trkpt>
      <trkpt lat="43.18249" lon="2.5582">
        <ele>87</ele>
        <time>2020-06-11T12:27:46Z</time>
      </trkpt>
      <trkpt lat="43.18241" lon="2.55818">
        <ele>87</ele>
        <time>2020-06-11T12:27:48Z</time>
      </trkpt>
      <trkpt lat="43.18233" lon="2.55815">
        <ele>88</ele>
        <time>2020-06-11T12:27:50Z</time>
      </trkpt>
      <trkpt lat="43.18217" lon="2.55814">
        <ele>89</ele>
        <time>2020-06-11T12:27:54Z</time>
      </trkpt>
      <trkpt lat="43.18205" lon="2.55813">
        <ele>89</ele>
        <time>2020-06-11T12:27:57Z</time>
      </trkpt>
      <trkpt lat="43.18197" lon="2.55813">
        <ele>89</ele>
        <time>2020-06-11T12:27:59Z</time>
      </trkpt>
      <trkpt lat="43.18193" lon="2.55813">
        <ele>89</ele>
        <time>2020-06-11T12:28:00Z</time>
      </trkpt>
      <trkpt lat="43.18177" lon="2.55812">
        <ele>90</ele>
        <time>2020-06-11T12:28:04Z</time>
      </trkpt>
      <trkpt lat="43.18169" lon="2.55811">
        <ele>90</ele>
        <time>2020-06-11T12:28:06Z</time>
      </trkpt>
      <trkpt lat="43.18164" lon="2.55811">
        <ele>90</ele>
        <time>2020-06-11T12:28:07Z</time>
      </trkpt>
      <trkpt lat="43.18152" lon="2.5581">
        <ele>90</ele>
        <time>2020-06-11T12:28:10Z</time>
      </trkpt>
      <trkpt lat="43.18131" lon="2.55809">
        <ele>90</ele>
        <time>2020-06-11T12:28:15Z</time>
      </trkpt>
      <trkpt lat="43.18122" lon="2.5581">
        <ele>90</ele>
        <time>2020-06-11T12:28:17Z</time>
      </trkpt>
      <trkpt lat="43.18092" lon="2.55815">
        <ele>91</ele>
        <time>2020-06-11T12:28:24Z</time>
      </trkpt>
      <trkpt lat="43.1805" lon="2.55821">
        <ele>91</ele>
        <time>2020-06-11T12:28:33Z</time>
      </trkpt>
      <trkpt lat="43.18028" lon="2.55822">
        <ele>91</ele>
        <time>2020-06-11T12:28:38Z</time>
      </trkpt>
      <trkpt lat="43.18016" lon="2.55821">
        <ele>92</ele>
        <time>2020-06-11T12:28:41Z</time>
      </trkpt>
      <trkpt lat="43.18008" lon="2.55819">
        <ele>92</ele>
        <time>2020-06-11T12:28:43Z</time>
      </trkpt>
      <trkpt lat="43.17998" lon="2.55821">
        <ele>93</ele>
        <time>2020-06-11T12:28:45Z</time>
      </trkpt>
      <trkpt lat="43.17994" lon="2.55821">
        <ele>93</ele>
        <time>2020-06-11T12:28:46Z</time>
      </trkpt>
      <trkpt lat="43.1799" lon="2.55822">
        <ele>93</ele>
        <time>2020-06-11T12:28:47Z</time>
      </trkpt>
      <trkpt lat="43.17978" lon="2.55825">
        <ele>94</ele>
        <time>2020-06-11T12:28:50Z</time>
      </trkpt>
      <trkpt lat="43.1797" lon="2.55827">
        <ele>94</ele>
        <time>2020-06-11T12:28:52Z</time>
      </trkpt>
      <trkpt lat="43.17966" lon="2.55828">
        <ele>94</ele>
        <time>2020-06-11T12:28:53Z</time>
      </trkpt>
      <trkpt lat="43.17948" lon="2.55829">
        <ele>96</ele>
        <time>2020-06-11T12:28:58Z</time>
      </trkpt>
      <trkpt lat="43.17945" lon="2.55829">
        <ele>96</ele>
        <time>2020-06-11T12:28:59Z</time>
      </trkpt>
      <trkpt lat="43.17938" lon="2.5583">
        <ele>96</ele>
        <time>2020-06-11T12:29:01Z</time>
      </trkpt>
      <trkpt lat="43.17934" lon="2.5583">
        <ele>97</ele>
        <time>2020-06-11T12:29:02Z</time>
      </trkpt>
      <trkpt lat="43.17913" lon="2.55832">
        <ele>99</ele>
        <time>2020-06-11T12:29:08Z</time>
      </trkpt>
      <trkpt lat="43.17906" lon="2.55832">
        <ele>100</ele>
        <time>2020-06-11T12:29:10Z</time>
      </trkpt>
      <trkpt lat="43.17892" lon="2.55832">
        <ele>101</ele>
        <time>2020-06-11T12:29:14Z</time>
      </trkpt>
      <trkpt lat="43.17885" lon="2.55831">
        <ele>102</ele>
        <time>2020-06-11T12:29:16Z</time>
      </trkpt>
      <trkpt lat="43.17882" lon="2.5583">
        <ele>103</ele>
        <time>2020-06-11T12:29:17Z</time>
      </trkpt>
      <trkpt lat="43.17871" lon="2.55828">
        <ele>104</ele>
        <time>2020-06-11T12:29:20Z</time>
      </trkpt>
      <trkpt lat="43.17857" lon="2.55825">
        <ele>106</ele>
        <time>2020-06-11T12:29:24Z</time>
      </trkpt>
      <trkpt lat="43.17826" lon="2.55812">
        <ele>109</ele>
        <time>2020-06-11T12:29:33Z</time>
      </trkpt>
      <trkpt lat="43.17811" lon="2.55803">
        <ele>111</ele>
        <time>2020-06-11T12:29:38Z</time>
      </trkpt>
      <trkpt lat="43.178" lon="2.55794">
        <ele>111</ele>
        <time>2020-06-11T12:29:42Z</time>
      </trkpt>
      <trkpt lat="43.17791" lon="2.55788">
        <ele>111</ele>
        <time>2020-06-11T12:29:45Z</time>
      </trkpt>
      <trkpt lat="43.17772" lon="2.55778">
        <ele>110</ele>
        <time>2020-06-11T12:29:51Z</time>
      </trkpt>
      <trkpt lat="43.17748" lon="2.55768">
        <ele>110</ele>
        <time>2020-06-11T12:29:58Z</time>
      </trkpt>
      <trkpt lat="43.17741" lon="2.55766">
        <ele>110</ele>
        <time>2020-06-11T12:30:00Z</time>
      </trkpt>
      <trkpt lat="43.17705" lon="2.55754">
        <ele>111</ele>
        <time>2020-06-11T12:30:10Z</time>
      </trkpt>
      <trkpt lat="43.17686" lon="2.55749">
        <ele>112</ele>
        <time>2020-06-11T12:30:15Z</time>
      </trkpt>
      <trkpt lat="43.17663" lon="2.55745">
        <ele>114</ele>
        <time>2020-06-11T12:30:21Z</time>
      </trkpt>
      <trkpt lat="43.17656" lon="2.55744">
        <ele>115</ele>
        <time>2020-06-11T12:30:23Z</time>
      </trkpt>
      <trkpt lat="43.17652" lon="2.55744">
        <ele>115</ele>
        <time>2020-06-11T12:30:24Z</time>
      </trkpt>
      <trkpt lat="43.1763" lon="2.55747">
        <ele>117</ele>
        <time>2020-06-11T12:30:30Z</time>
      </trkpt>
      <trkpt lat="43.17618" lon="2.55762">
        <ele>118</ele>
        <time>2020-06-11T12:30:35Z</time>
      </trkpt>
      <trkpt lat="43.17612" lon="2.55778">
        <ele>118</ele>
        <time>2020-06-11T12:30:39Z</time>
      </trkpt>
      <trkpt lat="43.17609" lon="2.55787">
        <ele>119</ele>
        <time>2020-06-11T12:30:41Z</time>
      </trkpt>
      <trkpt lat="43.17603" lon="2.55812">
        <ele>119</ele>
        <time>2020-06-11T12:30:47Z</time>
      </trkpt>
      <trkpt lat="43.17602" lon="2.55816">
        <ele>120</ele>
        <time>2020-06-11T12:30:48Z</time>
      </trkpt>
      <trkpt lat="43.17594" lon="2.55841">
        <ele>120</ele>
        <time>2020-06-11T12:30:54Z</time>
      </trkpt>
      <trkpt lat="43.17593" lon="2.55845">
        <ele>120</ele>
        <time>2020-06-11T12:30:55Z</time>
      </trkpt>
      <trkpt lat="43.17592" lon="2.55849">
        <ele>120</ele>
        <time>2020-06-11T12:30:56Z</time>
      </trkpt>
      <trkpt lat="43.17591" lon="2.55853">
        <ele>120</ele>
        <time>2020-06-11T12:30:57Z</time>
      </trkpt>
      <trkpt lat="43.17589" lon="2.55861">
        <ele>120</ele>
        <time>2020-06-11T12:30:59Z</time>
      </trkpt>
      <trkpt lat="43.17588" lon="2.55865">
        <ele>120</ele>
        <time>2020-06-11T12:31:00Z</time>
      </trkpt>
      <trkpt lat="43.17587" lon="2.55869">
        <ele>120</ele>
        <time>2020-06-11T12:31:01Z</time>
      </trkpt>
      <trkpt lat="43.17586" lon="2.55873">
        <ele>120</ele>
        <time>2020-06-11T12:31:02Z</time>
      </trkpt>
      <trkpt lat="43.17583" lon="2.55886">
        <ele>121</ele>
        <time>2020-06-11T12:31:05Z</time>
      </trkpt>
      <trkpt lat="43.17578" lon="2.55902">
        <ele>121</ele>
        <time>2020-06-11T12:31:09Z</time>
      </trkpt>
      <trkpt lat="43.17576" lon="2.55906">
        <ele>121</ele>
        <time>2020-06-11T12:31:10Z</time>
      </trkpt>
      <trkpt lat="43.17566" lon="2.55926">
        <ele>122</ele>
        <time>2020-06-11T12:31:15Z</time>
      </trkpt>
      <trkpt lat="43.17562" lon="2.55932">
        <ele>123</ele>
        <time>2020-06-11T12:31:17Z</time>
      </trkpt>
      <trkpt lat="43.17554" lon="2.55941">
        <ele>123</ele>
        <time>2020-06-11T12:31:20Z</time>
      </trkpt>
      <trkpt lat="43.17542" lon="2.55953">
        <ele>123</ele>
        <time>2020-06-11T12:31:24Z</time>
      </trkpt>
      <trkpt lat="43.17537" lon="2.55959">
        <ele>123</ele>
        <time>2020-06-11T12:31:26Z</time>
      </trkpt>
      <trkpt lat="43.17534" lon="2.55962">
        <ele>123</ele>
        <time>2020-06-11T12:31:27Z</time>
      </trkpt>
      <trkpt lat="43.17529" lon="2.55968">
        <ele>123</ele>
        <time>2020-06-11T12:31:29Z</time>
      </trkpt>
      <trkpt lat="43.17519" lon="2.55987">
        <ele>123</ele>
        <time>2020-06-11T12:31:34Z</time>
      </trkpt>
      <trkpt lat="43.17511" lon="2.5602">
        <ele>124</ele>
        <time>2020-06-11T12:31:41Z</time>
      </trkpt>
      <trkpt lat="43.17505" lon="2.56054">
        <ele>125</ele>
        <time>2020-06-11T12:31:47Z</time>
      </trkpt>
      <trkpt lat="43.17503" lon="2.5606">
        <ele>125</ele>
        <time>2020-06-11T12:31:48Z</time>
      </trkpt>
      <trkpt lat="43.17502" lon="2.56065">
        <ele>125</ele>
        <time>2020-06-11T12:31:49Z</time>
      </trkpt>
      <trkpt lat="43.17498" lon="2.56076">
        <ele>124</ele>
        <time>2020-06-11T12:31:51Z</time>
      </trkpt>
      <trkpt lat="43.17497" lon="2.56081">
        <ele>124</ele>
        <time>2020-06-11T12:31:52Z</time>
      </trkpt>
      <trkpt lat="43.17493" lon="2.56092">
        <ele>124</ele>
        <time>2020-06-11T12:31:54Z</time>
      </trkpt>
      <trkpt lat="43.17491" lon="2.56097">
        <ele>124</ele>
        <time>2020-06-11T12:31:55Z</time>
      </trkpt>
      <trkpt lat="43.17488" lon="2.56103">
        <ele>124</ele>
        <time>2020-06-11T12:31:56Z</time>
      </trkpt>
      <trkpt lat="43.17484" lon="2.56114">
        <ele>124</ele>
        <time>2020-06-11T12:31:58Z</time>
      </trkpt>
      <trkpt lat="43.17469" lon="2.56156">
        <ele>125</ele>
        <time>2020-06-11T12:32:05Z</time>
      </trkpt>
      <trkpt lat="43.17464" lon="2.56168">
        <ele>125</ele>
        <time>2020-06-11T12:32:07Z</time>
      </trkpt>
      <trkpt lat="43.17462" lon="2.56174">
        <ele>125</ele>
        <time>2020-06-11T12:32:08Z</time>
      </trkpt>
      <trkpt lat="43.1746" lon="2.5618">
        <ele>125</ele>
        <time>2020-06-11T12:32:09Z</time>
      </trkpt>
      <trkpt lat="43.17454" lon="2.56198">
        <ele>124</ele>
        <time>2020-06-11T12:32:12Z</time>
      </trkpt>
      <trkpt lat="43.17449" lon="2.56211">
        <ele>123</ele>
        <time>2020-06-11T12:32:14Z</time>
      </trkpt>
      <trkpt lat="43.17447" lon="2.56217">
        <ele>123</ele>
        <time>2020-06-11T12:32:15Z</time>
      </trkpt>
      <trkpt lat="43.17441" lon="2.56236">
        <ele>123</ele>
        <time>2020-06-11T12:32:18Z</time>
      </trkpt>
      <trkpt lat="43.17438" lon="2.56241">
        <ele>123</ele>
        <time>2020-06-11T12:32:19Z</time>
      </trkpt>
      <trkpt lat="43.17432" lon="2.56259">
        <ele>123</ele>
        <time>2020-06-11T12:32:22Z</time>
      </trkpt>
      <trkpt lat="43.1743" lon="2.56264">
        <ele>123</ele>
        <time>2020-06-11T12:32:23Z</time>
      </trkpt>
      <trkpt lat="43.17427" lon="2.56269">
        <ele>123</ele>
        <time>2020-06-11T12:32:24Z</time>
      </trkpt>
      <trkpt lat="43.17423" lon="2.56274">
        <ele>122</ele>
        <time>2020-06-11T12:32:25Z</time>
      </trkpt>
      <trkpt lat="43.17419" lon="2.56278">
        <ele>122</ele>
        <time>2020-06-11T12:32:26Z</time>
      </trkpt>
      <trkpt lat="43.17415" lon="2.56281">
        <ele>122</ele>
        <time>2020-06-11T12:32:27Z</time>
      </trkpt>
      <trkpt lat="43.17395" lon="2.56288">
        <ele>122</ele>
        <time>2020-06-11T12:32:31Z</time>
      </trkpt>
      <trkpt lat="43.1739" lon="2.5629">
        <ele>122</ele>
        <time>2020-06-11T12:32:32Z</time>
      </trkpt>
      <trkpt lat="43.17386" lon="2.56291">
        <ele>122</ele>
        <time>2020-06-11T12:32:33Z</time>
      </trkpt>
      <trkpt lat="43.17368" lon="2.56298">
        <ele>122</ele>
        <time>2020-06-11T12:32:37Z</time>
      </trkpt>
      <trkpt lat="43.17359" lon="2.56301">
        <ele>123</ele>
        <time>2020-06-11T12:32:39Z</time>
      </trkpt>
      <trkpt lat="43.17342" lon="2.56308">
        <ele>123</ele>
        <time>2020-06-11T12:32:43Z</time>
      </trkpt>
      <trkpt lat="43.1733" lon="2.56312">
        <ele>124</ele>
        <time>2020-06-11T12:32:46Z</time>
      </trkpt>
      <trkpt lat="43.17327" lon="2.56313">
        <ele>124</ele>
        <time>2020-06-11T12:32:47Z</time>
      </trkpt>
      <trkpt lat="43.17323" lon="2.56314">
        <ele>124</ele>
        <time>2020-06-11T12:32:48Z</time>
      </trkpt>
      <trkpt lat="43.17309" lon="2.5632">
        <ele>125</ele>
        <time>2020-06-11T12:32:52Z</time>
      </trkpt>
      <trkpt lat="43.17302" lon="2.56323">
        <ele>126</ele>
        <time>2020-06-11T12:32:54Z</time>
      </trkpt>
      <trkpt lat="43.17295" lon="2.56324">
        <ele>127</ele>
        <time>2020-06-11T12:32:56Z</time>
      </trkpt>
      <trkpt lat="43.17291" lon="2.56325">
        <ele>128</ele>
        <time>2020-06-11T12:32:57Z</time>
      </trkpt>
      <trkpt lat="43.17274" lon="2.56318">
        <ele>131</ele>
        <time>2020-06-11T12:33:02Z</time>
      </trkpt>
      <trkpt lat="43.1727" lon="2.56312">
        <ele>132</ele>
        <time>2020-06-11T12:33:04Z</time>
      </trkpt>
      <trkpt lat="43.17266" lon="2.56301">
        <ele>133</ele>
        <time>2020-06-11T12:33:07Z</time>
      </trkpt>
      <trkpt lat="43.17262" lon="2.56288">
        <ele>134</ele>
        <time>2020-06-11T12:33:10Z</time>
      </trkpt>
      <trkpt lat="43.1726" lon="2.56275">
        <ele>134</ele>
        <time>2020-06-11T12:33:13Z</time>
      </trkpt>
      <trkpt lat="43.17259" lon="2.56271">
        <ele>134</ele>
        <time>2020-06-11T12:33:14Z</time>
      </trkpt>
      <trkpt lat="43.17257" lon="2.56255">
        <ele>133</ele>
        <time>2020-06-11T12:33:18Z</time>
      </trkpt>
      <trkpt lat="43.1726" lon="2.56238">
        <ele>133</ele>
        <time>2020-06-11T12:33:22Z</time>
      </trkpt>
      <trkpt lat="43.17261" lon="2.56234">
        <ele>132</ele>
        <time>2020-06-11T12:33:23Z</time>
      </trkpt>
      <trkpt lat="43.17273" lon="2.56207">
        <ele>131</ele>
        <time>2020-06-11T12:33:30Z</time>
      </trkpt>
      <trkpt lat="43.17275" lon="2.56203">
        <ele>131</ele>
        <time>2020-06-11T12:33:31Z</time>
      </trkpt>
      <trkpt lat="43.17278" lon="2.56184">
        <ele>131</ele>
        <time>2020-06-11T12:33:35Z</time>
      </trkpt>
      <trkpt lat="43.17278" lon="2.56179">
        <ele>131</ele>
        <time>2020-06-11T12:33:36Z</time>
      </trkpt>
      <trkpt lat="43.17278" lon="2.56161">
        <ele>132</ele>
        <time>2020-06-11T12:33:40Z</time>
      </trkpt>
      <trkpt lat="43.17277" lon="2.56157">
        <ele>132</ele>
        <time>2020-06-11T12:33:41Z</time>
      </trkpt>
      <trkpt lat="43.17275" lon="2.56152">
        <ele>132</ele>
        <time>2020-06-11T12:33:42Z</time>
      </trkpt>
      <trkpt lat="43.17263" lon="2.56132">
        <ele>134</ele>
        <time>2020-06-11T12:33:48Z</time>
      </trkpt>
      <trkpt lat="43.17246" lon="2.56128">
        <ele>136</ele>
        <time>2020-06-11T12:33:53Z</time>
      </trkpt>
      <trkpt lat="43.17224" lon="2.56132">
        <ele>138</ele>
        <time>2020-06-11T12:34:00Z</time>
      </trkpt>
      <trkpt lat="43.17206" lon="2.56125">
        <ele>140</ele>
        <time>2020-06-11T12:34:06Z</time>
      </trkpt>
      <trkpt lat="43.17201" lon="2.56121">
        <ele>141</ele>
        <time>2020-06-11T12:34:08Z</time>
      </trkpt>
      <trkpt lat="43.17186" lon="2.56105">
        <ele>143</ele>
        <time>2020-06-11T12:34:14Z</time>
      </trkpt>
      <trkpt lat="43.17178" lon="2.56091">
        <ele>145</ele>
        <time>2020-06-11T12:34:18Z</time>
      </trkpt>
      <trkpt lat="43.17175" lon="2.56084">
        <ele>145</ele>
        <time>2020-06-11T12:34:20Z</time>
      </trkpt>
      <trkpt lat="43.17172" lon="2.56077">
        <ele>146</ele>
        <time>2020-06-11T12:34:22Z</time>
      </trkpt>
      <trkpt lat="43.17159" lon="2.56043">
        <ele>148</ele>
        <time>2020-06-11T12:34:31Z</time>
      </trkpt>
      <trkpt lat="43.17157" lon="2.56036">
        <ele>149</ele>
        <time>2020-06-11T12:34:33Z</time>
      </trkpt>
      <trkpt lat="43.17155" lon="2.56027">
        <ele>149</ele>
        <time>2020-06-11T12:34:35Z</time>
      </trkpt>
      <trkpt lat="43.17152" lon="2.56015">
        <ele>149</ele>
        <time>2020-06-11T12:34:38Z</time>
      </trkpt>
      <trkpt lat="43.1715" lon="2.55995">
        <ele>149</ele>
        <time>2020-06-11T12:34:43Z</time>
      </trkpt>
      <trkpt lat="43.1715" lon="2.55982">
        <ele>148</ele>
        <time>2020-06-11T12:34:46Z</time>
      </trkpt>
      <trkpt lat="43.17149" lon="2.55969">
        <ele>148</ele>
        <time>2020-06-11T12:34:49Z</time>
      </trkpt>
      <trkpt lat="43.17144" lon="2.55953">
        <ele>147</ele>
        <time>2020-06-11T12:34:53Z</time>
      </trkpt>
      <trkpt lat="43.17137" lon="2.55945">
        <ele>147</ele>
        <time>2020-06-11T12:34:56Z</time>
      </trkpt>
      <trkpt lat="43.1713" lon="2.55942">
        <ele>147</ele>
        <time>2020-06-11T12:34:58Z</time>
      </trkpt>
      <trkpt lat="43.17104" lon="2.55939">
        <ele>151</ele>
        <time>2020-06-11T12:35:06Z</time>
      </trkpt>
      <trkpt lat="43.17098" lon="2.55939">
        <ele>151</ele>
        <time>2020-06-11T12:35:08Z</time>
      </trkpt>
      <trkpt lat="43.17078" lon="2.55942">
        <ele>154</ele>
        <time>2020-06-11T12:35:14Z</time>
      </trkpt>
      <trkpt lat="43.17063" lon="2.55947">
        <ele>155</ele>
        <time>2020-06-11T12:35:19Z</time>
      </trkpt>
      <trkpt lat="43.17056" lon="2.55947">
        <ele>156</ele>
        <time>2020-06-11T12:35:21Z</time>
      </trkpt>
      <trkpt lat="43.17044" lon="2.55942">
        <ele>157</ele>
        <time>2020-06-11T12:35:25Z</time>
      </trkpt>
      <trkpt lat="43.17036" lon="2.55924">
        <ele>157</ele>
        <time>2020-06-11T12:35:30Z</time>
      </trkpt>
      <trkpt lat="43.17034" lon="2.55916">
        <ele>158</ele>
        <time>2020-06-11T12:35:32Z</time>
      </trkpt>
      <trkpt lat="43.17031" lon="2.55904">
        <ele>158</ele>
        <time>2020-06-11T12:35:35Z</time>
      </trkpt>
      <trkpt lat="43.17027" lon="2.55892">
        <ele>159</ele>
        <time>2020-06-11T12:35:38Z</time>
      </trkpt>
      <trkpt lat="43.17021" lon="2.55872">
        <ele>159</ele>
        <time>2020-06-11T12:35:43Z</time>
      </trkpt>
      <trkpt lat="43.17012" lon="2.55849">
        <ele>160</ele>
        <time>2020-06-11T12:35:49Z</time>
      </trkpt>
      <trkpt lat="43.1701" lon="2.55845">
        <ele>160</ele>
        <time>2020-06-11T12:35:50Z</time>
      </trkpt>
      <trkpt lat="43.17001" lon="2.55821">
        <ele>162</ele>
        <time>2020-06-11T12:35:56Z</time>
      </trkpt>
      <trkpt lat="43.16994" lon="2.55802">
        <ele>164</ele>
        <time>2020-06-11T12:36:01Z</time>
      </trkpt>
      <trkpt lat="43.16989" lon="2.5579">
        <ele>165</ele>
        <time>2020-06-11T12:36:04Z</time>
      </trkpt>
      <trkpt lat="43.16983" lon="2.5577">
        <ele>166</ele>
        <time>2020-06-11T12:36:09Z</time>
      </trkpt>
      <trkpt lat="43.16982" lon="2.55766">
        <ele>166</ele>
        <time>2020-06-11T12:36:10Z</time>
      </trkpt>
      <trkpt lat="43.16978" lon="2.55745">
        <ele>167</ele>
        <time>2020-06-11T12:36:15Z</time>
      </trkpt>
      <trkpt lat="43.16976" lon="2.55733">
        <ele>168</ele>
        <time>2020-06-11T12:36:18Z</time>
      </trkpt>
      <trkpt lat="43.16974" lon="2.5572">
        <ele>168</ele>
        <time>2020-06-11T12:36:21Z</time>
      </trkpt>
      <trkpt lat="43.16971" lon="2.55698">
        <ele>169</ele>
        <time>2020-06-11T12:36:26Z</time>
      </trkpt>
      <trkpt lat="43.16969" lon="2.55681">
        <ele>170</ele>
        <time>2020-06-11T12:36:30Z</time>
      </trkpt>
      <trkpt lat="43.16967" lon="2.55664">
        <ele>171</ele>
        <time>2020-06-11T12:36:34Z</time>
      </trkpt>
      <trkpt lat="43.16965" lon="2.55651">
        <ele>171</ele>
        <time>2020-06-11T12:36:37Z</time>
      </trkpt>
      <trkpt lat="43.16965" lon="2.55628">
        <ele>172</ele>
        <time>2020-06-11T12:36:42Z</time>
      </trkpt>
      <trkpt lat="43.16966" lon="2.55624">
        <ele>172</ele>
        <time>2020-06-11T12:36:43Z</time>
      </trkpt>
      <trkpt lat="43.16974" lon="2.55605">
        <ele>172</ele>
        <time>2020-06-11T12:36:48Z</time>
      </trkpt>
      <trkpt lat="43.16992" lon="2.55577">
        <ele>172</ele>
        <time>2020-06-11T12:36:56Z</time>
      </trkpt>
      <trkpt lat="43.16994" lon="2.55573">
        <ele>172</ele>
        <time>2020-06-11T12:36:57Z</time>
      </trkpt>
      <trkpt lat="43.16998" lon="2.55553">
        <ele>173</ele>
        <time>2020-06-11T12:37:02Z</time>
      </trkpt>
      <trkpt lat="43.16993" lon="2.55532">
        <ele>174</ele>
        <time>2020-06-11T12:37:07Z</time>
      </trkpt>
      <trkpt lat="43.16991" lon="2.55529">
        <ele>174</ele>
        <time>2020-06-11T12:37:08Z</time>
      </trkpt>
      <trkpt lat="43.16981" lon="2.55516">
        <ele>175</ele>
        <time>2020-06-11T12:37:12Z</time>
      </trkpt>
      <trkpt lat="43.16979" lon="2.55514">
        <ele>175</ele>
        <time>2020-06-11T12:37:13Z</time>
      </trkpt>
      <trkpt lat="43.16967" lon="2.55507">
        <ele>176</ele>
        <time>2020-06-11T12:37:17Z</time>
      </trkpt>
      <trkpt lat="43.16958" lon="2.55505">
        <ele>177</ele>
        <time>2020-06-11T12:37:20Z</time>
      </trkpt>
      <trkpt lat="43.16951" lon="2.55506">
        <ele>178</ele>
        <time>2020-06-11T12:37:22Z</time>
      </trkpt>
      <trkpt lat="43.1694" lon="2.55513">
        <ele>179</ele>
        <time>2020-06-11T12:37:26Z</time>
      </trkpt>
      <trkpt lat="43.16932" lon="2.55531">
        <ele>181</ele>
        <time>2020-06-11T12:37:31Z</time>
      </trkpt>
      <trkpt lat="43.16931" lon="2.55535">
        <ele>182</ele>
        <time>2020-06-11T12:37:32Z</time>
      </trkpt>
      <trkpt lat="43.16926" lon="2.55555">
        <ele>182</ele>
        <time>2020-06-11T12:37:37Z</time>
      </trkpt>
      <trkpt lat="43.16924" lon="2.55567">
        <ele>183</ele>
        <time>2020-06-11T12:37:40Z</time>
      </trkpt>
      <trkpt lat="43.16919" lon="2.55591">
        <ele>183</ele>
        <time>2020-06-11T12:37:46Z</time>
      </trkpt>
      <trkpt lat="43.16918" lon="2.55603">
        <ele>183</ele>
        <time>2020-06-11T12:37:49Z</time>
      </trkpt>
      <trkpt lat="43.16915" lon="2.55623">
        <ele>184</ele>
        <time>2020-06-11T12:37:54Z</time>
      </trkpt>
      <trkpt lat="43.16907" lon="2.55645">
        <ele>186</ele>
        <time>2020-06-11T12:38:00Z</time>
      </trkpt>
      <trkpt lat="43.16902" lon="2.55654">
        <ele>187</ele>
        <time>2020-06-11T12:38:03Z</time>
      </trkpt>
      <trkpt lat="43.16898" lon="2.5566">
        <ele>188</ele>
        <time>2020-06-11T12:38:05Z</time>
      </trkpt>
      <trkpt lat="43.16892" lon="2.55667">
        <ele>190</ele>
        <time>2020-06-11T12:38:08Z</time>
      </trkpt>
      <trkpt lat="43.16889" lon="2.5567">
        <ele>190</ele>
        <time>2020-06-11T12:38:09Z</time>
      </trkpt>
      <trkpt lat="43.16883" lon="2.55677">
        <ele>192</ele>
        <time>2020-06-11T12:38:12Z</time>
      </trkpt>
      <trkpt lat="43.16872" lon="2.5569">
        <ele>194</ele>
        <time>2020-06-11T12:38:17Z</time>
      </trkpt>
      <trkpt lat="43.16863" lon="2.55705">
        <ele>196</ele>
        <time>2020-06-11T12:38:22Z</time>
      </trkpt>
      <trkpt lat="43.16861" lon="2.55713">
        <ele>196</ele>
        <time>2020-06-11T12:38:24Z</time>
      </trkpt>
      <trkpt lat="43.16862" lon="2.55737">
        <ele>196</ele>
        <time>2020-06-11T12:38:30Z</time>
      </trkpt>
      <trkpt lat="43.16871" lon="2.55757">
        <ele>195</ele>
        <time>2020-06-11T12:38:36Z</time>
      </trkpt>
      <trkpt lat="43.16875" lon="2.55766">
        <ele>195</ele>
        <time>2020-06-11T12:38:39Z</time>
      </trkpt>
      <trkpt lat="43.16882" lon="2.55786">
        <ele>195</ele>
        <time>2020-06-11T12:38:45Z</time>
      </trkpt>
      <trkpt lat="43.16884" lon="2.55793">
        <ele>195</ele>
        <time>2020-06-11T12:38:47Z</time>
      </trkpt>
      <trkpt lat="43.16885" lon="2.55808">
        <ele>196</ele>
        <time>2020-06-11T12:38:51Z</time>
      </trkpt>
      <trkpt lat="43.16885" lon="2.55812">
        <ele>196</ele>
        <time>2020-06-11T12:38:52Z</time>
      </trkpt>
      <trkpt lat="43.16883" lon="2.55834">
        <ele>198</ele>
        <time>2020-06-11T12:38:58Z</time>
      </trkpt>
      <trkpt lat="43.16883" lon="2.55838">
        <ele>198</ele>
        <time>2020-06-11T12:38:59Z</time>
      </trkpt>
      <trkpt lat="43.16883" lon="2.55841">
        <ele>198</ele>
        <time>2020-06-11T12:39:00Z</time>
      </trkpt>
      <trkpt lat="43.16882" lon="2.55856">
        <ele>198</ele>
        <time>2020-06-11T12:39:04Z</time>
      </trkpt>
      <trkpt lat="43.16882" lon="2.5586">
        <ele>198</ele>
        <time>2020-06-11T12:39:05Z</time>
      </trkpt>
      <trkpt lat="43.16878" lon="2.55878">
        <ele>199</ele>
        <time>2020-06-11T12:39:10Z</time>
      </trkpt>
      <trkpt lat="43.16877" lon="2.55881">
        <ele>199</ele>
        <time>2020-06-11T12:39:11Z</time>
      </trkpt>
      <trkpt lat="43.1687" lon="2.55901">
        <ele>200</ele>
        <time>2020-06-11T12:39:17Z</time>
      </trkpt>
      <trkpt lat="43.16868" lon="2.55907">
        <ele>200</ele>
        <time>2020-06-11T12:39:19Z</time>
      </trkpt>
      <trkpt lat="43.16856" lon="2.55924">
        <ele>203</ele>
        <time>2020-06-11T12:39:26Z</time>
      </trkpt>
      <trkpt lat="43.16852" lon="2.55928">
        <ele>204</ele>
        <time>2020-06-11T12:39:28Z</time>
      </trkpt>
      <trkpt lat="43.16842" lon="2.55939">
        <ele>206</ele>
        <time>2020-06-11T12:39:33Z</time>
      </trkpt>
      <trkpt lat="43.1684" lon="2.55941">
        <ele>206</ele>
        <time>2020-06-11T12:39:34Z</time>
      </trkpt>
      <trkpt lat="43.16834" lon="2.55951">
        <ele>209</ele>
        <time>2020-06-11T12:39:38Z</time>
      </trkpt>
      <trkpt lat="43.16832" lon="2.55958">
        <ele>210</ele>
        <time>2020-06-11T12:39:40Z</time>
      </trkpt>
      <trkpt lat="43.16831" lon="2.55972">
        <ele>211</ele>
        <time>2020-06-11T12:39:44Z</time>
      </trkpt>
      <trkpt lat="43.16832" lon="2.55978">
        <ele>211</ele>
        <time>2020-06-11T12:39:46Z</time>
      </trkpt>
      <trkpt lat="43.1684" lon="2.55997">
        <ele>210</ele>
        <time>2020-06-11T12:39:52Z</time>
      </trkpt>
      <trkpt lat="43.16841" lon="2.56">
        <ele>210</ele>
        <time>2020-06-11T12:39:53Z</time>
      </trkpt>
      <trkpt lat="43.16848" lon="2.56023">
        <ele>210</ele>
        <time>2020-06-11T12:40:00Z</time>
      </trkpt>
      <trkpt lat="43.16849" lon="2.56026">
        <ele>211</ele>
        <time>2020-06-11T12:40:01Z</time>
      </trkpt>
      <trkpt lat="43.1685" lon="2.56033">
        <ele>211</ele>
        <time>2020-06-11T12:40:03Z</time>
      </trkpt>
      <trkpt lat="43.16851" lon="2.56051">
        <ele>212</ele>
        <time>2020-06-11T12:40:08Z</time>
      </trkpt>
      <trkpt lat="43.16853" lon="2.56078">
        <ele>212</ele>
        <time>2020-06-11T12:40:16Z</time>
      </trkpt>
      <trkpt lat="43.16852" lon="2.56095">
        <ele>211</ele>
        <time>2020-06-11T12:40:21Z</time>
      </trkpt>
      <trkpt lat="43.1685" lon="2.56106">
        <ele>211</ele>
        <time>2020-06-11T12:40:24Z</time>
      </trkpt>
      <trkpt lat="43.16842" lon="2.56123">
        <ele>211</ele>
        <time>2020-06-11T12:40:30Z</time>
      </trkpt>
      <trkpt lat="43.16836" lon="2.56129">
        <ele>211</ele>
        <time>2020-06-11T12:40:33Z</time>
      </trkpt>
      <trkpt lat="43.16822" lon="2.56136">
        <ele>212</ele>
        <time>2020-06-11T12:40:38Z</time>
      </trkpt>
      <trkpt lat="43.16811" lon="2.56138">
        <ele>213</ele>
        <time>2020-06-11T12:40:42Z</time>
      </trkpt>
      <trkpt lat="43.16801" lon="2.56136">
        <ele>214</ele>
        <time>2020-06-11T12:40:46Z</time>
      </trkpt>
      <trkpt lat="43.16796" lon="2.56134">
        <ele>215</ele>
        <time>2020-06-11T12:40:48Z</time>
      </trkpt>
      <trkpt lat="43.16782" lon="2.56127">
        <ele>217</ele>
        <time>2020-06-11T12:40:54Z</time>
      </trkpt>
      <trkpt lat="43.1677" lon="2.5612">
        <ele>219</ele>
        <time>2020-06-11T12:40:59Z</time>
      </trkpt>
      <trkpt lat="43.16765" lon="2.56117">
        <ele>220</ele>
        <time>2020-06-11T12:41:01Z</time>
      </trkpt>
      <trkpt lat="43.16755" lon="2.56111">
        <ele>221</ele>
        <time>2020-06-11T12:41:05Z</time>
      </trkpt>
      <trkpt lat="43.16746" lon="2.56107">
        <ele>222</ele>
        <time>2020-06-11T12:41:09Z</time>
      </trkpt>
      <trkpt lat="43.16743" lon="2.56106">
        <ele>222</ele>
        <time>2020-06-11T12:41:10Z</time>
      </trkpt>
      <trkpt lat="43.16725" lon="2.56102">
        <ele>222</ele>
        <time>2020-06-11T12:41:17Z</time>
      </trkpt>
      <trkpt lat="43.16722" lon="2.56102">
        <ele>222</ele>
        <time>2020-06-11T12:41:18Z</time>
      </trkpt>
      <trkpt lat="43.16704" lon="2.56099">
        <ele>222</ele>
        <time>2020-06-11T12:41:25Z</time>
      </trkpt>
      <trkpt lat="43.16702" lon="2.56099">
        <ele>222</ele>
        <time>2020-06-11T12:41:26Z</time>
      </trkpt>
      <trkpt lat="43.16685" lon="2.56094">
        <ele>221</ele>
        <time>2020-06-11T12:41:33Z</time>
      </trkpt>
      <trkpt lat="43.16671" lon="2.56084">
        <ele>222</ele>
        <time>2020-06-11T12:41:39Z</time>
      </trkpt>
      <trkpt lat="43.16667" lon="2.5608">
        <ele>223</ele>
        <time>2020-06-11T12:41:41Z</time>
      </trkpt>
      <trkpt lat="43.16654" lon="2.56067">
        <ele>224</ele>
        <time>2020-06-11T12:41:47Z</time>
      </trkpt>
      <trkpt lat="43.16647" lon="2.56062">
        <ele>225</ele>
        <time>2020-06-11T12:41:50Z</time>
      </trkpt>
      <trkpt lat="43.16635" lon="2.5605">
        <ele>226</ele>
        <time>2020-06-11T12:41:56Z</time>
      </trkpt>
      <trkpt lat="43.16633" lon="2.56048">
        <ele>226</ele>
        <time>2020-06-11T12:41:57Z</time>
      </trkpt>
      <trkpt lat="43.16618" lon="2.56036">
        <ele>227</ele>
        <time>2020-06-11T12:42:04Z</time>
      </trkpt>
      <trkpt lat="43.16599" lon="2.56027">
        <ele>228</ele>
        <time>2020-06-11T12:42:12Z</time>
      </trkpt>
      <trkpt lat="43.16594" lon="2.56024">
        <ele>228</ele>
        <time>2020-06-11T12:42:14Z</time>
      </trkpt>
      <trkpt lat="43.16587" lon="2.56021">
        <ele>228</ele>
        <time>2020-06-11T12:42:17Z</time>
      </trkpt>
      <trkpt lat="43.16574" lon="2.56009">
        <ele>229</ele>
        <time>2020-06-11T12:42:23Z</time>
      </trkpt>
      <trkpt lat="43.16569" lon="2.56003">
        <ele>230</ele>
        <time>2020-06-11T12:42:26Z</time>
      </trkpt>
      <trkpt lat="43.16562" lon="2.55994">
        <ele>232</ele>
        <time>2020-06-11T12:42:30Z</time>
      </trkpt>
      <trkpt lat="43.16556" lon="2.55985">
        <ele>234</ele>
        <time>2020-06-11T12:42:34Z</time>
      </trkpt>
      <trkpt lat="43.16546" lon="2.55975">
        <ele>236</ele>
        <time>2020-06-11T12:42:39Z</time>
      </trkpt>
      <trkpt lat="43.16544" lon="2.55973">
        <ele>237</ele>
        <time>2020-06-11T12:42:40Z</time>
      </trkpt>
      <trkpt lat="43.16534" lon="2.55961">
        <ele>238</ele>
        <time>2020-06-11T12:42:45Z</time>
      </trkpt>
      <trkpt lat="43.16532" lon="2.55958">
        <ele>238</ele>
        <time>2020-06-11T12:42:46Z</time>
      </trkpt>
      <trkpt lat="43.1652" lon="2.5594">
        <ele>240</ele>
        <time>2020-06-11T12:42:53Z</time>
      </trkpt>
      <trkpt lat="43.16519" lon="2.55938">
        <ele>241</ele>
        <time>2020-06-11T12:42:54Z</time>
      </trkpt>
      <trkpt lat="43.1651" lon="2.55927">
        <ele>242</ele>
        <time>2020-06-11T12:42:59Z</time>
      </trkpt>
      <trkpt lat="43.16506" lon="2.55923">
        <ele>243</ele>
        <time>2020-06-11T12:43:01Z</time>
      </trkpt>
      <trkpt lat="43.1649" lon="2.5592">
        <ele>243</ele>
        <time>2020-06-11T12:43:08Z</time>
      </trkpt>
      <trkpt lat="43.16474" lon="2.55926">
        <ele>242</ele>
        <time>2020-06-11T12:43:15Z</time>
      </trkpt>
      <trkpt lat="43.16468" lon="2.55929">
        <ele>242</ele>
        <time>2020-06-11T12:43:18Z</time>
      </trkpt>
      <trkpt lat="43.16459" lon="2.55933">
        <ele>243</ele>
        <time>2020-06-11T12:43:22Z</time>
      </trkpt>
      <trkpt lat="43.16454" lon="2.55934">
        <ele>244</ele>
        <time>2020-06-11T12:43:24Z</time>
      </trkpt>
      <trkpt lat="43.16441" lon="2.5594">
        <ele>245</ele>
        <time>2020-06-11T12:43:30Z</time>
      </trkpt>
      <trkpt lat="43.16436" lon="2.55941">
        <ele>246</ele>
        <time>2020-06-11T12:43:32Z</time>
      </trkpt>
      <trkpt lat="43.16429" lon="2.55942">
        <ele>248</ele>
        <time>2020-06-11T12:43:35Z</time>
      </trkpt>
      <trkpt lat="43.16415" lon="2.55946">
        <ele>250</ele>
        <time>2020-06-11T12:43:41Z</time>
      </trkpt>
      <trkpt lat="43.16413" lon="2.55948">
        <ele>250</ele>
        <time>2020-06-11T12:43:42Z</time>
      </trkpt>
      <trkpt lat="43.16402" lon="2.55955">
        <ele>251</ele>
        <time>2020-06-11T12:43:47Z</time>
      </trkpt>
      <trkpt lat="43.16393" lon="2.55962">
        <ele>251</ele>
        <time>2020-06-11T12:43:51Z</time>
      </trkpt>
      <trkpt lat="43.16387" lon="2.55968">
        <ele>251</ele>
        <time>2020-06-11T12:43:54Z</time>
      </trkpt>
      <trkpt lat="43.16376" lon="2.55982">
        <ele>250</ele>
        <time>2020-06-11T12:44:00Z</time>
      </trkpt>
      <trkpt lat="43.16364" lon="2.55995">
        <ele>249</ele>
        <time>2020-06-11T12:44:06Z</time>
      </trkpt>
      <trkpt lat="43.16355" lon="2.56005">
        <ele>249</ele>
        <time>2020-06-11T12:44:11Z</time>
      </trkpt>
      <trkpt lat="43.16353" lon="2.56007">
        <ele>249</ele>
        <time>2020-06-11T12:44:12Z</time>
      </trkpt>
      <trkpt lat="43.16337" lon="2.56016">
        <ele>251</ele>
        <time>2020-06-11T12:44:19Z</time>
      </trkpt>
      <trkpt lat="43.16324" lon="2.56016">
        <ele>253</ele>
        <time>2020-06-11T12:44:24Z</time>
      </trkpt>
      <trkpt lat="43.16317" lon="2.56015">
        <ele>255</ele>
        <time>2020-06-11T12:44:27Z</time>
      </trkpt>
      <trkpt lat="43.16302" lon="2.56013">
        <ele>258</ele>
        <time>2020-06-11T12:44:33Z</time>
      </trkpt>
      <trkpt lat="43.16295" lon="2.56013">
        <ele>260</ele>
        <time>2020-06-11T12:44:36Z</time>
      </trkpt>
      <trkpt lat="43.1629" lon="2.56014">
        <ele>261</ele>
        <time>2020-06-11T12:44:38Z</time>
      </trkpt>
      <trkpt lat="43.16273" lon="2.56019">
        <ele>263</ele>
        <time>2020-06-11T12:44:45Z</time>
      </trkpt>
      <trkpt lat="43.16269" lon="2.56022">
        <ele>263</ele>
        <time>2020-06-11T12:44:47Z</time>
      </trkpt>
      <trkpt lat="43.16254" lon="2.56033">
        <ele>263</ele>
        <time>2020-06-11T12:44:54Z</time>
      </trkpt>
      <trkpt lat="43.16252" lon="2.56034">
        <ele>263</ele>
        <time>2020-06-11T12:44:55Z</time>
      </trkpt>
      <trkpt lat="43.1624" lon="2.56046">
        <ele>263</ele>
        <time>2020-06-11T12:45:01Z</time>
      </trkpt>
      <trkpt lat="43.16234" lon="2.56051">
        <ele>263</ele>
        <time>2020-06-11T12:45:04Z</time>
      </trkpt>
      <trkpt lat="43.1623" lon="2.56055">
        <ele>263</ele>
        <time>2020-06-11T12:45:06Z</time>
      </trkpt>
      <trkpt lat="43.16214" lon="2.56066">
        <ele>265</ele>
        <time>2020-06-11T12:45:13Z</time>
      </trkpt>
      <trkpt lat="43.16205" lon="2.56073">
        <ele>266</ele>
        <time>2020-06-11T12:45:17Z</time>
      </trkpt>
      <trkpt lat="43.16194" lon="2.56079">
        <ele>269</ele>
        <time>2020-06-11T12:45:22Z</time>
      </trkpt>
      <trkpt lat="43.16184" lon="2.56084">
        <ele>270</ele>
        <time>2020-06-11T12:45:26Z</time>
      </trkpt>
      <trkpt lat="43.16174" lon="2.56092">
        <ele>271</ele>
        <time>2020-06-11T12:45:31Z</time>
      </trkpt>
      <trkpt lat="43.16171" lon="2.56094">
        <ele>272</ele>
        <time>2020-06-11T12:45:32Z</time>
      </trkpt>
      <trkpt lat="43.16161" lon="2.56107">
        <ele>272</ele>
        <time>2020-06-11T12:45:38Z</time>
      </trkpt>
      <trkpt lat="43.1616" lon="2.5611">
        <ele>272</ele>
        <time>2020-06-11T12:45:39Z</time>
      </trkpt>
      <trkpt lat="43.16158" lon="2.56125">
        <ele>272</ele>
        <time>2020-06-11T12:45:44Z</time>
      </trkpt>
      <trkpt lat="43.16158" lon="2.56128">
        <ele>272</ele>
        <time>2020-06-11T12:45:45Z</time>
      </trkpt>
      <trkpt lat="43.16161" lon="2.56144">
        <ele>272</ele>
        <time>2020-06-11T12:45:50Z</time>
      </trkpt>
      <trkpt lat="43.16163" lon="2.56146">
        <ele>273</ele>
        <time>2020-06-11T12:45:51Z</time>
      </trkpt>
      <trkpt lat="43.16169" lon="2.56155">
        <ele>273</ele>
        <time>2020-06-11T12:45:55Z</time>
      </trkpt>
      <trkpt lat="43.16176" lon="2.56159">
        <ele>272</ele>
        <time>2020-06-11T12:45:58Z</time>
      </trkpt>
      <trkpt lat="43.1618" lon="2.5616">
        <ele>272</ele>
        <time>2020-06-11T12:46:00Z</time>
      </trkpt>
      <trkpt lat="43.16189" lon="2.56158">
        <ele>272</ele>
        <time>2020-06-11T12:46:04Z</time>
      </trkpt>
      <trkpt lat="43.16201" lon="2.56153">
        <ele>270</ele>
        <time>2020-06-11T12:46:10Z</time>
      </trkpt>
      <trkpt lat="43.16206" lon="2.56153">
        <ele>270</ele>
        <time>2020-06-11T12:46:12Z</time>
      </trkpt>
      <trkpt lat="43.16214" lon="2.56155">
        <ele>270</ele>
        <time>2020-06-11T12:46:16Z</time>
      </trkpt>
      <trkpt lat="43.1622" lon="2.56166">
        <ele>272</ele>
        <time>2020-06-11T12:46:21Z</time>
      </trkpt>
      <trkpt lat="43.1622" lon="2.56176">
        <ele>274</ele>
        <time>2020-06-11T12:46:24Z</time>
      </trkpt>
      <trkpt lat="43.16219" lon="2.56178">
        <ele>275</ele>
        <time>2020-06-11T12:46:25Z</time>
      </trkpt>
      <trkpt lat="43.16216" lon="2.56181">
        <ele>276</ele>
        <time>2020-06-11T12:46:27Z</time>
      </trkpt>
      <trkpt lat="43.16212" lon="2.56182">
        <ele>276</ele>
        <time>2020-06-11T12:46:29Z</time>
      </trkpt>
      <trkpt lat="43.16208" lon="2.56183">
        <ele>276</ele>
        <time>2020-06-11T12:46:31Z</time>
      </trkpt>
      <trkpt lat="43.16197" lon="2.56186">
        <ele>277</ele>
        <time>2020-06-11T12:46:36Z</time>
      </trkpt>
      <trkpt lat="43.16193" lon="2.56188">
        <ele>277</ele>
        <time>2020-06-11T12:46:38Z</time>
      </trkpt>
      <trkpt lat="43.16186" lon="2.56192">
        <ele>279</ele>
        <time>2020-06-11T12:46:42Z</time>
      </trkpt>
      <trkpt lat="43.16175" lon="2.56196">
        <ele>280</ele>
        <time>2020-06-11T12:46:48Z</time>
      </trkpt>
      <trkpt lat="43.16174" lon="2.56196">
        <ele>280</ele>
        <time>2020-06-11T12:46:49Z</time>
      </trkpt>
      <trkpt lat="43.16163" lon="2.56201">
        <ele>282</ele>
        <time>2020-06-11T12:46:55Z</time>
      </trkpt>
      <trkpt lat="43.16161" lon="2.56202">
        <ele>283</ele>
        <time>2020-06-11T12:46:56Z</time>
      </trkpt>
      <trkpt lat="43.16152" lon="2.56206">
        <ele>284</ele>
        <time>2020-06-11T12:47:01Z</time>
      </trkpt>
      <trkpt lat="43.16144" lon="2.56208">
        <ele>286</ele>
        <time>2020-06-11T12:47:05Z</time>
      </trkpt>
      <trkpt lat="43.1614" lon="2.56209">
        <ele>286</ele>
        <time>2020-06-11T12:47:07Z</time>
      </trkpt>
      <trkpt lat="43.1613" lon="2.5621">
        <ele>287</ele>
        <time>2020-06-11T12:47:12Z</time>
      </trkpt>
      <trkpt lat="43.16125" lon="2.5621">
        <ele>287</ele>
        <time>2020-06-11T12:47:15Z</time>
      </trkpt>
      <trkpt lat="43.16115" lon="2.56212">
        <ele>288</ele>
        <time>2020-06-11T12:47:20Z</time>
      </trkpt>
      <trkpt lat="43.16106" lon="2.56212">
        <ele>288</ele>
        <time>2020-06-11T12:47:24Z</time>
      </trkpt>
      <trkpt lat="43.16096" lon="2.56214">
        <ele>289</ele>
        <time>2020-06-11T12:47:29Z</time>
      </trkpt>
      <trkpt lat="43.16089" lon="2.56214">
        <ele>290</ele>
        <time>2020-06-11T12:47:32Z</time>
      </trkpt>
      <trkpt lat="43.16075" lon="2.56213">
        <ele>290</ele>
        <time>2020-06-11T12:47:39Z</time>
      </trkpt>
      <trkpt lat="43.16061" lon="2.56215">
        <ele>291</ele>
        <time>2020-06-11T12:47:45Z</time>
      </trkpt>
      <trkpt lat="43.16055" lon="2.56217">
        <ele>291</ele>
        <time>2020-06-11T12:47:48Z</time>
      </trkpt>
      <trkpt lat="43.16051" lon="2.56219">
        <ele>291</ele>
        <time>2020-06-11T12:47:50Z</time>
      </trkpt>
      <trkpt lat="43.1604" lon="2.56226">
        <ele>293</ele>
        <time>2020-06-11T12:47:56Z</time>
      </trkpt>
      <trkpt lat="43.16038" lon="2.56227">
        <ele>293</ele>
        <time>2020-06-11T12:47:57Z</time>
      </trkpt>
      <trkpt lat="43.16021" lon="2.5624">
        <ele>295</ele>
        <time>2020-06-11T12:48:06Z</time>
      </trkpt>
      <trkpt lat="43.16002" lon="2.56246">
        <ele>296</ele>
        <time>2020-06-11T12:48:15Z</time>
      </trkpt>
      <trkpt lat="43.15996" lon="2.56245">
        <ele>297</ele>
        <time>2020-06-11T12:48:18Z</time>
      </trkpt>
      <trkpt lat="43.15989" lon="2.56238">
        <ele>297</ele>
        <time>2020-06-11T12:48:22Z</time>
      </trkpt>
      <trkpt lat="43.15987" lon="2.56236">
        <ele>297</ele>
        <time>2020-06-11T12:48:23Z</time>
      </trkpt>
      <trkpt lat="43.1598" lon="2.56222">
        <ele>297</ele>
        <time>2020-06-11T12:48:29Z</time>
      </trkpt>
      <trkpt lat="43.15979" lon="2.56219">
        <ele>298</ele>
        <time>2020-06-11T12:48:30Z</time>
      </trkpt>
      <trkpt lat="43.15967" lon="2.56206">
        <ele>301</ele>
        <time>2020-06-11T12:48:37Z</time>
      </trkpt>
      <trkpt lat="43.15954" lon="2.56204">
        <ele>304</ele>
        <time>2020-06-11T12:48:43Z</time>
      </trkpt>
      <trkpt lat="43.15949" lon="2.56209">
        <ele>305</ele>
        <time>2020-06-11T12:48:46Z</time>
      </trkpt>
      <trkpt lat="43.15946" lon="2.56213">
        <ele>305</ele>
        <time>2020-06-11T12:48:48Z</time>
      </trkpt>
      <trkpt lat="43.15944" lon="2.56218">
        <ele>305</ele>
        <time>2020-06-11T12:48:50Z</time>
      </trkpt>
      <trkpt lat="43.15933" lon="2.5624">
        <ele>306</ele>
        <time>2020-06-11T12:48:59Z</time>
      </trkpt>
      <trkpt lat="43.15931" lon="2.56245">
        <ele>307</ele>
        <time>2020-06-11T12:49:01Z</time>
      </trkpt>
      <trkpt lat="43.15922" lon="2.56267">
        <ele>307</ele>
        <time>2020-06-11T12:49:09Z</time>
      </trkpt>
      <trkpt lat="43.15921" lon="2.5627">
        <ele>307</ele>
        <time>2020-06-11T12:49:10Z</time>
      </trkpt>
      <trkpt lat="43.15917" lon="2.56281">
        <ele>307</ele>
        <time>2020-06-11T12:49:14Z</time>
      </trkpt>
      <trkpt lat="43.15911" lon="2.56295">
        <ele>307</ele>
        <time>2020-06-11T12:49:19Z</time>
      </trkpt>
      <trkpt lat="43.15905" lon="2.56308">
        <ele>307</ele>
        <time>2020-06-11T12:49:24Z</time>
      </trkpt>
      <trkpt lat="43.15902" lon="2.56316">
        <ele>308</ele>
        <time>2020-06-11T12:49:27Z</time>
      </trkpt>
      <trkpt lat="43.15899" lon="2.56324">
        <ele>309</ele>
        <time>2020-06-11T12:49:30Z</time>
      </trkpt>
      <trkpt lat="43.15894" lon="2.56335">
        <ele>309</ele>
        <time>2020-06-11T12:49:34Z</time>
      </trkpt>
      <trkpt lat="43.15891" lon="2.56343">
        <ele>310</ele>
        <time>2020-06-11T12:49:37Z</time>
      </trkpt>
      <trkpt lat="43.15884" lon="2.56359">
        <ele>311</ele>
        <time>2020-06-11T12:49:43Z</time>
      </trkpt>
      <trkpt lat="43.15882" lon="2.56364">
        <ele>312</ele>
        <time>2020-06-11T12:49:45Z</time>
      </trkpt>
      <trkpt lat="43.15874" lon="2.56385">
        <ele>314</ele>
        <time>2020-06-11T12:49:53Z</time>
      </trkpt>
      <trkpt lat="43.15873" lon="2.56387">
        <ele>315</ele>
        <time>2020-06-11T12:49:54Z</time>
      </trkpt>
      <trkpt lat="43.15866" lon="2.56404">
        <ele>316</ele>
        <time>2020-06-11T12:50:00Z</time>
      </trkpt>
      <trkpt lat="43.15862" lon="2.56414">
        <ele>316</ele>
        <time>2020-06-11T12:50:04Z</time>
      </trkpt>
      <trkpt lat="43.15861" lon="2.56417">
        <ele>317</ele>
        <time>2020-06-11T12:50:05Z</time>
      </trkpt>
      <trkpt lat="43.1585" lon="2.56442">
        <ele>318</ele>
        <time>2020-06-11T12:50:14Z</time>
      </trkpt>
      <trkpt lat="43.15849" lon="2.56445">
        <ele>318</ele>
        <time>2020-06-11T12:50:15Z</time>
      </trkpt>
      <trkpt lat="43.1584" lon="2.56464">
        <ele>319</ele>
        <time>2020-06-11T12:50:22Z</time>
      </trkpt>
      <trkpt lat="43.15837" lon="2.56469">
        <ele>319</ele>
        <time>2020-06-11T12:50:24Z</time>
      </trkpt>
      <trkpt lat="43.15827" lon="2.56484">
        <ele>319</ele>
        <time>2020-06-11T12:50:30Z</time>
      </trkpt>
      <trkpt lat="43.1582" lon="2.56494">
        <ele>319</ele>
        <time>2020-06-11T12:50:34Z</time>
      </trkpt>
      <trkpt lat="43.15814" lon="2.56501">
        <ele>319</ele>
        <time>2020-06-11T12:50:37Z</time>
      </trkpt>
      <trkpt lat="43.15805" lon="2.56511">
        <ele>318</ele>
        <time>2020-06-11T12:50:42Z</time>
      </trkpt>
      <trkpt lat="43.15798" lon="2.56518">
        <ele>318</ele>
        <time>2020-06-11T12:50:47Z</time>
      </trkpt>
      <trkpt lat="43.15797" lon="2.56519">
        <ele>318</ele>
        <time>2020-06-11T12:50:48Z</time>
      </trkpt>
      <trkpt lat="43.15797" lon="2.56519">
        <ele>318</ele>
        <time>2020-06-11T12:50:49Z</time>
      </trkpt>
      <trkpt lat="43.15796" lon="2.56522">
        <ele>318</ele>
        <time>2020-06-11T12:55:39Z</time>
      </trkpt>
      <trkpt lat="43.15795" lon="2.56524">
        <ele>318</ele>
        <time>2020-06-11T12:55:40Z</time>
      </trkpt>
      <trkpt lat="43.15793" lon="2.56526">
        <ele>318</ele>
        <time>2020-06-11T12:55:42Z</time>
      </trkpt>
      <trkpt lat="43.15792" lon="2.56528">
        <ele>318</ele>
        <time>2020-06-11T12:55:43Z</time>
      </trkpt>
      <trkpt lat="43.15782" lon="2.56538">
        <ele>317</ele>
        <time>2020-06-11T12:55:47Z</time>
      </trkpt>
      <trkpt lat="43.15777" lon="2.56545">
        <ele>317</ele>
        <time>2020-06-11T12:55:49Z</time>
      </trkpt>
      <trkpt lat="43.15762" lon="2.56561">
        <ele>316</ele>
        <time>2020-06-11T12:55:53Z</time>
      </trkpt>
      <trkpt lat="43.15751" lon="2.56575">
        <ele>315</ele>
        <time>2020-06-11T12:55:56Z</time>
      </trkpt>
      <trkpt lat="43.15743" lon="2.56586">
        <ele>315</ele>
        <time>2020-06-11T12:55:58Z</time>
      </trkpt>
      <trkpt lat="43.1574" lon="2.56593">
        <ele>315</ele>
        <time>2020-06-11T12:55:59Z</time>
      </trkpt>
      <trkpt lat="43.15737" lon="2.56601">
        <ele>314</ele>
        <time>2020-06-11T12:56:00Z</time>
      </trkpt>
      <trkpt lat="43.15734" lon="2.56609">
        <ele>314</ele>
        <time>2020-06-11T12:56:01Z</time>
      </trkpt>
      <trkpt lat="43.15731" lon="2.56627">
        <ele>313</ele>
        <time>2020-06-11T12:56:03Z</time>
      </trkpt>
      <trkpt lat="43.1573" lon="2.56636">
        <ele>313</ele>
        <time>2020-06-11T12:56:04Z</time>
      </trkpt>
      <trkpt lat="43.1573" lon="2.56646">
        <ele>313</ele>
        <time>2020-06-11T12:56:05Z</time>
      </trkpt>
      <trkpt lat="43.15732" lon="2.56666">
        <ele>312</ele>
        <time>2020-06-11T12:56:07Z</time>
      </trkpt>
      <trkpt lat="43.15733" lon="2.56676">
        <ele>312</ele>
        <time>2020-06-11T12:56:08Z</time>
      </trkpt>
      <trkpt lat="43.15733" lon="2.56687">
        <ele>312</ele>
        <time>2020-06-11T12:56:09Z</time>
      </trkpt>
      <trkpt lat="43.15732" lon="2.56697">
        <ele>311</ele>
        <time>2020-06-11T12:56:10Z</time>
      </trkpt>
      <trkpt lat="43.15729" lon="2.56707">
        <ele>310</ele>
        <time>2020-06-11T12:56:11Z</time>
      </trkpt>
      <trkpt lat="43.15723" lon="2.56715">
        <ele>309</ele>
        <time>2020-06-11T12:56:12Z</time>
      </trkpt>
      <trkpt lat="43.15716" lon="2.5672">
        <ele>308</ele>
        <time>2020-06-11T12:56:13Z</time>
      </trkpt>
      <trkpt lat="43.15702" lon="2.5673">
        <ele>306</ele>
        <time>2020-06-11T12:56:15Z</time>
      </trkpt>
      <trkpt lat="43.15695" lon="2.56737">
        <ele>306</ele>
        <time>2020-06-11T12:56:16Z</time>
      </trkpt>
      <trkpt lat="43.1569" lon="2.56745">
        <ele>306</ele>
        <time>2020-06-11T12:56:17Z</time>
      </trkpt>
      <trkpt lat="43.15675" lon="2.56774">
        <ele>307</ele>
        <time>2020-06-11T12:56:20Z</time>
      </trkpt>
      <trkpt lat="43.15671" lon="2.56785">
        <ele>307</ele>
        <time>2020-06-11T12:56:21Z</time>
      </trkpt>
      <trkpt lat="43.15668" lon="2.56796">
        <ele>306</ele>
        <time>2020-06-11T12:56:22Z</time>
      </trkpt>
      <trkpt lat="43.15666" lon="2.56808">
        <ele>305</ele>
        <time>2020-06-11T12:56:23Z</time>
      </trkpt>
      <trkpt lat="43.15665" lon="2.56819">
        <ele>305</ele>
        <time>2020-06-11T12:56:24Z</time>
      </trkpt>
      <trkpt lat="43.15665" lon="2.56832">
        <ele>304</ele>
        <time>2020-06-11T12:56:25Z</time>
      </trkpt>
      <trkpt lat="43.15665" lon="2.56844">
        <ele>304</ele>
        <time>2020-06-11T12:56:26Z</time>
      </trkpt>
      <trkpt lat="43.15666" lon="2.56855">
        <ele>303</ele>
        <time>2020-06-11T12:56:27Z</time>
      </trkpt>
      <trkpt lat="43.15666" lon="2.56867">
        <ele>303</ele>
        <time>2020-06-11T12:56:28Z</time>
      </trkpt>
      <trkpt lat="43.15665" lon="2.56879">
        <ele>303</ele>
        <time>2020-06-11T12:56:29Z</time>
      </trkpt>
      <trkpt lat="43.15663" lon="2.56903">
        <ele>301</ele>
        <time>2020-06-11T12:56:31Z</time>
      </trkpt>
      <trkpt lat="43.15657" lon="2.56937">
        <ele>300</ele>
        <time>2020-06-11T12:56:34Z</time>
      </trkpt>
      <trkpt lat="43.15653" lon="2.56959">
        <ele>300</ele>
        <time>2020-06-11T12:56:36Z</time>
      </trkpt>
      <trkpt lat="43.15651" lon="2.5697">
        <ele>299</ele>
        <time>2020-06-11T12:56:37Z</time>
      </trkpt>
      <trkpt lat="43.15649" lon="2.56981">
        <ele>299</ele>
        <time>2020-06-11T12:56:38Z</time>
      </trkpt>
      <trkpt lat="43.15648" lon="2.56993">
        <ele>299</ele>
        <time>2020-06-11T12:56:39Z</time>
      </trkpt>
      <trkpt lat="43.15649" lon="2.57015">
        <ele>300</ele>
        <time>2020-06-11T12:56:41Z</time>
      </trkpt>
      <trkpt lat="43.15651" lon="2.57027">
        <ele>300</ele>
        <time>2020-06-11T12:56:42Z</time>
      </trkpt>
      <trkpt lat="43.15651" lon="2.57037">
        <ele>300</ele>
        <time>2020-06-11T12:56:43Z</time>
      </trkpt>
      <trkpt lat="43.1565" lon="2.57048">
        <ele>300</ele>
        <time>2020-06-11T12:56:44Z</time>
      </trkpt>
      <trkpt lat="43.15647" lon="2.57057">
        <ele>300</ele>
        <time>2020-06-11T12:56:45Z</time>
      </trkpt>
      <trkpt lat="43.15636" lon="2.57071">
        <ele>299</ele>
        <time>2020-06-11T12:56:47Z</time>
      </trkpt>
      <trkpt lat="43.15621" lon="2.5707">
        <ele>299</ele>
        <time>2020-06-11T12:56:49Z</time>
      </trkpt>
      <trkpt lat="43.1561" lon="2.57057">
        <ele>298</ele>
        <time>2020-06-11T12:56:51Z</time>
      </trkpt>
      <trkpt lat="43.15606" lon="2.57038">
        <ele>297</ele>
        <time>2020-06-11T12:56:53Z</time>
      </trkpt>
      <trkpt lat="43.15605" lon="2.57027">
        <ele>297</ele>
        <time>2020-06-11T12:56:54Z</time>
      </trkpt>
      <trkpt lat="43.15606" lon="2.56992">
        <ele>295</ele>
        <time>2020-06-11T12:56:57Z</time>
      </trkpt>
      <trkpt lat="43.15605" lon="2.56969">
        <ele>294</ele>
        <time>2020-06-11T12:56:59Z</time>
      </trkpt>
      <trkpt lat="43.156" lon="2.56934">
        <ele>292</ele>
        <time>2020-06-11T12:57:02Z</time>
      </trkpt>
      <trkpt lat="43.15597" lon="2.56922">
        <ele>292</ele>
        <time>2020-06-11T12:57:03Z</time>
      </trkpt>
      <trkpt lat="43.15592" lon="2.56898">
        <ele>292</ele>
        <time>2020-06-11T12:57:05Z</time>
      </trkpt>
      <trkpt lat="43.15587" lon="2.56872">
        <ele>292</ele>
        <time>2020-06-11T12:57:07Z</time>
      </trkpt>
      <trkpt lat="43.15577" lon="2.56825">
        <ele>289</ele>
        <time>2020-06-11T12:57:11Z</time>
      </trkpt>
      <trkpt lat="43.15574" lon="2.56813">
        <ele>289</ele>
        <time>2020-06-11T12:57:12Z</time>
      </trkpt>
      <trkpt lat="43.15564" lon="2.56794">
        <ele>287</ele>
        <time>2020-06-11T12:57:14Z</time>
      </trkpt>
      <trkpt lat="43.15549" lon="2.56782">
        <ele>286</ele>
        <time>2020-06-11T12:57:16Z</time>
      </trkpt>
      <trkpt lat="43.1554" lon="2.5678">
        <ele>286</ele>
        <time>2020-06-11T12:57:17Z</time>
      </trkpt>
      <trkpt lat="43.15531" lon="2.56782">
        <ele>285</ele>
        <time>2020-06-11T12:57:18Z</time>
      </trkpt>
      <trkpt lat="43.15521" lon="2.56786">
        <ele>285</ele>
        <time>2020-06-11T12:57:19Z</time>
      </trkpt>
      <trkpt lat="43.15512" lon="2.56791">
        <ele>285</ele>
        <time>2020-06-11T12:57:20Z</time>
      </trkpt>
      <trkpt lat="43.15482" lon="2.56805">
        <ele>283</ele>
        <time>2020-06-11T12:57:23Z</time>
      </trkpt>
      <trkpt lat="43.15462" lon="2.56814">
        <ele>282</ele>
        <time>2020-06-11T12:57:25Z</time>
      </trkpt>
      <trkpt lat="43.15452" lon="2.56818">
        <ele>282</ele>
        <time>2020-06-11T12:57:26Z</time>
      </trkpt>
      <trkpt lat="43.15441" lon="2.5682">
        <ele>281</ele>
        <time>2020-06-11T12:57:27Z</time>
      </trkpt>
      <trkpt lat="43.15408" lon="2.56826">
        <ele>278</ele>
        <time>2020-06-11T12:57:30Z</time>
      </trkpt>
      <trkpt lat="43.15397" lon="2.56827">
        <ele>278</ele>
        <time>2020-06-11T12:57:31Z</time>
      </trkpt>
      <trkpt lat="43.15386" lon="2.56828">
        <ele>277</ele>
        <time>2020-06-11T12:57:32Z</time>
      </trkpt>
      <trkpt lat="43.15375" lon="2.56827">
        <ele>276</ele>
        <time>2020-06-11T12:57:33Z</time>
      </trkpt>
      <trkpt lat="43.15363" lon="2.56825">
        <ele>276</ele>
        <time>2020-06-11T12:57:34Z</time>
      </trkpt>
      <trkpt lat="43.15352" lon="2.5682">
        <ele>275</ele>
        <time>2020-06-11T12:57:35Z</time>
      </trkpt>
      <trkpt lat="43.15341" lon="2.56813">
        <ele>274</ele>
        <time>2020-06-11T12:57:36Z</time>
      </trkpt>
      <trkpt lat="43.15322" lon="2.56794">
        <ele>271</ele>
        <time>2020-06-11T12:57:38Z</time>
      </trkpt>
      <trkpt lat="43.15304" lon="2.56771">
        <ele>269</ele>
        <time>2020-06-11T12:57:40Z</time>
      </trkpt>
      <trkpt lat="43.15285" lon="2.56747">
        <ele>267</ele>
        <time>2020-06-11T12:57:42Z</time>
      </trkpt>
      <trkpt lat="43.15276" lon="2.56735">
        <ele>265</ele>
        <time>2020-06-11T12:57:43Z</time>
      </trkpt>
      <trkpt lat="43.15268" lon="2.56724">
        <ele>264</ele>
        <time>2020-06-11T12:57:44Z</time>
      </trkpt>
      <trkpt lat="43.15259" lon="2.56712">
        <ele>264</ele>
        <time>2020-06-11T12:57:45Z</time>
      </trkpt>
      <trkpt lat="43.15251" lon="2.56701">
        <ele>263</ele>
        <time>2020-06-11T12:57:46Z</time>
      </trkpt>
      <trkpt lat="43.15243" lon="2.56691">
        <ele>263</ele>
        <time>2020-06-11T12:57:47Z</time>
      </trkpt>
      <trkpt lat="43.15234" lon="2.56681">
        <ele>264</ele>
        <time>2020-06-11T12:57:48Z</time>
      </trkpt>
      <trkpt lat="43.15225" lon="2.56673">
        <ele>265</ele>
        <time>2020-06-11T12:57:49Z</time>
      </trkpt>
      <trkpt lat="43.15204" lon="2.56664">
        <ele>264</ele>
        <time>2020-06-11T12:57:51Z</time>
      </trkpt>
      <trkpt lat="43.15183" lon="2.56664">
        <ele>261</ele>
        <time>2020-06-11T12:57:53Z</time>
      </trkpt>
      <trkpt lat="43.15173" lon="2.56667">
        <ele>259</ele>
        <time>2020-06-11T12:57:54Z</time>
      </trkpt>
      <trkpt lat="43.15145" lon="2.56673">
        <ele>255</ele>
        <time>2020-06-11T12:57:57Z</time>
      </trkpt>
      <trkpt lat="43.15137" lon="2.56671">
        <ele>254</ele>
        <time>2020-06-11T12:57:58Z</time>
      </trkpt>
      <trkpt lat="43.15129" lon="2.56667">
        <ele>253</ele>
        <time>2020-06-11T12:57:59Z</time>
      </trkpt>
      <trkpt lat="43.15123" lon="2.5666">
        <ele>253</ele>
        <time>2020-06-11T12:58:00Z</time>
      </trkpt>
      <trkpt lat="43.15118" lon="2.56651">
        <ele>253</ele>
        <time>2020-06-11T12:58:01Z</time>
      </trkpt>
      <trkpt lat="43.15114" lon="2.5664">
        <ele>253</ele>
        <time>2020-06-11T12:58:02Z</time>
      </trkpt>
      <trkpt lat="43.1511" lon="2.56628">
        <ele>253</ele>
        <time>2020-06-11T12:58:03Z</time>
      </trkpt>
      <trkpt lat="43.15098" lon="2.56592">
        <ele>251</ele>
        <time>2020-06-11T12:58:06Z</time>
      </trkpt>
      <trkpt lat="43.15093" lon="2.56579">
        <ele>251</ele>
        <time>2020-06-11T12:58:07Z</time>
      </trkpt>
      <trkpt lat="43.15089" lon="2.56565">
        <ele>251</ele>
        <time>2020-06-11T12:58:08Z</time>
      </trkpt>
      <trkpt lat="43.15079" lon="2.56538">
        <ele>250</ele>
        <time>2020-06-11T12:58:10Z</time>
      </trkpt>
      <trkpt lat="43.15074" lon="2.56524">
        <ele>250</ele>
        <time>2020-06-11T12:58:11Z</time>
      </trkpt>
      <trkpt lat="43.15069" lon="2.56509">
        <ele>249</ele>
        <time>2020-06-11T12:58:12Z</time>
      </trkpt>
      <trkpt lat="43.15058" lon="2.5648">
        <ele>248</ele>
        <time>2020-06-11T12:58:14Z</time>
      </trkpt>
      <trkpt lat="43.15048" lon="2.5645">
        <ele>245</ele>
        <time>2020-06-11T12:58:16Z</time>
      </trkpt>
      <trkpt lat="43.15043" lon="2.56434">
        <ele>243</ele>
        <time>2020-06-11T12:58:17Z</time>
      </trkpt>
      <trkpt lat="43.15035" lon="2.56404">
        <ele>241</ele>
        <time>2020-06-11T12:58:19Z</time>
      </trkpt>
      <trkpt lat="43.15031" lon="2.56388">
        <ele>241</ele>
        <time>2020-06-11T12:58:20Z</time>
      </trkpt>
      <trkpt lat="43.15023" lon="2.56349">
        <ele>241</ele>
        <time>2020-06-11T12:58:23Z</time>
      </trkpt>
      <trkpt lat="43.1502" lon="2.56337">
        <ele>241</ele>
        <time>2020-06-11T12:58:24Z</time>
      </trkpt>
      <trkpt lat="43.15017" lon="2.56327">
        <ele>241</ele>
        <time>2020-06-11T12:58:25Z</time>
      </trkpt>
      <trkpt lat="43.15013" lon="2.56316">
        <ele>241</ele>
        <time>2020-06-11T12:58:26Z</time>
      </trkpt>
      <trkpt lat="43.15002" lon="2.56298">
        <ele>241</ele>
        <time>2020-06-11T12:58:28Z</time>
      </trkpt>
      <trkpt lat="43.14996" lon="2.56291">
        <ele>241</ele>
        <time>2020-06-11T12:58:29Z</time>
      </trkpt>
      <trkpt lat="43.14989" lon="2.56286">
        <ele>240</ele>
        <time>2020-06-11T12:58:30Z</time>
      </trkpt>
      <trkpt lat="43.14981" lon="2.56282">
        <ele>239</ele>
        <time>2020-06-11T12:58:31Z</time>
      </trkpt>
      <trkpt lat="43.14973" lon="2.56277">
        <ele>238</ele>
        <time>2020-06-11T12:58:32Z</time>
      </trkpt>
      <trkpt lat="43.14965" lon="2.56272">
        <ele>236</ele>
        <time>2020-06-11T12:58:33Z</time>
      </trkpt>
      <trkpt lat="43.14959" lon="2.56265">
        <ele>234</ele>
        <time>2020-06-11T12:58:34Z</time>
      </trkpt>
      <trkpt lat="43.14953" lon="2.56257">
        <ele>233</ele>
        <time>2020-06-11T12:58:35Z</time>
      </trkpt>
      <trkpt lat="43.14947" lon="2.56247">
        <ele>231</ele>
        <time>2020-06-11T12:58:36Z</time>
      </trkpt>
      <trkpt lat="43.14943" lon="2.56236">
        <ele>231</ele>
        <time>2020-06-11T12:58:37Z</time>
      </trkpt>
      <trkpt lat="43.1494" lon="2.56225">
        <ele>230</ele>
        <time>2020-06-11T12:58:38Z</time>
      </trkpt>
      <trkpt lat="43.14939" lon="2.56213">
        <ele>230</ele>
        <time>2020-06-11T12:58:39Z</time>
      </trkpt>
      <trkpt lat="43.14939" lon="2.56201">
        <ele>229</ele>
        <time>2020-06-11T12:58:40Z</time>
      </trkpt>
      <trkpt lat="43.14941" lon="2.56189">
        <ele>229</ele>
        <time>2020-06-11T12:58:41Z</time>
      </trkpt>
      <trkpt lat="43.14942" lon="2.56177">
        <ele>229</ele>
        <time>2020-06-11T12:58:42Z</time>
      </trkpt>
      <trkpt lat="43.14944" lon="2.56164">
        <ele>229</ele>
        <time>2020-06-11T12:58:43Z</time>
      </trkpt>
      <trkpt lat="43.14944" lon="2.5615">
        <ele>228</ele>
        <time>2020-06-11T12:58:44Z</time>
      </trkpt>
      <trkpt lat="43.14942" lon="2.56137">
        <ele>227</ele>
        <time>2020-06-11T12:58:45Z</time>
      </trkpt>
      <trkpt lat="43.14939" lon="2.56113">
        <ele>226</ele>
        <time>2020-06-11T12:58:47Z</time>
      </trkpt>
      <trkpt lat="43.14938" lon="2.561">
        <ele>227</ele>
        <time>2020-06-11T12:58:48Z</time>
      </trkpt>
      <trkpt lat="43.14938" lon="2.56086">
        <ele>227</ele>
        <time>2020-06-11T12:58:49Z</time>
      </trkpt>
      <trkpt lat="43.14939" lon="2.56073">
        <ele>227</ele>
        <time>2020-06-11T12:58:50Z</time>
      </trkpt>
      <trkpt lat="43.14945" lon="2.5602">
        <ele>226</ele>
        <time>2020-06-11T12:58:54Z</time>
      </trkpt>
      <trkpt lat="43.14946" lon="2.56007">
        <ele>225</ele>
        <time>2020-06-11T12:58:55Z</time>
      </trkpt>
      <trkpt lat="43.14945" lon="2.55994">
        <ele>225</ele>
        <time>2020-06-11T12:58:56Z</time>
      </trkpt>
      <trkpt lat="43.14939" lon="2.55971">
        <ele>223</ele>
        <time>2020-06-11T12:58:58Z</time>
      </trkpt>
      <trkpt lat="43.14926" lon="2.55951">
        <ele>222</ele>
        <time>2020-06-11T12:59:00Z</time>
      </trkpt>
      <trkpt lat="43.14919" lon="2.55943">
        <ele>221</ele>
        <time>2020-06-11T12:59:01Z</time>
      </trkpt>
      <trkpt lat="43.14904" lon="2.55925">
        <ele>220</ele>
        <time>2020-06-11T12:59:03Z</time>
      </trkpt>
      <trkpt lat="43.14888" lon="2.55906">
        <ele>218</ele>
        <time>2020-06-11T12:59:05Z</time>
      </trkpt>
      <trkpt lat="43.14872" lon="2.55887">
        <ele>216</ele>
        <time>2020-06-11T12:59:07Z</time>
      </trkpt>
      <trkpt lat="43.14864" lon="2.55877">
        <ele>215</ele>
        <time>2020-06-11T12:59:08Z</time>
      </trkpt>
      <trkpt lat="43.14855" lon="2.55867">
        <ele>214</ele>
        <time>2020-06-11T12:59:09Z</time>
      </trkpt>
      <trkpt lat="43.14838" lon="2.55847">
        <ele>212</ele>
        <time>2020-06-11T12:59:11Z</time>
      </trkpt>
      <trkpt lat="43.1482" lon="2.55826">
        <ele>210</ele>
        <time>2020-06-11T12:59:13Z</time>
      </trkpt>
      <trkpt lat="43.14809" lon="2.55818">
        <ele>210</ele>
        <time>2020-06-11T12:59:14Z</time>
      </trkpt>
      <trkpt lat="43.14798" lon="2.55811">
        <ele>209</ele>
        <time>2020-06-11T12:59:15Z</time>
      </trkpt>
      <trkpt lat="43.14786" lon="2.55805">
        <ele>209</ele>
        <time>2020-06-11T12:59:16Z</time>
      </trkpt>
      <trkpt lat="43.14774" lon="2.55801">
        <ele>209</ele>
        <time>2020-06-11T12:59:17Z</time>
      </trkpt>
      <trkpt lat="43.14762" lon="2.55798">
        <ele>208</ele>
        <time>2020-06-11T12:59:18Z</time>
      </trkpt>
      <trkpt lat="43.1475" lon="2.55796">
        <ele>208</ele>
        <time>2020-06-11T12:59:19Z</time>
      </trkpt>
      <trkpt lat="43.14738" lon="2.55793">
        <ele>207</ele>
        <time>2020-06-11T12:59:20Z</time>
      </trkpt>
      <trkpt lat="43.14727" lon="2.5579">
        <ele>206</ele>
        <time>2020-06-11T12:59:21Z</time>
      </trkpt>
      <trkpt lat="43.14703" lon="2.55784">
        <ele>205</ele>
        <time>2020-06-11T12:59:23Z</time>
      </trkpt>
      <trkpt lat="43.14692" lon="2.55781">
        <ele>204</ele>
        <time>2020-06-11T12:59:24Z</time>
      </trkpt>
      <trkpt lat="43.14681" lon="2.55778">
        <ele>204</ele>
        <time>2020-06-11T12:59:25Z</time>
      </trkpt>
      <trkpt lat="43.14669" lon="2.55775">
        <ele>204</ele>
        <time>2020-06-11T12:59:26Z</time>
      </trkpt>
      <trkpt lat="43.14648" lon="2.5577">
        <ele>204</ele>
        <time>2020-06-11T12:59:28Z</time>
      </trkpt>
      <trkpt lat="43.14616" lon="2.55762">
        <ele>204</ele>
        <time>2020-06-11T12:59:31Z</time>
      </trkpt>
      <trkpt lat="43.14606" lon="2.5576">
        <ele>204</ele>
        <time>2020-06-11T12:59:32Z</time>
      </trkpt>
      <trkpt lat="43.14577" lon="2.55753">
        <ele>204</ele>
        <time>2020-06-11T12:59:35Z</time>
      </trkpt>
      <trkpt lat="43.14549" lon="2.55745">
        <ele>203</ele>
        <time>2020-06-11T12:59:38Z</time>
      </trkpt>
      <trkpt lat="43.1454" lon="2.55743">
        <ele>203</ele>
        <time>2020-06-11T12:59:39Z</time>
      </trkpt>
      <trkpt lat="43.14531" lon="2.55741">
        <ele>203</ele>
        <time>2020-06-11T12:59:40Z</time>
      </trkpt>
      <trkpt lat="43.14496" lon="2.55732">
        <ele>203</ele>
        <time>2020-06-11T12:59:44Z</time>
      </trkpt>
      <trkpt lat="43.14487" lon="2.55729">
        <ele>203</ele>
        <time>2020-06-11T12:59:45Z</time>
      </trkpt>
      <trkpt lat="43.1447" lon="2.55725">
        <ele>203</ele>
        <time>2020-06-11T12:59:47Z</time>
      </trkpt>
      <trkpt lat="43.14447" lon="2.5572">
        <ele>202</ele>
        <time>2020-06-11T12:59:50Z</time>
      </trkpt>
      <trkpt lat="43.14439" lon="2.55718">
        <ele>203</ele>
        <time>2020-06-11T12:59:51Z</time>
      </trkpt>
      <trkpt lat="43.14411" lon="2.55711">
        <ele>203</ele>
        <time>2020-06-11T12:59:55Z</time>
      </trkpt>
      <trkpt lat="43.14398" lon="2.55709">
        <ele>203</ele>
        <time>2020-06-11T12:59:57Z</time>
      </trkpt>
      <trkpt lat="43.14391" lon="2.5571">
        <ele>203</ele>
        <time>2020-06-11T12:59:58Z</time>
      </trkpt>
      <trkpt lat="43.14373" lon="2.55714">
        <ele>202</ele>
        <time>2020-06-11T13:00:01Z</time>
      </trkpt>
      <trkpt lat="43.14368" lon="2.55717">
        <ele>202</ele>
        <time>2020-06-11T13:00:02Z</time>
      </trkpt>
      <trkpt lat="43.14362" lon="2.5572">
        <ele>202</ele>
        <time>2020-06-11T13:00:03Z</time>
      </trkpt>
      <trkpt lat="43.14352" lon="2.55728">
        <ele>202</ele>
        <time>2020-06-11T13:00:05Z</time>
      </trkpt>
      <trkpt lat="43.14347" lon="2.55732">
        <ele>202</ele>
        <time>2020-06-11T13:00:06Z</time>
      </trkpt>
      <trkpt lat="43.14339" lon="2.55742">
        <ele>202</ele>
        <time>2020-06-11T13:00:08Z</time>
      </trkpt>
      <trkpt lat="43.14322" lon="2.55761">
        <ele>203</ele>
        <time>2020-06-11T13:00:12Z</time>
      </trkpt>
      <trkpt lat="43.14309" lon="2.55776">
        <ele>204</ele>
        <time>2020-06-11T13:00:15Z</time>
      </trkpt>
      <trkpt lat="43.14297" lon="2.55791">
        <ele>204</ele>
        <time>2020-06-11T13:00:18Z</time>
      </trkpt>
      <trkpt lat="43.14293" lon="2.55795">
        <ele>204</ele>
        <time>2020-06-11T13:00:19Z</time>
      </trkpt>
      <trkpt lat="43.14277" lon="2.55815">
        <ele>204</ele>
        <time>2020-06-11T13:00:23Z</time>
      </trkpt>
      <trkpt lat="43.14272" lon="2.5582">
        <ele>204</ele>
        <time>2020-06-11T13:00:24Z</time>
      </trkpt>
      <trkpt lat="43.14245" lon="2.55853">
        <ele>204</ele>
        <time>2020-06-11T13:00:31Z</time>
      </trkpt>
      <trkpt lat="43.14241" lon="2.55858">
        <ele>204</ele>
        <time>2020-06-11T13:00:32Z</time>
      </trkpt>
      <trkpt lat="43.14237" lon="2.55862">
        <ele>203</ele>
        <time>2020-06-11T13:00:33Z</time>
      </trkpt>
      <trkpt lat="43.14229" lon="2.55872">
        <ele>203</ele>
        <time>2020-06-11T13:00:35Z</time>
      </trkpt>
      <trkpt lat="43.14217" lon="2.55885">
        <ele>203</ele>
        <time>2020-06-11T13:00:38Z</time>
      </trkpt>
      <trkpt lat="43.14205" lon="2.55899">
        <ele>202</ele>
        <time>2020-06-11T13:00:41Z</time>
      </trkpt>
      <trkpt lat="43.14201" lon="2.55904">
        <ele>202</ele>
        <time>2020-06-11T13:00:42Z</time>
      </trkpt>
      <trkpt lat="43.14194" lon="2.55913">
        <ele>203</ele>
        <time>2020-06-11T13:00:44Z</time>
      </trkpt>
      <trkpt lat="43.1419" lon="2.55918">
        <ele>202</ele>
        <time>2020-06-11T13:00:45Z</time>
      </trkpt>
      <trkpt lat="43.14182" lon="2.55927">
        <ele>202</ele>
        <time>2020-06-11T13:00:47Z</time>
      </trkpt>
      <trkpt lat="43.14178" lon="2.55932">
        <ele>202</ele>
        <time>2020-06-11T13:00:48Z</time>
      </trkpt>
      <trkpt lat="43.14174" lon="2.55936">
        <ele>202</ele>
        <time>2020-06-11T13:00:49Z</time>
      </trkpt>
      <trkpt lat="43.1417" lon="2.55941">
        <ele>202</ele>
        <time>2020-06-11T13:00:50Z</time>
      </trkpt>
      <trkpt lat="43.14154" lon="2.55958">
        <ele>202</ele>
        <time>2020-06-11T13:00:54Z</time>
      </trkpt>
      <trkpt lat="43.14146" lon="2.55967">
        <ele>202</ele>
        <time>2020-06-11T13:00:56Z</time>
      </trkpt>
      <trkpt lat="43.14142" lon="2.55971">
        <ele>202</ele>
        <time>2020-06-11T13:00:57Z</time>
      </trkpt>
      <trkpt lat="43.14135" lon="2.5598">
        <ele>202</ele>
        <time>2020-06-11T13:00:59Z</time>
      </trkpt>
      <trkpt lat="43.14126" lon="2.55989">
        <ele>203</ele>
        <time>2020-06-11T13:01:01Z</time>
      </trkpt>
      <trkpt lat="43.14089" lon="2.56031">
        <ele>202</ele>
        <time>2020-06-11T13:01:10Z</time>
      </trkpt>
      <trkpt lat="43.14061" lon="2.56063">
        <ele>200</ele>
        <time>2020-06-11T13:01:17Z</time>
      </trkpt>
      <trkpt lat="43.14058" lon="2.56068">
        <ele>200</ele>
        <time>2020-06-11T13:01:18Z</time>
      </trkpt>
      <trkpt lat="43.1403" lon="2.56098">
        <ele>202</ele>
        <time>2020-06-11T13:01:25Z</time>
      </trkpt>
      <trkpt lat="43.14026" lon="2.56103">
        <ele>203</ele>
        <time>2020-06-11T13:01:26Z</time>
      </trkpt>
      <trkpt lat="43.1401" lon="2.5612">
        <ele>202</ele>
        <time>2020-06-11T13:01:30Z</time>
      </trkpt>
      <trkpt lat="43.13997" lon="2.56134">
        <ele>202</ele>
        <time>2020-06-11T13:01:33Z</time>
      </trkpt>
      <trkpt lat="43.13985" lon="2.56147">
        <ele>202</ele>
        <time>2020-06-11T13:01:36Z</time>
      </trkpt>
      <trkpt lat="43.13977" lon="2.56156">
        <ele>202</ele>
        <time>2020-06-11T13:01:38Z</time>
      </trkpt>
      <trkpt lat="43.13954" lon="2.56182">
        <ele>203</ele>
        <time>2020-06-11T13:01:44Z</time>
      </trkpt>
      <trkpt lat="43.13943" lon="2.56194">
        <ele>205</ele>
        <time>2020-06-11T13:01:47Z</time>
      </trkpt>
      <trkpt lat="43.13936" lon="2.56203">
        <ele>205</ele>
        <time>2020-06-11T13:01:49Z</time>
      </trkpt>
      <trkpt lat="43.1392" lon="2.5622">
        <ele>205</ele>
        <time>2020-06-11T13:01:53Z</time>
      </trkpt>
      <trkpt lat="43.13904" lon="2.56235">
        <ele>204</ele>
        <time>2020-06-11T13:01:57Z</time>
      </trkpt>
      <trkpt lat="43.13899" lon="2.56238">
        <ele>204</ele>
        <time>2020-06-11T13:01:58Z</time>
      </trkpt>
      <trkpt lat="43.13894" lon="2.5624">
        <ele>203</ele>
        <time>2020-06-11T13:01:59Z</time>
      </trkpt>
      <trkpt lat="43.1389" lon="2.56243">
        <ele>203</ele>
        <time>2020-06-11T13:02:00Z</time>
      </trkpt>
      <trkpt lat="43.1388" lon="2.56246">
        <ele>203</ele>
        <time>2020-06-11T13:02:02Z</time>
      </trkpt>
      <trkpt lat="43.1387" lon="2.56247">
        <ele>204</ele>
        <time>2020-06-11T13:02:04Z</time>
      </trkpt>
      <trkpt lat="43.13859" lon="2.56248">
        <ele>204</ele>
        <time>2020-06-11T13:02:06Z</time>
      </trkpt>
      <trkpt lat="43.13835" lon="2.56249">
        <ele>205</ele>
        <time>2020-06-11T13:02:11Z</time>
      </trkpt>
      <trkpt lat="43.1383" lon="2.56249">
        <ele>205</ele>
        <time>2020-06-11T13:02:12Z</time>
      </trkpt>
      <trkpt lat="43.13819" lon="2.5625">
        <ele>205</ele>
        <time>2020-06-11T13:02:14Z</time>
      </trkpt>
      <trkpt lat="43.138" lon="2.56255">
        <ele>206</ele>
        <time>2020-06-11T13:02:18Z</time>
      </trkpt>
      <trkpt lat="43.1379" lon="2.56259">
        <ele>206</ele>
        <time>2020-06-11T13:02:20Z</time>
      </trkpt>
      <trkpt lat="43.13786" lon="2.56262">
        <ele>206</ele>
        <time>2020-06-11T13:02:21Z</time>
      </trkpt>
      <trkpt lat="43.13773" lon="2.56273">
        <ele>206</ele>
        <time>2020-06-11T13:02:24Z</time>
      </trkpt>
      <trkpt lat="43.13768" lon="2.56277">
        <ele>207</ele>
        <time>2020-06-11T13:02:25Z</time>
      </trkpt>
      <trkpt lat="43.13747" lon="2.56295">
        <ele>207</ele>
        <time>2020-06-11T13:02:30Z</time>
      </trkpt>
      <trkpt lat="43.1371" lon="2.56328">
        <ele>207</ele>
        <time>2020-06-11T13:02:39Z</time>
      </trkpt>
      <trkpt lat="43.13706" lon="2.56332">
        <ele>207</ele>
        <time>2020-06-11T13:02:40Z</time>
      </trkpt>
      <trkpt lat="43.13697" lon="2.56339">
        <ele>207</ele>
        <time>2020-06-11T13:02:42Z</time>
      </trkpt>
      <trkpt lat="43.13684" lon="2.56347">
        <ele>207</ele>
        <time>2020-06-11T13:02:45Z</time>
      </trkpt>
      <trkpt lat="43.13679" lon="2.56348">
        <ele>206</ele>
        <time>2020-06-11T13:02:46Z</time>
      </trkpt>
      <trkpt lat="43.13659" lon="2.56351">
        <ele>207</ele>
        <time>2020-06-11T13:02:50Z</time>
      </trkpt>
      <trkpt lat="43.13644" lon="2.56351">
        <ele>208</ele>
        <time>2020-06-11T13:02:53Z</time>
      </trkpt>
      <trkpt lat="43.13615" lon="2.5635">
        <ele>209</ele>
        <time>2020-06-11T13:02:59Z</time>
      </trkpt>
      <trkpt lat="43.1361" lon="2.5635">
        <ele>209</ele>
        <time>2020-06-11T13:03:00Z</time>
      </trkpt>
      <trkpt lat="43.13599" lon="2.5635">
        <ele>209</ele>
        <time>2020-06-11T13:03:02Z</time>
      </trkpt>
      <trkpt lat="43.13575" lon="2.56349">
        <ele>208</ele>
        <time>2020-06-11T13:03:06Z</time>
      </trkpt>
      <trkpt lat="43.13562" lon="2.56349">
        <ele>208</ele>
        <time>2020-06-11T13:03:08Z</time>
      </trkpt>
      <trkpt lat="43.13549" lon="2.56349">
        <ele>207</ele>
        <time>2020-06-11T13:03:10Z</time>
      </trkpt>
      <trkpt lat="43.13535" lon="2.56347">
        <ele>207</ele>
        <time>2020-06-11T13:03:12Z</time>
      </trkpt>
      <trkpt lat="43.13515" lon="2.56343">
        <ele>206</ele>
        <time>2020-06-11T13:03:15Z</time>
      </trkpt>
      <trkpt lat="43.13508" lon="2.56341">
        <ele>206</ele>
        <time>2020-06-11T13:03:16Z</time>
      </trkpt>
      <trkpt lat="43.13501" lon="2.56338">
        <ele>205</ele>
        <time>2020-06-11T13:03:17Z</time>
      </trkpt>
      <trkpt lat="43.13494" lon="2.56335">
        <ele>205</ele>
        <time>2020-06-11T13:03:18Z</time>
      </trkpt>
      <trkpt lat="43.13488" lon="2.56331">
        <ele>205</ele>
        <time>2020-06-11T13:03:19Z</time>
      </trkpt>
      <trkpt lat="43.13481" lon="2.56327">
        <ele>205</ele>
        <time>2020-06-11T13:03:20Z</time>
      </trkpt>
      <trkpt lat="43.13474" lon="2.56322">
        <ele>205</ele>
        <time>2020-06-11T13:03:21Z</time>
      </trkpt>
      <trkpt lat="43.13467" lon="2.56318">
        <ele>205</ele>
        <time>2020-06-11T13:03:22Z</time>
      </trkpt>
      <trkpt lat="43.13461" lon="2.56313">
        <ele>205</ele>
        <time>2020-06-11T13:03:23Z</time>
      </trkpt>
      <trkpt lat="43.13413" lon="2.56278">
        <ele>204</ele>
        <time>2020-06-11T13:03:30Z</time>
      </trkpt>
      <trkpt lat="43.13406" lon="2.56273">
        <ele>203</ele>
        <time>2020-06-11T13:03:31Z</time>
      </trkpt>
      <trkpt lat="43.13399" lon="2.5627">
        <ele>202</ele>
        <time>2020-06-11T13:03:32Z</time>
      </trkpt>
      <trkpt lat="43.13375" lon="2.5626">
        <ele>200</ele>
        <time>2020-06-11T13:03:35Z</time>
      </trkpt>
      <trkpt lat="43.13368" lon="2.56257">
        <ele>199</ele>
        <time>2020-06-11T13:03:36Z</time>
      </trkpt>
      <trkpt lat="43.13346" lon="2.56249">
        <ele>199</ele>
        <time>2020-06-11T13:03:39Z</time>
      </trkpt>
      <trkpt lat="43.13318" lon="2.5624">
        <ele>197</ele>
        <time>2020-06-11T13:03:43Z</time>
      </trkpt>
      <trkpt lat="43.13311" lon="2.56236">
        <ele>197</ele>
        <time>2020-06-11T13:03:44Z</time>
      </trkpt>
      <trkpt lat="43.13292" lon="2.5622">
        <ele>196</ele>
        <time>2020-06-11T13:03:47Z</time>
      </trkpt>
      <trkpt lat="43.13281" lon="2.56208">
        <ele>197</ele>
        <time>2020-06-11T13:03:49Z</time>
      </trkpt>
      <trkpt lat="43.13253" lon="2.56175">
        <ele>196</ele>
        <time>2020-06-11T13:03:54Z</time>
      </trkpt>
      <trkpt lat="43.13214" lon="2.56133">
        <ele>196</ele>
        <time>2020-06-11T13:04:01Z</time>
      </trkpt>
      <trkpt lat="43.13208" lon="2.56129">
        <ele>196</ele>
        <time>2020-06-11T13:04:02Z</time>
      </trkpt>
      <trkpt lat="43.13202" lon="2.56125">
        <ele>197</ele>
        <time>2020-06-11T13:04:03Z</time>
      </trkpt>
      <trkpt lat="43.13196" lon="2.56122">
        <ele>197</ele>
        <time>2020-06-11T13:04:04Z</time>
      </trkpt>
      <trkpt lat="43.13183" lon="2.56116">
        <ele>197</ele>
        <time>2020-06-11T13:04:06Z</time>
      </trkpt>
      <trkpt lat="43.13176" lon="2.56114">
        <ele>197</ele>
        <time>2020-06-11T13:04:07Z</time>
      </trkpt>
      <trkpt lat="43.13145" lon="2.561">
        <ele>197</ele>
        <time>2020-06-11T13:04:12Z</time>
      </trkpt>
      <trkpt lat="43.13135" lon="2.56093">
        <ele>198</ele>
        <time>2020-06-11T13:04:14Z</time>
      </trkpt>
      <trkpt lat="43.13117" lon="2.56071">
        <ele>197</ele>
        <time>2020-06-11T13:04:18Z</time>
      </trkpt>
      <trkpt lat="43.13099" lon="2.56048">
        <ele>198</ele>
        <time>2020-06-11T13:04:23Z</time>
      </trkpt>
      <trkpt lat="43.13091" lon="2.56053">
        <ele>198</ele>
        <time>2020-06-11T13:04:25Z</time>
      </trkpt>
      <trkpt lat="43.13088" lon="2.56059">
        <ele>198</ele>
        <time>2020-06-11T13:04:26Z</time>
      </trkpt>
      <trkpt lat="43.13086" lon="2.56065">
        <ele>198</ele>
        <time>2020-06-11T13:04:27Z</time>
      </trkpt>
      <trkpt lat="43.1308" lon="2.56093">
        <ele>197</ele>
        <time>2020-06-11T13:04:31Z</time>
      </trkpt>
      <trkpt lat="43.13078" lon="2.561">
        <ele>197</ele>
        <time>2020-06-11T13:04:32Z</time>
      </trkpt>
      <trkpt lat="43.13076" lon="2.56108">
        <ele>197</ele>
        <time>2020-06-11T13:04:33Z</time>
      </trkpt>
      <trkpt lat="43.13071" lon="2.5613">
        <ele>196</ele>
        <time>2020-06-11T13:04:36Z</time>
      </trkpt>
      <trkpt lat="43.13065" lon="2.56151">
        <ele>196</ele>
        <time>2020-06-11T13:04:39Z</time>
      </trkpt>
      <trkpt lat="43.13064" lon="2.56158">
        <ele>196</ele>
        <time>2020-06-11T13:04:40Z</time>
      </trkpt>
      <trkpt lat="43.13062" lon="2.56166">
        <ele>195</ele>
        <time>2020-06-11T13:04:41Z</time>
      </trkpt>
      <trkpt lat="43.13058" lon="2.56188">
        <ele>195</ele>
        <time>2020-06-11T13:04:44Z</time>
      </trkpt>
      <trkpt lat="43.13055" lon="2.56203">
        <ele>195</ele>
        <time>2020-06-11T13:04:46Z</time>
      </trkpt>
      <trkpt lat="43.13054" lon="2.5621">
        <ele>195</ele>
        <time>2020-06-11T13:04:47Z</time>
      </trkpt>
      <trkpt lat="43.13049" lon="2.56232">
        <ele>194</ele>
        <time>2020-06-11T13:04:50Z</time>
      </trkpt>
      <trkpt lat="43.13041" lon="2.56263">
        <ele>193</ele>
        <time>2020-06-11T13:04:54Z</time>
      </trkpt>
      <trkpt lat="43.13036" lon="2.56287">
        <ele>192</ele>
        <time>2020-06-11T13:04:57Z</time>
      </trkpt>
      <trkpt lat="43.13036" lon="2.56295">
        <ele>192</ele>
        <time>2020-06-11T13:04:58Z</time>
      </trkpt>
      <trkpt lat="43.13036" lon="2.56303">
        <ele>192</ele>
        <time>2020-06-11T13:04:59Z</time>
      </trkpt>
      <trkpt lat="43.13036" lon="2.56312">
        <ele>192</ele>
        <time>2020-06-11T13:05:00Z</time>
      </trkpt>
      <trkpt lat="43.13036" lon="2.5632">
        <ele>191</ele>
        <time>2020-06-11T13:05:01Z</time>
      </trkpt>
      <trkpt lat="43.13038" lon="2.56336">
        <ele>191</ele>
        <time>2020-06-11T13:05:03Z</time>
      </trkpt>
      <trkpt lat="43.13039" lon="2.56344">
        <ele>191</ele>
        <time>2020-06-11T13:05:04Z</time>
      </trkpt>
      <trkpt lat="43.13041" lon="2.56352">
        <ele>191</ele>
        <time>2020-06-11T13:05:05Z</time>
      </trkpt>
      <trkpt lat="43.13043" lon="2.5636">
        <ele>191</ele>
        <time>2020-06-11T13:05:06Z</time>
      </trkpt>
      <trkpt lat="43.13046" lon="2.56367">
        <ele>191</ele>
        <time>2020-06-11T13:05:07Z</time>
      </trkpt>
      <trkpt lat="43.13055" lon="2.56387">
        <ele>191</ele>
        <time>2020-06-11T13:05:10Z</time>
      </trkpt>
      <trkpt lat="43.13062" lon="2.56399">
        <ele>192</ele>
        <time>2020-06-11T13:05:12Z</time>
      </trkpt>
      <trkpt lat="43.13077" lon="2.56422">
        <ele>192</ele>
        <time>2020-06-11T13:05:16Z</time>
      </trkpt>
      <trkpt lat="43.13093" lon="2.56443">
        <ele>192</ele>
        <time>2020-06-11T13:05:20Z</time>
      </trkpt>
      <trkpt lat="43.13121" lon="2.5648">
        <ele>191</ele>
        <time>2020-06-11T13:05:27Z</time>
      </trkpt>
      <trkpt lat="43.13124" lon="2.56485">
        <ele>191</ele>
        <time>2020-06-11T13:05:28Z</time>
      </trkpt>
      <trkpt lat="43.13128" lon="2.56491">
        <ele>191</ele>
        <time>2020-06-11T13:05:29Z</time>
      </trkpt>
      <trkpt lat="43.13136" lon="2.56501">
        <ele>191</ele>
        <time>2020-06-11T13:05:31Z</time>
      </trkpt>
      <trkpt lat="43.13165" lon="2.56545">
        <ele>192</ele>
        <time>2020-06-11T13:05:39Z</time>
      </trkpt>
      <trkpt lat="43.13174" lon="2.5658">
        <ele>192</ele>
        <time>2020-06-11T13:05:44Z</time>
      </trkpt>
      <trkpt lat="43.13181" lon="2.56607">
        <ele>191</ele>
        <time>2020-06-11T13:05:48Z</time>
      </trkpt>
      <trkpt lat="43.13183" lon="2.56614">
        <ele>191</ele>
        <time>2020-06-11T13:05:49Z</time>
      </trkpt>
      <trkpt lat="43.13186" lon="2.56629">
        <ele>191</ele>
        <time>2020-06-11T13:05:51Z</time>
      </trkpt>
      <trkpt lat="43.1319" lon="2.56682">
        <ele>191</ele>
        <time>2020-06-11T13:05:58Z</time>
      </trkpt>
      <trkpt lat="43.13192" lon="2.56697">
        <ele>191</ele>
        <time>2020-06-11T13:06:00Z</time>
      </trkpt>
      <trkpt lat="43.13198" lon="2.56711">
        <ele>191</ele>
        <time>2020-06-11T13:06:02Z</time>
      </trkpt>
      <trkpt lat="43.13209" lon="2.5673">
        <ele>191</ele>
        <time>2020-06-11T13:06:05Z</time>
      </trkpt>
      <trkpt lat="43.13218" lon="2.56741">
        <ele>191</ele>
        <time>2020-06-11T13:06:07Z</time>
      </trkpt>
      <trkpt lat="43.13226" lon="2.56752">
        <ele>191</ele>
        <time>2020-06-11T13:06:09Z</time>
      </trkpt>
      <trkpt lat="43.1323" lon="2.56758">
        <ele>190</ele>
        <time>2020-06-11T13:06:10Z</time>
      </trkpt>
      <trkpt lat="43.13235" lon="2.56764">
        <ele>190</ele>
        <time>2020-06-11T13:06:11Z</time>
      </trkpt>
      <trkpt lat="43.13243" lon="2.56777">
        <ele>190</ele>
        <time>2020-06-11T13:06:13Z</time>
      </trkpt>
      <trkpt lat="43.13246" lon="2.56784">
        <ele>190</ele>
        <time>2020-06-11T13:06:14Z</time>
      </trkpt>
      <trkpt lat="43.13249" lon="2.56792">
        <ele>190</ele>
        <time>2020-06-11T13:06:15Z</time>
      </trkpt>
      <trkpt lat="43.13253" lon="2.56808">
        <ele>190</ele>
        <time>2020-06-11T13:06:17Z</time>
      </trkpt>
      <trkpt lat="43.13256" lon="2.56824">
        <ele>190</ele>
        <time>2020-06-11T13:06:19Z</time>
      </trkpt>
      <trkpt lat="43.13271" lon="2.56891">
        <ele>190</ele>
        <time>2020-06-11T13:06:27Z</time>
      </trkpt>
      <trkpt lat="43.13289" lon="2.56968">
        <ele>188</ele>
        <time>2020-06-11T13:06:36Z</time>
      </trkpt>
      <trkpt lat="43.13291" lon="2.56976">
        <ele>188</ele>
        <time>2020-06-11T13:06:37Z</time>
      </trkpt>
      <trkpt lat="43.13299" lon="2.5701">
        <ele>188</ele>
        <time>2020-06-11T13:06:41Z</time>
      </trkpt>
      <trkpt lat="43.13307" lon="2.57044">
        <ele>189</ele>
        <time>2020-06-11T13:06:45Z</time>
      </trkpt>
      <trkpt lat="43.13307" lon="2.57053">
        <ele>189</ele>
        <time>2020-06-11T13:06:46Z</time>
      </trkpt>
      <trkpt lat="43.13308" lon="2.57062">
        <ele>189</ele>
        <time>2020-06-11T13:06:47Z</time>
      </trkpt>
      <trkpt lat="43.13306" lon="2.57089">
        <ele>188</ele>
        <time>2020-06-11T13:06:50Z</time>
      </trkpt>
      <trkpt lat="43.13304" lon="2.57098">
        <ele>188</ele>
        <time>2020-06-11T13:06:51Z</time>
      </trkpt>
      <trkpt lat="43.13298" lon="2.57132">
        <ele>188</ele>
        <time>2020-06-11T13:06:55Z</time>
      </trkpt>
      <trkpt lat="43.1329" lon="2.57164">
        <ele>188</ele>
        <time>2020-06-11T13:06:59Z</time>
      </trkpt>
      <trkpt lat="43.13281" lon="2.572">
        <ele>189</ele>
        <time>2020-06-11T13:07:04Z</time>
      </trkpt>
      <trkpt lat="43.13281" lon="2.57207">
        <ele>189</ele>
        <time>2020-06-11T13:07:05Z</time>
      </trkpt>
      <trkpt lat="43.13281" lon="2.57215">
        <ele>189</ele>
        <time>2020-06-11T13:07:06Z</time>
      </trkpt>
      <trkpt lat="43.13287" lon="2.57236">
        <ele>188</ele>
        <time>2020-06-11T13:07:09Z</time>
      </trkpt>
      <trkpt lat="43.13293" lon="2.5725">
        <ele>188</ele>
        <time>2020-06-11T13:07:11Z</time>
      </trkpt>
      <trkpt lat="43.13298" lon="2.57265">
        <ele>188</ele>
        <time>2020-06-11T13:07:13Z</time>
      </trkpt>
      <trkpt lat="43.13301" lon="2.57272">
        <ele>188</ele>
        <time>2020-06-11T13:07:14Z</time>
      </trkpt>
      <trkpt lat="43.13307" lon="2.57288">
        <ele>188</ele>
        <time>2020-06-11T13:07:16Z</time>
      </trkpt>
      <trkpt lat="43.1332" lon="2.57321">
        <ele>188</ele>
        <time>2020-06-11T13:07:20Z</time>
      </trkpt>
      <trkpt lat="43.1333" lon="2.57342">
        <ele>189</ele>
        <time>2020-06-11T13:07:23Z</time>
      </trkpt>
      <trkpt lat="43.13343" lon="2.57367">
        <ele>191</ele>
        <time>2020-06-11T13:07:27Z</time>
      </trkpt>
      <trkpt lat="43.13352" lon="2.57385">
        <ele>192</ele>
        <time>2020-06-11T13:07:30Z</time>
      </trkpt>
      <trkpt lat="43.13358" lon="2.57397">
        <ele>192</ele>
        <time>2020-06-11T13:07:32Z</time>
      </trkpt>
      <trkpt lat="43.13365" lon="2.57416">
        <ele>193</ele>
        <time>2020-06-11T13:07:35Z</time>
      </trkpt>
      <trkpt lat="43.13368" lon="2.5743">
        <ele>193</ele>
        <time>2020-06-11T13:07:37Z</time>
      </trkpt>
      <trkpt lat="43.13369" lon="2.57444">
        <ele>193</ele>
        <time>2020-06-11T13:07:39Z</time>
      </trkpt>
      <trkpt lat="43.13368" lon="2.57458">
        <ele>193</ele>
        <time>2020-06-11T13:07:41Z</time>
      </trkpt>
      <trkpt lat="43.13367" lon="2.57473">
        <ele>193</ele>
        <time>2020-06-11T13:07:43Z</time>
      </trkpt>
      <trkpt lat="43.13364" lon="2.57502">
        <ele>193</ele>
        <time>2020-06-11T13:07:47Z</time>
      </trkpt>
      <trkpt lat="43.13363" lon="2.57516">
        <ele>193</ele>
        <time>2020-06-11T13:07:49Z</time>
      </trkpt>
      <trkpt lat="43.1336" lon="2.57537">
        <ele>194</ele>
        <time>2020-06-11T13:07:52Z</time>
      </trkpt>
      <trkpt lat="43.13359" lon="2.57552">
        <ele>194</ele>
        <time>2020-06-11T13:07:54Z</time>
      </trkpt>
      <trkpt lat="43.13359" lon="2.5756">
        <ele>194</ele>
        <time>2020-06-11T13:07:55Z</time>
      </trkpt>
      <trkpt lat="43.13357" lon="2.57575">
        <ele>194</ele>
        <time>2020-06-11T13:07:57Z</time>
      </trkpt>
      <trkpt lat="43.13354" lon="2.57616">
        <ele>193</ele>
        <time>2020-06-11T13:08:02Z</time>
      </trkpt>
      <trkpt lat="43.13354" lon="2.57694">
        <ele>191</ele>
        <time>2020-06-11T13:08:11Z</time>
      </trkpt>
      <trkpt lat="43.13355" lon="2.57711">
        <ele>191</ele>
        <time>2020-06-11T13:08:13Z</time>
      </trkpt>
      <trkpt lat="43.13356" lon="2.57728">
        <ele>192</ele>
        <time>2020-06-11T13:08:15Z</time>
      </trkpt>
      <trkpt lat="43.13357" lon="2.57753">
        <ele>193</ele>
        <time>2020-06-11T13:08:18Z</time>
      </trkpt>
      <trkpt lat="43.13357" lon="2.57762">
        <ele>193</ele>
        <time>2020-06-11T13:08:19Z</time>
      </trkpt>
      <trkpt lat="43.13356" lon="2.57771">
        <ele>193</ele>
        <time>2020-06-11T13:08:20Z</time>
      </trkpt>
      <trkpt lat="43.13353" lon="2.57798">
        <ele>193</ele>
        <time>2020-06-11T13:08:23Z</time>
      </trkpt>
      <trkpt lat="43.1335" lon="2.57816">
        <ele>193</ele>
        <time>2020-06-11T13:08:25Z</time>
      </trkpt>
      <trkpt lat="43.13347" lon="2.57833">
        <ele>193</ele>
        <time>2020-06-11T13:08:27Z</time>
      </trkpt>
      <trkpt lat="43.13337" lon="2.57897">
        <ele>192</ele>
        <time>2020-06-11T13:08:35Z</time>
      </trkpt>
      <trkpt lat="43.13332" lon="2.57922">
        <ele>191</ele>
        <time>2020-06-11T13:08:38Z</time>
      </trkpt>
      <trkpt lat="43.13331" lon="2.57931">
        <ele>191</ele>
        <time>2020-06-11T13:08:39Z</time>
      </trkpt>
      <trkpt lat="43.13325" lon="2.57967">
        <ele>190</ele>
        <time>2020-06-11T13:08:43Z</time>
      </trkpt>
      <trkpt lat="43.13316" lon="2.58026">
        <ele>190</ele>
        <time>2020-06-11T13:08:49Z</time>
      </trkpt>
      <trkpt lat="43.13315" lon="2.58036">
        <ele>190</ele>
        <time>2020-06-11T13:08:50Z</time>
      </trkpt>
      <trkpt lat="43.13314" lon="2.58047">
        <ele>190</ele>
        <time>2020-06-11T13:08:51Z</time>
      </trkpt>
      <trkpt lat="43.1331" lon="2.58109">
        <ele>189</ele>
        <time>2020-06-11T13:08:57Z</time>
      </trkpt>
      <trkpt lat="43.1331" lon="2.5814">
        <ele>187</ele>
        <time>2020-06-11T13:09:00Z</time>
      </trkpt>
      <trkpt lat="43.13311" lon="2.58151">
        <ele>187</ele>
        <time>2020-06-11T13:09:01Z</time>
      </trkpt>
      <trkpt lat="43.13312" lon="2.58182">
        <ele>187</ele>
        <time>2020-06-11T13:09:04Z</time>
      </trkpt>
      <trkpt lat="43.13313" lon="2.58203">
        <ele>186</ele>
        <time>2020-06-11T13:09:06Z</time>
      </trkpt>
      <trkpt lat="43.13315" lon="2.58236">
        <ele>186</ele>
        <time>2020-06-11T13:09:09Z</time>
      </trkpt>
      <trkpt lat="43.13315" lon="2.58247">
        <ele>185</ele>
        <time>2020-06-11T13:09:10Z</time>
      </trkpt>
      <trkpt lat="43.13317" lon="2.5829">
        <ele>184</ele>
        <time>2020-06-11T13:09:14Z</time>
      </trkpt>
      <trkpt lat="43.1332" lon="2.58344">
        <ele>184</ele>
        <time>2020-06-11T13:09:19Z</time>
      </trkpt>
      <trkpt lat="43.1332" lon="2.58377">
        <ele>184</ele>
        <time>2020-06-11T13:09:22Z</time>
      </trkpt>
      <trkpt lat="43.13322" lon="2.5842">
        <ele>183</ele>
        <time>2020-06-11T13:09:26Z</time>
      </trkpt>
      <trkpt lat="43.13323" lon="2.58431">
        <ele>183</ele>
        <time>2020-06-11T13:09:27Z</time>
      </trkpt>
      <trkpt lat="43.13325" lon="2.58475">
        <ele>183</ele>
        <time>2020-06-11T13:09:31Z</time>
      </trkpt>
      <trkpt lat="43.13327" lon="2.5853">
        <ele>184</ele>
        <time>2020-06-11T13:09:36Z</time>
      </trkpt>
      <trkpt lat="43.13328" lon="2.58551">
        <ele>184</ele>
        <time>2020-06-11T13:09:38Z</time>
      </trkpt>
      <trkpt lat="43.13329" lon="2.58572">
        <ele>184</ele>
        <time>2020-06-11T13:09:40Z</time>
      </trkpt>
      <trkpt lat="43.13332" lon="2.58656">
        <ele>184</ele>
        <time>2020-06-11T13:09:48Z</time>
      </trkpt>
      <trkpt lat="43.13332" lon="2.58666">
        <ele>184</ele>
        <time>2020-06-11T13:09:49Z</time>
      </trkpt>
      <trkpt lat="43.13332" lon="2.58687">
        <ele>184</ele>
        <time>2020-06-11T13:09:51Z</time>
      </trkpt>
      <trkpt lat="43.13332" lon="2.58697">
        <ele>184</ele>
        <time>2020-06-11T13:09:52Z</time>
      </trkpt>
      <trkpt lat="43.13332" lon="2.58707">
        <ele>184</ele>
        <time>2020-06-11T13:09:53Z</time>
      </trkpt>
      <trkpt lat="43.13331" lon="2.58725">
        <ele>183</ele>
        <time>2020-06-11T13:09:55Z</time>
      </trkpt>
      <trkpt lat="43.13328" lon="2.58744">
        <ele>183</ele>
        <time>2020-06-11T13:09:57Z</time>
      </trkpt>
      <trkpt lat="43.13324" lon="2.58783">
        <ele>183</ele>
        <time>2020-06-11T13:10:01Z</time>
      </trkpt>
      <trkpt lat="43.13324" lon="2.58803">
        <ele>184</ele>
        <time>2020-06-11T13:10:03Z</time>
      </trkpt>
      <trkpt lat="43.13324" lon="2.58814">
        <ele>185</ele>
        <time>2020-06-11T13:10:04Z</time>
      </trkpt>
      <trkpt lat="43.13324" lon="2.58824">
        <ele>185</ele>
        <time>2020-06-11T13:10:05Z</time>
      </trkpt>
      <trkpt lat="43.13325" lon="2.58843">
        <ele>186</ele>
        <time>2020-06-11T13:10:07Z</time>
      </trkpt>
      <trkpt lat="43.13325" lon="2.58853">
        <ele>187</ele>
        <time>2020-06-11T13:10:08Z</time>
      </trkpt>
      <trkpt lat="43.13325" lon="2.58883">
        <ele>187</ele>
        <time>2020-06-11T13:10:11Z</time>
      </trkpt>
      <trkpt lat="43.13323" lon="2.58903">
        <ele>188</ele>
        <time>2020-06-11T13:10:13Z</time>
      </trkpt>
      <trkpt lat="43.13321" lon="2.58914">
        <ele>188</ele>
        <time>2020-06-11T13:10:14Z</time>
      </trkpt>
      <trkpt lat="43.13314" lon="2.58944">
        <ele>188</ele>
        <time>2020-06-11T13:10:17Z</time>
      </trkpt>
      <trkpt lat="43.13305" lon="2.58973">
        <ele>187</ele>
        <time>2020-06-11T13:10:20Z</time>
      </trkpt>
      <trkpt lat="43.13292" lon="2.59011">
        <ele>186</ele>
        <time>2020-06-11T13:10:24Z</time>
      </trkpt>
      <trkpt lat="43.13287" lon="2.5903">
        <ele>186</ele>
        <time>2020-06-11T13:10:26Z</time>
      </trkpt>
      <trkpt lat="43.13284" lon="2.59039">
        <ele>186</ele>
        <time>2020-06-11T13:10:27Z</time>
      </trkpt>
      <trkpt lat="43.13281" lon="2.5906">
        <ele>186</ele>
        <time>2020-06-11T13:10:29Z</time>
      </trkpt>
      <trkpt lat="43.13277" lon="2.59101">
        <ele>185</ele>
        <time>2020-06-11T13:10:33Z</time>
      </trkpt>
      <trkpt lat="43.13273" lon="2.5914">
        <ele>185</ele>
        <time>2020-06-11T13:10:37Z</time>
      </trkpt>
      <trkpt lat="43.13266" lon="2.59187">
        <ele>186</ele>
        <time>2020-06-11T13:10:42Z</time>
      </trkpt>
      <trkpt lat="43.13258" lon="2.59242">
        <ele>185</ele>
        <time>2020-06-11T13:10:48Z</time>
      </trkpt>
      <trkpt lat="43.13257" lon="2.59252">
        <ele>184</ele>
        <time>2020-06-11T13:10:49Z</time>
      </trkpt>
      <trkpt lat="43.13253" lon="2.5928">
        <ele>184</ele>
        <time>2020-06-11T13:10:52Z</time>
      </trkpt>
      <trkpt lat="43.13243" lon="2.59354">
        <ele>183</ele>
        <time>2020-06-11T13:11:00Z</time>
      </trkpt>
      <trkpt lat="43.13241" lon="2.59363">
        <ele>183</ele>
        <time>2020-06-11T13:11:01Z</time>
      </trkpt>
      <trkpt lat="43.13238" lon="2.59381">
        <ele>183</ele>
        <time>2020-06-11T13:11:03Z</time>
      </trkpt>
      <trkpt lat="43.13231" lon="2.59407">
        <ele>183</ele>
        <time>2020-06-11T13:11:06Z</time>
      </trkpt>
      <trkpt lat="43.13228" lon="2.59415">
        <ele>183</ele>
        <time>2020-06-11T13:11:07Z</time>
      </trkpt>
      <trkpt lat="43.13216" lon="2.59438">
        <ele>182</ele>
        <time>2020-06-11T13:11:10Z</time>
      </trkpt>
      <trkpt lat="43.13212" lon="2.59445">
        <ele>181</ele>
        <time>2020-06-11T13:11:11Z</time>
      </trkpt>
      <trkpt lat="43.13204" lon="2.5946">
        <ele>182</ele>
        <time>2020-06-11T13:11:13Z</time>
      </trkpt>
      <trkpt lat="43.132" lon="2.59467">
        <ele>182</ele>
        <time>2020-06-11T13:11:14Z</time>
      </trkpt>
      <trkpt lat="43.13197" lon="2.59475">
        <ele>182</ele>
        <time>2020-06-11T13:11:15Z</time>
      </trkpt>
      <trkpt lat="43.13184" lon="2.59508">
        <ele>182</ele>
        <time>2020-06-11T13:11:19Z</time>
      </trkpt>
      <trkpt lat="43.13181" lon="2.59516">
        <ele>182</ele>
        <time>2020-06-11T13:11:20Z</time>
      </trkpt>
      <trkpt lat="43.13179" lon="2.59524">
        <ele>182</ele>
        <time>2020-06-11T13:11:21Z</time>
      </trkpt>
      <trkpt lat="43.13176" lon="2.59533">
        <ele>182</ele>
        <time>2020-06-11T13:11:22Z</time>
      </trkpt>
      <trkpt lat="43.13174" lon="2.59541">
        <ele>182</ele>
        <time>2020-06-11T13:11:23Z</time>
      </trkpt>
      <trkpt lat="43.13168" lon="2.59577">
        <ele>180</ele>
        <time>2020-06-11T13:11:27Z</time>
      </trkpt>
      <trkpt lat="43.13166" lon="2.59596">
        <ele>179</ele>
        <time>2020-06-11T13:11:29Z</time>
      </trkpt>
      <trkpt lat="43.13163" lon="2.59634">
        <ele>177</ele>
        <time>2020-06-11T13:11:33Z</time>
      </trkpt>
      <trkpt lat="43.13164" lon="2.59643">
        <ele>177</ele>
        <time>2020-06-11T13:11:34Z</time>
      </trkpt>
      <trkpt lat="43.13165" lon="2.59652">
        <ele>177</ele>
        <time>2020-06-11T13:11:35Z</time>
      </trkpt>
      <trkpt lat="43.1318" lon="2.59694">
        <ele>178</ele>
        <time>2020-06-11T13:11:40Z</time>
      </trkpt>
      <trkpt lat="43.13199" lon="2.59722">
        <ele>180</ele>
        <time>2020-06-11T13:11:44Z</time>
      </trkpt>
      <trkpt lat="43.13203" lon="2.59728">
        <ele>181</ele>
        <time>2020-06-11T13:11:45Z</time>
      </trkpt>
      <trkpt lat="43.13208" lon="2.59734">
        <ele>182</ele>
        <time>2020-06-11T13:11:46Z</time>
      </trkpt>
      <trkpt lat="43.13213" lon="2.5974">
        <ele>183</ele>
        <time>2020-06-11T13:11:47Z</time>
      </trkpt>
      <trkpt lat="43.13222" lon="2.59752">
        <ele>185</ele>
        <time>2020-06-11T13:11:49Z</time>
      </trkpt>
      <trkpt lat="43.13236" lon="2.59772">
        <ele>189</ele>
        <time>2020-06-11T13:11:52Z</time>
      </trkpt>
      <trkpt lat="43.13242" lon="2.59788">
        <ele>190</ele>
        <time>2020-06-11T13:11:54Z</time>
      </trkpt>
      <trkpt lat="43.13247" lon="2.59805">
        <ele>189</ele>
        <time>2020-06-11T13:11:56Z</time>
      </trkpt>
      <trkpt lat="43.13249" lon="2.59814">
        <ele>187</ele>
        <time>2020-06-11T13:11:57Z</time>
      </trkpt>
      <trkpt lat="43.1325" lon="2.59833">
        <ele>182</ele>
        <time>2020-06-11T13:11:59Z</time>
      </trkpt>
      <trkpt lat="43.1325" lon="2.59843">
        <ele>180</ele>
        <time>2020-06-11T13:12:00Z</time>
      </trkpt>
      <trkpt lat="43.13249" lon="2.59852">
        <ele>179</ele>
        <time>2020-06-11T13:12:01Z</time>
      </trkpt>
      <trkpt lat="43.13248" lon="2.59861">
        <ele>177</ele>
        <time>2020-06-11T13:12:02Z</time>
      </trkpt>
      <trkpt lat="43.13246" lon="2.5988">
        <ele>176</ele>
        <time>2020-06-11T13:12:04Z</time>
      </trkpt>
      <trkpt lat="43.13243" lon="2.59899">
        <ele>176</ele>
        <time>2020-06-11T13:12:06Z</time>
      </trkpt>
      <trkpt lat="43.13239" lon="2.59917">
        <ele>176</ele>
        <time>2020-06-11T13:12:08Z</time>
      </trkpt>
      <trkpt lat="43.13236" lon="2.59935">
        <ele>176</ele>
        <time>2020-06-11T13:12:10Z</time>
      </trkpt>
      <trkpt lat="43.13234" lon="2.59945">
        <ele>176</ele>
        <time>2020-06-11T13:12:11Z</time>
      </trkpt>
      <trkpt lat="43.1323" lon="2.59964">
        <ele>174</ele>
        <time>2020-06-11T13:12:13Z</time>
      </trkpt>
      <trkpt lat="43.13229" lon="2.59974">
        <ele>173</ele>
        <time>2020-06-11T13:12:14Z</time>
      </trkpt>
      <trkpt lat="43.13227" lon="2.59984">
        <ele>171</ele>
        <time>2020-06-11T13:12:15Z</time>
      </trkpt>
      <trkpt lat="43.13223" lon="2.60004">
        <ele>169</ele>
        <time>2020-06-11T13:12:17Z</time>
      </trkpt>
      <trkpt lat="43.13218" lon="2.60036">
        <ele>171</ele>
        <time>2020-06-11T13:12:20Z</time>
      </trkpt>
      <trkpt lat="43.13217" lon="2.60046">
        <ele>172</ele>
        <time>2020-06-11T13:12:21Z</time>
      </trkpt>
      <trkpt lat="43.13214" lon="2.60077">
        <ele>175</ele>
        <time>2020-06-11T13:12:24Z</time>
      </trkpt>
      <trkpt lat="43.13214" lon="2.60088">
        <ele>175</ele>
        <time>2020-06-11T13:12:25Z</time>
      </trkpt>
      <trkpt lat="43.13213" lon="2.60098">
        <ele>174</ele>
        <time>2020-06-11T13:12:26Z</time>
      </trkpt>
      <trkpt lat="43.13213" lon="2.60108">
        <ele>174</ele>
        <time>2020-06-11T13:12:27Z</time>
      </trkpt>
      <trkpt lat="43.13213" lon="2.60119">
        <ele>174</ele>
        <time>2020-06-11T13:12:28Z</time>
      </trkpt>
      <trkpt lat="43.13213" lon="2.60129">
        <ele>173</ele>
        <time>2020-06-11T13:12:29Z</time>
      </trkpt>
      <trkpt lat="43.13212" lon="2.6014">
        <ele>173</ele>
        <time>2020-06-11T13:12:30Z</time>
      </trkpt>
      <trkpt lat="43.1321" lon="2.6015">
        <ele>174</ele>
        <time>2020-06-11T13:12:31Z</time>
      </trkpt>
      <trkpt lat="43.13201" lon="2.60179">
        <ele>173</ele>
        <time>2020-06-11T13:12:34Z</time>
      </trkpt>
      <trkpt lat="43.13194" lon="2.60197">
        <ele>173</ele>
        <time>2020-06-11T13:12:36Z</time>
      </trkpt>
      <trkpt lat="43.13184" lon="2.60225">
        <ele>172</ele>
        <time>2020-06-11T13:12:39Z</time>
      </trkpt>
      <trkpt lat="43.13177" lon="2.60244">
        <ele>171</ele>
        <time>2020-06-11T13:12:41Z</time>
      </trkpt>
      <trkpt lat="43.13174" lon="2.60253">
        <ele>170</ele>
        <time>2020-06-11T13:12:42Z</time>
      </trkpt>
      <trkpt lat="43.1317" lon="2.60262">
        <ele>170</ele>
        <time>2020-06-11T13:12:43Z</time>
      </trkpt>
      <trkpt lat="43.13167" lon="2.60271">
        <ele>170</ele>
        <time>2020-06-11T13:12:44Z</time>
      </trkpt>
      <trkpt lat="43.13163" lon="2.6028">
        <ele>170</ele>
        <time>2020-06-11T13:12:45Z</time>
      </trkpt>
      <trkpt lat="43.13158" lon="2.60289">
        <ele>170</ele>
        <time>2020-06-11T13:12:46Z</time>
      </trkpt>
      <trkpt lat="43.13149" lon="2.60306">
        <ele>170</ele>
        <time>2020-06-11T13:12:48Z</time>
      </trkpt>
      <trkpt lat="43.13145" lon="2.60315">
        <ele>170</ele>
        <time>2020-06-11T13:12:49Z</time>
      </trkpt>
      <trkpt lat="43.13135" lon="2.60332">
        <ele>170</ele>
        <time>2020-06-11T13:12:51Z</time>
      </trkpt>
      <trkpt lat="43.1313" lon="2.6034">
        <ele>171</ele>
        <time>2020-06-11T13:12:52Z</time>
      </trkpt>
      <trkpt lat="43.13124" lon="2.60347">
        <ele>171</ele>
        <time>2020-06-11T13:12:53Z</time>
      </trkpt>
      <trkpt lat="43.13119" lon="2.60355">
        <ele>171</ele>
        <time>2020-06-11T13:12:54Z</time>
      </trkpt>
      <trkpt lat="43.13106" lon="2.60368">
        <ele>171</ele>
        <time>2020-06-11T13:12:56Z</time>
      </trkpt>
      <trkpt lat="43.1308" lon="2.60393">
        <ele>173</ele>
        <time>2020-06-11T13:13:00Z</time>
      </trkpt>
      <trkpt lat="43.13059" lon="2.6041">
        <ele>175</ele>
        <time>2020-06-11T13:13:03Z</time>
      </trkpt>
      <trkpt lat="43.13031" lon="2.60425">
        <ele>174</ele>
        <time>2020-06-11T13:13:07Z</time>
      </trkpt>
      <trkpt lat="43.13023" lon="2.60427">
        <ele>174</ele>
        <time>2020-06-11T13:13:08Z</time>
      </trkpt>
      <trkpt lat="43.13016" lon="2.60427">
        <ele>174</ele>
        <time>2020-06-11T13:13:09Z</time>
      </trkpt>
      <trkpt lat="43.13002" lon="2.60425">
        <ele>174</ele>
        <time>2020-06-11T13:13:11Z</time>
      </trkpt>
      <trkpt lat="43.12995" lon="2.60423">
        <ele>173</ele>
        <time>2020-06-11T13:13:12Z</time>
      </trkpt>
      <trkpt lat="43.12989" lon="2.60423">
        <ele>173</ele>
        <time>2020-06-11T13:13:13Z</time>
      </trkpt>
      <trkpt lat="43.12978" lon="2.60432">
        <ele>173</ele>
        <time>2020-06-11T13:13:15Z</time>
      </trkpt>
      <trkpt lat="43.12972" lon="2.60448">
        <ele>174</ele>
        <time>2020-06-11T13:13:17Z</time>
      </trkpt>
      <trkpt lat="43.12971" lon="2.60457">
        <ele>174</ele>
        <time>2020-06-11T13:13:18Z</time>
      </trkpt>
      <trkpt lat="43.1297" lon="2.60519">
        <ele>173</ele>
        <time>2020-06-11T13:13:24Z</time>
      </trkpt>
      <trkpt lat="43.1297" lon="2.60541">
        <ele>172</ele>
        <time>2020-06-11T13:13:26Z</time>
      </trkpt>
      <trkpt lat="43.12969" lon="2.60563">
        <ele>170</ele>
        <time>2020-06-11T13:13:28Z</time>
      </trkpt>
      <trkpt lat="43.12969" lon="2.60574">
        <ele>169</ele>
        <time>2020-06-11T13:13:29Z</time>
      </trkpt>
      <trkpt lat="43.12968" lon="2.60598">
        <ele>170</ele>
        <time>2020-06-11T13:13:31Z</time>
      </trkpt>
      <trkpt lat="43.12962" lon="2.60632">
        <ele>170</ele>
        <time>2020-06-11T13:13:34Z</time>
      </trkpt>
      <trkpt lat="43.1296" lon="2.60643">
        <ele>169</ele>
        <time>2020-06-11T13:13:35Z</time>
      </trkpt>
      <trkpt lat="43.12958" lon="2.60666">
        <ele>168</ele>
        <time>2020-06-11T13:13:37Z</time>
      </trkpt>
      <trkpt lat="43.12957" lon="2.60678">
        <ele>168</ele>
        <time>2020-06-11T13:13:38Z</time>
      </trkpt>
      <trkpt lat="43.12957" lon="2.6069">
        <ele>169</ele>
        <time>2020-06-11T13:13:39Z</time>
      </trkpt>
      <trkpt lat="43.12956" lon="2.60701">
        <ele>169</ele>
        <time>2020-06-11T13:13:40Z</time>
      </trkpt>
      <trkpt lat="43.12955" lon="2.60713">
        <ele>169</ele>
        <time>2020-06-11T13:13:41Z</time>
      </trkpt>
      <trkpt lat="43.12953" lon="2.60724">
        <ele>169</ele>
        <time>2020-06-11T13:13:42Z</time>
      </trkpt>
      <trkpt lat="43.1295" lon="2.60735">
        <ele>169</ele>
        <time>2020-06-11T13:13:43Z</time>
      </trkpt>
      <trkpt lat="43.12945" lon="2.60745">
        <ele>168</ele>
        <time>2020-06-11T13:13:44Z</time>
      </trkpt>
      <trkpt lat="43.12934" lon="2.60762">
        <ele>168</ele>
        <time>2020-06-11T13:13:46Z</time>
      </trkpt>
      <trkpt lat="43.12927" lon="2.60769">
        <ele>167</ele>
        <time>2020-06-11T13:13:47Z</time>
      </trkpt>
      <trkpt lat="43.12919" lon="2.60775">
        <ele>166</ele>
        <time>2020-06-11T13:13:48Z</time>
      </trkpt>
      <trkpt lat="43.12904" lon="2.60789">
        <ele>165</ele>
        <time>2020-06-11T13:13:50Z</time>
      </trkpt>
      <trkpt lat="43.12898" lon="2.60798">
        <ele>165</ele>
        <time>2020-06-11T13:13:51Z</time>
      </trkpt>
      <trkpt lat="43.12893" lon="2.60808">
        <ele>165</ele>
        <time>2020-06-11T13:13:52Z</time>
      </trkpt>
      <trkpt lat="43.12889" lon="2.60819">
        <ele>166</ele>
        <time>2020-06-11T13:13:53Z</time>
      </trkpt>
      <trkpt lat="43.12886" lon="2.60831">
        <ele>166</ele>
        <time>2020-06-11T13:13:54Z</time>
      </trkpt>
      <trkpt lat="43.12885" lon="2.60843">
        <ele>166</ele>
        <time>2020-06-11T13:13:55Z</time>
      </trkpt>
      <trkpt lat="43.12884" lon="2.60879">
        <ele>164</ele>
        <time>2020-06-11T13:13:58Z</time>
      </trkpt>
      <trkpt lat="43.12884" lon="2.6089">
        <ele>163</ele>
        <time>2020-06-11T13:13:59Z</time>
      </trkpt>
      <trkpt lat="43.12884" lon="2.60902">
        <ele>163</ele>
        <time>2020-06-11T13:14:00Z</time>
      </trkpt>
      <trkpt lat="43.12886" lon="2.6095">
        <ele>167</ele>
        <time>2020-06-11T13:14:04Z</time>
      </trkpt>
      <trkpt lat="43.12886" lon="2.60963">
        <ele>168</ele>
        <time>2020-06-11T13:14:05Z</time>
      </trkpt>
      <trkpt lat="43.12886" lon="2.60975">
        <ele>169</ele>
        <time>2020-06-11T13:14:06Z</time>
      </trkpt>
      <trkpt lat="43.12887" lon="2.61021">
        <ele>168</ele>
        <time>2020-06-11T13:14:10Z</time>
      </trkpt>
      <trkpt lat="43.12887" lon="2.61032">
        <ele>167</ele>
        <time>2020-06-11T13:14:11Z</time>
      </trkpt>
      <trkpt lat="43.12887" lon="2.61044">
        <ele>166</ele>
        <time>2020-06-11T13:14:12Z</time>
      </trkpt>
      <trkpt lat="43.12885" lon="2.61055">
        <ele>165</ele>
        <time>2020-06-11T13:14:13Z</time>
      </trkpt>
      <trkpt lat="43.12883" lon="2.61065">
        <ele>165</ele>
        <time>2020-06-11T13:14:14Z</time>
      </trkpt>
      <trkpt lat="43.1288" lon="2.61075">
        <ele>165</ele>
        <time>2020-06-11T13:14:15Z</time>
      </trkpt>
      <trkpt lat="43.12872" lon="2.61093">
        <ele>167</ele>
        <time>2020-06-11T13:14:17Z</time>
      </trkpt>
      <trkpt lat="43.12867" lon="2.611">
        <ele>168</ele>
        <time>2020-06-11T13:14:18Z</time>
      </trkpt>
      <trkpt lat="43.1286" lon="2.61105">
        <ele>169</ele>
        <time>2020-06-11T13:14:19Z</time>
      </trkpt>
      <trkpt lat="43.12853" lon="2.61108">
        <ele>170</ele>
        <time>2020-06-11T13:14:20Z</time>
      </trkpt>
      <trkpt lat="43.12845" lon="2.61109">
        <ele>171</ele>
        <time>2020-06-11T13:14:21Z</time>
      </trkpt>
      <trkpt lat="43.12837" lon="2.61107">
        <ele>170</ele>
        <time>2020-06-11T13:14:22Z</time>
      </trkpt>
      <trkpt lat="43.1283" lon="2.61104">
        <ele>169</ele>
        <time>2020-06-11T13:14:23Z</time>
      </trkpt>
      <trkpt lat="43.12823" lon="2.61099">
        <ele>168</ele>
        <time>2020-06-11T13:14:24Z</time>
      </trkpt>
      <trkpt lat="43.12818" lon="2.61093">
        <ele>167</ele>
        <time>2020-06-11T13:14:25Z</time>
      </trkpt>
      <trkpt lat="43.12807" lon="2.6108">
        <ele>164</ele>
        <time>2020-06-11T13:14:27Z</time>
      </trkpt>
      <trkpt lat="43.12801" lon="2.61074">
        <ele>164</ele>
        <time>2020-06-11T13:14:28Z</time>
      </trkpt>
      <trkpt lat="43.12796" lon="2.61067">
        <ele>163</ele>
        <time>2020-06-11T13:14:29Z</time>
      </trkpt>
      <trkpt lat="43.12784" lon="2.61055">
        <ele>163</ele>
        <time>2020-06-11T13:14:31Z</time>
      </trkpt>
      <trkpt lat="43.12779" lon="2.61048">
        <ele>164</ele>
        <time>2020-06-11T13:14:32Z</time>
      </trkpt>
      <trkpt lat="43.1277" lon="2.61034">
        <ele>163</ele>
        <time>2020-06-11T13:14:34Z</time>
      </trkpt>
      <trkpt lat="43.12764" lon="2.61018">
        <ele>162</ele>
        <time>2020-06-11T13:14:36Z</time>
      </trkpt>
      <trkpt lat="43.12757" lon="2.60994">
        <ele>159</ele>
        <time>2020-06-11T13:14:39Z</time>
      </trkpt>
      <trkpt lat="43.12751" lon="2.60969">
        <ele>155</ele>
        <time>2020-06-11T13:14:42Z</time>
      </trkpt>
      <trkpt lat="43.12749" lon="2.60961">
        <ele>154</ele>
        <time>2020-06-11T13:14:43Z</time>
      </trkpt>
      <trkpt lat="43.12746" lon="2.60953">
        <ele>154</ele>
        <time>2020-06-11T13:14:44Z</time>
      </trkpt>
      <trkpt lat="43.12739" lon="2.60936">
        <ele>154</ele>
        <time>2020-06-11T13:14:46Z</time>
      </trkpt>
      <trkpt lat="43.12728" lon="2.60923">
        <ele>155</ele>
        <time>2020-06-11T13:14:48Z</time>
      </trkpt>
      <trkpt lat="43.12715" lon="2.60914">
        <ele>154</ele>
        <time>2020-06-11T13:14:50Z</time>
      </trkpt>
      <trkpt lat="43.127" lon="2.60908">
        <ele>153</ele>
        <time>2020-06-11T13:14:52Z</time>
      </trkpt>
      <trkpt lat="43.12691" lon="2.60906">
        <ele>153</ele>
        <time>2020-06-11T13:14:53Z</time>
      </trkpt>
      <trkpt lat="43.12683" lon="2.60905">
        <ele>152</ele>
        <time>2020-06-11T13:14:54Z</time>
      </trkpt>
      <trkpt lat="43.12674" lon="2.60906">
        <ele>152</ele>
        <time>2020-06-11T13:14:55Z</time>
      </trkpt>
      <trkpt lat="43.12665" lon="2.60908">
        <ele>151</ele>
        <time>2020-06-11T13:14:56Z</time>
      </trkpt>
      <trkpt lat="43.12655" lon="2.6091">
        <ele>151</ele>
        <time>2020-06-11T13:14:57Z</time>
      </trkpt>
      <trkpt lat="43.12645" lon="2.6091">
        <ele>152</ele>
        <time>2020-06-11T13:14:58Z</time>
      </trkpt>
      <trkpt lat="43.12636" lon="2.60906">
        <ele>151</ele>
        <time>2020-06-11T13:14:59Z</time>
      </trkpt>
      <trkpt lat="43.12626" lon="2.609">
        <ele>150</ele>
        <time>2020-06-11T13:15:00Z</time>
      </trkpt>
      <trkpt lat="43.12616" lon="2.60896">
        <ele>149</ele>
        <time>2020-06-11T13:15:01Z</time>
      </trkpt>
      <trkpt lat="43.12606" lon="2.60895">
        <ele>149</ele>
        <time>2020-06-11T13:15:02Z</time>
      </trkpt>
      <trkpt lat="43.12596" lon="2.60897">
        <ele>150</ele>
        <time>2020-06-11T13:15:03Z</time>
      </trkpt>
      <trkpt lat="43.12577" lon="2.60911">
        <ele>149</ele>
        <time>2020-06-11T13:15:05Z</time>
      </trkpt>
      <trkpt lat="43.12569" lon="2.60921">
        <ele>148</ele>
        <time>2020-06-11T13:15:06Z</time>
      </trkpt>
      <trkpt lat="43.12555" lon="2.60942">
        <ele>146</ele>
        <time>2020-06-11T13:15:08Z</time>
      </trkpt>
      <trkpt lat="43.1255" lon="2.60954">
        <ele>146</ele>
        <time>2020-06-11T13:15:09Z</time>
      </trkpt>
      <trkpt lat="43.12545" lon="2.60967">
        <ele>146</ele>
        <time>2020-06-11T13:15:10Z</time>
      </trkpt>
      <trkpt lat="43.12539" lon="2.6098">
        <ele>145</ele>
        <time>2020-06-11T13:15:11Z</time>
      </trkpt>
      <trkpt lat="43.12528" lon="2.61004">
        <ele>145</ele>
        <time>2020-06-11T13:15:13Z</time>
      </trkpt>
      <trkpt lat="43.12522" lon="2.61015">
        <ele>146</ele>
        <time>2020-06-11T13:15:14Z</time>
      </trkpt>
      <trkpt lat="43.12516" lon="2.61025">
        <ele>147</ele>
        <time>2020-06-11T13:15:15Z</time>
      </trkpt>
      <trkpt lat="43.12509" lon="2.61035">
        <ele>148</ele>
        <time>2020-06-11T13:15:16Z</time>
      </trkpt>
      <trkpt lat="43.12497" lon="2.61054">
        <ele>149</ele>
        <time>2020-06-11T13:15:18Z</time>
      </trkpt>
      <trkpt lat="43.12485" lon="2.6107">
        <ele>152</ele>
        <time>2020-06-11T13:15:20Z</time>
      </trkpt>
      <trkpt lat="43.12479" lon="2.61078">
        <ele>152</ele>
        <time>2020-06-11T13:15:21Z</time>
      </trkpt>
      <trkpt lat="43.12473" lon="2.61084">
        <ele>151</ele>
        <time>2020-06-11T13:15:22Z</time>
      </trkpt>
      <trkpt lat="43.12467" lon="2.61089">
        <ele>150</ele>
        <time>2020-06-11T13:15:23Z</time>
      </trkpt>
      <trkpt lat="43.1246" lon="2.61094">
        <ele>149</ele>
        <time>2020-06-11T13:15:24Z</time>
      </trkpt>
      <trkpt lat="43.12453" lon="2.61097">
        <ele>148</ele>
        <time>2020-06-11T13:15:25Z</time>
      </trkpt>
      <trkpt lat="43.12438" lon="2.61096">
        <ele>144</ele>
        <time>2020-06-11T13:15:27Z</time>
      </trkpt>
      <trkpt lat="43.1243" lon="2.61096">
        <ele>143</ele>
        <time>2020-06-11T13:15:28Z</time>
      </trkpt>
      <trkpt lat="43.12422" lon="2.61099">
        <ele>143</ele>
        <time>2020-06-11T13:15:29Z</time>
      </trkpt>
      <trkpt lat="43.12415" lon="2.61104">
        <ele>142</ele>
        <time>2020-06-11T13:15:30Z</time>
      </trkpt>
      <trkpt lat="43.12409" lon="2.61113">
        <ele>142</ele>
        <time>2020-06-11T13:15:31Z</time>
      </trkpt>
      <trkpt lat="43.12404" lon="2.61123">
        <ele>141</ele>
        <time>2020-06-11T13:15:32Z</time>
      </trkpt>
      <trkpt lat="43.12402" lon="2.61134">
        <ele>141</ele>
        <time>2020-06-11T13:15:33Z</time>
      </trkpt>
      <trkpt lat="43.12398" lon="2.61156">
        <ele>139</ele>
        <time>2020-06-11T13:15:35Z</time>
      </trkpt>
      <trkpt lat="43.12402" lon="2.61177">
        <ele>138</ele>
        <time>2020-06-11T13:15:37Z</time>
      </trkpt>
      <trkpt lat="43.12407" lon="2.61184">
        <ele>138</ele>
        <time>2020-06-11T13:15:38Z</time>
      </trkpt>
      <trkpt lat="43.12413" lon="2.6119">
        <ele>139</ele>
        <time>2020-06-11T13:15:39Z</time>
      </trkpt>
      <trkpt lat="43.1242" lon="2.61195">
        <ele>139</ele>
        <time>2020-06-11T13:15:40Z</time>
      </trkpt>
      <trkpt lat="43.12427" lon="2.61198">
        <ele>140</ele>
        <time>2020-06-11T13:15:41Z</time>
      </trkpt>
      <trkpt lat="43.12441" lon="2.61204">
        <ele>141</ele>
        <time>2020-06-11T13:15:43Z</time>
      </trkpt>
      <trkpt lat="43.12448" lon="2.61206">
        <ele>141</ele>
        <time>2020-06-11T13:15:44Z</time>
      </trkpt>
      <trkpt lat="43.12454" lon="2.61208">
        <ele>141</ele>
        <time>2020-06-11T13:15:45Z</time>
      </trkpt>
      <trkpt lat="43.1246" lon="2.61211">
        <ele>140</ele>
        <time>2020-06-11T13:15:46Z</time>
      </trkpt>
      <trkpt lat="43.12473" lon="2.61217">
        <ele>139</ele>
        <time>2020-06-11T13:15:48Z</time>
      </trkpt>
      <trkpt lat="43.12479" lon="2.61221">
        <ele>139</ele>
        <time>2020-06-11T13:15:49Z</time>
      </trkpt>
      <trkpt lat="43.12485" lon="2.61224">
        <ele>140</ele>
        <time>2020-06-11T13:15:50Z</time>
      </trkpt>
      <trkpt lat="43.12491" lon="2.61227">
        <ele>141</ele>
        <time>2020-06-11T13:15:51Z</time>
      </trkpt>
      <trkpt lat="43.12503" lon="2.61234">
        <ele>142</ele>
        <time>2020-06-11T13:15:53Z</time>
      </trkpt>
      <trkpt lat="43.12525" lon="2.61252">
        <ele>142</ele>
        <time>2020-06-11T13:15:57Z</time>
      </trkpt>
      <trkpt lat="43.12529" lon="2.61258">
        <ele>142</ele>
        <time>2020-06-11T13:15:58Z</time>
      </trkpt>
      <trkpt lat="43.12541" lon="2.61277">
        <ele>138</ele>
        <time>2020-06-11T13:16:01Z</time>
      </trkpt>
      <trkpt lat="43.12545" lon="2.61283">
        <ele>138</ele>
        <time>2020-06-11T13:16:02Z</time>
      </trkpt>
      <trkpt lat="43.12557" lon="2.61291">
        <ele>137</ele>
        <time>2020-06-11T13:16:04Z</time>
      </trkpt>
      <trkpt lat="43.12563" lon="2.61295">
        <ele>139</ele>
        <time>2020-06-11T13:16:05Z</time>
      </trkpt>
      <trkpt lat="43.12569" lon="2.61298">
        <ele>140</ele>
        <time>2020-06-11T13:16:06Z</time>
      </trkpt>
      <trkpt lat="43.12591" lon="2.61317">
        <ele>143</ele>
        <time>2020-06-11T13:16:10Z</time>
      </trkpt>
      <trkpt lat="43.1261" lon="2.61343">
        <ele>143</ele>
        <time>2020-06-11T13:16:14Z</time>
      </trkpt>
      <trkpt lat="43.12614" lon="2.61351">
        <ele>142</ele>
        <time>2020-06-11T13:16:15Z</time>
      </trkpt>
      <trkpt lat="43.12617" lon="2.6136">
        <ele>141</ele>
        <time>2020-06-11T13:16:16Z</time>
      </trkpt>
      <trkpt lat="43.12622" lon="2.61379">
        <ele>139</ele>
        <time>2020-06-11T13:16:18Z</time>
      </trkpt>
      <trkpt lat="43.12626" lon="2.61399">
        <ele>137</ele>
        <time>2020-06-11T13:16:20Z</time>
      </trkpt>
      <trkpt lat="43.12628" lon="2.61408">
        <ele>137</ele>
        <time>2020-06-11T13:16:21Z</time>
      </trkpt>
      <trkpt lat="43.12642" lon="2.61457">
        <ele>137</ele>
        <time>2020-06-11T13:16:26Z</time>
      </trkpt>
      <trkpt lat="43.12646" lon="2.61467">
        <ele>137</ele>
        <time>2020-06-11T13:16:27Z</time>
      </trkpt>
      <trkpt lat="43.12659" lon="2.61495">
        <ele>139</ele>
        <time>2020-06-11T13:16:30Z</time>
      </trkpt>
      <trkpt lat="43.12664" lon="2.61517">
        <ele>137</ele>
        <time>2020-06-11T13:16:32Z</time>
      </trkpt>
      <trkpt lat="43.12666" lon="2.61529">
        <ele>136</ele>
        <time>2020-06-11T13:16:33Z</time>
      </trkpt>
      <trkpt lat="43.12667" lon="2.61553">
        <ele>137</ele>
        <time>2020-06-11T13:16:35Z</time>
      </trkpt>
      <trkpt lat="43.12666" lon="2.61565">
        <ele>137</ele>
        <time>2020-06-11T13:16:36Z</time>
      </trkpt>
      <trkpt lat="43.12663" lon="2.61576">
        <ele>136</ele>
        <time>2020-06-11T13:16:37Z</time>
      </trkpt>
      <trkpt lat="43.12657" lon="2.61585">
        <ele>134</ele>
        <time>2020-06-11T13:16:38Z</time>
      </trkpt>
      <trkpt lat="43.1265" lon="2.61592">
        <ele>132</ele>
        <time>2020-06-11T13:16:39Z</time>
      </trkpt>
      <trkpt lat="43.12642" lon="2.61598">
        <ele>130</ele>
        <time>2020-06-11T13:16:40Z</time>
      </trkpt>
      <trkpt lat="43.12616" lon="2.61616">
        <ele>127</ele>
        <time>2020-06-11T13:16:43Z</time>
      </trkpt>
      <trkpt lat="43.12603" lon="2.61632">
        <ele>127</ele>
        <time>2020-06-11T13:16:45Z</time>
      </trkpt>
      <trkpt lat="43.12587" lon="2.61661">
        <ele>129</ele>
        <time>2020-06-11T13:16:48Z</time>
      </trkpt>
      <trkpt lat="43.12581" lon="2.6167">
        <ele>129</ele>
        <time>2020-06-11T13:16:49Z</time>
      </trkpt>
      <trkpt lat="43.12575" lon="2.61678">
        <ele>129</ele>
        <time>2020-06-11T13:16:50Z</time>
      </trkpt>
      <trkpt lat="43.12568" lon="2.61685">
        <ele>128</ele>
        <time>2020-06-11T13:16:51Z</time>
      </trkpt>
      <trkpt lat="43.12547" lon="2.61706">
        <ele>126</ele>
        <time>2020-06-11T13:16:54Z</time>
      </trkpt>
      <trkpt lat="43.12517" lon="2.61749">
        <ele>125</ele>
        <time>2020-06-11T13:16:59Z</time>
      </trkpt>
      <trkpt lat="43.12507" lon="2.61768">
        <ele>125</ele>
        <time>2020-06-11T13:17:01Z</time>
      </trkpt>
      <trkpt lat="43.12498" lon="2.61787">
        <ele>124</ele>
        <time>2020-06-11T13:17:03Z</time>
      </trkpt>
      <trkpt lat="43.12493" lon="2.61797">
        <ele>124</ele>
        <time>2020-06-11T13:17:04Z</time>
      </trkpt>
      <trkpt lat="43.12485" lon="2.61817">
        <ele>123</ele>
        <time>2020-06-11T13:17:06Z</time>
      </trkpt>
      <trkpt lat="43.12481" lon="2.61826">
        <ele>122</ele>
        <time>2020-06-11T13:17:07Z</time>
      </trkpt>
      <trkpt lat="43.12464" lon="2.61864">
        <ele>123</ele>
        <time>2020-06-11T13:17:11Z</time>
      </trkpt>
      <trkpt lat="43.1246" lon="2.61873">
        <ele>123</ele>
        <time>2020-06-11T13:17:12Z</time>
      </trkpt>
      <trkpt lat="43.12456" lon="2.61883">
        <ele>123</ele>
        <time>2020-06-11T13:17:13Z</time>
      </trkpt>
      <trkpt lat="43.12452" lon="2.61893">
        <ele>124</ele>
        <time>2020-06-11T13:17:14Z</time>
      </trkpt>
      <trkpt lat="43.12449" lon="2.61903">
        <ele>123</ele>
        <time>2020-06-11T13:17:15Z</time>
      </trkpt>
      <trkpt lat="43.12447" lon="2.61914">
        <ele>123</ele>
        <time>2020-06-11T13:17:16Z</time>
      </trkpt>
      <trkpt lat="43.12446" lon="2.61925">
        <ele>123</ele>
        <time>2020-06-11T13:17:17Z</time>
      </trkpt>
      <trkpt lat="43.12443" lon="2.61948">
        <ele>122</ele>
        <time>2020-06-11T13:17:19Z</time>
      </trkpt>
      <trkpt lat="43.12441" lon="2.61959">
        <ele>122</ele>
        <time>2020-06-11T13:17:20Z</time>
      </trkpt>
      <trkpt lat="43.12437" lon="2.6197">
        <ele>122</ele>
        <time>2020-06-11T13:17:21Z</time>
      </trkpt>
      <trkpt lat="43.12429" lon="2.6199">
        <ele>123</ele>
        <time>2020-06-11T13:17:23Z</time>
      </trkpt>
      <trkpt lat="43.12424" lon="2.62">
        <ele>123</ele>
        <time>2020-06-11T13:17:24Z</time>
      </trkpt>
      <trkpt lat="43.12411" lon="2.62028">
        <ele>123</ele>
        <time>2020-06-11T13:17:27Z</time>
      </trkpt>
      <trkpt lat="43.12404" lon="2.62048">
        <ele>122</ele>
        <time>2020-06-11T13:17:29Z</time>
      </trkpt>
      <trkpt lat="43.12396" lon="2.62091">
        <ele>121</ele>
        <time>2020-06-11T13:17:33Z</time>
      </trkpt>
      <trkpt lat="43.12392" lon="2.62113">
        <ele>121</ele>
        <time>2020-06-11T13:17:35Z</time>
      </trkpt>
      <trkpt lat="43.12386" lon="2.62147">
        <ele>120</ele>
        <time>2020-06-11T13:17:38Z</time>
      </trkpt>
      <trkpt lat="43.12377" lon="2.62203">
        <ele>120</ele>
        <time>2020-06-11T13:17:43Z</time>
      </trkpt>
      <trkpt lat="43.12374" lon="2.62213">
        <ele>119</ele>
        <time>2020-06-11T13:17:44Z</time>
      </trkpt>
      <trkpt lat="43.12365" lon="2.62268">
        <ele>118</ele>
        <time>2020-06-11T13:17:49Z</time>
      </trkpt>
      <trkpt lat="43.12359" lon="2.62301">
        <ele>118</ele>
        <time>2020-06-11T13:17:52Z</time>
      </trkpt>
      <trkpt lat="43.12351" lon="2.62345">
        <ele>118</ele>
        <time>2020-06-11T13:17:56Z</time>
      </trkpt>
      <trkpt lat="43.12345" lon="2.62377">
        <ele>116</ele>
        <time>2020-06-11T13:17:59Z</time>
      </trkpt>
      <trkpt lat="43.12343" lon="2.62388">
        <ele>116</ele>
        <time>2020-06-11T13:18:00Z</time>
      </trkpt>
      <trkpt lat="43.12337" lon="2.6242">
        <ele>115</ele>
        <time>2020-06-11T13:18:03Z</time>
      </trkpt>
      <trkpt lat="43.12328" lon="2.62473">
        <ele>117</ele>
        <time>2020-06-11T13:18:08Z</time>
      </trkpt>
      <trkpt lat="43.12312" lon="2.62524">
        <ele>114</ele>
        <time>2020-06-11T13:18:13Z</time>
      </trkpt>
      <trkpt lat="43.12286" lon="2.62582">
        <ele>114</ele>
        <time>2020-06-11T13:18:19Z</time>
      </trkpt>
      <trkpt lat="43.12276" lon="2.62601">
        <ele>113</ele>
        <time>2020-06-11T13:18:21Z</time>
      </trkpt>
      <trkpt lat="43.12262" lon="2.62631">
        <ele>114</ele>
        <time>2020-06-11T13:18:24Z</time>
      </trkpt>
      <trkpt lat="43.12246" lon="2.6267">
        <ele>114</ele>
        <time>2020-06-11T13:18:28Z</time>
      </trkpt>
      <trkpt lat="43.12242" lon="2.6268">
        <ele>113</ele>
        <time>2020-06-11T13:18:29Z</time>
      </trkpt>
      <trkpt lat="43.1223" lon="2.62744">
        <ele>111</ele>
        <time>2020-06-11T13:18:35Z</time>
      </trkpt>
      <trkpt lat="43.1222" lon="2.62799">
        <ele>112</ele>
        <time>2020-06-11T13:18:40Z</time>
      </trkpt>
      <trkpt lat="43.12218" lon="2.6281">
        <ele>112</ele>
        <time>2020-06-11T13:18:41Z</time>
      </trkpt>
      <trkpt lat="43.12213" lon="2.62832">
        <ele>111</ele>
        <time>2020-06-11T13:18:43Z</time>
      </trkpt>
      <trkpt lat="43.122" lon="2.62911">
        <ele>109</ele>
        <time>2020-06-11T13:18:50Z</time>
      </trkpt>
      <trkpt lat="43.12198" lon="2.62922">
        <ele>108</ele>
        <time>2020-06-11T13:18:51Z</time>
      </trkpt>
      <trkpt lat="43.12192" lon="2.62957">
        <ele>106</ele>
        <time>2020-06-11T13:18:54Z</time>
      </trkpt>
      <trkpt lat="43.12185" lon="2.62992">
        <ele>106</ele>
        <time>2020-06-11T13:18:57Z</time>
      </trkpt>
      <trkpt lat="43.12183" lon="2.63003">
        <ele>106</ele>
        <time>2020-06-11T13:18:58Z</time>
      </trkpt>
      <trkpt lat="43.12179" lon="2.63026">
        <ele>106</ele>
        <time>2020-06-11T13:19:00Z</time>
      </trkpt>
      <trkpt lat="43.12175" lon="2.63048">
        <ele>106</ele>
        <time>2020-06-11T13:19:02Z</time>
      </trkpt>
      <trkpt lat="43.12173" lon="2.63059">
        <ele>105</ele>
        <time>2020-06-11T13:19:03Z</time>
      </trkpt>
      <trkpt lat="43.12171" lon="2.6307">
        <ele>105</ele>
        <time>2020-06-11T13:19:04Z</time>
      </trkpt>
      <trkpt lat="43.12167" lon="2.6309">
        <ele>105</ele>
        <time>2020-06-11T13:19:06Z</time>
      </trkpt>
      <trkpt lat="43.12163" lon="2.63111">
        <ele>104</ele>
        <time>2020-06-11T13:19:08Z</time>
      </trkpt>
      <trkpt lat="43.12161" lon="2.63122">
        <ele>105</ele>
        <time>2020-06-11T13:19:09Z</time>
      </trkpt>
      <trkpt lat="43.12154" lon="2.63165">
        <ele>105</ele>
        <time>2020-06-11T13:19:13Z</time>
      </trkpt>
      <trkpt lat="43.12145" lon="2.63207">
        <ele>105</ele>
        <time>2020-06-11T13:19:17Z</time>
      </trkpt>
      <trkpt lat="43.12143" lon="2.63218">
        <ele>105</ele>
        <time>2020-06-11T13:19:18Z</time>
      </trkpt>
      <trkpt lat="43.12141" lon="2.63228">
        <ele>106</ele>
        <time>2020-06-11T13:19:19Z</time>
      </trkpt>
      <trkpt lat="43.12139" lon="2.63238">
        <ele>106</ele>
        <time>2020-06-11T13:19:20Z</time>
      </trkpt>
      <trkpt lat="43.12135" lon="2.63259">
        <ele>107</ele>
        <time>2020-06-11T13:19:22Z</time>
      </trkpt>
      <trkpt lat="43.1213" lon="2.6329">
        <ele>107</ele>
        <time>2020-06-11T13:19:25Z</time>
      </trkpt>
      <trkpt lat="43.12128" lon="2.633">
        <ele>106</ele>
        <time>2020-06-11T13:19:26Z</time>
      </trkpt>
      <trkpt lat="43.12126" lon="2.6331">
        <ele>106</ele>
        <time>2020-06-11T13:19:27Z</time>
      </trkpt>
      <trkpt lat="43.12122" lon="2.6333">
        <ele>105</ele>
        <time>2020-06-11T13:19:29Z</time>
      </trkpt>
      <trkpt lat="43.12119" lon="2.6335">
        <ele>103</ele>
        <time>2020-06-11T13:19:31Z</time>
      </trkpt>
      <trkpt lat="43.12115" lon="2.63371">
        <ele>101</ele>
        <time>2020-06-11T13:19:33Z</time>
      </trkpt>
      <trkpt lat="43.12114" lon="2.63393">
        <ele>100</ele>
        <time>2020-06-11T13:19:35Z</time>
      </trkpt>
      <trkpt lat="43.12116" lon="2.63416">
        <ele>100</ele>
        <time>2020-06-11T13:19:37Z</time>
      </trkpt>
      <trkpt lat="43.12118" lon="2.63428">
        <ele>100</ele>
        <time>2020-06-11T13:19:38Z</time>
      </trkpt>
      <trkpt lat="43.12123" lon="2.63463">
        <ele>101</ele>
        <time>2020-06-11T13:19:41Z</time>
      </trkpt>
      <trkpt lat="43.12125" lon="2.63474">
        <ele>101</ele>
        <time>2020-06-11T13:19:42Z</time>
      </trkpt>
      <trkpt lat="43.12131" lon="2.63507">
        <ele>101</ele>
        <time>2020-06-11T13:19:45Z</time>
      </trkpt>
      <trkpt lat="43.12136" lon="2.6354">
        <ele>101</ele>
        <time>2020-06-11T13:19:48Z</time>
      </trkpt>
      <trkpt lat="43.12139" lon="2.63563">
        <ele>101</ele>
        <time>2020-06-11T13:19:50Z</time>
      </trkpt>
      <trkpt lat="43.12145" lon="2.63597">
        <ele>100</ele>
        <time>2020-06-11T13:19:53Z</time>
      </trkpt>
      <trkpt lat="43.12148" lon="2.63619">
        <ele>99</ele>
        <time>2020-06-11T13:19:55Z</time>
      </trkpt>
      <trkpt lat="43.12157" lon="2.63675">
        <ele>99</ele>
        <time>2020-06-11T13:20:00Z</time>
      </trkpt>
      <trkpt lat="43.1216" lon="2.63697">
        <ele>98</ele>
        <time>2020-06-11T13:20:02Z</time>
      </trkpt>
      <trkpt lat="43.12164" lon="2.63719">
        <ele>98</ele>
        <time>2020-06-11T13:20:04Z</time>
      </trkpt>
      <trkpt lat="43.12177" lon="2.6376">
        <ele>99</ele>
        <time>2020-06-11T13:20:08Z</time>
      </trkpt>
      <trkpt lat="43.12186" lon="2.63779">
        <ele>100</ele>
        <time>2020-06-11T13:20:10Z</time>
      </trkpt>
      <trkpt lat="43.1219" lon="2.63789">
        <ele>100</ele>
        <time>2020-06-11T13:20:11Z</time>
      </trkpt>
      <trkpt lat="43.12195" lon="2.63799">
        <ele>100</ele>
        <time>2020-06-11T13:20:12Z</time>
      </trkpt>
      <trkpt lat="43.12198" lon="2.6381">
        <ele>99</ele>
        <time>2020-06-11T13:20:13Z</time>
      </trkpt>
      <trkpt lat="43.12206" lon="2.63856">
        <ele>93</ele>
        <time>2020-06-11T13:20:17Z</time>
      </trkpt>
      <trkpt lat="43.12209" lon="2.63867">
        <ele>92</ele>
        <time>2020-06-11T13:20:18Z</time>
      </trkpt>
      <trkpt lat="43.12214" lon="2.63876">
        <ele>91</ele>
        <time>2020-06-11T13:20:19Z</time>
      </trkpt>
      <trkpt lat="43.12221" lon="2.63883">
        <ele>91</ele>
        <time>2020-06-11T13:20:20Z</time>
      </trkpt>
      <trkpt lat="43.12245" lon="2.63897">
        <ele>91</ele>
        <time>2020-06-11T13:20:23Z</time>
      </trkpt>
      <trkpt lat="43.12253" lon="2.63904">
        <ele>91</ele>
        <time>2020-06-11T13:20:24Z</time>
      </trkpt>
      <trkpt lat="43.12259" lon="2.63911">
        <ele>91</ele>
        <time>2020-06-11T13:20:25Z</time>
      </trkpt>
      <trkpt lat="43.12284" lon="2.63941">
        <ele>91</ele>
        <time>2020-06-11T13:20:29Z</time>
      </trkpt>
      <trkpt lat="43.1229" lon="2.63947">
        <ele>92</ele>
        <time>2020-06-11T13:20:30Z</time>
      </trkpt>
      <trkpt lat="43.12307" lon="2.63964">
        <ele>92</ele>
        <time>2020-06-11T13:20:33Z</time>
      </trkpt>
      <trkpt lat="43.12315" lon="2.63979">
        <ele>93</ele>
        <time>2020-06-11T13:20:35Z</time>
      </trkpt>
      <trkpt lat="43.12318" lon="2.63988">
        <ele>93</ele>
        <time>2020-06-11T13:20:36Z</time>
      </trkpt>
      <trkpt lat="43.12319" lon="2.63998">
        <ele>92</ele>
        <time>2020-06-11T13:20:37Z</time>
      </trkpt>
      <trkpt lat="43.12319" lon="2.64008">
        <ele>92</ele>
        <time>2020-06-11T13:20:38Z</time>
      </trkpt>
      <trkpt lat="43.12319" lon="2.64018">
        <ele>92</ele>
        <time>2020-06-11T13:20:39Z</time>
      </trkpt>
      <trkpt lat="43.12318" lon="2.64028">
        <ele>92</ele>
        <time>2020-06-11T13:20:40Z</time>
      </trkpt>
      <trkpt lat="43.12312" lon="2.64058">
        <ele>92</ele>
        <time>2020-06-11T13:20:43Z</time>
      </trkpt>
      <trkpt lat="43.12309" lon="2.64068">
        <ele>92</ele>
        <time>2020-06-11T13:20:44Z</time>
      </trkpt>
      <trkpt lat="43.12305" lon="2.64078">
        <ele>91</ele>
        <time>2020-06-11T13:20:45Z</time>
      </trkpt>
      <trkpt lat="43.12298" lon="2.64096">
        <ele>91</ele>
        <time>2020-06-11T13:20:47Z</time>
      </trkpt>
      <trkpt lat="43.12294" lon="2.64105">
        <ele>91</ele>
        <time>2020-06-11T13:20:48Z</time>
      </trkpt>
      <trkpt lat="43.12291" lon="2.64115">
        <ele>91</ele>
        <time>2020-06-11T13:20:49Z</time>
      </trkpt>
      <trkpt lat="43.12288" lon="2.64133">
        <ele>91</ele>
        <time>2020-06-11T13:20:51Z</time>
      </trkpt>
      <trkpt lat="43.12293" lon="2.6415">
        <ele>91</ele>
        <time>2020-06-11T13:20:53Z</time>
      </trkpt>
      <trkpt lat="43.12298" lon="2.64157">
        <ele>91</ele>
        <time>2020-06-11T13:20:54Z</time>
      </trkpt>
      <trkpt lat="43.12304" lon="2.64162">
        <ele>92</ele>
        <time>2020-06-11T13:20:55Z</time>
      </trkpt>
      <trkpt lat="43.12309" lon="2.64166">
        <ele>92</ele>
        <time>2020-06-11T13:20:56Z</time>
      </trkpt>
      <trkpt lat="43.12321" lon="2.64174">
        <ele>94</ele>
        <time>2020-06-11T13:20:58Z</time>
      </trkpt>
      <trkpt lat="43.12338" lon="2.64183">
        <ele>95</ele>
        <time>2020-06-11T13:21:01Z</time>
      </trkpt>
      <trkpt lat="43.12344" lon="2.64185">
        <ele>95</ele>
        <time>2020-06-11T13:21:02Z</time>
      </trkpt>
      <trkpt lat="43.1235" lon="2.64186">
        <ele>96</ele>
        <time>2020-06-11T13:21:03Z</time>
      </trkpt>
      <trkpt lat="43.12356" lon="2.64186">
        <ele>96</ele>
        <time>2020-06-11T13:21:04Z</time>
      </trkpt>
      <trkpt lat="43.12362" lon="2.64186">
        <ele>96</ele>
        <time>2020-06-11T13:21:05Z</time>
      </trkpt>
      <trkpt lat="43.12379" lon="2.64183">
        <ele>97</ele>
        <time>2020-06-11T13:21:08Z</time>
      </trkpt>
      <trkpt lat="43.12385" lon="2.64182">
        <ele>97</ele>
        <time>2020-06-11T13:21:09Z</time>
      </trkpt>
      <trkpt lat="43.12396" lon="2.6418">
        <ele>98</ele>
        <time>2020-06-11T13:21:11Z</time>
      </trkpt>
      <trkpt lat="43.12402" lon="2.64179">
        <ele>98</ele>
        <time>2020-06-11T13:21:12Z</time>
      </trkpt>
      <trkpt lat="43.12424" lon="2.64178">
        <ele>100</ele>
        <time>2020-06-11T13:21:16Z</time>
      </trkpt>
      <trkpt lat="43.1243" lon="2.64179">
        <ele>100</ele>
        <time>2020-06-11T13:21:17Z</time>
      </trkpt>
      <trkpt lat="43.12448" lon="2.6418">
        <ele>101</ele>
        <time>2020-06-11T13:21:20Z</time>
      </trkpt>
      <trkpt lat="43.12458" lon="2.64185">
        <ele>102</ele>
        <time>2020-06-11T13:21:22Z</time>
      </trkpt>
      <trkpt lat="43.12463" lon="2.64189">
        <ele>102</ele>
        <time>2020-06-11T13:21:23Z</time>
      </trkpt>
      <trkpt lat="43.12467" lon="2.64194">
        <ele>102</ele>
        <time>2020-06-11T13:21:24Z</time>
      </trkpt>
      <trkpt lat="43.12471" lon="2.64199">
        <ele>102</ele>
        <time>2020-06-11T13:21:25Z</time>
      </trkpt>
      <trkpt lat="43.12475" lon="2.64203">
        <ele>102</ele>
        <time>2020-06-11T13:21:26Z</time>
      </trkpt>
      <trkpt lat="43.12479" lon="2.64207">
        <ele>102</ele>
        <time>2020-06-11T13:21:27Z</time>
      </trkpt>
      <trkpt lat="43.12485" lon="2.64214">
        <ele>101</ele>
        <time>2020-06-11T13:21:29Z</time>
      </trkpt>
      <trkpt lat="43.12489" lon="2.64216">
        <ele>101</ele>
        <time>2020-06-11T13:21:30Z</time>
      </trkpt>
      <trkpt lat="43.12493" lon="2.64216">
        <ele>101</ele>
        <time>2020-06-11T13:21:31Z</time>
      </trkpt>
      <trkpt lat="43.12496" lon="2.64217">
        <ele>101</ele>
        <time>2020-06-11T13:21:32Z</time>
      </trkpt>
      <trkpt lat="43.12506" lon="2.64214">
        <ele>102</ele>
        <time>2020-06-11T13:21:35Z</time>
      </trkpt>
      <trkpt lat="43.1251" lon="2.64213">
        <ele>102</ele>
        <time>2020-06-11T13:21:36Z</time>
      </trkpt>
      <trkpt lat="43.1252" lon="2.64208">
        <ele>103</ele>
        <time>2020-06-11T13:21:39Z</time>
      </trkpt>
      <trkpt lat="43.12532" lon="2.64201">
        <ele>104</ele>
        <time>2020-06-11T13:21:43Z</time>
      </trkpt>
      <trkpt lat="43.12548" lon="2.64193">
        <ele>105</ele>
        <time>2020-06-11T13:21:48Z</time>
      </trkpt>
      <trkpt lat="43.12558" lon="2.64189">
        <ele>105</ele>
        <time>2020-06-11T13:21:51Z</time>
      </trkpt>
      <trkpt lat="43.12572" lon="2.64193">
        <ele>105</ele>
        <time>2020-06-11T13:21:55Z</time>
      </trkpt>
      <trkpt lat="43.12587" lon="2.64209">
        <ele>105</ele>
        <time>2020-06-11T13:22:00Z</time>
      </trkpt>
      <trkpt lat="43.12592" lon="2.64222">
        <ele>106</ele>
        <time>2020-06-11T13:22:03Z</time>
      </trkpt>
      <trkpt lat="43.12596" lon="2.64239">
        <ele>107</ele>
        <time>2020-06-11T13:22:07Z</time>
      </trkpt>
      <trkpt lat="43.12598" lon="2.64252">
        <ele>108</ele>
        <time>2020-06-11T13:22:10Z</time>
      </trkpt>
      <trkpt lat="43.12598" lon="2.64275">
        <ele>109</ele>
        <time>2020-06-11T13:22:15Z</time>
      </trkpt>
      <trkpt lat="43.12598" lon="2.6428">
        <ele>109</ele>
        <time>2020-06-11T13:22:16Z</time>
      </trkpt>
      <trkpt lat="43.12597" lon="2.64299">
        <ele>109</ele>
        <time>2020-06-11T13:22:20Z</time>
      </trkpt>
      <trkpt lat="43.12596" lon="2.64316">
        <ele>110</ele>
        <time>2020-06-11T13:22:24Z</time>
      </trkpt>
      <trkpt lat="43.12595" lon="2.64339">
        <ele>111</ele>
        <time>2020-06-11T13:22:29Z</time>
      </trkpt>
      <trkpt lat="43.12595" lon="2.64348">
        <ele>111</ele>
        <time>2020-06-11T13:22:31Z</time>
      </trkpt>
      <trkpt lat="43.12594" lon="2.64352">
        <ele>111</ele>
        <time>2020-06-11T13:22:32Z</time>
      </trkpt>
      <trkpt lat="43.12592" lon="2.64394">
        <ele>113</ele>
        <time>2020-06-11T13:22:41Z</time>
      </trkpt>
      <trkpt lat="43.12591" lon="2.64414">
        <ele>113</ele>
        <time>2020-06-11T13:22:45Z</time>
      </trkpt>
      <trkpt lat="43.12591" lon="2.6443">
        <ele>114</ele>
        <time>2020-06-11T13:22:48Z</time>
      </trkpt>
      <trkpt lat="43.12591" lon="2.6444">
        <ele>114</ele>
        <time>2020-06-11T13:22:50Z</time>
      </trkpt>
      <trkpt lat="43.12589" lon="2.64472">
        <ele>116</ele>
        <time>2020-06-11T13:22:56Z</time>
      </trkpt>
      <trkpt lat="43.12589" lon="2.64488">
        <ele>116</ele>
        <time>2020-06-11T13:22:59Z</time>
      </trkpt>
      <trkpt lat="43.12589" lon="2.64494">
        <ele>116</ele>
        <time>2020-06-11T13:23:00Z</time>
      </trkpt>
      <trkpt lat="43.12587" lon="2.64537">
        <ele>115</ele>
        <time>2020-06-11T13:23:08Z</time>
      </trkpt>
      <trkpt lat="43.12586" lon="2.64542">
        <ele>115</ele>
        <time>2020-06-11T13:23:09Z</time>
      </trkpt>
      <trkpt lat="43.12585" lon="2.64575">
        <ele>115</ele>
        <time>2020-06-11T13:23:15Z</time>
      </trkpt>
      <trkpt lat="43.12585" lon="2.6458">
        <ele>115</ele>
        <time>2020-06-11T13:23:16Z</time>
      </trkpt>
      <trkpt lat="43.12584" lon="2.64602">
        <ele>115</ele>
        <time>2020-06-11T13:23:20Z</time>
      </trkpt>
      <trkpt lat="43.12583" lon="2.64607">
        <ele>115</ele>
        <time>2020-06-11T13:23:21Z</time>
      </trkpt>
      <trkpt lat="43.12583" lon="2.64618">
        <ele>115</ele>
        <time>2020-06-11T13:23:23Z</time>
      </trkpt>
      <trkpt lat="43.12582" lon="2.64624">
        <ele>115</ele>
        <time>2020-06-11T13:23:24Z</time>
      </trkpt>
      <trkpt lat="43.12581" lon="2.64666">
        <ele>117</ele>
        <time>2020-06-11T13:23:32Z</time>
      </trkpt>
      <trkpt lat="43.12581" lon="2.64671">
        <ele>117</ele>
        <time>2020-06-11T13:23:33Z</time>
      </trkpt>
      <trkpt lat="43.12579" lon="2.64697">
        <ele>118</ele>
        <time>2020-06-11T13:23:38Z</time>
      </trkpt>
      <trkpt lat="43.12579" lon="2.64702">
        <ele>118</ele>
        <time>2020-06-11T13:23:39Z</time>
      </trkpt>
      <trkpt lat="43.12578" lon="2.64717">
        <ele>118</ele>
        <time>2020-06-11T13:23:42Z</time>
      </trkpt>
      <trkpt lat="43.12578" lon="2.64728">
        <ele>119</ele>
        <time>2020-06-11T13:23:44Z</time>
      </trkpt>
      <trkpt lat="43.12576" lon="2.64779">
        <ele>120</ele>
        <time>2020-06-11T13:23:53Z</time>
      </trkpt>
      <trkpt lat="43.12574" lon="2.64821">
        <ele>121</ele>
        <time>2020-06-11T13:24:00Z</time>
      </trkpt>
      <trkpt lat="43.12575" lon="2.64844">
        <ele>121</ele>
        <time>2020-06-11T13:24:04Z</time>
      </trkpt>
      <trkpt lat="43.12577" lon="2.64856">
        <ele>121</ele>
        <time>2020-06-11T13:24:06Z</time>
      </trkpt>
      <trkpt lat="43.12579" lon="2.64861">
        <ele>121</ele>
        <time>2020-06-11T13:24:07Z</time>
      </trkpt>
      <trkpt lat="43.12593" lon="2.64887">
        <ele>120</ele>
        <time>2020-06-11T13:24:12Z</time>
      </trkpt>
      <trkpt lat="43.12599" lon="2.64898">
        <ele>119</ele>
        <time>2020-06-11T13:24:14Z</time>
      </trkpt>
      <trkpt lat="43.12606" lon="2.64907">
        <ele>119</ele>
        <time>2020-06-11T13:24:16Z</time>
      </trkpt>
      <trkpt lat="43.1261" lon="2.64912">
        <ele>119</ele>
        <time>2020-06-11T13:24:17Z</time>
      </trkpt>
      <trkpt lat="43.12632" lon="2.64939">
        <ele>118</ele>
        <time>2020-06-11T13:24:23Z</time>
      </trkpt>
      <trkpt lat="43.12636" lon="2.64944">
        <ele>118</ele>
        <time>2020-06-11T13:24:24Z</time>
      </trkpt>
      <trkpt lat="43.12641" lon="2.64949">
        <ele>118</ele>
        <time>2020-06-11T13:24:25Z</time>
      </trkpt>
      <trkpt lat="43.12645" lon="2.64953">
        <ele>118</ele>
        <time>2020-06-11T13:24:26Z</time>
      </trkpt>
      <trkpt lat="43.12671" lon="2.64982">
        <ele>119</ele>
        <time>2020-06-11T13:24:32Z</time>
      </trkpt>
      <trkpt lat="43.127" lon="2.65009">
        <ele>119</ele>
        <time>2020-06-11T13:24:38Z</time>
      </trkpt>
      <trkpt lat="43.12719" lon="2.65027">
        <ele>119</ele>
        <time>2020-06-11T13:24:42Z</time>
      </trkpt>
      <trkpt lat="43.12729" lon="2.65037">
        <ele>119</ele>
        <time>2020-06-11T13:24:44Z</time>
      </trkpt>
      <trkpt lat="43.12745" lon="2.6505">
        <ele>119</ele>
        <time>2020-06-11T13:24:47Z</time>
      </trkpt>
      <trkpt lat="43.12761" lon="2.65062">
        <ele>119</ele>
        <time>2020-06-11T13:24:50Z</time>
      </trkpt>
      <trkpt lat="43.12767" lon="2.65064">
        <ele>119</ele>
        <time>2020-06-11T13:24:51Z</time>
      </trkpt>
      <trkpt lat="43.12772" lon="2.65066">
        <ele>119</ele>
        <time>2020-06-11T13:24:52Z</time>
      </trkpt>
      <trkpt lat="43.12784" lon="2.65068">
        <ele>119</ele>
        <time>2020-06-11T13:24:54Z</time>
      </trkpt>
      <trkpt lat="43.1279" lon="2.65069">
        <ele>119</ele>
        <time>2020-06-11T13:24:55Z</time>
      </trkpt>
      <trkpt lat="43.12796" lon="2.65069">
        <ele>119</ele>
        <time>2020-06-11T13:24:56Z</time>
      </trkpt>
      <trkpt lat="43.12808" lon="2.6507">
        <ele>119</ele>
        <time>2020-06-11T13:24:58Z</time>
      </trkpt>
      <trkpt lat="43.1282" lon="2.65071">
        <ele>120</ele>
        <time>2020-06-11T13:25:00Z</time>
      </trkpt>
      <trkpt lat="43.12826" lon="2.65072">
        <ele>121</ele>
        <time>2020-06-11T13:25:01Z</time>
      </trkpt>
      <trkpt lat="43.12838" lon="2.65074">
        <ele>122</ele>
        <time>2020-06-11T13:25:03Z</time>
      </trkpt>
      <trkpt lat="43.12844" lon="2.65074">
        <ele>122</ele>
        <time>2020-06-11T13:25:04Z</time>
      </trkpt>
      <trkpt lat="43.12854" lon="2.65075">
        <ele>123</ele>
        <time>2020-06-11T13:25:06Z</time>
      </trkpt>
      <trkpt lat="43.1286" lon="2.65077">
        <ele>123</ele>
        <time>2020-06-11T13:25:07Z</time>
      </trkpt>
      <trkpt lat="43.12865" lon="2.65079">
        <ele>123</ele>
        <time>2020-06-11T13:25:08Z</time>
      </trkpt>
      <trkpt lat="43.12873" lon="2.65084">
        <ele>123</ele>
        <time>2020-06-11T13:25:10Z</time>
      </trkpt>
      <trkpt lat="43.12877" lon="2.65087">
        <ele>123</ele>
        <time>2020-06-11T13:25:11Z</time>
      </trkpt>
      <trkpt lat="43.12885" lon="2.65094">
        <ele>123</ele>
        <time>2020-06-11T13:25:13Z</time>
      </trkpt>
      <trkpt lat="43.1289" lon="2.65103">
        <ele>122</ele>
        <time>2020-06-11T13:25:15Z</time>
      </trkpt>
      <trkpt lat="43.12896" lon="2.65115">
        <ele>122</ele>
        <time>2020-06-11T13:25:18Z</time>
      </trkpt>
      <trkpt lat="43.12899" lon="2.65116">
        <ele>122</ele>
        <time>2020-06-11T13:25:19Z</time>
      </trkpt>
      <trkpt lat="43.12912" lon="2.65122">
        <ele>122</ele>
        <time>2020-06-11T13:25:23Z</time>
      </trkpt>
      <trkpt lat="43.12914" lon="2.65127">
        <ele>122</ele>
        <time>2020-06-11T13:25:24Z</time>
      </trkpt>
      <trkpt lat="43.12914" lon="2.65132">
        <ele>122</ele>
        <time>2020-06-11T13:25:25Z</time>
      </trkpt>
      <trkpt lat="43.12913" lon="2.65138">
        <ele>122</ele>
        <time>2020-06-11T13:25:26Z</time>
      </trkpt>
      <trkpt lat="43.12912" lon="2.65144">
        <ele>122</ele>
        <time>2020-06-11T13:25:27Z</time>
      </trkpt>
      <trkpt lat="43.1291" lon="2.65151">
        <ele>122</ele>
        <time>2020-06-11T13:25:28Z</time>
      </trkpt>
      <trkpt lat="43.12909" lon="2.65157">
        <ele>122</ele>
        <time>2020-06-11T13:25:29Z</time>
      </trkpt>
      <trkpt lat="43.12908" lon="2.65164">
        <ele>122</ele>
        <time>2020-06-11T13:25:30Z</time>
      </trkpt>
      <trkpt lat="43.12906" lon="2.65171">
        <ele>122</ele>
        <time>2020-06-11T13:25:31Z</time>
      </trkpt>
      <trkpt lat="43.12907" lon="2.65178">
        <ele>122</ele>
        <time>2020-06-11T13:25:32Z</time>
      </trkpt>
      <trkpt lat="43.12908" lon="2.65185">
        <ele>122</ele>
        <time>2020-06-11T13:25:33Z</time>
      </trkpt>
      <trkpt lat="43.12909" lon="2.65193">
        <ele>122</ele>
        <time>2020-06-11T13:25:34Z</time>
      </trkpt>
      <trkpt lat="43.12913" lon="2.65217">
        <ele>121</ele>
        <time>2020-06-11T13:25:37Z</time>
      </trkpt>
      <trkpt lat="43.12914" lon="2.65225">
        <ele>121</ele>
        <time>2020-06-11T13:25:38Z</time>
      </trkpt>
      <trkpt lat="43.12914" lon="2.65233">
        <ele>120</ele>
        <time>2020-06-11T13:25:39Z</time>
      </trkpt>
      <trkpt lat="43.12915" lon="2.6526">
        <ele>119</ele>
        <time>2020-06-11T13:25:42Z</time>
      </trkpt>
      <trkpt lat="43.12915" lon="2.65269">
        <ele>119</ele>
        <time>2020-06-11T13:25:43Z</time>
      </trkpt>
      <trkpt lat="43.12917" lon="2.65287">
        <ele>118</ele>
        <time>2020-06-11T13:25:45Z</time>
      </trkpt>
      <trkpt lat="43.12918" lon="2.65296">
        <ele>118</ele>
        <time>2020-06-11T13:25:46Z</time>
      </trkpt>
      <trkpt lat="43.12919" lon="2.65306">
        <ele>117</ele>
        <time>2020-06-11T13:25:47Z</time>
      </trkpt>
      <trkpt lat="43.1292" lon="2.65316">
        <ele>117</ele>
        <time>2020-06-11T13:25:48Z</time>
      </trkpt>
      <trkpt lat="43.12922" lon="2.65348">
        <ele>115</ele>
        <time>2020-06-11T13:25:51Z</time>
      </trkpt>
      <trkpt lat="43.12923" lon="2.65371">
        <ele>113</ele>
        <time>2020-06-11T13:25:53Z</time>
      </trkpt>
      <trkpt lat="43.12923" lon="2.65383">
        <ele>113</ele>
        <time>2020-06-11T13:25:54Z</time>
      </trkpt>
      <trkpt lat="43.12924" lon="2.65395">
        <ele>112</ele>
        <time>2020-06-11T13:25:55Z</time>
      </trkpt>
      <trkpt lat="43.12925" lon="2.65407">
        <ele>112</ele>
        <time>2020-06-11T13:25:56Z</time>
      </trkpt>
      <trkpt lat="43.12926" lon="2.65419">
        <ele>111</ele>
        <time>2020-06-11T13:25:57Z</time>
      </trkpt>
      <trkpt lat="43.12927" lon="2.65431">
        <ele>111</ele>
        <time>2020-06-11T13:25:58Z</time>
      </trkpt>
      <trkpt lat="43.12929" lon="2.65468">
        <ele>110</ele>
        <time>2020-06-11T13:26:01Z</time>
      </trkpt>
      <trkpt lat="43.12929" lon="2.65481">
        <ele>110</ele>
        <time>2020-06-11T13:26:02Z</time>
      </trkpt>
      <trkpt lat="43.12925" lon="2.65506">
        <ele>109</ele>
        <time>2020-06-11T13:26:04Z</time>
      </trkpt>
      <trkpt lat="43.1292" lon="2.65517">
        <ele>109</ele>
        <time>2020-06-11T13:26:05Z</time>
      </trkpt>
      <trkpt lat="43.12915" lon="2.65527">
        <ele>109</ele>
        <time>2020-06-11T13:26:06Z</time>
      </trkpt>
      <trkpt lat="43.12908" lon="2.65537">
        <ele>108</ele>
        <time>2020-06-11T13:26:07Z</time>
      </trkpt>
      <trkpt lat="43.12901" lon="2.65545">
        <ele>108</ele>
        <time>2020-06-11T13:26:08Z</time>
      </trkpt>
      <trkpt lat="43.12895" lon="2.65553">
        <ele>108</ele>
        <time>2020-06-11T13:26:09Z</time>
      </trkpt>
      <trkpt lat="43.12882" lon="2.65568">
        <ele>107</ele>
        <time>2020-06-11T13:26:11Z</time>
      </trkpt>
      <trkpt lat="43.12869" lon="2.65582">
        <ele>106</ele>
        <time>2020-06-11T13:26:13Z</time>
      </trkpt>
      <trkpt lat="43.12856" lon="2.65595">
        <ele>105</ele>
        <time>2020-06-11T13:26:15Z</time>
      </trkpt>
      <trkpt lat="43.1285" lon="2.65602">
        <ele>104</ele>
        <time>2020-06-11T13:26:16Z</time>
      </trkpt>
      <trkpt lat="43.12823" lon="2.65629">
        <ele>103</ele>
        <time>2020-06-11T13:26:20Z</time>
      </trkpt>
      <trkpt lat="43.12779" lon="2.65675">
        <ele>102</ele>
        <time>2020-06-11T13:26:27Z</time>
      </trkpt>
      <trkpt lat="43.12774" lon="2.65681">
        <ele>103</ele>
        <time>2020-06-11T13:26:28Z</time>
      </trkpt>
      <trkpt lat="43.12764" lon="2.65693">
        <ele>103</ele>
        <time>2020-06-11T13:26:30Z</time>
      </trkpt>
      <trkpt lat="43.12757" lon="2.65709">
        <ele>103</ele>
        <time>2020-06-11T13:26:32Z</time>
      </trkpt>
      <trkpt lat="43.12753" lon="2.65717">
        <ele>103</ele>
        <time>2020-06-11T13:26:33Z</time>
      </trkpt>
      <trkpt lat="43.1275" lon="2.65726">
        <ele>103</ele>
        <time>2020-06-11T13:26:34Z</time>
      </trkpt>
      <trkpt lat="43.12746" lon="2.65735">
        <ele>102</ele>
        <time>2020-06-11T13:26:35Z</time>
      </trkpt>
      <trkpt lat="43.12736" lon="2.65763">
        <ele>101</ele>
        <time>2020-06-11T13:26:38Z</time>
      </trkpt>
      <trkpt lat="43.12714" lon="2.65804">
        <ele>100</ele>
        <time>2020-06-11T13:26:43Z</time>
      </trkpt>
      <trkpt lat="43.12709" lon="2.65811">
        <ele>100</ele>
        <time>2020-06-11T13:26:44Z</time>
      </trkpt>
      <trkpt lat="43.12688" lon="2.65839">
        <ele>99</ele>
        <time>2020-06-11T13:26:48Z</time>
      </trkpt>
      <trkpt lat="43.12676" lon="2.65851">
        <ele>99</ele>
        <time>2020-06-11T13:26:50Z</time>
      </trkpt>
      <trkpt lat="43.12658" lon="2.65869">
        <ele>98</ele>
        <time>2020-06-11T13:26:53Z</time>
      </trkpt>
      <trkpt lat="43.12653" lon="2.65875">
        <ele>98</ele>
        <time>2020-06-11T13:26:54Z</time>
      </trkpt>
      <trkpt lat="43.12647" lon="2.65881">
        <ele>98</ele>
        <time>2020-06-11T13:26:55Z</time>
      </trkpt>
      <trkpt lat="43.1262" lon="2.65916">
        <ele>98</ele>
        <time>2020-06-11T13:27:00Z</time>
      </trkpt>
      <trkpt lat="43.126" lon="2.65946">
        <ele>98</ele>
        <time>2020-06-11T13:27:04Z</time>
      </trkpt>
      <trkpt lat="43.12595" lon="2.65954">
        <ele>98</ele>
        <time>2020-06-11T13:27:05Z</time>
      </trkpt>
      <trkpt lat="43.12589" lon="2.65962">
        <ele>98</ele>
        <time>2020-06-11T13:27:06Z</time>
      </trkpt>
      <trkpt lat="43.12583" lon="2.65969">
        <ele>97</ele>
        <time>2020-06-11T13:27:07Z</time>
      </trkpt>
      <trkpt lat="43.12577" lon="2.65975">
        <ele>97</ele>
        <time>2020-06-11T13:27:08Z</time>
      </trkpt>
      <trkpt lat="43.12564" lon="2.65986">
        <ele>96</ele>
        <time>2020-06-11T13:27:10Z</time>
      </trkpt>
      <trkpt lat="43.12535" lon="2.6601">
        <ele>94</ele>
        <time>2020-06-11T13:27:15Z</time>
      </trkpt>
      <trkpt lat="43.12509" lon="2.66036">
        <ele>95</ele>
        <time>2020-06-11T13:27:20Z</time>
      </trkpt>
      <trkpt lat="43.12504" lon="2.66041">
        <ele>95</ele>
        <time>2020-06-11T13:27:21Z</time>
      </trkpt>
      <trkpt lat="43.12484" lon="2.66059">
        <ele>94</ele>
        <time>2020-06-11T13:27:25Z</time>
      </trkpt>
      <trkpt lat="43.12475" lon="2.66068">
        <ele>94</ele>
        <time>2020-06-11T13:27:27Z</time>
      </trkpt>
      <trkpt lat="43.12456" lon="2.66087">
        <ele>94</ele>
        <time>2020-06-11T13:27:31Z</time>
      </trkpt>
      <trkpt lat="43.1245" lon="2.6609">
        <ele>94</ele>
        <time>2020-06-11T13:27:32Z</time>
      </trkpt>
      <trkpt lat="43.12412" lon="2.66109">
        <ele>93</ele>
        <time>2020-06-11T13:27:38Z</time>
      </trkpt>
      <trkpt lat="43.12406" lon="2.66114">
        <ele>93</ele>
        <time>2020-06-11T13:27:39Z</time>
      </trkpt>
      <trkpt lat="43.12401" lon="2.6612">
        <ele>93</ele>
        <time>2020-06-11T13:27:40Z</time>
      </trkpt>
      <trkpt lat="43.12391" lon="2.66133">
        <ele>92</ele>
        <time>2020-06-11T13:27:42Z</time>
      </trkpt>
      <trkpt lat="43.12357" lon="2.66186">
        <ele>91</ele>
        <time>2020-06-11T13:27:50Z</time>
      </trkpt>
      <trkpt lat="43.12332" lon="2.66225">
        <ele>90</ele>
        <time>2020-06-11T13:27:56Z</time>
      </trkpt>
      <trkpt lat="43.12325" lon="2.66237">
        <ele>90</ele>
        <time>2020-06-11T13:27:58Z</time>
      </trkpt>
      <trkpt lat="43.12322" lon="2.66242">
        <ele>90</ele>
        <time>2020-06-11T13:27:59Z</time>
      </trkpt>
      <trkpt lat="43.12318" lon="2.66247">
        <ele>90</ele>
        <time>2020-06-11T13:28:00Z</time>
      </trkpt>
      <trkpt lat="43.12315" lon="2.66251">
        <ele>89</ele>
        <time>2020-06-11T13:28:01Z</time>
      </trkpt>
      <trkpt lat="43.1229" lon="2.66286">
        <ele>88</ele>
        <time>2020-06-11T13:28:09Z</time>
      </trkpt>
      <trkpt lat="43.12281" lon="2.66298">
        <ele>88</ele>
        <time>2020-06-11T13:28:13Z</time>
      </trkpt>
      <trkpt lat="43.1228" lon="2.66302">
        <ele>88</ele>
        <time>2020-06-11T13:28:14Z</time>
      </trkpt>
      <trkpt lat="43.12281" lon="2.66314">
        <ele>88</ele>
        <time>2020-06-11T13:28:16Z</time>
      </trkpt>
      <trkpt lat="43.12285" lon="2.66326">
        <ele>88</ele>
        <time>2020-06-11T13:28:18Z</time>
      </trkpt>
      <trkpt lat="43.12291" lon="2.66339">
        <ele>88</ele>
        <time>2020-06-11T13:28:20Z</time>
      </trkpt>
      <trkpt lat="43.12304" lon="2.66367">
        <ele>89</ele>
        <time>2020-06-11T13:28:24Z</time>
      </trkpt>
      <trkpt lat="43.1231" lon="2.66382">
        <ele>89</ele>
        <time>2020-06-11T13:28:26Z</time>
      </trkpt>
      <trkpt lat="43.12319" lon="2.66404">
        <ele>88</ele>
        <time>2020-06-11T13:28:29Z</time>
      </trkpt>
      <trkpt lat="43.12321" lon="2.66412">
        <ele>88</ele>
        <time>2020-06-11T13:28:30Z</time>
      </trkpt>
      <trkpt lat="43.12327" lon="2.66428">
        <ele>88</ele>
        <time>2020-06-11T13:28:32Z</time>
      </trkpt>
      <trkpt lat="43.12339" lon="2.66471">
        <ele>88</ele>
        <time>2020-06-11T13:28:37Z</time>
      </trkpt>
      <trkpt lat="43.1235" lon="2.66506">
        <ele>88</ele>
        <time>2020-06-11T13:28:41Z</time>
      </trkpt>
      <trkpt lat="43.12366" lon="2.66559">
        <ele>87</ele>
        <time>2020-06-11T13:28:47Z</time>
      </trkpt>
      <trkpt lat="43.1239" lon="2.66632">
        <ele>88</ele>
        <time>2020-06-11T13:28:55Z</time>
      </trkpt>
      <trkpt lat="43.12393" lon="2.66641">
        <ele>88</ele>
        <time>2020-06-11T13:28:56Z</time>
      </trkpt>
      <trkpt lat="43.12396" lon="2.66649">
        <ele>88</ele>
        <time>2020-06-11T13:28:57Z</time>
      </trkpt>
      <trkpt lat="43.12399" lon="2.66658">
        <ele>88</ele>
        <time>2020-06-11T13:28:58Z</time>
      </trkpt>
      <trkpt lat="43.12409" lon="2.66686">
        <ele>88</ele>
        <time>2020-06-11T13:29:01Z</time>
      </trkpt>
      <trkpt lat="43.12415" lon="2.66704">
        <ele>88</ele>
        <time>2020-06-11T13:29:03Z</time>
      </trkpt>
      <trkpt lat="43.12428" lon="2.66741">
        <ele>87</ele>
        <time>2020-06-11T13:29:07Z</time>
      </trkpt>
      <trkpt lat="43.12454" lon="2.66804">
        <ele>84</ele>
        <time>2020-06-11T13:29:14Z</time>
      </trkpt>
      <trkpt lat="43.1249" lon="2.66872">
        <ele>85</ele>
        <time>2020-06-11T13:29:22Z</time>
      </trkpt>
      <trkpt lat="43.12518" lon="2.66921">
        <ele>85</ele>
        <time>2020-06-11T13:29:28Z</time>
      </trkpt>
      <trkpt lat="43.12523" lon="2.66929">
        <ele>85</ele>
        <time>2020-06-11T13:29:29Z</time>
      </trkpt>
      <trkpt lat="43.12537" lon="2.66953">
        <ele>86</ele>
        <time>2020-06-11T13:29:32Z</time>
      </trkpt>
      <trkpt lat="43.12555" lon="2.66986">
        <ele>87</ele>
        <time>2020-06-11T13:29:36Z</time>
      </trkpt>
      <trkpt lat="43.1259" lon="2.67054">
        <ele>86</ele>
        <time>2020-06-11T13:29:44Z</time>
      </trkpt>
      <trkpt lat="43.12599" lon="2.67071">
        <ele>86</ele>
        <time>2020-06-11T13:29:46Z</time>
      </trkpt>
      <trkpt lat="43.12612" lon="2.67097">
        <ele>85</ele>
        <time>2020-06-11T13:29:49Z</time>
      </trkpt>
      <trkpt lat="43.12629" lon="2.67131">
        <ele>85</ele>
        <time>2020-06-11T13:29:53Z</time>
      </trkpt>
      <trkpt lat="43.12633" lon="2.6714">
        <ele>85</ele>
        <time>2020-06-11T13:29:54Z</time>
      </trkpt>
      <trkpt lat="43.12651" lon="2.67174">
        <ele>86</ele>
        <time>2020-06-11T13:29:58Z</time>
      </trkpt>
      <trkpt lat="43.12664" lon="2.67198">
        <ele>85</ele>
        <time>2020-06-11T13:30:01Z</time>
      </trkpt>
      <trkpt lat="43.12691" lon="2.67248">
        <ele>85</ele>
        <time>2020-06-11T13:30:07Z</time>
      </trkpt>
      <trkpt lat="43.12696" lon="2.67256">
        <ele>84</ele>
        <time>2020-06-11T13:30:08Z</time>
      </trkpt>
      <trkpt lat="43.12719" lon="2.67298">
        <ele>84</ele>
        <time>2020-06-11T13:30:13Z</time>
      </trkpt>
      <trkpt lat="43.12728" lon="2.67314">
        <ele>84</ele>
        <time>2020-06-11T13:30:15Z</time>
      </trkpt>
      <trkpt lat="43.12737" lon="2.67331">
        <ele>84</ele>
        <time>2020-06-11T13:30:17Z</time>
      </trkpt>
      <trkpt lat="43.12742" lon="2.6734">
        <ele>83</ele>
        <time>2020-06-11T13:30:18Z</time>
      </trkpt>
      <trkpt lat="43.12751" lon="2.67356">
        <ele>84</ele>
        <time>2020-06-11T13:30:20Z</time>
      </trkpt>
      <trkpt lat="43.1276" lon="2.67373">
        <ele>84</ele>
        <time>2020-06-11T13:30:22Z</time>
      </trkpt>
      <trkpt lat="43.12765" lon="2.67382">
        <ele>84</ele>
        <time>2020-06-11T13:30:23Z</time>
      </trkpt>
      <trkpt lat="43.12774" lon="2.67398">
        <ele>84</ele>
        <time>2020-06-11T13:30:25Z</time>
      </trkpt>
      <trkpt lat="43.12797" lon="2.6744">
        <ele>85</ele>
        <time>2020-06-11T13:30:30Z</time>
      </trkpt>
      <trkpt lat="43.1281" lon="2.67464">
        <ele>86</ele>
        <time>2020-06-11T13:30:33Z</time>
      </trkpt>
      <trkpt lat="43.12827" lon="2.67496">
        <ele>85</ele>
        <time>2020-06-11T13:30:37Z</time>
      </trkpt>
      <trkpt lat="43.12834" lon="2.67514">
        <ele>84</ele>
        <time>2020-06-11T13:30:39Z</time>
      </trkpt>
      <trkpt lat="43.12849" lon="2.6756">
        <ele>83</ele>
        <time>2020-06-11T13:30:44Z</time>
      </trkpt>
      <trkpt lat="43.12857" lon="2.67588">
        <ele>83</ele>
        <time>2020-06-11T13:30:47Z</time>
      </trkpt>
      <trkpt lat="43.12879" lon="2.67663">
        <ele>82</ele>
        <time>2020-06-11T13:30:55Z</time>
      </trkpt>
      <trkpt lat="43.12885" lon="2.67681">
        <ele>81</ele>
        <time>2020-06-11T13:30:57Z</time>
      </trkpt>
      <trkpt lat="43.1291" lon="2.67743">
        <ele>81</ele>
        <time>2020-06-11T13:31:04Z</time>
      </trkpt>
      <trkpt lat="43.12928" lon="2.67788">
        <ele>82</ele>
        <time>2020-06-11T13:31:09Z</time>
      </trkpt>
      <trkpt lat="43.12931" lon="2.67797">
        <ele>82</ele>
        <time>2020-06-11T13:31:10Z</time>
      </trkpt>
      <trkpt lat="43.12939" lon="2.67816">
        <ele>82</ele>
        <time>2020-06-11T13:31:12Z</time>
      </trkpt>
      <trkpt lat="43.12943" lon="2.67825">
        <ele>82</ele>
        <time>2020-06-11T13:31:13Z</time>
      </trkpt>
      <trkpt lat="43.12973" lon="2.67897">
        <ele>82</ele>
        <time>2020-06-11T13:31:21Z</time>
      </trkpt>
      <trkpt lat="43.12977" lon="2.67906">
        <ele>82</ele>
        <time>2020-06-11T13:31:22Z</time>
      </trkpt>
      <trkpt lat="43.12985" lon="2.67924">
        <ele>81</ele>
        <time>2020-06-11T13:31:24Z</time>
      </trkpt>
      <trkpt lat="43.12999" lon="2.67949">
        <ele>80</ele>
        <time>2020-06-11T13:31:27Z</time>
      </trkpt>
      <trkpt lat="43.13004" lon="2.67956">
        <ele>80</ele>
        <time>2020-06-11T13:31:28Z</time>
      </trkpt>
      <trkpt lat="43.1301" lon="2.67964">
        <ele>80</ele>
        <time>2020-06-11T13:31:29Z</time>
      </trkpt>
      <trkpt lat="43.13034" lon="2.67994">
        <ele>80</ele>
        <time>2020-06-11T13:31:33Z</time>
      </trkpt>
      <trkpt lat="43.13039" lon="2.68002">
        <ele>80</ele>
        <time>2020-06-11T13:31:34Z</time>
      </trkpt>
      <trkpt lat="43.13059" lon="2.68037">
        <ele>80</ele>
        <time>2020-06-11T13:31:38Z</time>
      </trkpt>
      <trkpt lat="43.13063" lon="2.68046">
        <ele>80</ele>
        <time>2020-06-11T13:31:39Z</time>
      </trkpt>
      <trkpt lat="43.13068" lon="2.68056">
        <ele>80</ele>
        <time>2020-06-11T13:31:40Z</time>
      </trkpt>
      <trkpt lat="43.13081" lon="2.68084">
        <ele>80</ele>
        <time>2020-06-11T13:31:43Z</time>
      </trkpt>
      <trkpt lat="43.13085" lon="2.68094">
        <ele>79</ele>
        <time>2020-06-11T13:31:44Z</time>
      </trkpt>
      <trkpt lat="43.13092" lon="2.68114">
        <ele>79</ele>
        <time>2020-06-11T13:31:46Z</time>
      </trkpt>
      <trkpt lat="43.13096" lon="2.68124">
        <ele>79</ele>
        <time>2020-06-11T13:31:47Z</time>
      </trkpt>
      <trkpt lat="43.13114" lon="2.68196">
        <ele>79</ele>
        <time>2020-06-11T13:31:54Z</time>
      </trkpt>
      <trkpt lat="43.13117" lon="2.68206">
        <ele>79</ele>
        <time>2020-06-11T13:31:55Z</time>
      </trkpt>
      <trkpt lat="43.13119" lon="2.68216">
        <ele>79</ele>
        <time>2020-06-11T13:31:56Z</time>
      </trkpt>
      <trkpt lat="43.13126" lon="2.68246">
        <ele>79</ele>
        <time>2020-06-11T13:31:59Z</time>
      </trkpt>
      <trkpt lat="43.13132" lon="2.68266">
        <ele>79</ele>
        <time>2020-06-11T13:32:01Z</time>
      </trkpt>
      <trkpt lat="43.13145" lon="2.68337">
        <ele>78</ele>
        <time>2020-06-11T13:32:08Z</time>
      </trkpt>
      <trkpt lat="43.13145" lon="2.68348">
        <ele>77</ele>
        <time>2020-06-11T13:32:09Z</time>
      </trkpt>
      <trkpt lat="43.13146" lon="2.6838">
        <ele>76</ele>
        <time>2020-06-11T13:32:12Z</time>
      </trkpt>
      <trkpt lat="43.13148" lon="2.68402">
        <ele>76</ele>
        <time>2020-06-11T13:32:14Z</time>
      </trkpt>
      <trkpt lat="43.13158" lon="2.68443">
        <ele>78</ele>
        <time>2020-06-11T13:32:18Z</time>
      </trkpt>
      <trkpt lat="43.13164" lon="2.68462">
        <ele>79</ele>
        <time>2020-06-11T13:32:20Z</time>
      </trkpt>
      <trkpt lat="43.13167" lon="2.68472">
        <ele>80</ele>
        <time>2020-06-11T13:32:21Z</time>
      </trkpt>
      <trkpt lat="43.13173" lon="2.68491">
        <ele>80</ele>
        <time>2020-06-11T13:32:23Z</time>
      </trkpt>
      <trkpt lat="43.13176" lon="2.68501">
        <ele>80</ele>
        <time>2020-06-11T13:32:24Z</time>
      </trkpt>
      <trkpt lat="43.13179" lon="2.6851">
        <ele>80</ele>
        <time>2020-06-11T13:32:25Z</time>
      </trkpt>
      <trkpt lat="43.13182" lon="2.6852">
        <ele>79</ele>
        <time>2020-06-11T13:32:26Z</time>
      </trkpt>
      <trkpt lat="43.13191" lon="2.68549">
        <ele>79</ele>
        <time>2020-06-11T13:32:29Z</time>
      </trkpt>
      <trkpt lat="43.13194" lon="2.68558">
        <ele>78</ele>
        <time>2020-06-11T13:32:30Z</time>
      </trkpt>
      <trkpt lat="43.13214" lon="2.68624">
        <ele>78</ele>
        <time>2020-06-11T13:32:37Z</time>
      </trkpt>
      <trkpt lat="43.13224" lon="2.68651">
        <ele>79</ele>
        <time>2020-06-11T13:32:40Z</time>
      </trkpt>
      <trkpt lat="43.1323" lon="2.6867">
        <ele>79</ele>
        <time>2020-06-11T13:32:42Z</time>
      </trkpt>
      <trkpt lat="43.13237" lon="2.68689">
        <ele>79</ele>
        <time>2020-06-11T13:32:44Z</time>
      </trkpt>
      <trkpt lat="43.13246" lon="2.68717">
        <ele>78</ele>
        <time>2020-06-11T13:32:47Z</time>
      </trkpt>
      <trkpt lat="43.13248" lon="2.68726">
        <ele>78</ele>
        <time>2020-06-11T13:32:48Z</time>
      </trkpt>
      <trkpt lat="43.13253" lon="2.68746">
        <ele>78</ele>
        <time>2020-06-11T13:32:50Z</time>
      </trkpt>
      <trkpt lat="43.13255" lon="2.68755">
        <ele>78</ele>
        <time>2020-06-11T13:32:51Z</time>
      </trkpt>
      <trkpt lat="43.13259" lon="2.68775">
        <ele>78</ele>
        <time>2020-06-11T13:32:53Z</time>
      </trkpt>
      <trkpt lat="43.13264" lon="2.68793">
        <ele>79</ele>
        <time>2020-06-11T13:32:55Z</time>
      </trkpt>
      <trkpt lat="43.13269" lon="2.68813">
        <ele>79</ele>
        <time>2020-06-11T13:32:57Z</time>
      </trkpt>
      <trkpt lat="43.13272" lon="2.68822">
        <ele>79</ele>
        <time>2020-06-11T13:32:58Z</time>
      </trkpt>
      <trkpt lat="43.13276" lon="2.68831">
        <ele>78</ele>
        <time>2020-06-11T13:32:59Z</time>
      </trkpt>
      <trkpt lat="43.13291" lon="2.68877">
        <ele>77</ele>
        <time>2020-06-11T13:33:04Z</time>
      </trkpt>
      <trkpt lat="43.13302" lon="2.68905">
        <ele>77</ele>
        <time>2020-06-11T13:33:07Z</time>
      </trkpt>
      <trkpt lat="43.13305" lon="2.68914">
        <ele>77</ele>
        <time>2020-06-11T13:33:08Z</time>
      </trkpt>
      <trkpt lat="43.13308" lon="2.68923">
        <ele>77</ele>
        <time>2020-06-11T13:33:09Z</time>
      </trkpt>
      <trkpt lat="43.13312" lon="2.68932">
        <ele>77</ele>
        <time>2020-06-11T13:33:10Z</time>
      </trkpt>
      <trkpt lat="43.13315" lon="2.68942">
        <ele>77</ele>
        <time>2020-06-11T13:33:11Z</time>
      </trkpt>
      <trkpt lat="43.13318" lon="2.68951">
        <ele>77</ele>
        <time>2020-06-11T13:33:12Z</time>
      </trkpt>
      <trkpt lat="43.13345" lon="2.69027">
        <ele>75</ele>
        <time>2020-06-11T13:33:20Z</time>
      </trkpt>
      <trkpt lat="43.13349" lon="2.69036">
        <ele>75</ele>
        <time>2020-06-11T13:33:21Z</time>
      </trkpt>
      <trkpt lat="43.13352" lon="2.69046">
        <ele>75</ele>
        <time>2020-06-11T13:33:22Z</time>
      </trkpt>
      <trkpt lat="43.13359" lon="2.69065">
        <ele>75</ele>
        <time>2020-06-11T13:33:24Z</time>
      </trkpt>
      <trkpt lat="43.1337" lon="2.69105">
        <ele>77</ele>
        <time>2020-06-11T13:33:28Z</time>
      </trkpt>
      <trkpt lat="43.13372" lon="2.69115">
        <ele>77</ele>
        <time>2020-06-11T13:33:29Z</time>
      </trkpt>
      <trkpt lat="43.13379" lon="2.69153">
        <ele>77</ele>
        <time>2020-06-11T13:33:33Z</time>
      </trkpt>
      <trkpt lat="43.13382" lon="2.69162">
        <ele>77</ele>
        <time>2020-06-11T13:33:34Z</time>
      </trkpt>
      <trkpt lat="43.13385" lon="2.69171">
        <ele>77</ele>
        <time>2020-06-11T13:33:35Z</time>
      </trkpt>
      <trkpt lat="43.13388" lon="2.69179">
        <ele>77</ele>
        <time>2020-06-11T13:33:36Z</time>
      </trkpt>
      <trkpt lat="43.13398" lon="2.69194">
        <ele>78</ele>
        <time>2020-06-11T13:33:38Z</time>
      </trkpt>
      <trkpt lat="43.13439" lon="2.69251">
        <ele>77</ele>
        <time>2020-06-11T13:33:46Z</time>
      </trkpt>
      <trkpt lat="43.13467" lon="2.69289">
        <ele>78</ele>
        <time>2020-06-11T13:33:52Z</time>
      </trkpt>
      <trkpt lat="43.13471" lon="2.69295">
        <ele>78</ele>
        <time>2020-06-11T13:33:53Z</time>
      </trkpt>
      <trkpt lat="43.13482" lon="2.69313">
        <ele>79</ele>
        <time>2020-06-11T13:33:56Z</time>
      </trkpt>
      <trkpt lat="43.13485" lon="2.69319">
        <ele>79</ele>
        <time>2020-06-11T13:33:57Z</time>
      </trkpt>
      <trkpt lat="43.13488" lon="2.69325">
        <ele>79</ele>
        <time>2020-06-11T13:33:58Z</time>
      </trkpt>
      <trkpt lat="43.13494" lon="2.69338">
        <ele>79</ele>
        <time>2020-06-11T13:34:00Z</time>
      </trkpt>
      <trkpt lat="43.13509" lon="2.69368">
        <ele>79</ele>
        <time>2020-06-11T13:34:05Z</time>
      </trkpt>
      <trkpt lat="43.13531" lon="2.6942">
        <ele>78</ele>
        <time>2020-06-11T13:34:13Z</time>
      </trkpt>
      <trkpt lat="43.13545" lon="2.69459">
        <ele>77</ele>
        <time>2020-06-11T13:34:19Z</time>
      </trkpt>
      <trkpt lat="43.13547" lon="2.69466">
        <ele>77</ele>
        <time>2020-06-11T13:34:20Z</time>
      </trkpt>
      <trkpt lat="43.13548" lon="2.69474">
        <ele>77</ele>
        <time>2020-06-11T13:34:21Z</time>
      </trkpt>
      <trkpt lat="43.13549" lon="2.69481">
        <ele>77</ele>
        <time>2020-06-11T13:34:22Z</time>
      </trkpt>
      <trkpt lat="43.1355" lon="2.69509">
        <ele>78</ele>
        <time>2020-06-11T13:34:26Z</time>
      </trkpt>
      <trkpt lat="43.13551" lon="2.69516">
        <ele>78</ele>
        <time>2020-06-11T13:34:27Z</time>
      </trkpt>
      <trkpt lat="43.13554" lon="2.69545">
        <ele>79</ele>
        <time>2020-06-11T13:34:31Z</time>
      </trkpt>
      <trkpt lat="43.13561" lon="2.69581">
        <ele>80</ele>
        <time>2020-06-11T13:34:36Z</time>
      </trkpt>
      <trkpt lat="43.13576" lon="2.69637">
        <ele>80</ele>
        <time>2020-06-11T13:34:44Z</time>
      </trkpt>
      <trkpt lat="43.13583" lon="2.69666">
        <ele>81</ele>
        <time>2020-06-11T13:34:48Z</time>
      </trkpt>
      <trkpt lat="43.13588" lon="2.69678">
        <ele>81</ele>
        <time>2020-06-11T13:34:50Z</time>
      </trkpt>
      <trkpt lat="43.136" lon="2.69703">
        <ele>81</ele>
        <time>2020-06-11T13:34:54Z</time>
      </trkpt>
      <trkpt lat="43.13603" lon="2.69709">
        <ele>81</ele>
        <time>2020-06-11T13:34:55Z</time>
      </trkpt>
      <trkpt lat="43.1361" lon="2.69722">
        <ele>81</ele>
        <time>2020-06-11T13:34:57Z</time>
      </trkpt>
      <trkpt lat="43.13615" lon="2.69745">
        <ele>80</ele>
        <time>2020-06-11T13:35:00Z</time>
      </trkpt>
      <trkpt lat="43.13619" lon="2.6976">
        <ele>80</ele>
        <time>2020-06-11T13:35:02Z</time>
      </trkpt>
      <trkpt lat="43.13625" lon="2.69772">
        <ele>80</ele>
        <time>2020-06-11T13:35:04Z</time>
      </trkpt>
      <trkpt lat="43.13632" lon="2.69782">
        <ele>79</ele>
        <time>2020-06-11T13:35:06Z</time>
      </trkpt>
      <trkpt lat="43.1364" lon="2.69793">
        <ele>79</ele>
        <time>2020-06-11T13:35:08Z</time>
      </trkpt>
      <trkpt lat="43.13644" lon="2.69798">
        <ele>79</ele>
        <time>2020-06-11T13:35:09Z</time>
      </trkpt>
      <trkpt lat="43.13661" lon="2.69822">
        <ele>79</ele>
        <time>2020-06-11T13:35:13Z</time>
      </trkpt>
      <trkpt lat="43.13664" lon="2.69828">
        <ele>79</ele>
        <time>2020-06-11T13:35:14Z</time>
      </trkpt>
      <trkpt lat="43.13666" lon="2.69836">
        <ele>79</ele>
        <time>2020-06-11T13:35:15Z</time>
      </trkpt>
      <trkpt lat="43.1367" lon="2.69843">
        <ele>79</ele>
        <time>2020-06-11T13:35:16Z</time>
      </trkpt>
      <trkpt lat="43.13677" lon="2.69866">
        <ele>79</ele>
        <time>2020-06-11T13:35:19Z</time>
      </trkpt>
      <trkpt lat="43.13681" lon="2.69882">
        <ele>78</ele>
        <time>2020-06-11T13:35:22Z</time>
      </trkpt>
      <trkpt lat="43.13681" lon="2.69895">
        <ele>78</ele>
        <time>2020-06-11T13:35:26Z</time>
      </trkpt>
      <trkpt lat="43.13679" lon="2.69903">
        <ele>78</ele>
        <time>2020-06-11T13:35:31Z</time>
      </trkpt>
      <trkpt lat="43.13679" lon="2.69904">
        <ele>78</ele>
        <time>2020-06-11T13:35:32Z</time>
      </trkpt>
      <trkpt lat="43.13688" lon="2.69919">
        <ele>78</ele>
        <time>2020-06-11T13:35:58Z</time>
      </trkpt>
      <trkpt lat="43.1369" lon="2.69923">
        <ele>78</ele>
        <time>2020-06-11T13:36:00Z</time>
      </trkpt>
      <trkpt lat="43.13694" lon="2.6994">
        <ele>78</ele>
        <time>2020-06-11T13:36:04Z</time>
      </trkpt>
      <trkpt lat="43.13696" lon="2.6996">
        <ele>76</ele>
        <time>2020-06-11T13:36:09Z</time>
      </trkpt>
      <trkpt lat="43.13697" lon="2.69977">
        <ele>75</ele>
        <time>2020-06-11T13:36:15Z</time>
      </trkpt>
      <trkpt lat="43.13696" lon="2.69981">
        <ele>75</ele>
        <time>2020-06-11T13:36:17Z</time>
      </trkpt>
      <trkpt lat="43.13695" lon="2.69987">
        <ele>74</ele>
        <time>2020-06-11T13:36:21Z</time>
      </trkpt>
      <trkpt lat="43.13696" lon="2.69996">
        <ele>74</ele>
        <time>2020-06-11T13:38:47Z</time>
      </trkpt>
      <trkpt lat="43.13696" lon="2.69998">
        <ele>74</ele>
        <time>2020-06-11T13:38:48Z</time>
      </trkpt>
      <trkpt lat="43.13697" lon="2.70001">
        <ele>74</ele>
        <time>2020-06-11T13:38:50Z</time>
      </trkpt>
      <trkpt lat="43.137" lon="2.70017">
        <ele>73</ele>
        <time>2020-06-11T13:38:55Z</time>
      </trkpt>
      <trkpt lat="43.13713" lon="2.70032">
        <ele>74</ele>
        <time>2020-06-11T13:39:00Z</time>
      </trkpt>
      <trkpt lat="43.13722" lon="2.70033">
        <ele>75</ele>
        <time>2020-06-11T13:39:03Z</time>
      </trkpt>
      <trkpt lat="43.13732" lon="2.70034">
        <ele>76</ele>
        <time>2020-06-11T13:39:06Z</time>
      </trkpt>
      <trkpt lat="43.13749" lon="2.70034">
        <ele>77</ele>
        <time>2020-06-11T13:39:12Z</time>
      </trkpt>
      <trkpt lat="43.13752" lon="2.70034">
        <ele>77</ele>
        <time>2020-06-11T13:39:13Z</time>
      </trkpt>
      <trkpt lat="43.13763" lon="2.70034">
        <ele>78</ele>
        <time>2020-06-11T13:39:16Z</time>
      </trkpt>
      <trkpt lat="43.13766" lon="2.70034">
        <ele>78</ele>
        <time>2020-06-11T13:39:17Z</time>
      </trkpt>
      <trkpt lat="43.1377" lon="2.70034">
        <ele>78</ele>
        <time>2020-06-11T13:39:18Z</time>
      </trkpt>
      <trkpt lat="43.13786" lon="2.70034">
        <ele>79</ele>
        <time>2020-06-11T13:39:22Z</time>
      </trkpt>
      <trkpt lat="43.13797" lon="2.70034">
        <ele>80</ele>
        <time>2020-06-11T13:39:25Z</time>
      </trkpt>
      <trkpt lat="43.138" lon="2.70034">
        <ele>80</ele>
        <time>2020-06-11T13:39:26Z</time>
      </trkpt>
      <trkpt lat="43.13816" lon="2.70036">
        <ele>81</ele>
        <time>2020-06-11T13:39:30Z</time>
      </trkpt>
      <trkpt lat="43.1382" lon="2.70036">
        <ele>81</ele>
        <time>2020-06-11T13:39:31Z</time>
      </trkpt>
      <trkpt lat="43.13823" lon="2.70037">
        <ele>82</ele>
        <time>2020-06-11T13:39:32Z</time>
      </trkpt>
      <trkpt lat="43.1383" lon="2.70037">
        <ele>82</ele>
        <time>2020-06-11T13:39:34Z</time>
      </trkpt>
      <trkpt lat="43.13834" lon="2.70038">
        <ele>83</ele>
        <time>2020-06-11T13:39:35Z</time>
      </trkpt>
      <trkpt lat="43.13837" lon="2.70039">
        <ele>83</ele>
        <time>2020-06-11T13:39:36Z</time>
      </trkpt>
      <trkpt lat="43.13859" lon="2.70041">
        <ele>85</ele>
        <time>2020-06-11T13:39:42Z</time>
      </trkpt>
      <trkpt lat="43.13876" lon="2.70041">
        <ele>86</ele>
        <time>2020-06-11T13:39:46Z</time>
      </trkpt>
      <trkpt lat="43.13887" lon="2.70038">
        <ele>87</ele>
        <time>2020-06-11T13:39:49Z</time>
      </trkpt>
      <trkpt lat="43.13891" lon="2.70037">
        <ele>87</ele>
        <time>2020-06-11T13:39:50Z</time>
      </trkpt>
      <trkpt lat="43.13907" lon="2.70031">
        <ele>87</ele>
        <time>2020-06-11T13:39:54Z</time>
      </trkpt>
      <trkpt lat="43.13918" lon="2.70025">
        <ele>86</ele>
        <time>2020-06-11T13:39:57Z</time>
      </trkpt>
      <trkpt lat="43.13934" lon="2.70017">
        <ele>86</ele>
        <time>2020-06-11T13:40:02Z</time>
      </trkpt>
      <trkpt lat="43.1395" lon="2.7001">
        <ele>85</ele>
        <time>2020-06-11T13:40:08Z</time>
      </trkpt>
      <trkpt lat="43.13969" lon="2.70002">
        <ele>85</ele>
        <time>2020-06-11T13:40:14Z</time>
      </trkpt>
      <trkpt lat="43.13976" lon="2.69998">
        <ele>84</ele>
        <time>2020-06-11T13:40:16Z</time>
      </trkpt>
      <trkpt lat="43.13986" lon="2.69993">
        <ele>84</ele>
        <time>2020-06-11T13:40:18Z</time>
      </trkpt>
      <trkpt lat="43.13991" lon="2.69991">
        <ele>84</ele>
        <time>2020-06-11T13:40:19Z</time>
      </trkpt>
      <trkpt lat="43.14002" lon="2.69987">
        <ele>83</ele>
        <time>2020-06-11T13:40:21Z</time>
      </trkpt>
      <trkpt lat="43.14022" lon="2.6998">
        <ele>81</ele>
        <time>2020-06-11T13:40:24Z</time>
      </trkpt>
      <trkpt lat="43.14028" lon="2.69977">
        <ele>80</ele>
        <time>2020-06-11T13:40:25Z</time>
      </trkpt>
      <trkpt lat="43.14057" lon="2.69968">
        <ele>78</ele>
        <time>2020-06-11T13:40:29Z</time>
      </trkpt>
      <trkpt lat="43.14071" lon="2.69964">
        <ele>78</ele>
        <time>2020-06-11T13:40:31Z</time>
      </trkpt>
      <trkpt lat="43.14086" lon="2.69959">
        <ele>77</ele>
        <time>2020-06-11T13:40:33Z</time>
      </trkpt>
      <trkpt lat="43.14094" lon="2.69956">
        <ele>77</ele>
        <time>2020-06-11T13:40:34Z</time>
      </trkpt>
      <trkpt lat="43.14132" lon="2.69945">
        <ele>76</ele>
        <time>2020-06-11T13:40:39Z</time>
      </trkpt>
      <trkpt lat="43.14147" lon="2.6994">
        <ele>76</ele>
        <time>2020-06-11T13:40:41Z</time>
      </trkpt>
      <trkpt lat="43.14177" lon="2.69933">
        <ele>75</ele>
        <time>2020-06-11T13:40:45Z</time>
      </trkpt>
      <trkpt lat="43.14185" lon="2.69931">
        <ele>75</ele>
        <time>2020-06-11T13:40:46Z</time>
      </trkpt>
      <trkpt lat="43.14208" lon="2.69926">
        <ele>75</ele>
        <time>2020-06-11T13:40:49Z</time>
      </trkpt>
      <trkpt lat="43.14231" lon="2.69921">
        <ele>75</ele>
        <time>2020-06-11T13:40:52Z</time>
      </trkpt>
      <trkpt lat="43.14246" lon="2.69918">
        <ele>75</ele>
        <time>2020-06-11T13:40:54Z</time>
      </trkpt>
      <trkpt lat="43.14253" lon="2.69916">
        <ele>74</ele>
        <time>2020-06-11T13:40:55Z</time>
      </trkpt>
      <trkpt lat="43.1426" lon="2.69915">
        <ele>74</ele>
        <time>2020-06-11T13:40:56Z</time>
      </trkpt>
      <trkpt lat="43.14268" lon="2.69913">
        <ele>73</ele>
        <time>2020-06-11T13:40:57Z</time>
      </trkpt>
      <trkpt lat="43.14275" lon="2.69912">
        <ele>73</ele>
        <time>2020-06-11T13:40:58Z</time>
      </trkpt>
      <trkpt lat="43.14304" lon="2.69908">
        <ele>73</ele>
        <time>2020-06-11T13:41:02Z</time>
      </trkpt>
      <trkpt lat="43.14311" lon="2.69908">
        <ele>73</ele>
        <time>2020-06-11T13:41:03Z</time>
      </trkpt>
      <trkpt lat="43.14332" lon="2.69909">
        <ele>73</ele>
        <time>2020-06-11T13:41:06Z</time>
      </trkpt>
      <trkpt lat="43.14353" lon="2.69911">
        <ele>73</ele>
        <time>2020-06-11T13:41:09Z</time>
      </trkpt>
      <trkpt lat="43.14367" lon="2.69911">
        <ele>73</ele>
        <time>2020-06-11T13:41:11Z</time>
      </trkpt>
      <trkpt lat="43.14374" lon="2.6991">
        <ele>73</ele>
        <time>2020-06-11T13:41:12Z</time>
      </trkpt>
      <trkpt lat="43.14381" lon="2.6991">
        <ele>73</ele>
        <time>2020-06-11T13:41:13Z</time>
      </trkpt>
      <trkpt lat="43.14388" lon="2.6991">
        <ele>73</ele>
        <time>2020-06-11T13:41:14Z</time>
      </trkpt>
      <trkpt lat="43.14395" lon="2.69909">
        <ele>73</ele>
        <time>2020-06-11T13:41:15Z</time>
      </trkpt>
      <trkpt lat="43.14402" lon="2.69909">
        <ele>73</ele>
        <time>2020-06-11T13:41:16Z</time>
      </trkpt>
      <trkpt lat="43.14408" lon="2.69908">
        <ele>73</ele>
        <time>2020-06-11T13:41:17Z</time>
      </trkpt>
      <trkpt lat="43.14422" lon="2.69908">
        <ele>73</ele>
        <time>2020-06-11T13:41:19Z</time>
      </trkpt>
      <trkpt lat="43.14428" lon="2.69907">
        <ele>73</ele>
        <time>2020-06-11T13:41:20Z</time>
      </trkpt>
      <trkpt lat="43.14447" lon="2.69902">
        <ele>73</ele>
        <time>2020-06-11T13:41:23Z</time>
      </trkpt>
      <trkpt lat="43.14454" lon="2.69901">
        <ele>73</ele>
        <time>2020-06-11T13:41:24Z</time>
      </trkpt>
      <trkpt lat="43.14466" lon="2.69898">
        <ele>72</ele>
        <time>2020-06-11T13:41:26Z</time>
      </trkpt>
      <trkpt lat="43.14472" lon="2.69896">
        <ele>72</ele>
        <time>2020-06-11T13:41:27Z</time>
      </trkpt>
      <trkpt lat="43.14478" lon="2.69895">
        <ele>72</ele>
        <time>2020-06-11T13:41:28Z</time>
      </trkpt>
      <trkpt lat="43.14491" lon="2.69892">
        <ele>72</ele>
        <time>2020-06-11T13:41:30Z</time>
      </trkpt>
      <trkpt lat="43.14497" lon="2.69891">
        <ele>72</ele>
        <time>2020-06-11T13:41:31Z</time>
      </trkpt>
      <trkpt lat="43.14503" lon="2.6989">
        <ele>71</ele>
        <time>2020-06-11T13:41:32Z</time>
      </trkpt>
      <trkpt lat="43.14523" lon="2.69888">
        <ele>72</ele>
        <time>2020-06-11T13:41:35Z</time>
      </trkpt>
      <trkpt lat="43.14535" lon="2.69887">
        <ele>72</ele>
        <time>2020-06-11T13:41:37Z</time>
      </trkpt>
      <trkpt lat="43.14587" lon="2.69884">
        <ele>72</ele>
        <time>2020-06-11T13:41:45Z</time>
      </trkpt>
      <trkpt lat="43.14619" lon="2.69885">
        <ele>72</ele>
        <time>2020-06-11T13:41:50Z</time>
      </trkpt>
      <trkpt lat="43.14637" lon="2.69888">
        <ele>72</ele>
        <time>2020-06-11T13:41:53Z</time>
      </trkpt>
      <trkpt lat="43.1465" lon="2.6989">
        <ele>71</ele>
        <time>2020-06-11T13:41:55Z</time>
      </trkpt>
      <trkpt lat="43.14685" lon="2.69896">
        <ele>72</ele>
        <time>2020-06-11T13:42:01Z</time>
      </trkpt>
      <trkpt lat="43.14696" lon="2.69898">
        <ele>72</ele>
        <time>2020-06-11T13:42:03Z</time>
      </trkpt>
      <trkpt lat="43.14708" lon="2.699">
        <ele>72</ele>
        <time>2020-06-11T13:42:05Z</time>
      </trkpt>
      <trkpt lat="43.14714" lon="2.69901">
        <ele>72</ele>
        <time>2020-06-11T13:42:06Z</time>
      </trkpt>
      <trkpt lat="43.1472" lon="2.69902">
        <ele>72</ele>
        <time>2020-06-11T13:42:07Z</time>
      </trkpt>
      <trkpt lat="43.14726" lon="2.69903">
        <ele>72</ele>
        <time>2020-06-11T13:42:08Z</time>
      </trkpt>
      <trkpt lat="43.14732" lon="2.69905">
        <ele>72</ele>
        <time>2020-06-11T13:42:09Z</time>
      </trkpt>
      <trkpt lat="43.14739" lon="2.69906">
        <ele>72</ele>
        <time>2020-06-11T13:42:10Z</time>
      </trkpt>
      <trkpt lat="43.14745" lon="2.69906">
        <ele>72</ele>
        <time>2020-06-11T13:42:11Z</time>
      </trkpt>
      <trkpt lat="43.14751" lon="2.69907">
        <ele>72</ele>
        <time>2020-06-11T13:42:12Z</time>
      </trkpt>
      <trkpt lat="43.14764" lon="2.69909">
        <ele>72</ele>
        <time>2020-06-11T13:42:14Z</time>
      </trkpt>
      <trkpt lat="43.1477" lon="2.6991">
        <ele>72</ele>
        <time>2020-06-11T13:42:15Z</time>
      </trkpt>
      <trkpt lat="43.14783" lon="2.69911">
        <ele>72</ele>
        <time>2020-06-11T13:42:17Z</time>
      </trkpt>
      <trkpt lat="43.1482" lon="2.69916">
        <ele>72</ele>
        <time>2020-06-11T13:42:23Z</time>
      </trkpt>
      <trkpt lat="43.14826" lon="2.69917">
        <ele>71</ele>
        <time>2020-06-11T13:42:24Z</time>
      </trkpt>
      <trkpt lat="43.14839" lon="2.69919">
        <ele>71</ele>
        <time>2020-06-11T13:42:26Z</time>
      </trkpt>
      <trkpt lat="43.14884" lon="2.69922">
        <ele>72</ele>
        <time>2020-06-11T13:42:33Z</time>
      </trkpt>
      <trkpt lat="43.1494" lon="2.69923">
        <ele>72</ele>
        <time>2020-06-11T13:42:42Z</time>
      </trkpt>
      <trkpt lat="43.14946" lon="2.69923">
        <ele>72</ele>
        <time>2020-06-11T13:42:43Z</time>
      </trkpt>
      <trkpt lat="43.15" lon="2.69925">
        <ele>72</ele>
        <time>2020-06-11T13:42:52Z</time>
      </trkpt>
      <trkpt lat="43.15006" lon="2.69925">
        <ele>72</ele>
        <time>2020-06-11T13:42:53Z</time>
      </trkpt>
      <trkpt lat="43.15013" lon="2.69925">
        <ele>72</ele>
        <time>2020-06-11T13:42:54Z</time>
      </trkpt>
      <trkpt lat="43.1505" lon="2.69926">
        <ele>73</ele>
        <time>2020-06-11T13:43:00Z</time>
      </trkpt>
      <trkpt lat="43.15069" lon="2.69926">
        <ele>74</ele>
        <time>2020-06-11T13:43:03Z</time>
      </trkpt>
      <trkpt lat="43.15076" lon="2.69926">
        <ele>74</ele>
        <time>2020-06-11T13:43:04Z</time>
      </trkpt>
      <trkpt lat="43.15131" lon="2.69927">
        <ele>74</ele>
        <time>2020-06-11T13:43:13Z</time>
      </trkpt>
      <trkpt lat="43.15156" lon="2.69926">
        <ele>75</ele>
        <time>2020-06-11T13:43:17Z</time>
      </trkpt>
      <trkpt lat="43.15193" lon="2.69925">
        <ele>77</ele>
        <time>2020-06-11T13:43:23Z</time>
      </trkpt>
      <trkpt lat="43.15252" lon="2.69923">
        <ele>77</ele>
        <time>2020-06-11T13:43:33Z</time>
      </trkpt>
      <trkpt lat="43.15275" lon="2.69921">
        <ele>77</ele>
        <time>2020-06-11T13:43:37Z</time>
      </trkpt>
      <trkpt lat="43.15304" lon="2.69918">
        <ele>78</ele>
        <time>2020-06-11T13:43:42Z</time>
      </trkpt>
      <trkpt lat="43.15321" lon="2.69916">
        <ele>79</ele>
        <time>2020-06-11T13:43:45Z</time>
      </trkpt>
      <trkpt lat="43.15351" lon="2.69909">
        <ele>80</ele>
        <time>2020-06-11T13:43:50Z</time>
      </trkpt>
      <trkpt lat="43.15362" lon="2.69907">
        <ele>81</ele>
        <time>2020-06-11T13:43:52Z</time>
      </trkpt>
      <trkpt lat="43.15398" lon="2.69899">
        <ele>81</ele>
        <time>2020-06-11T13:43:58Z</time>
      </trkpt>
      <trkpt lat="43.15409" lon="2.69897">
        <ele>81</ele>
        <time>2020-06-11T13:44:00Z</time>
      </trkpt>
      <trkpt lat="43.15432" lon="2.69892">
        <ele>81</ele>
        <time>2020-06-11T13:44:04Z</time>
      </trkpt>
      <trkpt lat="43.15454" lon="2.69888">
        <ele>82</ele>
        <time>2020-06-11T13:44:08Z</time>
      </trkpt>
      <trkpt lat="43.15497" lon="2.69884">
        <ele>86</ele>
        <time>2020-06-11T13:44:17Z</time>
      </trkpt>
      <trkpt lat="43.15502" lon="2.69884">
        <ele>87</ele>
        <time>2020-06-11T13:44:18Z</time>
      </trkpt>
      <trkpt lat="43.15526" lon="2.69882">
        <ele>87</ele>
        <time>2020-06-11T13:44:24Z</time>
      </trkpt>
      <trkpt lat="43.15534" lon="2.69882">
        <ele>88</ele>
        <time>2020-06-11T13:44:26Z</time>
      </trkpt>
      <trkpt lat="43.15557" lon="2.69881">
        <ele>89</ele>
        <time>2020-06-11T13:44:32Z</time>
      </trkpt>
      <trkpt lat="43.15566" lon="2.69881">
        <ele>89</ele>
        <time>2020-06-11T13:44:34Z</time>
      </trkpt>
      <trkpt lat="43.15573" lon="2.69882">
        <ele>90</ele>
        <time>2020-06-11T13:44:36Z</time>
      </trkpt>
      <trkpt lat="43.15588" lon="2.69884">
        <ele>91</ele>
        <time>2020-06-11T13:44:40Z</time>
      </trkpt>
      <trkpt lat="43.15596" lon="2.69886">
        <ele>91</ele>
        <time>2020-06-11T13:44:42Z</time>
      </trkpt>
      <trkpt lat="43.15599" lon="2.69887">
        <ele>91</ele>
        <time>2020-06-11T13:44:43Z</time>
      </trkpt>
      <trkpt lat="43.15619" lon="2.69899">
        <ele>92</ele>
        <time>2020-06-11T13:44:49Z</time>
      </trkpt>
      <trkpt lat="43.15622" lon="2.699">
        <ele>92</ele>
        <time>2020-06-11T13:44:50Z</time>
      </trkpt>
      <trkpt lat="43.15639" lon="2.69912">
        <ele>93</ele>
        <time>2020-06-11T13:44:56Z</time>
      </trkpt>
      <trkpt lat="43.15645" lon="2.69916">
        <ele>93</ele>
        <time>2020-06-11T13:44:58Z</time>
      </trkpt>
      <trkpt lat="43.15658" lon="2.69925">
        <ele>95</ele>
        <time>2020-06-11T13:45:02Z</time>
      </trkpt>
      <trkpt lat="43.15661" lon="2.69927">
        <ele>95</ele>
        <time>2020-06-11T13:45:03Z</time>
      </trkpt>
      <trkpt lat="43.15667" lon="2.69932">
        <ele>96</ele>
        <time>2020-06-11T13:45:05Z</time>
      </trkpt>
      <trkpt lat="43.15676" lon="2.69941">
        <ele>96</ele>
        <time>2020-06-11T13:45:08Z</time>
      </trkpt>
      <trkpt lat="43.15684" lon="2.69952">
        <ele>97</ele>
        <time>2020-06-11T13:45:11Z</time>
      </trkpt>
      <trkpt lat="43.15712" lon="2.69993">
        <ele>97</ele>
        <time>2020-06-11T13:45:21Z</time>
      </trkpt>
      <trkpt lat="43.15729" lon="2.7001">
        <ele>98</ele>
        <time>2020-06-11T13:45:26Z</time>
      </trkpt>
      <trkpt lat="43.1574" lon="2.70018">
        <ele>98</ele>
        <time>2020-06-11T13:45:29Z</time>
      </trkpt>
      <trkpt lat="43.15764" lon="2.70032">
        <ele>98</ele>
        <time>2020-06-11T13:45:35Z</time>
      </trkpt>
      <trkpt lat="43.15781" lon="2.70041">
        <ele>99</ele>
        <time>2020-06-11T13:45:39Z</time>
      </trkpt>
      <trkpt lat="43.15819" lon="2.70062">
        <ele>101</ele>
        <time>2020-06-11T13:45:48Z</time>
      </trkpt>
      <trkpt lat="43.15827" lon="2.70066">
        <ele>101</ele>
        <time>2020-06-11T13:45:50Z</time>
      </trkpt>
      <trkpt lat="43.15859" lon="2.7007">
        <ele>101</ele>
        <time>2020-06-11T13:45:57Z</time>
      </trkpt>
      <trkpt lat="43.15879" lon="2.70068">
        <ele>100</ele>
        <time>2020-06-11T13:46:01Z</time>
      </trkpt>
      <trkpt lat="43.15895" lon="2.70065">
        <ele>100</ele>
        <time>2020-06-11T13:46:04Z</time>
      </trkpt>
      <trkpt lat="43.15901" lon="2.70063">
        <ele>100</ele>
        <time>2020-06-11T13:46:05Z</time>
      </trkpt>
      <trkpt lat="43.15906" lon="2.70062">
        <ele>100</ele>
        <time>2020-06-11T13:46:06Z</time>
      </trkpt>
      <trkpt lat="43.15912" lon="2.7006">
        <ele>100</ele>
        <time>2020-06-11T13:46:07Z</time>
      </trkpt>
      <trkpt lat="43.15923" lon="2.70057">
        <ele>100</ele>
        <time>2020-06-11T13:46:09Z</time>
      </trkpt>
      <trkpt lat="43.15935" lon="2.70054">
        <ele>101</ele>
        <time>2020-06-11T13:46:11Z</time>
      </trkpt>
      <trkpt lat="43.15947" lon="2.7005">
        <ele>101</ele>
        <time>2020-06-11T13:46:13Z</time>
      </trkpt>
      <trkpt lat="43.15965" lon="2.70044">
        <ele>101</ele>
        <time>2020-06-11T13:46:16Z</time>
      </trkpt>
      <trkpt lat="43.15978" lon="2.70039">
        <ele>101</ele>
        <time>2020-06-11T13:46:18Z</time>
      </trkpt>
      <trkpt lat="43.15991" lon="2.70035">
        <ele>100</ele>
        <time>2020-06-11T13:46:20Z</time>
      </trkpt>
      <trkpt lat="43.15997" lon="2.70033">
        <ele>100</ele>
        <time>2020-06-11T13:46:21Z</time>
      </trkpt>
      <trkpt lat="43.16051" lon="2.70015">
        <ele>95</ele>
        <time>2020-06-11T13:46:29Z</time>
      </trkpt>
      <trkpt lat="43.16071" lon="2.70008">
        <ele>96</ele>
        <time>2020-06-11T13:46:32Z</time>
      </trkpt>
      <trkpt lat="43.16078" lon="2.70006">
        <ele>97</ele>
        <time>2020-06-11T13:46:33Z</time>
      </trkpt>
      <trkpt lat="43.16092" lon="2.70001">
        <ele>98</ele>
        <time>2020-06-11T13:46:35Z</time>
      </trkpt>
      <trkpt lat="43.16099" lon="2.69999">
        <ele>98</ele>
        <time>2020-06-11T13:46:36Z</time>
      </trkpt>
      <trkpt lat="43.16106" lon="2.69997">
        <ele>98</ele>
        <time>2020-06-11T13:46:37Z</time>
      </trkpt>
      <trkpt lat="43.16114" lon="2.69994">
        <ele>99</ele>
        <time>2020-06-11T13:46:38Z</time>
      </trkpt>
      <trkpt lat="43.16128" lon="2.6999">
        <ele>98</ele>
        <time>2020-06-11T13:46:40Z</time>
      </trkpt>
      <trkpt lat="43.16173" lon="2.69979">
        <ele>95</ele>
        <time>2020-06-11T13:46:46Z</time>
      </trkpt>
      <trkpt lat="43.16188" lon="2.69975">
        <ele>93</ele>
        <time>2020-06-11T13:46:48Z</time>
      </trkpt>
      <trkpt lat="43.16219" lon="2.69968">
        <ele>92</ele>
        <time>2020-06-11T13:46:52Z</time>
      </trkpt>
      <trkpt lat="43.16248" lon="2.69962">
        <ele>93</ele>
        <time>2020-06-11T13:46:56Z</time>
      </trkpt>
      <trkpt lat="43.16254" lon="2.69962">
        <ele>93</ele>
        <time>2020-06-11T13:46:57Z</time>
      </trkpt>
      <trkpt lat="43.16259" lon="2.69962">
        <ele>93</ele>
        <time>2020-06-11T13:46:58Z</time>
      </trkpt>
      <trkpt lat="43.16263" lon="2.69963">
        <ele>93</ele>
        <time>2020-06-11T13:46:59Z</time>
      </trkpt>
      <trkpt lat="43.1627" lon="2.69967">
        <ele>94</ele>
        <time>2020-06-11T13:47:03Z</time>
      </trkpt>
      <trkpt lat="43.16271" lon="2.69968">
        <ele>94</ele>
        <time>2020-06-11T13:47:05Z</time>
      </trkpt>
      <trkpt lat="43.16276" lon="2.69967">
        <ele>94</ele>
        <time>2020-06-11T13:47:11Z</time>
      </trkpt>
      <trkpt lat="43.16278" lon="2.69965">
        <ele>94</ele>
        <time>2020-06-11T13:47:12Z</time>
      </trkpt>
      <trkpt lat="43.16285" lon="2.69956">
        <ele>94</ele>
        <time>2020-06-11T13:47:15Z</time>
      </trkpt>
      <trkpt lat="43.16291" lon="2.69947">
        <ele>93</ele>
        <time>2020-06-11T13:47:17Z</time>
      </trkpt>
      <trkpt lat="43.16309" lon="2.69916">
        <ele>91</ele>
        <time>2020-06-11T13:47:22Z</time>
      </trkpt>
      <trkpt lat="43.16313" lon="2.69909">
        <ele>91</ele>
        <time>2020-06-11T13:47:23Z</time>
      </trkpt>
      <trkpt lat="43.16331" lon="2.69878">
        <ele>88</ele>
        <time>2020-06-11T13:47:27Z</time>
      </trkpt>
      <trkpt lat="43.16336" lon="2.69869">
        <ele>88</ele>
        <time>2020-06-11T13:47:28Z</time>
      </trkpt>
      <trkpt lat="43.16356" lon="2.69832">
        <ele>86</ele>
        <time>2020-06-11T13:47:32Z</time>
      </trkpt>
      <trkpt lat="43.16367" lon="2.69813">
        <ele>86</ele>
        <time>2020-06-11T13:47:34Z</time>
      </trkpt>
      <trkpt lat="43.16372" lon="2.69802">
        <ele>86</ele>
        <time>2020-06-11T13:47:35Z</time>
      </trkpt>
      <trkpt lat="43.1639" lon="2.69772">
        <ele>86</ele>
        <time>2020-06-11T13:47:38Z</time>
      </trkpt>
      <trkpt lat="43.16408" lon="2.69742">
        <ele>86</ele>
        <time>2020-06-11T13:47:41Z</time>
      </trkpt>
      <trkpt lat="43.1642" lon="2.69722">
        <ele>85</ele>
        <time>2020-06-11T13:47:43Z</time>
      </trkpt>
      <trkpt lat="43.16437" lon="2.69692">
        <ele>83</ele>
        <time>2020-06-11T13:47:46Z</time>
      </trkpt>
      <trkpt lat="43.16454" lon="2.69661">
        <ele>81</ele>
        <time>2020-06-11T13:47:49Z</time>
      </trkpt>
      <trkpt lat="43.16466" lon="2.6964">
        <ele>80</ele>
        <time>2020-06-11T13:47:51Z</time>
      </trkpt>
      <trkpt lat="43.16472" lon="2.6963">
        <ele>79</ele>
        <time>2020-06-11T13:47:52Z</time>
      </trkpt>
      <trkpt lat="43.1649" lon="2.69598">
        <ele>77</ele>
        <time>2020-06-11T13:47:55Z</time>
      </trkpt>
      <trkpt lat="43.16496" lon="2.69588">
        <ele>76</ele>
        <time>2020-06-11T13:47:56Z</time>
      </trkpt>
      <trkpt lat="43.16502" lon="2.69577">
        <ele>76</ele>
        <time>2020-06-11T13:47:57Z</time>
      </trkpt>
      <trkpt lat="43.16514" lon="2.69556">
        <ele>76</ele>
        <time>2020-06-11T13:47:59Z</time>
      </trkpt>
      <trkpt lat="43.1652" lon="2.69545">
        <ele>76</ele>
        <time>2020-06-11T13:48:00Z</time>
      </trkpt>
      <trkpt lat="43.16526" lon="2.69535">
        <ele>76</ele>
        <time>2020-06-11T13:48:01Z</time>
      </trkpt>
      <trkpt lat="43.16532" lon="2.69525">
        <ele>77</ele>
        <time>2020-06-11T13:48:02Z</time>
      </trkpt>
      <trkpt lat="43.16537" lon="2.69515">
        <ele>77</ele>
        <time>2020-06-11T13:48:03Z</time>
      </trkpt>
      <trkpt lat="43.16554" lon="2.69486">
        <ele>77</ele>
        <time>2020-06-11T13:48:06Z</time>
      </trkpt>
      <trkpt lat="43.1657" lon="2.69458">
        <ele>78</ele>
        <time>2020-06-11T13:48:09Z</time>
      </trkpt>
      <trkpt lat="43.16575" lon="2.6945">
        <ele>78</ele>
        <time>2020-06-11T13:48:10Z</time>
      </trkpt>
      <trkpt lat="43.16595" lon="2.69414">
        <ele>80</ele>
        <time>2020-06-11T13:48:14Z</time>
      </trkpt>
      <trkpt lat="43.16615" lon="2.6938">
        <ele>79</ele>
        <time>2020-06-11T13:48:18Z</time>
      </trkpt>
      <trkpt lat="43.1663" lon="2.69354">
        <ele>79</ele>
        <time>2020-06-11T13:48:21Z</time>
      </trkpt>
      <trkpt lat="43.16635" lon="2.69346">
        <ele>79</ele>
        <time>2020-06-11T13:48:22Z</time>
      </trkpt>
      <trkpt lat="43.1666" lon="2.69302">
        <ele>79</ele>
        <time>2020-06-11T13:48:27Z</time>
      </trkpt>
      <trkpt lat="43.1667" lon="2.69285">
        <ele>79</ele>
        <time>2020-06-11T13:48:29Z</time>
      </trkpt>
      <trkpt lat="43.16704" lon="2.69225">
        <ele>79</ele>
        <time>2020-06-11T13:48:36Z</time>
      </trkpt>
      <trkpt lat="43.16708" lon="2.69217">
        <ele>78</ele>
        <time>2020-06-11T13:48:37Z</time>
      </trkpt>
      <trkpt lat="43.16744" lon="2.69153">
        <ele>76</ele>
        <time>2020-06-11T13:48:45Z</time>
      </trkpt>
      <trkpt lat="43.16757" lon="2.6913">
        <ele>76</ele>
        <time>2020-06-11T13:48:48Z</time>
      </trkpt>
      <trkpt lat="43.16765" lon="2.69115">
        <ele>76</ele>
        <time>2020-06-11T13:48:50Z</time>
      </trkpt>
      <trkpt lat="43.16777" lon="2.69093">
        <ele>77</ele>
        <time>2020-06-11T13:48:53Z</time>
      </trkpt>
      <trkpt lat="43.16802" lon="2.69054">
        <ele>80</ele>
        <time>2020-06-11T13:48:59Z</time>
      </trkpt>
      <trkpt lat="43.16806" lon="2.69046">
        <ele>80</ele>
        <time>2020-06-11T13:49:00Z</time>
      </trkpt>
      <trkpt lat="43.16818" lon="2.69026">
        <ele>81</ele>
        <time>2020-06-11T13:49:03Z</time>
      </trkpt>
      <trkpt lat="43.16822" lon="2.69019">
        <ele>80</ele>
        <time>2020-06-11T13:49:04Z</time>
      </trkpt>
      <trkpt lat="43.16826" lon="2.69013">
        <ele>80</ele>
        <time>2020-06-11T13:49:05Z</time>
      </trkpt>
      <trkpt lat="43.16829" lon="2.69006">
        <ele>80</ele>
        <time>2020-06-11T13:49:06Z</time>
      </trkpt>
      <trkpt lat="43.16833" lon="2.68999">
        <ele>81</ele>
        <time>2020-06-11T13:49:07Z</time>
      </trkpt>
      <trkpt lat="43.16836" lon="2.68993">
        <ele>80</ele>
        <time>2020-06-11T13:49:08Z</time>
      </trkpt>
      <trkpt lat="43.16844" lon="2.6898">
        <ele>80</ele>
        <time>2020-06-11T13:49:10Z</time>
      </trkpt>
      <trkpt lat="43.16856" lon="2.68961">
        <ele>81</ele>
        <time>2020-06-11T13:49:13Z</time>
      </trkpt>
      <trkpt lat="43.1686" lon="2.68955">
        <ele>81</ele>
        <time>2020-06-11T13:49:14Z</time>
      </trkpt>
      <trkpt lat="43.16872" lon="2.68937">
        <ele>81</ele>
        <time>2020-06-11T13:49:17Z</time>
      </trkpt>
      <trkpt lat="43.16876" lon="2.68931">
        <ele>81</ele>
        <time>2020-06-11T13:49:18Z</time>
      </trkpt>
      <trkpt lat="43.16882" lon="2.68915">
        <ele>81</ele>
        <time>2020-06-11T13:49:20Z</time>
      </trkpt>
      <trkpt lat="43.16884" lon="2.68907">
        <ele>81</ele>
        <time>2020-06-11T13:49:21Z</time>
      </trkpt>
      <trkpt lat="43.16886" lon="2.68889">
        <ele>81</ele>
        <time>2020-06-11T13:49:23Z</time>
      </trkpt>
      <trkpt lat="43.16887" lon="2.6888">
        <ele>81</ele>
        <time>2020-06-11T13:49:24Z</time>
      </trkpt>
      <trkpt lat="43.16886" lon="2.6887">
        <ele>81</ele>
        <time>2020-06-11T13:49:25Z</time>
      </trkpt>
      <trkpt lat="43.16885" lon="2.68861">
        <ele>81</ele>
        <time>2020-06-11T13:49:26Z</time>
      </trkpt>
      <trkpt lat="43.16883" lon="2.68852">
        <ele>81</ele>
        <time>2020-06-11T13:49:27Z</time>
      </trkpt>
      <trkpt lat="43.16877" lon="2.68834">
        <ele>81</ele>
        <time>2020-06-11T13:49:29Z</time>
      </trkpt>
      <trkpt lat="43.16869" lon="2.68807">
        <ele>82</ele>
        <time>2020-06-11T13:49:32Z</time>
      </trkpt>
      <trkpt lat="43.16864" lon="2.68789">
        <ele>84</ele>
        <time>2020-06-11T13:49:34Z</time>
      </trkpt>
      <trkpt lat="43.16862" lon="2.68781">
        <ele>84</ele>
        <time>2020-06-11T13:49:35Z</time>
      </trkpt>
      <trkpt lat="43.16857" lon="2.68754">
        <ele>86</ele>
        <time>2020-06-11T13:49:38Z</time>
      </trkpt>
      <trkpt lat="43.16857" lon="2.68735">
        <ele>86</ele>
        <time>2020-06-11T13:49:40Z</time>
      </trkpt>
      <trkpt lat="43.16864" lon="2.68708">
        <ele>87</ele>
        <time>2020-06-11T13:49:43Z</time>
      </trkpt>
      <trkpt lat="43.16867" lon="2.687">
        <ele>86</ele>
        <time>2020-06-11T13:49:44Z</time>
      </trkpt>
      <trkpt lat="43.16874" lon="2.68685">
        <ele>86</ele>
        <time>2020-06-11T13:49:46Z</time>
      </trkpt>
      <trkpt lat="43.16883" lon="2.68671">
        <ele>86</ele>
        <time>2020-06-11T13:49:48Z</time>
      </trkpt>
      <trkpt lat="43.16888" lon="2.68666">
        <ele>86</ele>
        <time>2020-06-11T13:49:49Z</time>
      </trkpt>
      <trkpt lat="43.16899" lon="2.68656">
        <ele>86</ele>
        <time>2020-06-11T13:49:51Z</time>
      </trkpt>
      <trkpt lat="43.1691" lon="2.68645">
        <ele>86</ele>
        <time>2020-06-11T13:49:53Z</time>
      </trkpt>
      <trkpt lat="43.16915" lon="2.6864">
        <ele>86</ele>
        <time>2020-06-11T13:49:54Z</time>
      </trkpt>
      <trkpt lat="43.16921" lon="2.68635">
        <ele>86</ele>
        <time>2020-06-11T13:49:55Z</time>
      </trkpt>
      <trkpt lat="43.16948" lon="2.68611">
        <ele>88</ele>
        <time>2020-06-11T13:50:00Z</time>
      </trkpt>
      <trkpt lat="43.16977" lon="2.68583">
        <ele>88</ele>
        <time>2020-06-11T13:50:06Z</time>
      </trkpt>
      <trkpt lat="43.16986" lon="2.68574">
        <ele>88</ele>
        <time>2020-06-11T13:50:08Z</time>
      </trkpt>
      <trkpt lat="43.16991" lon="2.6857">
        <ele>88</ele>
        <time>2020-06-11T13:50:09Z</time>
      </trkpt>
      <trkpt lat="43.17001" lon="2.68563">
        <ele>88</ele>
        <time>2020-06-11T13:50:11Z</time>
      </trkpt>
      <trkpt lat="43.17011" lon="2.68557">
        <ele>87</ele>
        <time>2020-06-11T13:50:13Z</time>
      </trkpt>
      <trkpt lat="43.17028" lon="2.6855">
        <ele>85</ele>
        <time>2020-06-11T13:50:16Z</time>
      </trkpt>
      <trkpt lat="43.17033" lon="2.68547">
        <ele>84</ele>
        <time>2020-06-11T13:50:17Z</time>
      </trkpt>
      <trkpt lat="43.17045" lon="2.68542">
        <ele>82</ele>
        <time>2020-06-11T13:50:20Z</time>
      </trkpt>
      <trkpt lat="43.17049" lon="2.68541">
        <ele>82</ele>
        <time>2020-06-11T13:50:21Z</time>
      </trkpt>
      <trkpt lat="43.17061" lon="2.68538">
        <ele>81</ele>
        <time>2020-06-11T13:50:25Z</time>
      </trkpt>
      <trkpt lat="43.17072" lon="2.68535">
        <ele>80</ele>
        <time>2020-06-11T13:50:28Z</time>
      </trkpt>
      <trkpt lat="43.17083" lon="2.68532">
        <ele>80</ele>
        <time>2020-06-11T13:50:31Z</time>
      </trkpt>
      <trkpt lat="43.17091" lon="2.68532">
        <ele>80</ele>
        <time>2020-06-11T13:50:34Z</time>
      </trkpt>
      <trkpt lat="43.17102" lon="2.68533">
        <ele>80</ele>
        <time>2020-06-11T13:50:39Z</time>
      </trkpt>
      <trkpt lat="43.17111" lon="2.68532">
        <ele>80</ele>
        <time>2020-06-11T13:50:44Z</time>
      </trkpt>
      <trkpt lat="43.17117" lon="2.68533">
        <ele>80</ele>
        <time>2020-06-11T13:50:47Z</time>
      </trkpt>
      <trkpt lat="43.1712" lon="2.68533">
        <ele>80</ele>
        <time>2020-06-11T13:50:49Z</time>
      </trkpt>
      <trkpt lat="43.17127" lon="2.68534">
        <ele>80</ele>
        <time>2020-06-11T13:50:52Z</time>
      </trkpt>
      <trkpt lat="43.17141" lon="2.68536">
        <ele>80</ele>
        <time>2020-06-11T13:50:58Z</time>
      </trkpt>
      <trkpt lat="43.17145" lon="2.68535">
        <ele>80</ele>
        <time>2020-06-11T13:51:00Z</time>
      </trkpt>
      <trkpt lat="43.17148" lon="2.68538">
        <ele>80</ele>
        <time>2020-06-11T13:57:48Z</time>
      </trkpt>
      <trkpt lat="43.17146" lon="2.68538">
        <ele>80</ele>
        <time>2020-06-11T13:57:49Z</time>
      </trkpt>
      <trkpt lat="43.17144" lon="2.68538">
        <ele>80</ele>
        <time>2020-06-11T13:57:51Z</time>
      </trkpt>
      <trkpt lat="43.17138" lon="2.68537">
        <ele>80</ele>
        <time>2020-06-11T13:57:55Z</time>
      </trkpt>
      <trkpt lat="43.17125" lon="2.68536">
        <ele>80</ele>
        <time>2020-06-11T13:58:01Z</time>
      </trkpt>
      <trkpt lat="43.17114" lon="2.68536">
        <ele>80</ele>
        <time>2020-06-11T13:58:06Z</time>
      </trkpt>
      <trkpt lat="43.17098" lon="2.68537">
        <ele>80</ele>
        <time>2020-06-11T13:58:12Z</time>
      </trkpt>
      <trkpt lat="43.17075" lon="2.68543">
        <ele>80</ele>
        <time>2020-06-11T13:58:19Z</time>
      </trkpt>
      <trkpt lat="43.17066" lon="2.68544">
        <ele>81</ele>
        <time>2020-06-11T13:58:22Z</time>
      </trkpt>
      <trkpt lat="43.17064" lon="2.68543">
        <ele>81</ele>
        <time>2020-06-11T13:58:23Z</time>
      </trkpt>
      <trkpt lat="43.17063" lon="2.68541">
        <ele>81</ele>
        <time>2020-06-11T13:58:24Z</time>
      </trkpt>
      <trkpt lat="43.17062" lon="2.68538">
        <ele>81</ele>
        <time>2020-06-11T13:58:25Z</time>
      </trkpt>
      <trkpt lat="43.17065" lon="2.6853">
        <ele>81</ele>
        <time>2020-06-11T13:58:28Z</time>
      </trkpt>
      <trkpt lat="43.17066" lon="2.68527">
        <ele>81</ele>
        <time>2020-06-11T13:58:29Z</time>
      </trkpt>
      <trkpt lat="43.17077" lon="2.68503">
        <ele>80</ele>
        <time>2020-06-11T13:58:35Z</time>
      </trkpt>
      <trkpt lat="43.1709" lon="2.68475">
        <ele>79</ele>
        <time>2020-06-11T13:58:41Z</time>
      </trkpt>
      <trkpt lat="43.17097" lon="2.68461">
        <ele>78</ele>
        <time>2020-06-11T13:58:44Z</time>
      </trkpt>
      <trkpt lat="43.17119" lon="2.68415">
        <ele>76</ele>
        <time>2020-06-11T13:58:52Z</time>
      </trkpt>
      <trkpt lat="43.17122" lon="2.68409">
        <ele>75</ele>
        <time>2020-06-11T13:58:53Z</time>
      </trkpt>
      <trkpt lat="43.17135" lon="2.68381">
        <ele>74</ele>
        <time>2020-06-11T13:58:58Z</time>
      </trkpt>
      <trkpt lat="43.17143" lon="2.68363">
        <ele>74</ele>
        <time>2020-06-11T13:59:01Z</time>
      </trkpt>
      <trkpt lat="43.17161" lon="2.68327">
        <ele>74</ele>
        <time>2020-06-11T13:59:07Z</time>
      </trkpt>
      <trkpt lat="43.17167" lon="2.68314">
        <ele>73</ele>
        <time>2020-06-11T13:59:09Z</time>
      </trkpt>
      <trkpt lat="43.1718" lon="2.68287">
        <ele>74</ele>
        <time>2020-06-11T13:59:13Z</time>
      </trkpt>
      <trkpt lat="43.17184" lon="2.6828">
        <ele>74</ele>
        <time>2020-06-11T13:59:14Z</time>
      </trkpt>
      <trkpt lat="43.17187" lon="2.68273">
        <ele>74</ele>
        <time>2020-06-11T13:59:15Z</time>
      </trkpt>
      <trkpt lat="43.17217" lon="2.6821">
        <ele>75</ele>
        <time>2020-06-11T13:59:24Z</time>
      </trkpt>
      <trkpt lat="43.17221" lon="2.68203">
        <ele>76</ele>
        <time>2020-06-11T13:59:25Z</time>
      </trkpt>
      <trkpt lat="43.17237" lon="2.68168">
        <ele>77</ele>
        <time>2020-06-11T13:59:30Z</time>
      </trkpt>
      <trkpt lat="43.1727" lon="2.68103">
        <ele>76</ele>
        <time>2020-06-11T13:59:39Z</time>
      </trkpt>
      <trkpt lat="43.17275" lon="2.68085">
        <ele>76</ele>
        <time>2020-06-11T13:59:42Z</time>
      </trkpt>
      <trkpt lat="43.17283" lon="2.68071">
        <ele>75</ele>
        <time>2020-06-11T13:59:44Z</time>
      </trkpt>
      <trkpt lat="43.17289" lon="2.68057">
        <ele>74</ele>
        <time>2020-06-11T13:59:46Z</time>
      </trkpt>
      <trkpt lat="43.17293" lon="2.6805">
        <ele>74</ele>
        <time>2020-06-11T13:59:47Z</time>
      </trkpt>
      <trkpt lat="43.17303" lon="2.6803">
        <ele>72</ele>
        <time>2020-06-11T13:59:50Z</time>
      </trkpt>
      <trkpt lat="43.1731" lon="2.68017">
        <ele>72</ele>
        <time>2020-06-11T13:59:52Z</time>
      </trkpt>
      <trkpt lat="43.17316" lon="2.68004">
        <ele>72</ele>
        <time>2020-06-11T13:59:54Z</time>
      </trkpt>
      <trkpt lat="43.1732" lon="2.67997">
        <ele>72</ele>
        <time>2020-06-11T13:59:55Z</time>
      </trkpt>
      <trkpt lat="43.17326" lon="2.67984">
        <ele>72</ele>
        <time>2020-06-11T13:59:57Z</time>
      </trkpt>
      <trkpt lat="43.17336" lon="2.67964">
        <ele>72</ele>
        <time>2020-06-11T14:00:00Z</time>
      </trkpt>
      <trkpt lat="43.17356" lon="2.67923">
        <ele>72</ele>
        <time>2020-06-11T14:00:06Z</time>
      </trkpt>
      <trkpt lat="43.17363" lon="2.67909">
        <ele>73</ele>
        <time>2020-06-11T14:00:08Z</time>
      </trkpt>
      <trkpt lat="43.17373" lon="2.67888">
        <ele>74</ele>
        <time>2020-06-11T14:00:11Z</time>
      </trkpt>
      <trkpt lat="43.17383" lon="2.67868">
        <ele>74</ele>
        <time>2020-06-11T14:00:14Z</time>
      </trkpt>
      <trkpt lat="43.17396" lon="2.67841">
        <ele>74</ele>
        <time>2020-06-11T14:00:18Z</time>
      </trkpt>
      <trkpt lat="43.17418" lon="2.67794">
        <ele>74</ele>
        <time>2020-06-11T14:00:25Z</time>
      </trkpt>
      <trkpt lat="43.17425" lon="2.67781">
        <ele>74</ele>
        <time>2020-06-11T14:00:27Z</time>
      </trkpt>
      <trkpt lat="43.17428" lon="2.67774">
        <ele>74</ele>
        <time>2020-06-11T14:00:28Z</time>
      </trkpt>
      <trkpt lat="43.17432" lon="2.67767">
        <ele>75</ele>
        <time>2020-06-11T14:00:29Z</time>
      </trkpt>
      <trkpt lat="43.17438" lon="2.67753">
        <ele>75</ele>
        <time>2020-06-11T14:00:31Z</time>
      </trkpt>
      <trkpt lat="43.17442" lon="2.67746">
        <ele>76</ele>
        <time>2020-06-11T14:00:32Z</time>
      </trkpt>
      <trkpt lat="43.17451" lon="2.67726">
        <ele>75</ele>
        <time>2020-06-11T14:00:35Z</time>
      </trkpt>
      <trkpt lat="43.17461" lon="2.67706">
        <ele>74</ele>
        <time>2020-06-11T14:00:38Z</time>
      </trkpt>
      <trkpt lat="43.1747" lon="2.67687">
        <ele>74</ele>
        <time>2020-06-11T14:00:41Z</time>
      </trkpt>
      <trkpt lat="43.17492" lon="2.67643">
        <ele>75</ele>
        <time>2020-06-11T14:00:48Z</time>
      </trkpt>
      <trkpt lat="43.17502" lon="2.67623">
        <ele>75</ele>
        <time>2020-06-11T14:00:51Z</time>
      </trkpt>
      <trkpt lat="43.17508" lon="2.6761">
        <ele>75</ele>
        <time>2020-06-11T14:00:53Z</time>
      </trkpt>
      <trkpt lat="43.17521" lon="2.67583">
        <ele>74</ele>
        <time>2020-06-11T14:00:57Z</time>
      </trkpt>
      <trkpt lat="43.17554" lon="2.67515">
        <ele>75</ele>
        <time>2020-06-11T14:01:07Z</time>
      </trkpt>
      <trkpt lat="43.17557" lon="2.67508">
        <ele>75</ele>
        <time>2020-06-11T14:01:08Z</time>
      </trkpt>
      <trkpt lat="43.17561" lon="2.67502">
        <ele>75</ele>
        <time>2020-06-11T14:01:09Z</time>
      </trkpt>
      <trkpt lat="43.1758" lon="2.6746">
        <ele>73</ele>
        <time>2020-06-11T14:01:15Z</time>
      </trkpt>
      <trkpt lat="43.1759" lon="2.6744">
        <ele>72</ele>
        <time>2020-06-11T14:01:18Z</time>
      </trkpt>
      <trkpt lat="43.17597" lon="2.67427">
        <ele>72</ele>
        <time>2020-06-11T14:01:20Z</time>
      </trkpt>
      <trkpt lat="43.17603" lon="2.67413">
        <ele>73</ele>
        <time>2020-06-11T14:01:22Z</time>
      </trkpt>
      <trkpt lat="43.17606" lon="2.67406">
        <ele>73</ele>
        <time>2020-06-11T14:01:23Z</time>
      </trkpt>
      <trkpt lat="43.1761" lon="2.67399">
        <ele>73</ele>
        <time>2020-06-11T14:01:24Z</time>
      </trkpt>
      <trkpt lat="43.17613" lon="2.67393">
        <ele>73</ele>
        <time>2020-06-11T14:01:25Z</time>
      </trkpt>
      <trkpt lat="43.17636" lon="2.67346">
        <ele>77</ele>
        <time>2020-06-11T14:01:32Z</time>
      </trkpt>
      <trkpt lat="43.17659" lon="2.67299">
        <ele>76</ele>
        <time>2020-06-11T14:01:39Z</time>
      </trkpt>
      <trkpt lat="43.17667" lon="2.67285">
        <ele>76</ele>
        <time>2020-06-11T14:01:41Z</time>
      </trkpt>
      <trkpt lat="43.17671" lon="2.67279">
        <ele>75</ele>
        <time>2020-06-11T14:01:42Z</time>
      </trkpt>
      <trkpt lat="43.17675" lon="2.67272">
        <ele>76</ele>
        <time>2020-06-11T14:01:43Z</time>
      </trkpt>
      <trkpt lat="43.17705" lon="2.67232">
        <ele>76</ele>
        <time>2020-06-11T14:01:50Z</time>
      </trkpt>
      <trkpt lat="43.17719" lon="2.67216">
        <ele>76</ele>
        <time>2020-06-11T14:01:53Z</time>
      </trkpt>
      <trkpt lat="43.17738" lon="2.67197">
        <ele>75</ele>
        <time>2020-06-11T14:01:57Z</time>
      </trkpt>
      <trkpt lat="43.17748" lon="2.67188">
        <ele>75</ele>
        <time>2020-06-11T14:01:59Z</time>
      </trkpt>
      <trkpt lat="43.17753" lon="2.67183">
        <ele>76</ele>
        <time>2020-06-11T14:02:00Z</time>
      </trkpt>
      <trkpt lat="43.17771" lon="2.67164">
        <ele>77</ele>
        <time>2020-06-11T14:02:04Z</time>
      </trkpt>
      <trkpt lat="43.17809" lon="2.67127">
        <ele>79</ele>
        <time>2020-06-11T14:02:12Z</time>
      </trkpt>
      <trkpt lat="43.17818" lon="2.67117">
        <ele>79</ele>
        <time>2020-06-11T14:02:14Z</time>
      </trkpt>
      <trkpt lat="43.17823" lon="2.67113">
        <ele>79</ele>
        <time>2020-06-11T14:02:15Z</time>
      </trkpt>
      <trkpt lat="43.17854" lon="2.67081">
        <ele>80</ele>
        <time>2020-06-11T14:02:22Z</time>
      </trkpt>
      <trkpt lat="43.17868" lon="2.67067">
        <ele>79</ele>
        <time>2020-06-11T14:02:25Z</time>
      </trkpt>
      <trkpt lat="43.17895" lon="2.6704">
        <ele>77</ele>
        <time>2020-06-11T14:02:31Z</time>
      </trkpt>
      <trkpt lat="43.17913" lon="2.67022">
        <ele>77</ele>
        <time>2020-06-11T14:02:35Z</time>
      </trkpt>
      <trkpt lat="43.17929" lon="2.67005">
        <ele>78</ele>
        <time>2020-06-11T14:02:39Z</time>
      </trkpt>
      <trkpt lat="43.17934" lon="2.67001">
        <ele>78</ele>
        <time>2020-06-11T14:02:40Z</time>
      </trkpt>
      <trkpt lat="43.17961" lon="2.66973">
        <ele>80</ele>
        <time>2020-06-11T14:02:47Z</time>
      </trkpt>
      <trkpt lat="43.17968" lon="2.66966">
        <ele>80</ele>
        <time>2020-06-11T14:02:49Z</time>
      </trkpt>
      <trkpt lat="43.17974" lon="2.6696">
        <ele>81</ele>
        <time>2020-06-11T14:02:51Z</time>
      </trkpt>
      <trkpt lat="43.17982" lon="2.6695">
        <ele>81</ele>
        <time>2020-06-11T14:02:54Z</time>
      </trkpt>
      <trkpt lat="43.17982" lon="2.66938">
        <ele>81</ele>
        <time>2020-06-11T14:02:56Z</time>
      </trkpt>
      <trkpt lat="43.1798" lon="2.66931">
        <ele>81</ele>
        <time>2020-06-11T14:02:57Z</time>
      </trkpt>
      <trkpt lat="43.17978" lon="2.66925">
        <ele>81</ele>
        <time>2020-06-11T14:02:58Z</time>
      </trkpt>
      <trkpt lat="43.17973" lon="2.66911">
        <ele>81</ele>
        <time>2020-06-11T14:03:00Z</time>
      </trkpt>
      <trkpt lat="43.17966" lon="2.66888">
        <ele>81</ele>
        <time>2020-06-11T14:03:03Z</time>
      </trkpt>
      <trkpt lat="43.17955" lon="2.66831">
        <ele>86</ele>
        <time>2020-06-11T14:03:10Z</time>
      </trkpt>
      <trkpt lat="43.17954" lon="2.66823">
        <ele>86</ele>
        <time>2020-06-11T14:03:11Z</time>
      </trkpt>
      <trkpt lat="43.17949" lon="2.66799">
        <ele>86</ele>
        <time>2020-06-11T14:03:14Z</time>
      </trkpt>
      <trkpt lat="43.17945" lon="2.66774">
        <ele>86</ele>
        <time>2020-06-11T14:03:17Z</time>
      </trkpt>
      <trkpt lat="43.17939" lon="2.66742">
        <ele>86</ele>
        <time>2020-06-11T14:03:21Z</time>
      </trkpt>
      <trkpt lat="43.17935" lon="2.66717">
        <ele>86</ele>
        <time>2020-06-11T14:03:24Z</time>
      </trkpt>
      <trkpt lat="43.17932" lon="2.66701">
        <ele>86</ele>
        <time>2020-06-11T14:03:26Z</time>
      </trkpt>
      <trkpt lat="43.17927" lon="2.66668">
        <ele>87</ele>
        <time>2020-06-11T14:03:30Z</time>
      </trkpt>
      <trkpt lat="43.17913" lon="2.66594">
        <ele>86</ele>
        <time>2020-06-11T14:03:39Z</time>
      </trkpt>
      <trkpt lat="43.17906" lon="2.66554">
        <ele>85</ele>
        <time>2020-06-11T14:03:44Z</time>
      </trkpt>
      <trkpt lat="43.17903" lon="2.66529">
        <ele>85</ele>
        <time>2020-06-11T14:03:47Z</time>
      </trkpt>
      <trkpt lat="43.17902" lon="2.66496">
        <ele>86</ele>
        <time>2020-06-11T14:03:51Z</time>
      </trkpt>
      <trkpt lat="43.17903" lon="2.6648">
        <ele>86</ele>
        <time>2020-06-11T14:03:53Z</time>
      </trkpt>
      <trkpt lat="43.1791" lon="2.66416">
        <ele>87</ele>
        <time>2020-06-11T14:04:01Z</time>
      </trkpt>
      <trkpt lat="43.17913" lon="2.66392">
        <ele>87</ele>
        <time>2020-06-11T14:04:04Z</time>
      </trkpt>
      <trkpt lat="43.1792" lon="2.66353">
        <ele>88</ele>
        <time>2020-06-11T14:04:09Z</time>
      </trkpt>
      <trkpt lat="43.17922" lon="2.66345">
        <ele>88</ele>
        <time>2020-06-11T14:04:10Z</time>
      </trkpt>
      <trkpt lat="43.17923" lon="2.66337">
        <ele>88</ele>
        <time>2020-06-11T14:04:11Z</time>
      </trkpt>
      <trkpt lat="43.17936" lon="2.66285">
        <ele>89</ele>
        <time>2020-06-11T14:04:18Z</time>
      </trkpt>
      <trkpt lat="43.17938" lon="2.66277">
        <ele>89</ele>
        <time>2020-06-11T14:04:19Z</time>
      </trkpt>
      <trkpt lat="43.17941" lon="2.66269">
        <ele>89</ele>
        <time>2020-06-11T14:04:20Z</time>
      </trkpt>
      <trkpt lat="43.17943" lon="2.66262">
        <ele>89</ele>
        <time>2020-06-11T14:04:21Z</time>
      </trkpt>
      <trkpt lat="43.17945" lon="2.66254">
        <ele>89</ele>
        <time>2020-06-11T14:04:22Z</time>
      </trkpt>
      <trkpt lat="43.17956" lon="2.66225">
        <ele>87</ele>
        <time>2020-06-11T14:04:26Z</time>
      </trkpt>
      <trkpt lat="43.17962" lon="2.6621">
        <ele>87</ele>
        <time>2020-06-11T14:04:28Z</time>
      </trkpt>
      <trkpt lat="43.17977" lon="2.66173">
        <ele>88</ele>
        <time>2020-06-11T14:04:33Z</time>
      </trkpt>
      <trkpt lat="43.17983" lon="2.66157">
        <ele>87</ele>
        <time>2020-06-11T14:04:35Z</time>
      </trkpt>
      <trkpt lat="43.17995" lon="2.66115">
        <ele>85</ele>
        <time>2020-06-11T14:04:40Z</time>
      </trkpt>
      <trkpt lat="43.17998" lon="2.66097">
        <ele>84</ele>
        <time>2020-06-11T14:04:42Z</time>
      </trkpt>
      <trkpt lat="43.18001" lon="2.66079">
        <ele>83</ele>
        <time>2020-06-11T14:04:44Z</time>
      </trkpt>
      <trkpt lat="43.18005" lon="2.66034">
        <ele>84</ele>
        <time>2020-06-11T14:04:49Z</time>
      </trkpt>
      <trkpt lat="43.18006" lon="2.66025">
        <ele>84</ele>
        <time>2020-06-11T14:04:50Z</time>
      </trkpt>
      <trkpt lat="43.18007" lon="2.66007">
        <ele>84</ele>
        <time>2020-06-11T14:04:52Z</time>
      </trkpt>
      <trkpt lat="43.18008" lon="2.6599">
        <ele>84</ele>
        <time>2020-06-11T14:04:54Z</time>
      </trkpt>
      <trkpt lat="43.18009" lon="2.65981">
        <ele>85</ele>
        <time>2020-06-11T14:04:55Z</time>
      </trkpt>
      <trkpt lat="43.1801" lon="2.65957">
        <ele>85</ele>
        <time>2020-06-11T14:04:58Z</time>
      </trkpt>
      <trkpt lat="43.18012" lon="2.65933">
        <ele>86</ele>
        <time>2020-06-11T14:05:01Z</time>
      </trkpt>
      <trkpt lat="43.18012" lon="2.65925">
        <ele>86</ele>
        <time>2020-06-11T14:05:02Z</time>
      </trkpt>
      <trkpt lat="43.18013" lon="2.6591">
        <ele>88</ele>
        <time>2020-06-11T14:05:04Z</time>
      </trkpt>
      <trkpt lat="43.18015" lon="2.65895">
        <ele>89</ele>
        <time>2020-06-11T14:05:06Z</time>
      </trkpt>
      <trkpt lat="43.18015" lon="2.65888">
        <ele>90</ele>
        <time>2020-06-11T14:05:07Z</time>
      </trkpt>
      <trkpt lat="43.18019" lon="2.65849">
        <ele>92</ele>
        <time>2020-06-11T14:05:12Z</time>
      </trkpt>
      <trkpt lat="43.18021" lon="2.65826">
        <ele>93</ele>
        <time>2020-06-11T14:05:15Z</time>
      </trkpt>
      <trkpt lat="43.18023" lon="2.65812">
        <ele>94</ele>
        <time>2020-06-11T14:05:17Z</time>
      </trkpt>
      <trkpt lat="43.18024" lon="2.65805">
        <ele>95</ele>
        <time>2020-06-11T14:05:18Z</time>
      </trkpt>
      <trkpt lat="43.18025" lon="2.65798">
        <ele>95</ele>
        <time>2020-06-11T14:05:19Z</time>
      </trkpt>
      <trkpt lat="43.18026" lon="2.65784">
        <ele>95</ele>
        <time>2020-06-11T14:05:21Z</time>
      </trkpt>
      <trkpt lat="43.18027" lon="2.6577">
        <ele>96</ele>
        <time>2020-06-11T14:05:23Z</time>
      </trkpt>
      <trkpt lat="43.18028" lon="2.65763">
        <ele>96</ele>
        <time>2020-06-11T14:05:24Z</time>
      </trkpt>
      <trkpt lat="43.18028" lon="2.65757">
        <ele>96</ele>
        <time>2020-06-11T14:05:25Z</time>
      </trkpt>
      <trkpt lat="43.18028" lon="2.6575">
        <ele>96</ele>
        <time>2020-06-11T14:05:26Z</time>
      </trkpt>
      <trkpt lat="43.18028" lon="2.65737">
        <ele>98</ele>
        <time>2020-06-11T14:05:28Z</time>
      </trkpt>
      <trkpt lat="43.18027" lon="2.65723">
        <ele>99</ele>
        <time>2020-06-11T14:05:30Z</time>
      </trkpt>
      <trkpt lat="43.18027" lon="2.65716">
        <ele>99</ele>
        <time>2020-06-11T14:05:31Z</time>
      </trkpt>
      <trkpt lat="43.18023" lon="2.65682">
        <ele>100</ele>
        <time>2020-06-11T14:05:36Z</time>
      </trkpt>
      <trkpt lat="43.18021" lon="2.65668">
        <ele>100</ele>
        <time>2020-06-11T14:05:38Z</time>
      </trkpt>
      <trkpt lat="43.18019" lon="2.65654">
        <ele>101</ele>
        <time>2020-06-11T14:05:40Z</time>
      </trkpt>
      <trkpt lat="43.18015" lon="2.6561">
        <ele>100</ele>
        <time>2020-06-11T14:05:46Z</time>
      </trkpt>
      <trkpt lat="43.18008" lon="2.65552">
        <ele>97</ele>
        <time>2020-06-11T14:05:53Z</time>
      </trkpt>
      <trkpt lat="43.18004" lon="2.65525">
        <ele>97</ele>
        <time>2020-06-11T14:05:56Z</time>
      </trkpt>
      <trkpt lat="43.18" lon="2.65506">
        <ele>97</ele>
        <time>2020-06-11T14:05:58Z</time>
      </trkpt>
      <trkpt lat="43.17999" lon="2.65497">
        <ele>98</ele>
        <time>2020-06-11T14:05:59Z</time>
      </trkpt>
      <trkpt lat="43.17997" lon="2.65487">
        <ele>97</ele>
        <time>2020-06-11T14:06:00Z</time>
      </trkpt>
      <trkpt lat="43.17996" lon="2.65477">
        <ele>97</ele>
        <time>2020-06-11T14:06:01Z</time>
      </trkpt>
      <trkpt lat="43.17995" lon="2.65458">
        <ele>97</ele>
        <time>2020-06-11T14:06:03Z</time>
      </trkpt>
      <trkpt lat="43.17994" lon="2.65426">
        <ele>97</ele>
        <time>2020-06-11T14:06:07Z</time>
      </trkpt>
      <trkpt lat="43.17994" lon="2.65404">
        <ele>97</ele>
        <time>2020-06-11T14:06:11Z</time>
      </trkpt>
      <trkpt lat="43.17995" lon="2.65399">
        <ele>97</ele>
        <time>2020-06-11T14:06:12Z</time>
      </trkpt>
      <trkpt lat="43.17995" lon="2.65363">
        <ele>98</ele>
        <time>2020-06-11T14:06:18Z</time>
      </trkpt>
      <trkpt lat="43.17995" lon="2.65357">
        <ele>99</ele>
        <time>2020-06-11T14:06:19Z</time>
      </trkpt>
      <trkpt lat="43.17996" lon="2.6533">
        <ele>99</ele>
        <time>2020-06-11T14:06:23Z</time>
      </trkpt>
      <trkpt lat="43.17999" lon="2.6529">
        <ele>100</ele>
        <time>2020-06-11T14:06:29Z</time>
      </trkpt>
      <trkpt lat="43.18" lon="2.65284">
        <ele>100</ele>
        <time>2020-06-11T14:06:30Z</time>
      </trkpt>
      <trkpt lat="43.18008" lon="2.65254">
        <ele>101</ele>
        <time>2020-06-11T14:06:36Z</time>
      </trkpt>
      <trkpt lat="43.18011" lon="2.65243">
        <ele>102</ele>
        <time>2020-06-11T14:06:38Z</time>
      </trkpt>
      <trkpt lat="43.18018" lon="2.65224">
        <ele>102</ele>
        <time>2020-06-11T14:06:42Z</time>
      </trkpt>
      <trkpt lat="43.18024" lon="2.65208">
        <ele>102</ele>
        <time>2020-06-11T14:06:46Z</time>
      </trkpt>
      <trkpt lat="43.18026" lon="2.65204">
        <ele>102</ele>
        <time>2020-06-11T14:06:47Z</time>
      </trkpt>
      <trkpt lat="43.18038" lon="2.6518">
        <ele>103</ele>
        <time>2020-06-11T14:06:52Z</time>
      </trkpt>
      <trkpt lat="43.18056" lon="2.65151">
        <ele>102</ele>
        <time>2020-06-11T14:06:58Z</time>
      </trkpt>
      <trkpt lat="43.18061" lon="2.6514">
        <ele>102</ele>
        <time>2020-06-11T14:07:00Z</time>
      </trkpt>
      <trkpt lat="43.18069" lon="2.65117">
        <ele>102</ele>
        <time>2020-06-11T14:07:04Z</time>
      </trkpt>
      <trkpt lat="43.18072" lon="2.65111">
        <ele>102</ele>
        <time>2020-06-11T14:07:05Z</time>
      </trkpt>
      <trkpt lat="43.18083" lon="2.65079">
        <ele>102</ele>
        <time>2020-06-11T14:07:10Z</time>
      </trkpt>
      <trkpt lat="43.18085" lon="2.65072">
        <ele>102</ele>
        <time>2020-06-11T14:07:11Z</time>
      </trkpt>
      <trkpt lat="43.18093" lon="2.65051">
        <ele>102</ele>
        <time>2020-06-11T14:07:14Z</time>
      </trkpt>
      <trkpt lat="43.18103" lon="2.65024">
        <ele>101</ele>
        <time>2020-06-11T14:07:18Z</time>
      </trkpt>
      <trkpt lat="43.18106" lon="2.65017">
        <ele>101</ele>
        <time>2020-06-11T14:07:19Z</time>
      </trkpt>
      <trkpt lat="43.18108" lon="2.65009">
        <ele>101</ele>
        <time>2020-06-11T14:07:20Z</time>
      </trkpt>
      <trkpt lat="43.18116" lon="2.64978">
        <ele>101</ele>
        <time>2020-06-11T14:07:24Z</time>
      </trkpt>
      <trkpt lat="43.18117" lon="2.64971">
        <ele>101</ele>
        <time>2020-06-11T14:07:25Z</time>
      </trkpt>
      <trkpt lat="43.18118" lon="2.64963">
        <ele>101</ele>
        <time>2020-06-11T14:07:26Z</time>
      </trkpt>
      <trkpt lat="43.18121" lon="2.64928">
        <ele>101</ele>
        <time>2020-06-11T14:07:31Z</time>
      </trkpt>
      <trkpt lat="43.18122" lon="2.64922">
        <ele>101</ele>
        <time>2020-06-11T14:07:32Z</time>
      </trkpt>
      <trkpt lat="43.18124" lon="2.64894">
        <ele>101</ele>
        <time>2020-06-11T14:07:37Z</time>
      </trkpt>
      <trkpt lat="43.18126" lon="2.64869">
        <ele>101</ele>
        <time>2020-06-11T14:07:41Z</time>
      </trkpt>
      <trkpt lat="43.18127" lon="2.6485">
        <ele>102</ele>
        <time>2020-06-11T14:07:44Z</time>
      </trkpt>
      <trkpt lat="43.18129" lon="2.64823">
        <ele>104</ele>
        <time>2020-06-11T14:07:48Z</time>
      </trkpt>
      <trkpt lat="43.1813" lon="2.64809">
        <ele>104</ele>
        <time>2020-06-11T14:07:50Z</time>
      </trkpt>
      <trkpt lat="43.18134" lon="2.64768">
        <ele>103</ele>
        <time>2020-06-11T14:07:56Z</time>
      </trkpt>
      <trkpt lat="43.18134" lon="2.6476">
        <ele>102</ele>
        <time>2020-06-11T14:07:57Z</time>
      </trkpt>
      <trkpt lat="43.18133" lon="2.64716">
        <ele>99</ele>
        <time>2020-06-11T14:08:02Z</time>
      </trkpt>
      <trkpt lat="43.18129" lon="2.64688">
        <ele>98</ele>
        <time>2020-06-11T14:08:05Z</time>
      </trkpt>
      <trkpt lat="43.18128" lon="2.64678">
        <ele>98</ele>
        <time>2020-06-11T14:08:06Z</time>
      </trkpt>
      <trkpt lat="43.18125" lon="2.64658">
        <ele>99</ele>
        <time>2020-06-11T14:08:08Z</time>
      </trkpt>
      <trkpt lat="43.18124" lon="2.64649">
        <ele>99</ele>
        <time>2020-06-11T14:08:09Z</time>
      </trkpt>
      <trkpt lat="43.18115" lon="2.64576">
        <ele>101</ele>
        <time>2020-06-11T14:08:16Z</time>
      </trkpt>
      <trkpt lat="43.18112" lon="2.64544">
        <ele>101</ele>
        <time>2020-06-11T14:08:19Z</time>
      </trkpt>
      <trkpt lat="43.1811" lon="2.64502">
        <ele>100</ele>
        <time>2020-06-11T14:08:23Z</time>
      </trkpt>
      <trkpt lat="43.1811" lon="2.64492">
        <ele>99</ele>
        <time>2020-06-11T14:08:24Z</time>
      </trkpt>
      <trkpt lat="43.18111" lon="2.64482">
        <ele>99</ele>
        <time>2020-06-11T14:08:25Z</time>
      </trkpt>
      <trkpt lat="43.18113" lon="2.64451">
        <ele>98</ele>
        <time>2020-06-11T14:08:28Z</time>
      </trkpt>
      <trkpt lat="43.18116" lon="2.64409">
        <ele>98</ele>
        <time>2020-06-11T14:08:32Z</time>
      </trkpt>
      <trkpt lat="43.18118" lon="2.64389">
        <ele>99</ele>
        <time>2020-06-11T14:08:34Z</time>
      </trkpt>
      <trkpt lat="43.1812" lon="2.64369">
        <ele>99</ele>
        <time>2020-06-11T14:08:36Z</time>
      </trkpt>
      <trkpt lat="43.18122" lon="2.6435">
        <ele>100</ele>
        <time>2020-06-11T14:08:38Z</time>
      </trkpt>
      <trkpt lat="43.18123" lon="2.6433">
        <ele>101</ele>
        <time>2020-06-11T14:08:40Z</time>
      </trkpt>
      <trkpt lat="43.18124" lon="2.6432">
        <ele>101</ele>
        <time>2020-06-11T14:08:41Z</time>
      </trkpt>
      <trkpt lat="43.18124" lon="2.64309">
        <ele>101</ele>
        <time>2020-06-11T14:08:42Z</time>
      </trkpt>
      <trkpt lat="43.18126" lon="2.64289">
        <ele>102</ele>
        <time>2020-06-11T14:08:44Z</time>
      </trkpt>
      <trkpt lat="43.18127" lon="2.64279">
        <ele>102</ele>
        <time>2020-06-11T14:08:45Z</time>
      </trkpt>
      <trkpt lat="43.18129" lon="2.64249">
        <ele>102</ele>
        <time>2020-06-11T14:08:48Z</time>
      </trkpt>
      <trkpt lat="43.1813" lon="2.64238">
        <ele>102</ele>
        <time>2020-06-11T14:08:49Z</time>
      </trkpt>
      <trkpt lat="43.18131" lon="2.64218">
        <ele>101</ele>
        <time>2020-06-11T14:08:51Z</time>
      </trkpt>
      <trkpt lat="43.18133" lon="2.6417">
        <ele>99</ele>
        <time>2020-06-11T14:08:56Z</time>
      </trkpt>
      <trkpt lat="43.18133" lon="2.64161">
        <ele>99</ele>
        <time>2020-06-11T14:08:57Z</time>
      </trkpt>
      <trkpt lat="43.18134" lon="2.64152">
        <ele>99</ele>
        <time>2020-06-11T14:08:58Z</time>
      </trkpt>
      <trkpt lat="43.18135" lon="2.64125">
        <ele>98</ele>
        <time>2020-06-11T14:09:01Z</time>
      </trkpt>
      <trkpt lat="43.18136" lon="2.64107">
        <ele>98</ele>
        <time>2020-06-11T14:09:03Z</time>
      </trkpt>
      <trkpt lat="43.18136" lon="2.64098">
        <ele>99</ele>
        <time>2020-06-11T14:09:04Z</time>
      </trkpt>
      <trkpt lat="43.18136" lon="2.64064">
        <ele>102</ele>
        <time>2020-06-11T14:09:08Z</time>
      </trkpt>
      <trkpt lat="43.18137" lon="2.64029">
        <ele>104</ele>
        <time>2020-06-11T14:09:12Z</time>
      </trkpt>
      <trkpt lat="43.18137" lon="2.63993">
        <ele>105</ele>
        <time>2020-06-11T14:09:16Z</time>
      </trkpt>
      <trkpt lat="43.18137" lon="2.63984">
        <ele>105</ele>
        <time>2020-06-11T14:09:17Z</time>
      </trkpt>
      <trkpt lat="43.18137" lon="2.63948">
        <ele>104</ele>
        <time>2020-06-11T14:09:21Z</time>
      </trkpt>
      <trkpt lat="43.18137" lon="2.6391">
        <ele>103</ele>
        <time>2020-06-11T14:09:25Z</time>
      </trkpt>
      <trkpt lat="43.18136" lon="2.63891">
        <ele>103</ele>
        <time>2020-06-11T14:09:27Z</time>
      </trkpt>
      <trkpt lat="43.18135" lon="2.63853">
        <ele>103</ele>
        <time>2020-06-11T14:09:31Z</time>
      </trkpt>
      <trkpt lat="43.18134" lon="2.63816">
        <ele>103</ele>
        <time>2020-06-11T14:09:35Z</time>
      </trkpt>
      <trkpt lat="43.18134" lon="2.63807">
        <ele>103</ele>
        <time>2020-06-11T14:09:36Z</time>
      </trkpt>
      <trkpt lat="43.18133" lon="2.63779">
        <ele>104</ele>
        <time>2020-06-11T14:09:39Z</time>
      </trkpt>
      <trkpt lat="43.18133" lon="2.6376">
        <ele>105</ele>
        <time>2020-06-11T14:09:41Z</time>
      </trkpt>
      <trkpt lat="43.1813" lon="2.63694">
        <ele>104</ele>
        <time>2020-06-11T14:09:48Z</time>
      </trkpt>
      <trkpt lat="43.1813" lon="2.63684">
        <ele>104</ele>
        <time>2020-06-11T14:09:49Z</time>
      </trkpt>
      <trkpt lat="43.1813" lon="2.63675">
        <ele>104</ele>
        <time>2020-06-11T14:09:50Z</time>
      </trkpt>
      <trkpt lat="43.18127" lon="2.63627">
        <ele>104</ele>
        <time>2020-06-11T14:09:55Z</time>
      </trkpt>
      <trkpt lat="43.18127" lon="2.63617">
        <ele>104</ele>
        <time>2020-06-11T14:09:56Z</time>
      </trkpt>
      <trkpt lat="43.18125" lon="2.63598">
        <ele>105</ele>
        <time>2020-06-11T14:09:58Z</time>
      </trkpt>
      <trkpt lat="43.18122" lon="2.63532">
        <ele>105</ele>
        <time>2020-06-11T14:10:05Z</time>
      </trkpt>
      <trkpt lat="43.18121" lon="2.63523">
        <ele>105</ele>
        <time>2020-06-11T14:10:06Z</time>
      </trkpt>
      <trkpt lat="43.1812" lon="2.63504">
        <ele>105</ele>
        <time>2020-06-11T14:10:08Z</time>
      </trkpt>
      <trkpt lat="43.18117" lon="2.63457">
        <ele>106</ele>
        <time>2020-06-11T14:10:13Z</time>
      </trkpt>
      <trkpt lat="43.18115" lon="2.63429">
        <ele>107</ele>
        <time>2020-06-11T14:10:16Z</time>
      </trkpt>
      <trkpt lat="43.18114" lon="2.63402">
        <ele>107</ele>
        <time>2020-06-11T14:10:19Z</time>
      </trkpt>
      <trkpt lat="43.18113" lon="2.63384">
        <ele>107</ele>
        <time>2020-06-11T14:10:21Z</time>
      </trkpt>
      <trkpt lat="43.18112" lon="2.63366">
        <ele>107</ele>
        <time>2020-06-11T14:10:23Z</time>
      </trkpt>
      <trkpt lat="43.18111" lon="2.63348">
        <ele>108</ele>
        <time>2020-06-11T14:10:25Z</time>
      </trkpt>
      <trkpt lat="43.18109" lon="2.63319">
        <ele>108</ele>
        <time>2020-06-11T14:10:28Z</time>
      </trkpt>
      <trkpt lat="43.18108" lon="2.63301">
        <ele>108</ele>
        <time>2020-06-11T14:10:30Z</time>
      </trkpt>
      <trkpt lat="43.18106" lon="2.63235">
        <ele>109</ele>
        <time>2020-06-11T14:10:37Z</time>
      </trkpt>
      <trkpt lat="43.18106" lon="2.63178">
        <ele>110</ele>
        <time>2020-06-11T14:10:43Z</time>
      </trkpt>
      <trkpt lat="43.18106" lon="2.63147">
        <ele>110</ele>
        <time>2020-06-11T14:10:46Z</time>
      </trkpt>
      <trkpt lat="43.18103" lon="2.63103">
        <ele>110</ele>
        <time>2020-06-11T14:10:50Z</time>
      </trkpt>
      <trkpt lat="43.18101" lon="2.63079">
        <ele>110</ele>
        <time>2020-06-11T14:10:52Z</time>
      </trkpt>
      <trkpt lat="43.181" lon="2.63053">
        <ele>108</ele>
        <time>2020-06-11T14:10:54Z</time>
      </trkpt>
      <trkpt lat="43.181" lon="2.6304">
        <ele>108</ele>
        <time>2020-06-11T14:10:55Z</time>
      </trkpt>
      <trkpt lat="43.181" lon="2.63026">
        <ele>107</ele>
        <time>2020-06-11T14:10:56Z</time>
      </trkpt>
      <trkpt lat="43.18105" lon="2.62998">
        <ele>105</ele>
        <time>2020-06-11T14:10:58Z</time>
      </trkpt>
      <trkpt lat="43.18109" lon="2.62985">
        <ele>105</ele>
        <time>2020-06-11T14:10:59Z</time>
      </trkpt>
      <trkpt lat="43.18114" lon="2.62971">
        <ele>105</ele>
        <time>2020-06-11T14:11:00Z</time>
      </trkpt>
      <trkpt lat="43.18131" lon="2.62933">
        <ele>102</ele>
        <time>2020-06-11T14:11:03Z</time>
      </trkpt>
      <trkpt lat="43.18137" lon="2.62919">
        <ele>102</ele>
        <time>2020-06-11T14:11:04Z</time>
      </trkpt>
      <trkpt lat="43.18152" lon="2.62878">
        <ele>99</ele>
        <time>2020-06-11T14:11:07Z</time>
      </trkpt>
      <trkpt lat="43.18155" lon="2.62863">
        <ele>98</ele>
        <time>2020-06-11T14:11:08Z</time>
      </trkpt>
      <trkpt lat="43.18157" lon="2.62848">
        <ele>97</ele>
        <time>2020-06-11T14:11:09Z</time>
      </trkpt>
      <trkpt lat="43.18158" lon="2.62833">
        <ele>96</ele>
        <time>2020-06-11T14:11:10Z</time>
      </trkpt>
      <trkpt lat="43.18158" lon="2.62803">
        <ele>95</ele>
        <time>2020-06-11T14:11:12Z</time>
      </trkpt>
      <trkpt lat="43.18158" lon="2.62788">
        <ele>96</ele>
        <time>2020-06-11T14:11:13Z</time>
      </trkpt>
      <trkpt lat="43.18158" lon="2.62772">
        <ele>96</ele>
        <time>2020-06-11T14:11:14Z</time>
      </trkpt>
      <trkpt lat="43.18158" lon="2.62742">
        <ele>95</ele>
        <time>2020-06-11T14:11:16Z</time>
      </trkpt>
      <trkpt lat="43.18158" lon="2.62727">
        <ele>95</ele>
        <time>2020-06-11T14:11:17Z</time>
      </trkpt>
      <trkpt lat="43.18157" lon="2.62713">
        <ele>94</ele>
        <time>2020-06-11T14:11:18Z</time>
      </trkpt>
      <trkpt lat="43.18156" lon="2.62698">
        <ele>94</ele>
        <time>2020-06-11T14:11:19Z</time>
      </trkpt>
      <trkpt lat="43.18155" lon="2.62668">
        <ele>93</ele>
        <time>2020-06-11T14:11:21Z</time>
      </trkpt>
      <trkpt lat="43.1815" lon="2.62624">
        <ele>92</ele>
        <time>2020-06-11T14:11:24Z</time>
      </trkpt>
      <trkpt lat="43.18145" lon="2.62595">
        <ele>91</ele>
        <time>2020-06-11T14:11:26Z</time>
      </trkpt>
      <trkpt lat="43.1814" lon="2.62566">
        <ele>91</ele>
        <time>2020-06-11T14:11:28Z</time>
      </trkpt>
      <trkpt lat="43.18135" lon="2.62539">
        <ele>92</ele>
        <time>2020-06-11T14:11:30Z</time>
      </trkpt>
      <trkpt lat="43.18129" lon="2.62499">
        <ele>92</ele>
        <time>2020-06-11T14:11:33Z</time>
      </trkpt>
      <trkpt lat="43.18127" lon="2.62473">
        <ele>93</ele>
        <time>2020-06-11T14:11:35Z</time>
      </trkpt>
      <trkpt lat="43.18127" lon="2.6246">
        <ele>93</ele>
        <time>2020-06-11T14:11:36Z</time>
      </trkpt>
      <trkpt lat="43.18127" lon="2.62448">
        <ele>93</ele>
        <time>2020-06-11T14:11:37Z</time>
      </trkpt>
      <trkpt lat="43.18127" lon="2.62402">
        <ele>94</ele>
        <time>2020-06-11T14:11:41Z</time>
      </trkpt>
      <trkpt lat="43.18128" lon="2.6238">
        <ele>95</ele>
        <time>2020-06-11T14:11:43Z</time>
      </trkpt>
      <trkpt lat="43.18128" lon="2.6236">
        <ele>95</ele>
        <time>2020-06-11T14:11:45Z</time>
      </trkpt>
      <trkpt lat="43.18127" lon="2.62341">
        <ele>95</ele>
        <time>2020-06-11T14:11:47Z</time>
      </trkpt>
      <trkpt lat="43.18127" lon="2.62313">
        <ele>96</ele>
        <time>2020-06-11T14:11:50Z</time>
      </trkpt>
      <trkpt lat="43.18126" lon="2.62276">
        <ele>97</ele>
        <time>2020-06-11T14:11:54Z</time>
      </trkpt>
      <trkpt lat="43.18125" lon="2.62267">
        <ele>98</ele>
        <time>2020-06-11T14:11:55Z</time>
      </trkpt>
      <trkpt lat="43.18125" lon="2.62241">
        <ele>99</ele>
        <time>2020-06-11T14:11:58Z</time>
      </trkpt>
      <trkpt lat="43.18125" lon="2.62205">
        <ele>101</ele>
        <time>2020-06-11T14:12:02Z</time>
      </trkpt>
      <trkpt lat="43.18124" lon="2.62195">
        <ele>102</ele>
        <time>2020-06-11T14:12:03Z</time>
      </trkpt>
      <trkpt lat="43.18124" lon="2.62186">
        <ele>102</ele>
        <time>2020-06-11T14:12:04Z</time>
      </trkpt>
      <trkpt lat="43.18124" lon="2.62177">
        <ele>103</ele>
        <time>2020-06-11T14:12:05Z</time>
      </trkpt>
      <trkpt lat="43.18125" lon="2.62151">
        <ele>104</ele>
        <time>2020-06-11T14:12:08Z</time>
      </trkpt>
      <trkpt lat="43.18127" lon="2.62125">
        <ele>104</ele>
        <time>2020-06-11T14:12:11Z</time>
      </trkpt>
      <trkpt lat="43.18128" lon="2.62117">
        <ele>104</ele>
        <time>2020-06-11T14:12:12Z</time>
      </trkpt>
      <trkpt lat="43.18129" lon="2.62109">
        <ele>105</ele>
        <time>2020-06-11T14:12:13Z</time>
      </trkpt>
      <trkpt lat="43.18131" lon="2.62092">
        <ele>105</ele>
        <time>2020-06-11T14:12:15Z</time>
      </trkpt>
      <trkpt lat="43.18131" lon="2.62083">
        <ele>105</ele>
        <time>2020-06-11T14:12:16Z</time>
      </trkpt>
      <trkpt lat="43.18132" lon="2.62074">
        <ele>105</ele>
        <time>2020-06-11T14:12:17Z</time>
      </trkpt>
      <trkpt lat="43.18134" lon="2.62055">
        <ele>105</ele>
        <time>2020-06-11T14:12:19Z</time>
      </trkpt>
      <trkpt lat="43.18136" lon="2.62035">
        <ele>104</ele>
        <time>2020-06-11T14:12:21Z</time>
      </trkpt>
      <trkpt lat="43.18139" lon="2.62003">
        <ele>103</ele>
        <time>2020-06-11T14:12:24Z</time>
      </trkpt>
      <trkpt lat="43.1814" lon="2.61991">
        <ele>102</ele>
        <time>2020-06-11T14:12:25Z</time>
      </trkpt>
      <trkpt lat="43.18141" lon="2.6198">
        <ele>102</ele>
        <time>2020-06-11T14:12:26Z</time>
      </trkpt>
      <trkpt lat="43.18143" lon="2.61956">
        <ele>101</ele>
        <time>2020-06-11T14:12:28Z</time>
      </trkpt>
      <trkpt lat="43.18144" lon="2.61931">
        <ele>101</ele>
        <time>2020-06-11T14:12:30Z</time>
      </trkpt>
      <trkpt lat="43.18146" lon="2.61907">
        <ele>100</ele>
        <time>2020-06-11T14:12:32Z</time>
      </trkpt>
      <trkpt lat="43.18148" lon="2.61883">
        <ele>101</ele>
        <time>2020-06-11T14:12:34Z</time>
      </trkpt>
      <trkpt lat="43.18149" lon="2.6187">
        <ele>101</ele>
        <time>2020-06-11T14:12:35Z</time>
      </trkpt>
      <trkpt lat="43.18151" lon="2.61846">
        <ele>101</ele>
        <time>2020-06-11T14:12:37Z</time>
      </trkpt>
      <trkpt lat="43.18154" lon="2.61809">
        <ele>100</ele>
        <time>2020-06-11T14:12:40Z</time>
      </trkpt>
      <trkpt lat="43.18155" lon="2.61785">
        <ele>98</ele>
        <time>2020-06-11T14:12:42Z</time>
      </trkpt>
      <trkpt lat="43.18156" lon="2.61773">
        <ele>98</ele>
        <time>2020-06-11T14:12:43Z</time>
      </trkpt>
      <trkpt lat="43.1816" lon="2.61723">
        <ele>97</ele>
        <time>2020-06-11T14:12:47Z</time>
      </trkpt>
      <trkpt lat="43.18162" lon="2.6171">
        <ele>97</ele>
        <time>2020-06-11T14:12:48Z</time>
      </trkpt>
      <trkpt lat="43.18163" lon="2.61697">
        <ele>97</ele>
        <time>2020-06-11T14:12:49Z</time>
      </trkpt>
      <trkpt lat="43.18164" lon="2.61685">
        <ele>98</ele>
        <time>2020-06-11T14:12:50Z</time>
      </trkpt>
      <trkpt lat="43.18165" lon="2.61672">
        <ele>98</ele>
        <time>2020-06-11T14:12:51Z</time>
      </trkpt>
      <trkpt lat="43.18167" lon="2.61635">
        <ele>97</ele>
        <time>2020-06-11T14:12:54Z</time>
      </trkpt>
      <trkpt lat="43.18172" lon="2.61564">
        <ele>96</ele>
        <time>2020-06-11T14:13:00Z</time>
      </trkpt>
      <trkpt lat="43.18174" lon="2.61542">
        <ele>95</ele>
        <time>2020-06-11T14:13:02Z</time>
      </trkpt>
      <trkpt lat="43.18178" lon="2.61489">
        <ele>95</ele>
        <time>2020-06-11T14:13:07Z</time>
      </trkpt>
      <trkpt lat="43.18179" lon="2.61468">
        <ele>95</ele>
        <time>2020-06-11T14:13:09Z</time>
      </trkpt>
      <trkpt lat="43.18181" lon="2.61447">
        <ele>95</ele>
        <time>2020-06-11T14:13:11Z</time>
      </trkpt>
      <trkpt lat="43.18184" lon="2.61403">
        <ele>95</ele>
        <time>2020-06-11T14:13:15Z</time>
      </trkpt>
      <trkpt lat="43.18185" lon="2.61382">
        <ele>95</ele>
        <time>2020-06-11T14:13:17Z</time>
      </trkpt>
      <trkpt lat="43.18186" lon="2.61372">
        <ele>95</ele>
        <time>2020-06-11T14:13:18Z</time>
      </trkpt>
      <trkpt lat="43.18188" lon="2.61341">
        <ele>96</ele>
        <time>2020-06-11T14:13:21Z</time>
      </trkpt>
      <trkpt lat="43.18189" lon="2.6133">
        <ele>96</ele>
        <time>2020-06-11T14:13:22Z</time>
      </trkpt>
      <trkpt lat="43.1819" lon="2.61319">
        <ele>96</ele>
        <time>2020-06-11T14:13:23Z</time>
      </trkpt>
      <trkpt lat="43.18191" lon="2.61309">
        <ele>96</ele>
        <time>2020-06-11T14:13:24Z</time>
      </trkpt>
      <trkpt lat="43.18196" lon="2.61239">
        <ele>96</ele>
        <time>2020-06-11T14:13:31Z</time>
      </trkpt>
      <trkpt lat="43.18201" lon="2.6119">
        <ele>98</ele>
        <time>2020-06-11T14:13:36Z</time>
      </trkpt>
      <trkpt lat="43.18201" lon="2.61181">
        <ele>98</ele>
        <time>2020-06-11T14:13:37Z</time>
      </trkpt>
      <trkpt lat="43.18202" lon="2.61172">
        <ele>99</ele>
        <time>2020-06-11T14:13:38Z</time>
      </trkpt>
      <trkpt lat="43.18203" lon="2.61163">
        <ele>99</ele>
        <time>2020-06-11T14:13:39Z</time>
      </trkpt>
      <trkpt lat="43.18206" lon="2.61136">
        <ele>101</ele>
        <time>2020-06-11T14:13:42Z</time>
      </trkpt>
      <trkpt lat="43.18209" lon="2.6111">
        <ele>101</ele>
        <time>2020-06-11T14:13:45Z</time>
      </trkpt>
      <trkpt lat="43.18212" lon="2.61093">
        <ele>102</ele>
        <time>2020-06-11T14:13:47Z</time>
      </trkpt>
      <trkpt lat="43.18213" lon="2.61084">
        <ele>102</ele>
        <time>2020-06-11T14:13:48Z</time>
      </trkpt>
      <trkpt lat="43.1822" lon="2.6106">
        <ele>102</ele>
        <time>2020-06-11T14:13:51Z</time>
      </trkpt>
      <trkpt lat="43.18223" lon="2.61052">
        <ele>102</ele>
        <time>2020-06-11T14:13:52Z</time>
      </trkpt>
      <trkpt lat="43.18229" lon="2.61036">
        <ele>102</ele>
        <time>2020-06-11T14:13:54Z</time>
      </trkpt>
      <trkpt lat="43.18235" lon="2.6102">
        <ele>101</ele>
        <time>2020-06-11T14:13:56Z</time>
      </trkpt>
      <trkpt lat="43.18238" lon="2.61012">
        <ele>101</ele>
        <time>2020-06-11T14:13:57Z</time>
      </trkpt>
      <trkpt lat="43.18243" lon="2.60997">
        <ele>101</ele>
        <time>2020-06-11T14:13:59Z</time>
      </trkpt>
      <trkpt lat="43.18258" lon="2.60958">
        <ele>102</ele>
        <time>2020-06-11T14:14:04Z</time>
      </trkpt>
      <trkpt lat="43.18261" lon="2.6095">
        <ele>102</ele>
        <time>2020-06-11T14:14:05Z</time>
      </trkpt>
      <trkpt lat="43.18264" lon="2.60942">
        <ele>102</ele>
        <time>2020-06-11T14:14:06Z</time>
      </trkpt>
      <trkpt lat="43.18267" lon="2.60933">
        <ele>102</ele>
        <time>2020-06-11T14:14:07Z</time>
      </trkpt>
      <trkpt lat="43.1827" lon="2.60926">
        <ele>102</ele>
        <time>2020-06-11T14:14:08Z</time>
      </trkpt>
      <trkpt lat="43.18272" lon="2.60918">
        <ele>102</ele>
        <time>2020-06-11T14:14:09Z</time>
      </trkpt>
      <trkpt lat="43.18278" lon="2.60901">
        <ele>103</ele>
        <time>2020-06-11T14:14:11Z</time>
      </trkpt>
      <trkpt lat="43.1828" lon="2.60893">
        <ele>103</ele>
        <time>2020-06-11T14:14:12Z</time>
      </trkpt>
      <trkpt lat="43.18285" lon="2.60878">
        <ele>104</ele>
        <time>2020-06-11T14:14:14Z</time>
      </trkpt>
      <trkpt lat="43.1829" lon="2.60862">
        <ele>105</ele>
        <time>2020-06-11T14:14:16Z</time>
      </trkpt>
      <trkpt lat="43.18301" lon="2.60828">
        <ele>107</ele>
        <time>2020-06-11T14:14:20Z</time>
      </trkpt>
      <trkpt lat="43.18305" lon="2.60819">
        <ele>107</ele>
        <time>2020-06-11T14:14:21Z</time>
      </trkpt>
      <trkpt lat="43.18316" lon="2.60786">
        <ele>105</ele>
        <time>2020-06-11T14:14:25Z</time>
      </trkpt>
      <trkpt lat="43.18321" lon="2.60769">
        <ele>105</ele>
        <time>2020-06-11T14:14:27Z</time>
      </trkpt>
      <trkpt lat="43.18329" lon="2.60743">
        <ele>105</ele>
        <time>2020-06-11T14:14:30Z</time>
      </trkpt>
      <trkpt lat="43.18331" lon="2.60735">
        <ele>105</ele>
        <time>2020-06-11T14:14:31Z</time>
      </trkpt>
      <trkpt lat="43.18337" lon="2.60717">
        <ele>104</ele>
        <time>2020-06-11T14:14:33Z</time>
      </trkpt>
      <trkpt lat="43.18339" lon="2.60708">
        <ele>105</ele>
        <time>2020-06-11T14:14:34Z</time>
      </trkpt>
      <trkpt lat="43.18345" lon="2.6069">
        <ele>105</ele>
        <time>2020-06-11T14:14:36Z</time>
      </trkpt>
      <trkpt lat="43.18353" lon="2.60662">
        <ele>105</ele>
        <time>2020-06-11T14:14:39Z</time>
      </trkpt>
      <trkpt lat="43.18361" lon="2.60635">
        <ele>106</ele>
        <time>2020-06-11T14:14:42Z</time>
      </trkpt>
      <trkpt lat="43.1837" lon="2.60596">
        <ele>106</ele>
        <time>2020-06-11T14:14:46Z</time>
      </trkpt>
      <trkpt lat="43.18373" lon="2.60576">
        <ele>107</ele>
        <time>2020-06-11T14:14:48Z</time>
      </trkpt>
      <trkpt lat="43.18374" lon="2.60566">
        <ele>107</ele>
        <time>2020-06-11T14:14:49Z</time>
      </trkpt>
      <trkpt lat="43.18375" lon="2.60525">
        <ele>107</ele>
        <time>2020-06-11T14:14:53Z</time>
      </trkpt>
      <trkpt lat="43.18375" lon="2.60515">
        <ele>107</ele>
        <time>2020-06-11T14:14:54Z</time>
      </trkpt>
      <trkpt lat="43.18377" lon="2.60495">
        <ele>107</ele>
        <time>2020-06-11T14:14:56Z</time>
      </trkpt>
      <trkpt lat="43.18381" lon="2.60476">
        <ele>107</ele>
        <time>2020-06-11T14:14:58Z</time>
      </trkpt>
      <trkpt lat="43.18386" lon="2.60457">
        <ele>107</ele>
        <time>2020-06-11T14:15:00Z</time>
      </trkpt>
      <trkpt lat="43.18397" lon="2.60419">
        <ele>106</ele>
        <time>2020-06-11T14:15:04Z</time>
      </trkpt>
      <trkpt lat="43.18399" lon="2.60409">
        <ele>105</ele>
        <time>2020-06-11T14:15:05Z</time>
      </trkpt>
      <trkpt lat="43.18402" lon="2.60399">
        <ele>105</ele>
        <time>2020-06-11T14:15:06Z</time>
      </trkpt>
      <trkpt lat="43.18409" lon="2.60372">
        <ele>104</ele>
        <time>2020-06-11T14:15:09Z</time>
      </trkpt>
      <trkpt lat="43.18412" lon="2.60364">
        <ele>104</ele>
        <time>2020-06-11T14:15:10Z</time>
      </trkpt>
      <trkpt lat="43.18414" lon="2.60356">
        <ele>103</ele>
        <time>2020-06-11T14:15:11Z</time>
      </trkpt>
      <trkpt lat="43.18418" lon="2.60342">
        <ele>103</ele>
        <time>2020-06-11T14:15:13Z</time>
      </trkpt>
      <trkpt lat="43.18425" lon="2.6032">
        <ele>102</ele>
        <time>2020-06-11T14:15:16Z</time>
      </trkpt>
      <trkpt lat="43.18428" lon="2.60312">
        <ele>102</ele>
        <time>2020-06-11T14:15:17Z</time>
      </trkpt>
      <trkpt lat="43.18433" lon="2.60294">
        <ele>101</ele>
        <time>2020-06-11T14:15:19Z</time>
      </trkpt>
      <trkpt lat="43.18446" lon="2.60248">
        <ele>97</ele>
        <time>2020-06-11T14:15:24Z</time>
      </trkpt>
      <trkpt lat="43.18451" lon="2.60229">
        <ele>97</ele>
        <time>2020-06-11T14:15:26Z</time>
      </trkpt>
      <trkpt lat="43.18456" lon="2.60209">
        <ele>97</ele>
        <time>2020-06-11T14:15:28Z</time>
      </trkpt>
      <trkpt lat="43.18468" lon="2.6017">
        <ele>98</ele>
        <time>2020-06-11T14:15:32Z</time>
      </trkpt>
      <trkpt lat="43.18476" lon="2.60141">
        <ele>98</ele>
        <time>2020-06-11T14:15:35Z</time>
      </trkpt>
      <trkpt lat="43.18484" lon="2.60111">
        <ele>97</ele>
        <time>2020-06-11T14:15:38Z</time>
      </trkpt>
      <trkpt lat="43.18487" lon="2.601">
        <ele>97</ele>
        <time>2020-06-11T14:15:39Z</time>
      </trkpt>
      <trkpt lat="43.18496" lon="2.6007">
        <ele>96</ele>
        <time>2020-06-11T14:15:42Z</time>
      </trkpt>
      <trkpt lat="43.18499" lon="2.60061">
        <ele>96</ele>
        <time>2020-06-11T14:15:43Z</time>
      </trkpt>
      <trkpt lat="43.18504" lon="2.60041">
        <ele>96</ele>
        <time>2020-06-11T14:15:45Z</time>
      </trkpt>
      <trkpt lat="43.18506" lon="2.60031">
        <ele>97</ele>
        <time>2020-06-11T14:15:46Z</time>
      </trkpt>
      <trkpt lat="43.18507" lon="2.6002">
        <ele>97</ele>
        <time>2020-06-11T14:15:47Z</time>
      </trkpt>
      <trkpt lat="43.18508" lon="2.6001">
        <ele>97</ele>
        <time>2020-06-11T14:15:48Z</time>
      </trkpt>
      <trkpt lat="43.18508" lon="2.59989">
        <ele>96</ele>
        <time>2020-06-11T14:15:50Z</time>
      </trkpt>
      <trkpt lat="43.18508" lon="2.59943">
        <ele>95</ele>
        <time>2020-06-11T14:15:55Z</time>
      </trkpt>
      <trkpt lat="43.18507" lon="2.59925">
        <ele>94</ele>
        <time>2020-06-11T14:15:57Z</time>
      </trkpt>
      <trkpt lat="43.18506" lon="2.59904">
        <ele>94</ele>
        <time>2020-06-11T14:16:00Z</time>
      </trkpt>
      <trkpt lat="43.18506" lon="2.59881">
        <ele>94</ele>
        <time>2020-06-11T14:16:04Z</time>
      </trkpt>
      <trkpt lat="43.18506" lon="2.59874">
        <ele>94</ele>
        <time>2020-06-11T14:16:05Z</time>
      </trkpt>
      <trkpt lat="43.18505" lon="2.59828">
        <ele>95</ele>
        <time>2020-06-11T14:16:11Z</time>
      </trkpt>
      <trkpt lat="43.18504" lon="2.59812">
        <ele>95</ele>
        <time>2020-06-11T14:16:13Z</time>
      </trkpt>
      <trkpt lat="43.18503" lon="2.59795">
        <ele>94</ele>
        <time>2020-06-11T14:16:15Z</time>
      </trkpt>
      <trkpt lat="43.18503" lon="2.59786">
        <ele>94</ele>
        <time>2020-06-11T14:16:16Z</time>
      </trkpt>
      <trkpt lat="43.18502" lon="2.59724">
        <ele>92</ele>
        <time>2020-06-11T14:16:23Z</time>
      </trkpt>
      <trkpt lat="43.18501" lon="2.59707">
        <ele>92</ele>
        <time>2020-06-11T14:16:25Z</time>
      </trkpt>
      <trkpt lat="43.185" lon="2.5965">
        <ele>93</ele>
        <time>2020-06-11T14:16:31Z</time>
      </trkpt>
      <trkpt lat="43.18499" lon="2.59628">
        <ele>92</ele>
        <time>2020-06-11T14:16:33Z</time>
      </trkpt>
      <trkpt lat="43.18498" lon="2.59607">
        <ele>91</ele>
        <time>2020-06-11T14:16:35Z</time>
      </trkpt>
      <trkpt lat="43.18498" lon="2.59565">
        <ele>90</ele>
        <time>2020-06-11T14:16:39Z</time>
      </trkpt>
      <trkpt lat="43.18499" lon="2.59554">
        <ele>90</ele>
        <time>2020-06-11T14:16:40Z</time>
      </trkpt>
      <trkpt lat="43.18498" lon="2.5952">
        <ele>90</ele>
        <time>2020-06-11T14:16:43Z</time>
      </trkpt>
      <trkpt lat="43.18498" lon="2.59486">
        <ele>88</ele>
        <time>2020-06-11T14:16:46Z</time>
      </trkpt>
      <trkpt lat="43.18498" lon="2.59474">
        <ele>88</ele>
        <time>2020-06-11T14:16:47Z</time>
      </trkpt>
      <trkpt lat="43.18497" lon="2.5945">
        <ele>87</ele>
        <time>2020-06-11T14:16:49Z</time>
      </trkpt>
      <trkpt lat="43.18496" lon="2.59401">
        <ele>87</ele>
        <time>2020-06-11T14:16:53Z</time>
      </trkpt>
      <trkpt lat="43.18495" lon="2.59377">
        <ele>87</ele>
        <time>2020-06-11T14:16:55Z</time>
      </trkpt>
      <trkpt lat="43.18494" lon="2.59341">
        <ele>85</ele>
        <time>2020-06-11T14:16:58Z</time>
      </trkpt>
      <trkpt lat="43.18494" lon="2.59329">
        <ele>85</ele>
        <time>2020-06-11T14:16:59Z</time>
      </trkpt>
      <trkpt lat="43.18493" lon="2.59317">
        <ele>84</ele>
        <time>2020-06-11T14:17:00Z</time>
      </trkpt>
      <trkpt lat="43.18493" lon="2.59294">
        <ele>84</ele>
        <time>2020-06-11T14:17:02Z</time>
      </trkpt>
      <trkpt lat="43.18493" lon="2.59282">
        <ele>83</ele>
        <time>2020-06-11T14:17:03Z</time>
      </trkpt>
      <trkpt lat="43.18492" lon="2.59271">
        <ele>83</ele>
        <time>2020-06-11T14:17:04Z</time>
      </trkpt>
      <trkpt lat="43.18492" lon="2.59247">
        <ele>82</ele>
        <time>2020-06-11T14:17:06Z</time>
      </trkpt>
      <trkpt lat="43.18491" lon="2.5921">
        <ele>82</ele>
        <time>2020-06-11T14:17:09Z</time>
      </trkpt>
      <trkpt lat="43.18491" lon="2.59174">
        <ele>82</ele>
        <time>2020-06-11T14:17:12Z</time>
      </trkpt>
      <trkpt lat="43.18491" lon="2.59162">
        <ele>83</ele>
        <time>2020-06-11T14:17:13Z</time>
      </trkpt>
      <trkpt lat="43.1849" lon="2.59127">
        <ele>83</ele>
        <time>2020-06-11T14:17:16Z</time>
      </trkpt>
      <trkpt lat="43.1849" lon="2.59116">
        <ele>83</ele>
        <time>2020-06-11T14:17:17Z</time>
      </trkpt>
      <trkpt lat="43.1849" lon="2.59105">
        <ele>83</ele>
        <time>2020-06-11T14:17:18Z</time>
      </trkpt>
      <trkpt lat="43.1849" lon="2.59093">
        <ele>82</ele>
        <time>2020-06-11T14:17:19Z</time>
      </trkpt>
      <trkpt lat="43.1849" lon="2.59061">
        <ele>82</ele>
        <time>2020-06-11T14:17:22Z</time>
      </trkpt>
      <trkpt lat="43.18492" lon="2.59042">
        <ele>82</ele>
        <time>2020-06-11T14:17:24Z</time>
      </trkpt>
      <trkpt lat="43.18492" lon="2.59023">
        <ele>82</ele>
        <time>2020-06-11T14:17:26Z</time>
      </trkpt>
      <trkpt lat="43.18489" lon="2.59005">
        <ele>82</ele>
        <time>2020-06-11T14:17:28Z</time>
      </trkpt>
      <trkpt lat="43.18484" lon="2.58979">
        <ele>83</ele>
        <time>2020-06-11T14:17:31Z</time>
      </trkpt>
      <trkpt lat="43.18479" lon="2.58953">
        <ele>83</ele>
        <time>2020-06-11T14:17:34Z</time>
      </trkpt>
      <trkpt lat="43.18474" lon="2.58936">
        <ele>83</ele>
        <time>2020-06-11T14:17:36Z</time>
      </trkpt>
      <trkpt lat="43.18472" lon="2.58927">
        <ele>83</ele>
        <time>2020-06-11T14:17:37Z</time>
      </trkpt>
      <trkpt lat="43.18468" lon="2.58909">
        <ele>83</ele>
        <time>2020-06-11T14:17:39Z</time>
      </trkpt>
      <trkpt lat="43.18464" lon="2.58883">
        <ele>84</ele>
        <time>2020-06-11T14:17:42Z</time>
      </trkpt>
      <trkpt lat="43.18461" lon="2.58867">
        <ele>84</ele>
        <time>2020-06-11T14:17:44Z</time>
      </trkpt>
      <trkpt lat="43.1845" lon="2.58837">
        <ele>85</ele>
        <time>2020-06-11T14:17:48Z</time>
      </trkpt>
      <trkpt lat="43.18448" lon="2.5883">
        <ele>85</ele>
        <time>2020-06-11T14:17:49Z</time>
      </trkpt>
      <trkpt lat="43.18446" lon="2.58823">
        <ele>85</ele>
        <time>2020-06-11T14:17:50Z</time>
      </trkpt>
      <trkpt lat="43.18439" lon="2.58788">
        <ele>85</ele>
        <time>2020-06-11T14:17:55Z</time>
      </trkpt>
      <trkpt lat="43.18436" lon="2.58772">
        <ele>84</ele>
        <time>2020-06-11T14:17:57Z</time>
      </trkpt>
      <trkpt lat="43.18432" lon="2.5874">
        <ele>84</ele>
        <time>2020-06-11T14:18:01Z</time>
      </trkpt>
      <trkpt lat="43.1843" lon="2.58732">
        <ele>84</ele>
        <time>2020-06-11T14:18:02Z</time>
      </trkpt>
      <trkpt lat="43.18424" lon="2.58718">
        <ele>84</ele>
        <time>2020-06-11T14:18:04Z</time>
      </trkpt>
      <trkpt lat="43.1842" lon="2.58713">
        <ele>85</ele>
        <time>2020-06-11T14:18:05Z</time>
      </trkpt>
      <trkpt lat="43.18415" lon="2.58709">
        <ele>85</ele>
        <time>2020-06-11T14:18:06Z</time>
      </trkpt>
      <trkpt lat="43.18399" lon="2.587">
        <ele>85</ele>
        <time>2020-06-11T14:18:09Z</time>
      </trkpt>
      <trkpt lat="43.18394" lon="2.58697">
        <ele>85</ele>
        <time>2020-06-11T14:18:10Z</time>
      </trkpt>
      <trkpt lat="43.18389" lon="2.58695">
        <ele>85</ele>
        <time>2020-06-11T14:18:11Z</time>
      </trkpt>
      <trkpt lat="43.18369" lon="2.58683">
        <ele>85</ele>
        <time>2020-06-11T14:18:15Z</time>
      </trkpt>
      <trkpt lat="43.18364" lon="2.58681">
        <ele>85</ele>
        <time>2020-06-11T14:18:16Z</time>
      </trkpt>
      <trkpt lat="43.18354" lon="2.58676">
        <ele>85</ele>
        <time>2020-06-11T14:18:18Z</time>
      </trkpt>
      <trkpt lat="43.18326" lon="2.58662">
        <ele>86</ele>
        <time>2020-06-11T14:18:23Z</time>
      </trkpt>
      <trkpt lat="43.1829" lon="2.58656">
        <ele>88</ele>
        <time>2020-06-11T14:18:29Z</time>
      </trkpt>
      <trkpt lat="43.18255" lon="2.58653">
        <ele>87</ele>
        <time>2020-06-11T14:18:35Z</time>
      </trkpt>
      <trkpt lat="43.18239" lon="2.58652">
        <ele>87</ele>
        <time>2020-06-11T14:18:38Z</time>
      </trkpt>
      <trkpt lat="43.18216" lon="2.58651">
        <ele>86</ele>
        <time>2020-06-11T14:18:42Z</time>
      </trkpt>
      <trkpt lat="43.1821" lon="2.5865">
        <ele>87</ele>
        <time>2020-06-11T14:18:43Z</time>
      </trkpt>
      <trkpt lat="43.18193" lon="2.58648">
        <ele>87</ele>
        <time>2020-06-11T14:18:46Z</time>
      </trkpt>
      <trkpt lat="43.18175" lon="2.58648">
        <ele>88</ele>
        <time>2020-06-11T14:18:49Z</time>
      </trkpt>
      <trkpt lat="43.1814" lon="2.58659">
        <ele>89</ele>
        <time>2020-06-11T14:18:55Z</time>
      </trkpt>
      <trkpt lat="43.18128" lon="2.58664">
        <ele>89</ele>
        <time>2020-06-11T14:18:57Z</time>
      </trkpt>
      <trkpt lat="43.18092" lon="2.5868">
        <ele>89</ele>
        <time>2020-06-11T14:19:03Z</time>
      </trkpt>
      <trkpt lat="43.1808" lon="2.58684">
        <ele>89</ele>
        <time>2020-06-11T14:19:05Z</time>
      </trkpt>
      <trkpt lat="43.18032" lon="2.58695">
        <ele>89</ele>
        <time>2020-06-11T14:19:13Z</time>
      </trkpt>
      <trkpt lat="43.18008" lon="2.58698">
        <ele>90</ele>
        <time>2020-06-11T14:19:17Z</time>
      </trkpt>
      <trkpt lat="43.17974" lon="2.58698">
        <ele>91</ele>
        <time>2020-06-11T14:19:23Z</time>
      </trkpt>
      <trkpt lat="43.17945" lon="2.58695">
        <ele>92</ele>
        <time>2020-06-11T14:19:28Z</time>
      </trkpt>
      <trkpt lat="43.17934" lon="2.58694">
        <ele>93</ele>
        <time>2020-06-11T14:19:30Z</time>
      </trkpt>
      <trkpt lat="43.17928" lon="2.58693">
        <ele>93</ele>
        <time>2020-06-11T14:19:31Z</time>
      </trkpt>
      <trkpt lat="43.17917" lon="2.58691">
        <ele>94</ele>
        <time>2020-06-11T14:19:33Z</time>
      </trkpt>
      <trkpt lat="43.17907" lon="2.58691">
        <ele>94</ele>
        <time>2020-06-11T14:19:35Z</time>
      </trkpt>
      <trkpt lat="43.17896" lon="2.5869">
        <ele>95</ele>
        <time>2020-06-11T14:19:37Z</time>
      </trkpt>
      <trkpt lat="43.17885" lon="2.58688">
        <ele>96</ele>
        <time>2020-06-11T14:19:39Z</time>
      </trkpt>
      <trkpt lat="43.17874" lon="2.58685">
        <ele>96</ele>
        <time>2020-06-11T14:19:41Z</time>
      </trkpt>
      <trkpt lat="43.17868" lon="2.58684">
        <ele>96</ele>
        <time>2020-06-11T14:19:42Z</time>
      </trkpt>
      <trkpt lat="43.17852" lon="2.58682">
        <ele>96</ele>
        <time>2020-06-11T14:19:45Z</time>
      </trkpt>
      <trkpt lat="43.17847" lon="2.58682">
        <ele>97</ele>
        <time>2020-06-11T14:19:46Z</time>
      </trkpt>
      <trkpt lat="43.17834" lon="2.58679">
        <ele>97</ele>
        <time>2020-06-11T14:19:49Z</time>
      </trkpt>
      <trkpt lat="43.17811" lon="2.58676">
        <ele>99</ele>
        <time>2020-06-11T14:19:54Z</time>
      </trkpt>
      <trkpt lat="43.17807" lon="2.58675">
        <ele>99</ele>
        <time>2020-06-11T14:19:55Z</time>
      </trkpt>
      <trkpt lat="43.17778" lon="2.58672">
        <ele>102</ele>
        <time>2020-06-11T14:20:02Z</time>
      </trkpt>
      <trkpt lat="43.1777" lon="2.58671">
        <ele>102</ele>
        <time>2020-06-11T14:20:04Z</time>
      </trkpt>
      <trkpt lat="43.17763" lon="2.5867">
        <ele>102</ele>
        <time>2020-06-11T14:20:06Z</time>
      </trkpt>
      <trkpt lat="43.17748" lon="2.58668">
        <ele>103</ele>
        <time>2020-06-11T14:20:10Z</time>
      </trkpt>
      <trkpt lat="43.17745" lon="2.58667">
        <ele>103</ele>
        <time>2020-06-11T14:20:11Z</time>
      </trkpt>
      <trkpt lat="43.17738" lon="2.58666">
        <ele>103</ele>
        <time>2020-06-11T14:20:13Z</time>
      </trkpt>
      <trkpt lat="43.17724" lon="2.58663">
        <ele>103</ele>
        <time>2020-06-11T14:20:17Z</time>
      </trkpt>
      <trkpt lat="43.17714" lon="2.5866">
        <ele>104</ele>
        <time>2020-06-11T14:20:20Z</time>
      </trkpt>
      <trkpt lat="43.17694" lon="2.58654">
        <ele>105</ele>
        <time>2020-06-11T14:20:26Z</time>
      </trkpt>
      <trkpt lat="43.17683" lon="2.5865">
        <ele>106</ele>
        <time>2020-06-11T14:20:29Z</time>
      </trkpt>
      <trkpt lat="43.17679" lon="2.58649">
        <ele>107</ele>
        <time>2020-06-11T14:20:30Z</time>
      </trkpt>
      <trkpt lat="43.17668" lon="2.58645">
        <ele>107</ele>
        <time>2020-06-11T14:20:33Z</time>
      </trkpt>
      <trkpt lat="43.17658" lon="2.58642">
        <ele>108</ele>
        <time>2020-06-11T14:20:36Z</time>
      </trkpt>
      <trkpt lat="43.17648" lon="2.5864">
        <ele>109</ele>
        <time>2020-06-11T14:20:39Z</time>
      </trkpt>
      <trkpt lat="43.17631" lon="2.58639">
        <ele>110</ele>
        <time>2020-06-11T14:20:44Z</time>
      </trkpt>
      <trkpt lat="43.17628" lon="2.5864">
        <ele>110</ele>
        <time>2020-06-11T14:20:45Z</time>
      </trkpt>
      <trkpt lat="43.17621" lon="2.58641">
        <ele>111</ele>
        <time>2020-06-11T14:20:47Z</time>
      </trkpt>
      <trkpt lat="43.17603" lon="2.58647">
        <ele>112</ele>
        <time>2020-06-11T14:20:53Z</time>
      </trkpt>
      <trkpt lat="43.17591" lon="2.58653">
        <ele>112</ele>
        <time>2020-06-11T14:20:57Z</time>
      </trkpt>
      <trkpt lat="43.17582" lon="2.58656">
        <ele>112</ele>
        <time>2020-06-11T14:21:00Z</time>
      </trkpt>
      <trkpt lat="43.17567" lon="2.58658">
        <ele>113</ele>
        <time>2020-06-11T14:21:05Z</time>
      </trkpt>
      <trkpt lat="43.17554" lon="2.5866">
        <ele>113</ele>
        <time>2020-06-11T14:21:09Z</time>
      </trkpt>
      <trkpt lat="43.17544" lon="2.58661">
        <ele>113</ele>
        <time>2020-06-11T14:21:12Z</time>
      </trkpt>
      <trkpt lat="43.17526" lon="2.58665">
        <ele>114</ele>
        <time>2020-06-11T14:21:18Z</time>
      </trkpt>
      <trkpt lat="43.17503" lon="2.58675">
        <ele>114</ele>
        <time>2020-06-11T14:21:26Z</time>
      </trkpt>
      <trkpt lat="43.17489" lon="2.58683">
        <ele>115</ele>
        <time>2020-06-11T14:21:31Z</time>
      </trkpt>
      <trkpt lat="43.17477" lon="2.58691">
        <ele>116</ele>
        <time>2020-06-11T14:21:35Z</time>
      </trkpt>
      <trkpt lat="43.17462" lon="2.58697">
        <ele>117</ele>
        <time>2020-06-11T14:21:39Z</time>
      </trkpt>
      <trkpt lat="43.17443" lon="2.58704">
        <ele>119</ele>
        <time>2020-06-11T14:21:44Z</time>
      </trkpt>
      <trkpt lat="43.1744" lon="2.58706">
        <ele>120</ele>
        <time>2020-06-11T14:21:45Z</time>
      </trkpt>
      <trkpt lat="43.17418" lon="2.58716">
        <ele>122</ele>
        <time>2020-06-11T14:21:51Z</time>
      </trkpt>
      <trkpt lat="43.17406" lon="2.58722">
        <ele>122</ele>
        <time>2020-06-11T14:21:55Z</time>
      </trkpt>
      <trkpt lat="43.17389" lon="2.58732">
        <ele>123</ele>
        <time>2020-06-11T14:22:00Z</time>
      </trkpt>
      <trkpt lat="43.17358" lon="2.58748">
        <ele>123</ele>
        <time>2020-06-11T14:22:08Z</time>
      </trkpt>
      <trkpt lat="43.17321" lon="2.58754">
        <ele>123</ele>
        <time>2020-06-11T14:22:16Z</time>
      </trkpt>
      <trkpt lat="43.17295" lon="2.58756">
        <ele>122</ele>
        <time>2020-06-11T14:22:21Z</time>
      </trkpt>
      <trkpt lat="43.17289" lon="2.58756">
        <ele>121</ele>
        <time>2020-06-11T14:22:22Z</time>
      </trkpt>
      <trkpt lat="43.17284" lon="2.58755">
        <ele>121</ele>
        <time>2020-06-11T14:22:23Z</time>
      </trkpt>
      <trkpt lat="43.17279" lon="2.58752">
        <ele>121</ele>
        <time>2020-06-11T14:22:24Z</time>
      </trkpt>
      <trkpt lat="43.17274" lon="2.58748">
        <ele>121</ele>
        <time>2020-06-11T14:22:25Z</time>
      </trkpt>
      <trkpt lat="43.17269" lon="2.58744">
        <ele>121</ele>
        <time>2020-06-11T14:22:26Z</time>
      </trkpt>
      <trkpt lat="43.1726" lon="2.58735">
        <ele>121</ele>
        <time>2020-06-11T14:22:28Z</time>
      </trkpt>
      <trkpt lat="43.17256" lon="2.5873">
        <ele>121</ele>
        <time>2020-06-11T14:22:29Z</time>
      </trkpt>
      <trkpt lat="43.1724" lon="2.5871">
        <ele>122</ele>
        <time>2020-06-11T14:22:33Z</time>
      </trkpt>
      <trkpt lat="43.17231" lon="2.58699">
        <ele>122</ele>
        <time>2020-06-11T14:22:35Z</time>
      </trkpt>
      <trkpt lat="43.17214" lon="2.58677">
        <ele>122</ele>
        <time>2020-06-11T14:22:39Z</time>
      </trkpt>
      <trkpt lat="43.17205" lon="2.58665">
        <ele>123</ele>
        <time>2020-06-11T14:22:41Z</time>
      </trkpt>
      <trkpt lat="43.17201" lon="2.58659">
        <ele>123</ele>
        <time>2020-06-11T14:22:42Z</time>
      </trkpt>
      <trkpt lat="43.17196" lon="2.58653">
        <ele>122</ele>
        <time>2020-06-11T14:22:43Z</time>
      </trkpt>
      <trkpt lat="43.17179" lon="2.58627">
        <ele>122</ele>
        <time>2020-06-11T14:22:47Z</time>
      </trkpt>
      <trkpt lat="43.17175" lon="2.5862">
        <ele>122</ele>
        <time>2020-06-11T14:22:48Z</time>
      </trkpt>
      <trkpt lat="43.1716" lon="2.58573">
        <ele>121</ele>
        <time>2020-06-11T14:22:54Z</time>
      </trkpt>
      <trkpt lat="43.17155" lon="2.58557">
        <ele>121</ele>
        <time>2020-06-11T14:22:56Z</time>
      </trkpt>
      <trkpt lat="43.17146" lon="2.58527">
        <ele>122</ele>
        <time>2020-06-11T14:23:00Z</time>
      </trkpt>
      <trkpt lat="43.17142" lon="2.58513">
        <ele>123</ele>
        <time>2020-06-11T14:23:02Z</time>
      </trkpt>
      <trkpt lat="43.17135" lon="2.58488">
        <ele>124</ele>
        <time>2020-06-11T14:23:06Z</time>
      </trkpt>
      <trkpt lat="43.17129" lon="2.5847">
        <ele>124</ele>
        <time>2020-06-11T14:23:09Z</time>
      </trkpt>
      <trkpt lat="43.17128" lon="2.58464">
        <ele>124</ele>
        <time>2020-06-11T14:23:10Z</time>
      </trkpt>
      <trkpt lat="43.17124" lon="2.58452">
        <ele>124</ele>
        <time>2020-06-11T14:23:12Z</time>
      </trkpt>
      <trkpt lat="43.17114" lon="2.58422">
        <ele>125</ele>
        <time>2020-06-11T14:23:17Z</time>
      </trkpt>
      <trkpt lat="43.1711" lon="2.5841">
        <ele>126</ele>
        <time>2020-06-11T14:23:19Z</time>
      </trkpt>
      <trkpt lat="43.17108" lon="2.58404">
        <ele>126</ele>
        <time>2020-06-11T14:23:20Z</time>
      </trkpt>
      <trkpt lat="43.17106" lon="2.58398">
        <ele>126</ele>
        <time>2020-06-11T14:23:21Z</time>
      </trkpt>
      <trkpt lat="43.17105" lon="2.58392">
        <ele>126</ele>
        <time>2020-06-11T14:23:22Z</time>
      </trkpt>
      <trkpt lat="43.17101" lon="2.58375">
        <ele>127</ele>
        <time>2020-06-11T14:23:25Z</time>
      </trkpt>
      <trkpt lat="43.171" lon="2.5837">
        <ele>127</ele>
        <time>2020-06-11T14:23:26Z</time>
      </trkpt>
      <trkpt lat="43.17097" lon="2.58352">
        <ele>128</ele>
        <time>2020-06-11T14:23:29Z</time>
      </trkpt>
      <trkpt lat="43.17095" lon="2.5833">
        <ele>128</ele>
        <time>2020-06-11T14:23:33Z</time>
      </trkpt>
      <trkpt lat="43.17093" lon="2.58312">
        <ele>129</ele>
        <time>2020-06-11T14:23:37Z</time>
      </trkpt>
      <trkpt lat="43.17091" lon="2.58301">
        <ele>130</ele>
        <time>2020-06-11T14:23:39Z</time>
      </trkpt>
      <trkpt lat="43.17089" lon="2.58292">
        <ele>130</ele>
        <time>2020-06-11T14:23:41Z</time>
      </trkpt>
      <trkpt lat="43.17083" lon="2.58275">
        <ele>132</ele>
        <time>2020-06-11T14:23:45Z</time>
      </trkpt>
      <trkpt lat="43.17078" lon="2.58261">
        <ele>133</ele>
        <time>2020-06-11T14:23:48Z</time>
      </trkpt>
      <trkpt lat="43.17074" lon="2.58246">
        <ele>133</ele>
        <time>2020-06-11T14:23:51Z</time>
      </trkpt>
      <trkpt lat="43.17073" lon="2.58236">
        <ele>134</ele>
        <time>2020-06-11T14:23:53Z</time>
      </trkpt>
      <trkpt lat="43.17075" lon="2.5822">
        <ele>135</ele>
        <time>2020-06-11T14:23:56Z</time>
      </trkpt>
      <trkpt lat="43.1708" lon="2.58189">
        <ele>138</ele>
        <time>2020-06-11T14:24:02Z</time>
      </trkpt>
      <trkpt lat="43.17081" lon="2.58184">
        <ele>139</ele>
        <time>2020-06-11T14:24:03Z</time>
      </trkpt>
      <trkpt lat="43.17084" lon="2.58164">
        <ele>140</ele>
        <time>2020-06-11T14:24:07Z</time>
      </trkpt>
      <trkpt lat="43.17084" lon="2.58153">
        <ele>140</ele>
        <time>2020-06-11T14:24:09Z</time>
      </trkpt>
      <trkpt lat="43.17084" lon="2.58148">
        <ele>141</ele>
        <time>2020-06-11T14:24:10Z</time>
      </trkpt>
      <trkpt lat="43.17078" lon="2.5812">
        <ele>143</ele>
        <time>2020-06-11T14:24:16Z</time>
      </trkpt>
      <trkpt lat="43.17077" lon="2.58116">
        <ele>143</ele>
        <time>2020-06-11T14:24:17Z</time>
      </trkpt>
      <trkpt lat="43.17075" lon="2.58108">
        <ele>143</ele>
        <time>2020-06-11T14:24:19Z</time>
      </trkpt>
      <trkpt lat="43.17072" lon="2.58093">
        <ele>143</ele>
        <time>2020-06-11T14:24:22Z</time>
      </trkpt>
      <trkpt lat="43.17062" lon="2.58066">
        <ele>143</ele>
        <time>2020-06-11T14:24:26Z</time>
      </trkpt>
      <trkpt lat="43.17051" lon="2.58038">
        <ele>141</ele>
        <time>2020-06-11T14:24:29Z</time>
      </trkpt>
      <trkpt lat="43.17048" lon="2.58028">
        <ele>141</ele>
        <time>2020-06-11T14:24:30Z</time>
      </trkpt>
      <trkpt lat="43.17046" lon="2.58017">
        <ele>141</ele>
        <time>2020-06-11T14:24:31Z</time>
      </trkpt>
      <trkpt lat="43.17044" lon="2.58006">
        <ele>141</ele>
        <time>2020-06-11T14:24:32Z</time>
      </trkpt>
      <trkpt lat="43.17042" lon="2.57995">
        <ele>141</ele>
        <time>2020-06-11T14:24:33Z</time>
      </trkpt>
      <trkpt lat="43.17041" lon="2.57974">
        <ele>141</ele>
        <time>2020-06-11T14:24:35Z</time>
      </trkpt>
      <trkpt lat="43.1704" lon="2.57963">
        <ele>141</ele>
        <time>2020-06-11T14:24:36Z</time>
      </trkpt>
      <trkpt lat="43.17039" lon="2.57934">
        <ele>141</ele>
        <time>2020-06-11T14:24:39Z</time>
      </trkpt>
      <trkpt lat="43.17039" lon="2.57926">
        <ele>141</ele>
        <time>2020-06-11T14:24:40Z</time>
      </trkpt>
      <trkpt lat="43.1704" lon="2.5791">
        <ele>141</ele>
        <time>2020-06-11T14:24:42Z</time>
      </trkpt>
      <trkpt lat="43.17044" lon="2.57894">
        <ele>141</ele>
        <time>2020-06-11T14:24:44Z</time>
      </trkpt>
      <trkpt lat="43.17045" lon="2.57885">
        <ele>141</ele>
        <time>2020-06-11T14:24:45Z</time>
      </trkpt>
      <trkpt lat="43.17049" lon="2.57866">
        <ele>141</ele>
        <time>2020-06-11T14:24:47Z</time>
      </trkpt>
      <trkpt lat="43.17053" lon="2.57845">
        <ele>139</ele>
        <time>2020-06-11T14:24:49Z</time>
      </trkpt>
      <trkpt lat="43.17054" lon="2.57834">
        <ele>139</ele>
        <time>2020-06-11T14:24:50Z</time>
      </trkpt>
      <trkpt lat="43.1706" lon="2.57803">
        <ele>138</ele>
        <time>2020-06-11T14:24:53Z</time>
      </trkpt>
      <trkpt lat="43.17062" lon="2.57794">
        <ele>139</ele>
        <time>2020-06-11T14:24:54Z</time>
      </trkpt>
      <trkpt lat="43.17066" lon="2.57777">
        <ele>139</ele>
        <time>2020-06-11T14:24:56Z</time>
      </trkpt>
      <trkpt lat="43.17072" lon="2.57753">
        <ele>140</ele>
        <time>2020-06-11T14:24:59Z</time>
      </trkpt>
      <trkpt lat="43.17073" lon="2.57746">
        <ele>140</ele>
        <time>2020-06-11T14:25:00Z</time>
      </trkpt>
      <trkpt lat="43.17075" lon="2.57739">
        <ele>140</ele>
        <time>2020-06-11T14:25:01Z</time>
      </trkpt>
      <trkpt lat="43.17079" lon="2.57724">
        <ele>140</ele>
        <time>2020-06-11T14:25:04Z</time>
      </trkpt>
      <trkpt lat="43.1708" lon="2.57724">
        <ele>140</ele>
        <time>2020-06-11T14:25:06Z</time>
      </trkpt>
      <trkpt lat="43.17081" lon="2.57721">
        <ele>140</ele>
        <time>2020-06-11T14:29:15Z</time>
      </trkpt>
      <trkpt lat="43.17082" lon="2.57719">
        <ele>140</ele>
        <time>2020-06-11T14:29:16Z</time>
      </trkpt>
      <trkpt lat="43.17085" lon="2.57706">
        <ele>139</ele>
        <time>2020-06-11T14:29:20Z</time>
      </trkpt>
      <trkpt lat="43.17086" lon="2.57701">
        <ele>139</ele>
        <time>2020-06-11T14:29:21Z</time>
      </trkpt>
      <trkpt lat="43.17088" lon="2.57696">
        <ele>139</ele>
        <time>2020-06-11T14:29:22Z</time>
      </trkpt>
      <trkpt lat="43.17091" lon="2.57684">
        <ele>138</ele>
        <time>2020-06-11T14:29:24Z</time>
      </trkpt>
      <trkpt lat="43.17093" lon="2.57677">
        <ele>137</ele>
        <time>2020-06-11T14:29:25Z</time>
      </trkpt>
      <trkpt lat="43.17095" lon="2.57669">
        <ele>137</ele>
        <time>2020-06-11T14:29:26Z</time>
      </trkpt>
      <trkpt lat="43.171" lon="2.57643">
        <ele>136</ele>
        <time>2020-06-11T14:29:29Z</time>
      </trkpt>
      <trkpt lat="43.17105" lon="2.57624">
        <ele>136</ele>
        <time>2020-06-11T14:29:31Z</time>
      </trkpt>
      <trkpt lat="43.17107" lon="2.57614">
        <ele>136</ele>
        <time>2020-06-11T14:29:32Z</time>
      </trkpt>
      <trkpt lat="43.17109" lon="2.57603">
        <ele>136</ele>
        <time>2020-06-11T14:29:33Z</time>
      </trkpt>
      <trkpt lat="43.17118" lon="2.57568">
        <ele>135</ele>
        <time>2020-06-11T14:29:36Z</time>
      </trkpt>
      <trkpt lat="43.17121" lon="2.57556">
        <ele>134</ele>
        <time>2020-06-11T14:29:37Z</time>
      </trkpt>
      <trkpt lat="43.17124" lon="2.57544">
        <ele>133</ele>
        <time>2020-06-11T14:29:38Z</time>
      </trkpt>
      <trkpt lat="43.17127" lon="2.57531">
        <ele>133</ele>
        <time>2020-06-11T14:29:39Z</time>
      </trkpt>
      <trkpt lat="43.1713" lon="2.57518">
        <ele>132</ele>
        <time>2020-06-11T14:29:40Z</time>
      </trkpt>
      <trkpt lat="43.17139" lon="2.57479">
        <ele>133</ele>
        <time>2020-06-11T14:29:43Z</time>
      </trkpt>
      <trkpt lat="43.17146" lon="2.57455">
        <ele>133</ele>
        <time>2020-06-11T14:29:45Z</time>
      </trkpt>
      <trkpt lat="43.17154" lon="2.57432">
        <ele>133</ele>
        <time>2020-06-11T14:29:47Z</time>
      </trkpt>
      <trkpt lat="43.17159" lon="2.57421">
        <ele>132</ele>
        <time>2020-06-11T14:29:48Z</time>
      </trkpt>
      <trkpt lat="43.17169" lon="2.574">
        <ele>130</ele>
        <time>2020-06-11T14:29:50Z</time>
      </trkpt>
      <trkpt lat="43.17185" lon="2.57371">
        <ele>129</ele>
        <time>2020-06-11T14:29:53Z</time>
      </trkpt>
      <trkpt lat="43.17193" lon="2.5735">
        <ele>128</ele>
        <time>2020-06-11T14:29:55Z</time>
      </trkpt>
      <trkpt lat="43.17196" lon="2.57339">
        <ele>128</ele>
        <time>2020-06-11T14:29:56Z</time>
      </trkpt>
      <trkpt lat="43.17199" lon="2.57327">
        <ele>128</ele>
        <time>2020-06-11T14:29:57Z</time>
      </trkpt>
      <trkpt lat="43.17205" lon="2.57303">
        <ele>128</ele>
        <time>2020-06-11T14:29:59Z</time>
      </trkpt>
      <trkpt lat="43.17213" lon="2.57253">
        <ele>128</ele>
        <time>2020-06-11T14:30:03Z</time>
      </trkpt>
      <trkpt lat="43.17215" lon="2.57241">
        <ele>128</ele>
        <time>2020-06-11T14:30:04Z</time>
      </trkpt>
      <trkpt lat="43.17223" lon="2.57204">
        <ele>127</ele>
        <time>2020-06-11T14:30:07Z</time>
      </trkpt>
      <trkpt lat="43.17228" lon="2.57193">
        <ele>126</ele>
        <time>2020-06-11T14:30:08Z</time>
      </trkpt>
      <trkpt lat="43.17234" lon="2.57183">
        <ele>125</ele>
        <time>2020-06-11T14:30:09Z</time>
      </trkpt>
      <trkpt lat="43.1724" lon="2.57174">
        <ele>124</ele>
        <time>2020-06-11T14:30:10Z</time>
      </trkpt>
      <trkpt lat="43.17245" lon="2.57165">
        <ele>124</ele>
        <time>2020-06-11T14:30:11Z</time>
      </trkpt>
      <trkpt lat="43.17251" lon="2.57155">
        <ele>124</ele>
        <time>2020-06-11T14:30:12Z</time>
      </trkpt>
      <trkpt lat="43.17256" lon="2.57145">
        <ele>124</ele>
        <time>2020-06-11T14:30:13Z</time>
      </trkpt>
      <trkpt lat="43.17267" lon="2.57112">
        <ele>124</ele>
        <time>2020-06-11T14:30:16Z</time>
      </trkpt>
      <trkpt lat="43.17269" lon="2.571">
        <ele>124</ele>
        <time>2020-06-11T14:30:17Z</time>
      </trkpt>
      <trkpt lat="43.17272" lon="2.57077">
        <ele>125</ele>
        <time>2020-06-11T14:30:19Z</time>
      </trkpt>
      <trkpt lat="43.17274" lon="2.57065">
        <ele>125</ele>
        <time>2020-06-11T14:30:20Z</time>
      </trkpt>
      <trkpt lat="43.17276" lon="2.57053">
        <ele>125</ele>
        <time>2020-06-11T14:30:21Z</time>
      </trkpt>
      <trkpt lat="43.17284" lon="2.5702">
        <ele>124</ele>
        <time>2020-06-11T14:30:24Z</time>
      </trkpt>
      <trkpt lat="43.1729" lon="2.57">
        <ele>124</ele>
        <time>2020-06-11T14:30:26Z</time>
      </trkpt>
      <trkpt lat="43.17293" lon="2.5699">
        <ele>125</ele>
        <time>2020-06-11T14:30:27Z</time>
      </trkpt>
      <trkpt lat="43.17301" lon="2.56958">
        <ele>125</ele>
        <time>2020-06-11T14:30:30Z</time>
      </trkpt>
      <trkpt lat="43.17303" lon="2.56947">
        <ele>125</ele>
        <time>2020-06-11T14:30:31Z</time>
      </trkpt>
      <trkpt lat="43.17304" lon="2.56936">
        <ele>125</ele>
        <time>2020-06-11T14:30:32Z</time>
      </trkpt>
      <trkpt lat="43.17308" lon="2.56876">
        <ele>126</ele>
        <time>2020-06-11T14:30:37Z</time>
      </trkpt>
      <trkpt lat="43.17309" lon="2.56851">
        <ele>127</ele>
        <time>2020-06-11T14:30:39Z</time>
      </trkpt>
      <trkpt lat="43.17314" lon="2.56811">
        <ele>128</ele>
        <time>2020-06-11T14:30:42Z</time>
      </trkpt>
      <trkpt lat="43.17318" lon="2.56798">
        <ele>129</ele>
        <time>2020-06-11T14:30:43Z</time>
      </trkpt>
      <trkpt lat="43.17323" lon="2.56786">
        <ele>129</ele>
        <time>2020-06-11T14:30:44Z</time>
      </trkpt>
      <trkpt lat="43.17329" lon="2.56775">
        <ele>129</ele>
        <time>2020-06-11T14:30:45Z</time>
      </trkpt>
      <trkpt lat="43.17335" lon="2.56764">
        <ele>129</ele>
        <time>2020-06-11T14:30:46Z</time>
      </trkpt>
      <trkpt lat="43.1734" lon="2.56753">
        <ele>129</ele>
        <time>2020-06-11T14:30:47Z</time>
      </trkpt>
      <trkpt lat="43.17344" lon="2.56741">
        <ele>129</ele>
        <time>2020-06-11T14:30:48Z</time>
      </trkpt>
      <trkpt lat="43.17347" lon="2.56728">
        <ele>129</ele>
        <time>2020-06-11T14:30:49Z</time>
      </trkpt>
      <trkpt lat="43.17352" lon="2.56702">
        <ele>129</ele>
        <time>2020-06-11T14:30:51Z</time>
      </trkpt>
      <trkpt lat="43.17355" lon="2.5669">
        <ele>128</ele>
        <time>2020-06-11T14:30:52Z</time>
      </trkpt>
      <trkpt lat="43.17357" lon="2.56677">
        <ele>128</ele>
        <time>2020-06-11T14:30:53Z</time>
      </trkpt>
      <trkpt lat="43.17367" lon="2.56627">
        <ele>127</ele>
        <time>2020-06-11T14:30:57Z</time>
      </trkpt>
      <trkpt lat="43.17369" lon="2.56614">
        <ele>126</ele>
        <time>2020-06-11T14:30:58Z</time>
      </trkpt>
      <trkpt lat="43.17372" lon="2.56601">
        <ele>127</ele>
        <time>2020-06-11T14:30:59Z</time>
      </trkpt>
      <trkpt lat="43.17378" lon="2.56576">
        <ele>127</ele>
        <time>2020-06-11T14:31:01Z</time>
      </trkpt>
      <trkpt lat="43.17382" lon="2.56564">
        <ele>127</ele>
        <time>2020-06-11T14:31:02Z</time>
      </trkpt>
      <trkpt lat="43.17386" lon="2.56552">
        <ele>127</ele>
        <time>2020-06-11T14:31:03Z</time>
      </trkpt>
      <trkpt lat="43.17408" lon="2.56511">
        <ele>126</ele>
        <time>2020-06-11T14:31:07Z</time>
      </trkpt>
      <trkpt lat="43.17432" lon="2.56465">
        <ele>128</ele>
        <time>2020-06-11T14:31:12Z</time>
      </trkpt>
      <trkpt lat="43.17435" lon="2.56455">
        <ele>128</ele>
        <time>2020-06-11T14:31:13Z</time>
      </trkpt>
      <trkpt lat="43.17438" lon="2.56446">
        <ele>129</ele>
        <time>2020-06-11T14:31:14Z</time>
      </trkpt>
      <trkpt lat="43.17439" lon="2.56436">
        <ele>129</ele>
        <time>2020-06-11T14:31:15Z</time>
      </trkpt>
      <trkpt lat="43.1744" lon="2.56417">
        <ele>129</ele>
        <time>2020-06-11T14:31:17Z</time>
      </trkpt>
      <trkpt lat="43.17439" lon="2.56397">
        <ele>128</ele>
        <time>2020-06-11T14:31:19Z</time>
      </trkpt>
      <trkpt lat="43.17438" lon="2.56387">
        <ele>127</ele>
        <time>2020-06-11T14:31:20Z</time>
      </trkpt>
      <trkpt lat="43.17437" lon="2.56376">
        <ele>127</ele>
        <time>2020-06-11T14:31:21Z</time>
      </trkpt>
      <trkpt lat="43.17436" lon="2.56365">
        <ele>127</ele>
        <time>2020-06-11T14:31:22Z</time>
      </trkpt>
      <trkpt lat="43.17435" lon="2.56354">
        <ele>127</ele>
        <time>2020-06-11T14:31:23Z</time>
      </trkpt>
      <trkpt lat="43.17434" lon="2.56342">
        <ele>127</ele>
        <time>2020-06-11T14:31:24Z</time>
      </trkpt>
      <trkpt lat="43.1743" lon="2.5629">
        <ele>125</ele>
        <time>2020-06-11T14:31:28Z</time>
      </trkpt>
      <trkpt lat="43.1743" lon="2.56276">
        <ele>124</ele>
        <time>2020-06-11T14:31:29Z</time>
      </trkpt>
      <trkpt lat="43.17435" lon="2.56249">
        <ele>123</ele>
        <time>2020-06-11T14:31:31Z</time>
      </trkpt>
      <trkpt lat="43.17439" lon="2.56237">
        <ele>123</ele>
        <time>2020-06-11T14:31:32Z</time>
      </trkpt>
      <trkpt lat="43.17447" lon="2.56212">
        <ele>123</ele>
        <time>2020-06-11T14:31:34Z</time>
      </trkpt>
      <trkpt lat="43.17451" lon="2.562">
        <ele>123</ele>
        <time>2020-06-11T14:31:35Z</time>
      </trkpt>
      <trkpt lat="43.17459" lon="2.56177">
        <ele>125</ele>
        <time>2020-06-11T14:31:37Z</time>
      </trkpt>
      <trkpt lat="43.17463" lon="2.56165">
        <ele>125</ele>
        <time>2020-06-11T14:31:38Z</time>
      </trkpt>
      <trkpt lat="43.17478" lon="2.56123">
        <ele>124</ele>
        <time>2020-06-11T14:31:42Z</time>
      </trkpt>
      <trkpt lat="43.17481" lon="2.56113">
        <ele>123</ele>
        <time>2020-06-11T14:31:43Z</time>
      </trkpt>
      <trkpt lat="43.17485" lon="2.56104">
        <ele>123</ele>
        <time>2020-06-11T14:31:44Z</time>
      </trkpt>
      <trkpt lat="43.17491" lon="2.56086">
        <ele>123</ele>
        <time>2020-06-11T14:31:46Z</time>
      </trkpt>
      <trkpt lat="43.17494" lon="2.56077">
        <ele>124</ele>
        <time>2020-06-11T14:31:47Z</time>
      </trkpt>
      <trkpt lat="43.17497" lon="2.56069">
        <ele>124</ele>
        <time>2020-06-11T14:31:48Z</time>
      </trkpt>
      <trkpt lat="43.17503" lon="2.56053">
        <ele>125</ele>
        <time>2020-06-11T14:31:50Z</time>
      </trkpt>
      <trkpt lat="43.17509" lon="2.56025">
        <ele>124</ele>
        <time>2020-06-11T14:31:53Z</time>
      </trkpt>
      <trkpt lat="43.17513" lon="2.56007">
        <ele>123</ele>
        <time>2020-06-11T14:31:55Z</time>
      </trkpt>
      <trkpt lat="43.17514" lon="2.55998">
        <ele>123</ele>
        <time>2020-06-11T14:31:56Z</time>
      </trkpt>
      <trkpt lat="43.17519" lon="2.55981">
        <ele>123</ele>
        <time>2020-06-11T14:31:58Z</time>
      </trkpt>
      <trkpt lat="43.17525" lon="2.55966">
        <ele>123</ele>
        <time>2020-06-11T14:32:00Z</time>
      </trkpt>
      <trkpt lat="43.17534" lon="2.55954">
        <ele>123</ele>
        <time>2020-06-11T14:32:02Z</time>
      </trkpt>
      <trkpt lat="43.17544" lon="2.55944">
        <ele>123</ele>
        <time>2020-06-11T14:32:04Z</time>
      </trkpt>
      <trkpt lat="43.1755" lon="2.55939">
        <ele>123</ele>
        <time>2020-06-11T14:32:05Z</time>
      </trkpt>
      <trkpt lat="43.17567" lon="2.5592">
        <ele>122</ele>
        <time>2020-06-11T14:32:08Z</time>
      </trkpt>
      <trkpt lat="43.17572" lon="2.55911">
        <ele>122</ele>
        <time>2020-06-11T14:32:09Z</time>
      </trkpt>
      <trkpt lat="43.17581" lon="2.55891">
        <ele>121</ele>
        <time>2020-06-11T14:32:11Z</time>
      </trkpt>
      <trkpt lat="43.17584" lon="2.5588">
        <ele>120</ele>
        <time>2020-06-11T14:32:12Z</time>
      </trkpt>
      <trkpt lat="43.17587" lon="2.55869">
        <ele>120</ele>
        <time>2020-06-11T14:32:13Z</time>
      </trkpt>
      <trkpt lat="43.17591" lon="2.55857">
        <ele>120</ele>
        <time>2020-06-11T14:32:14Z</time>
      </trkpt>
      <trkpt lat="43.17594" lon="2.55846">
        <ele>120</ele>
        <time>2020-06-11T14:32:15Z</time>
      </trkpt>
      <trkpt lat="43.176" lon="2.55823">
        <ele>120</ele>
        <time>2020-06-11T14:32:17Z</time>
      </trkpt>
      <trkpt lat="43.17607" lon="2.55799">
        <ele>119</ele>
        <time>2020-06-11T14:32:19Z</time>
      </trkpt>
      <trkpt lat="43.1761" lon="2.55786">
        <ele>119</ele>
        <time>2020-06-11T14:32:20Z</time>
      </trkpt>
      <trkpt lat="43.17614" lon="2.55773">
        <ele>118</ele>
        <time>2020-06-11T14:32:21Z</time>
      </trkpt>
      <trkpt lat="43.17618" lon="2.55761">
        <ele>118</ele>
        <time>2020-06-11T14:32:22Z</time>
      </trkpt>
      <trkpt lat="43.17624" lon="2.5575">
        <ele>117</ele>
        <time>2020-06-11T14:32:23Z</time>
      </trkpt>
      <trkpt lat="43.17632" lon="2.55743">
        <ele>117</ele>
        <time>2020-06-11T14:32:24Z</time>
      </trkpt>
      <trkpt lat="43.17641" lon="2.55741">
        <ele>116</ele>
        <time>2020-06-11T14:32:25Z</time>
      </trkpt>
      <trkpt lat="43.17651" lon="2.55741">
        <ele>115</ele>
        <time>2020-06-11T14:32:26Z</time>
      </trkpt>
      <trkpt lat="43.1766" lon="2.55742">
        <ele>114</ele>
        <time>2020-06-11T14:32:27Z</time>
      </trkpt>
      <trkpt lat="43.1767" lon="2.55743">
        <ele>113</ele>
        <time>2020-06-11T14:32:28Z</time>
      </trkpt>
      <trkpt lat="43.1768" lon="2.55745">
        <ele>112</ele>
        <time>2020-06-11T14:32:29Z</time>
      </trkpt>
      <trkpt lat="43.17689" lon="2.55747">
        <ele>112</ele>
        <time>2020-06-11T14:32:30Z</time>
      </trkpt>
      <trkpt lat="43.17718" lon="2.55756">
        <ele>111</ele>
        <time>2020-06-11T14:32:33Z</time>
      </trkpt>
      <trkpt lat="43.17746" lon="2.55766">
        <ele>110</ele>
        <time>2020-06-11T14:32:36Z</time>
      </trkpt>
      <trkpt lat="43.17755" lon="2.5577">
        <ele>110</ele>
        <time>2020-06-11T14:32:37Z</time>
      </trkpt>
      <trkpt lat="43.17765" lon="2.55773">
        <ele>110</ele>
        <time>2020-06-11T14:32:38Z</time>
      </trkpt>
      <trkpt lat="43.17792" lon="2.55788">
        <ele>111</ele>
        <time>2020-06-11T14:32:41Z</time>
      </trkpt>
      <trkpt lat="43.178" lon="2.55795">
        <ele>111</ele>
        <time>2020-06-11T14:32:42Z</time>
      </trkpt>
      <trkpt lat="43.17809" lon="2.55801">
        <ele>112</ele>
        <time>2020-06-11T14:32:43Z</time>
      </trkpt>
      <trkpt lat="43.17826" lon="2.55812">
        <ele>110</ele>
        <time>2020-06-11T14:32:45Z</time>
      </trkpt>
      <trkpt lat="43.17835" lon="2.55817">
        <ele>109</ele>
        <time>2020-06-11T14:32:46Z</time>
      </trkpt>
      <trkpt lat="43.17844" lon="2.55822">
        <ele>108</ele>
        <time>2020-06-11T14:32:47Z</time>
      </trkpt>
      <trkpt lat="43.17854" lon="2.55826">
        <ele>106</ele>
        <time>2020-06-11T14:32:48Z</time>
      </trkpt>
      <trkpt lat="43.17864" lon="2.55829">
        <ele>105</ele>
        <time>2020-06-11T14:32:49Z</time>
      </trkpt>
      <trkpt lat="43.17885" lon="2.55833">
        <ele>102</ele>
        <time>2020-06-11T14:32:51Z</time>
      </trkpt>
      <trkpt lat="43.17906" lon="2.55835">
        <ele>100</ele>
        <time>2020-06-11T14:32:53Z</time>
      </trkpt>
      <trkpt lat="43.17917" lon="2.55834">
        <ele>98</ele>
        <time>2020-06-11T14:32:54Z</time>
      </trkpt>
      <trkpt lat="43.17939" lon="2.55833">
        <ele>96</ele>
        <time>2020-06-11T14:32:56Z</time>
      </trkpt>
      <trkpt lat="43.17951" lon="2.55831">
        <ele>95</ele>
        <time>2020-06-11T14:32:57Z</time>
      </trkpt>
      <trkpt lat="43.17974" lon="2.55829">
        <ele>94</ele>
        <time>2020-06-11T14:32:59Z</time>
      </trkpt>
      <trkpt lat="43.17986" lon="2.55828">
        <ele>93</ele>
        <time>2020-06-11T14:33:00Z</time>
      </trkpt>
      <trkpt lat="43.17998" lon="2.55827">
        <ele>93</ele>
        <time>2020-06-11T14:33:01Z</time>
      </trkpt>
      <trkpt lat="43.1801" lon="2.55825">
        <ele>92</ele>
        <time>2020-06-11T14:33:02Z</time>
      </trkpt>
      <trkpt lat="43.18047" lon="2.55818">
        <ele>91</ele>
        <time>2020-06-11T14:33:05Z</time>
      </trkpt>
      <trkpt lat="43.18058" lon="2.55816">
        <ele>91</ele>
        <time>2020-06-11T14:33:06Z</time>
      </trkpt>
      <trkpt lat="43.18089" lon="2.55812">
        <ele>91</ele>
        <time>2020-06-11T14:33:09Z</time>
      </trkpt>
      <trkpt lat="43.18098" lon="2.5581">
        <ele>91</ele>
        <time>2020-06-11T14:33:10Z</time>
      </trkpt>
      <trkpt lat="43.18137" lon="2.55803">
        <ele>91</ele>
        <time>2020-06-11T14:33:14Z</time>
      </trkpt>
      <trkpt lat="43.18155" lon="2.55803">
        <ele>91</ele>
        <time>2020-06-11T14:33:16Z</time>
      </trkpt>
      <trkpt lat="43.18165" lon="2.55803">
        <ele>91</ele>
        <time>2020-06-11T14:33:17Z</time>
      </trkpt>
      <trkpt lat="43.18174" lon="2.55804">
        <ele>90</ele>
        <time>2020-06-11T14:33:18Z</time>
      </trkpt>
      <trkpt lat="43.18193" lon="2.55804">
        <ele>90</ele>
        <time>2020-06-11T14:33:20Z</time>
      </trkpt>
      <trkpt lat="43.18202" lon="2.55804">
        <ele>90</ele>
        <time>2020-06-11T14:33:21Z</time>
      </trkpt>
      <trkpt lat="43.1821" lon="2.55805">
        <ele>90</ele>
        <time>2020-06-11T14:33:22Z</time>
      </trkpt>
      <trkpt lat="43.18234" lon="2.55807">
        <ele>89</ele>
        <time>2020-06-11T14:33:25Z</time>
      </trkpt>
      <trkpt lat="43.1824" lon="2.5581">
        <ele>88</ele>
        <time>2020-06-11T14:33:26Z</time>
      </trkpt>
      <trkpt lat="43.18246" lon="2.55813">
        <ele>87</ele>
        <time>2020-06-11T14:33:27Z</time>
      </trkpt>
      <trkpt lat="43.18252" lon="2.55816">
        <ele>87</ele>
        <time>2020-06-11T14:33:28Z</time>
      </trkpt>
      <trkpt lat="43.18263" lon="2.55823">
        <ele>86</ele>
        <time>2020-06-11T14:33:30Z</time>
      </trkpt>
      <trkpt lat="43.18269" lon="2.55826">
        <ele>86</ele>
        <time>2020-06-11T14:33:31Z</time>
      </trkpt>
      <trkpt lat="43.18287" lon="2.55832">
        <ele>87</ele>
        <time>2020-06-11T14:33:35Z</time>
      </trkpt>
      <trkpt lat="43.18297" lon="2.55836">
        <ele>88</ele>
        <time>2020-06-11T14:33:38Z</time>
      </trkpt>
      <trkpt lat="43.18303" lon="2.55838">
        <ele>88</ele>
        <time>2020-06-11T14:33:40Z</time>
      </trkpt>
      <trkpt lat="43.1832" lon="2.55839">
        <ele>89</ele>
        <time>2020-06-11T14:33:45Z</time>
      </trkpt>
      <trkpt lat="43.18324" lon="2.55834">
        <ele>89</ele>
        <time>2020-06-11T14:33:46Z</time>
      </trkpt>
      <trkpt lat="43.18329" lon="2.55822">
        <ele>88</ele>
        <time>2020-06-11T14:33:48Z</time>
      </trkpt>
      <trkpt lat="43.18331" lon="2.55815">
        <ele>88</ele>
        <time>2020-06-11T14:33:49Z</time>
      </trkpt>
      <trkpt lat="43.18333" lon="2.55809">
        <ele>88</ele>
        <time>2020-06-11T14:33:50Z</time>
      </trkpt>
      <trkpt lat="43.18345" lon="2.55802">
        <ele>87</ele>
        <time>2020-06-11T14:33:52Z</time>
      </trkpt>
      <trkpt lat="43.18352" lon="2.55799">
        <ele>87</ele>
        <time>2020-06-11T14:33:53Z</time>
      </trkpt>
      <trkpt lat="43.18371" lon="2.55792">
        <ele>86</ele>
        <time>2020-06-11T14:33:56Z</time>
      </trkpt>
      <trkpt lat="43.18377" lon="2.5579">
        <ele>86</ele>
        <time>2020-06-11T14:33:57Z</time>
      </trkpt>
      <trkpt lat="43.18389" lon="2.55788">
        <ele>86</ele>
        <time>2020-06-11T14:33:59Z</time>
      </trkpt>
      <trkpt lat="43.18396" lon="2.55788">
        <ele>85</ele>
        <time>2020-06-11T14:34:00Z</time>
      </trkpt>
      <trkpt lat="43.1841" lon="2.55788">
        <ele>85</ele>
        <time>2020-06-11T14:34:02Z</time>
      </trkpt>
      <trkpt lat="43.18418" lon="2.55789">
        <ele>84</ele>
        <time>2020-06-11T14:34:03Z</time>
      </trkpt>
      <trkpt lat="43.18425" lon="2.55792">
        <ele>84</ele>
        <time>2020-06-11T14:34:04Z</time>
      </trkpt>
      <trkpt lat="43.18431" lon="2.55795">
        <ele>84</ele>
        <time>2020-06-11T14:34:05Z</time>
      </trkpt>
      <trkpt lat="43.18451" lon="2.55805">
        <ele>84</ele>
        <time>2020-06-11T14:34:09Z</time>
      </trkpt>
      <trkpt lat="43.18453" lon="2.55805">
        <ele>84</ele>
        <time>2020-06-11T14:34:10Z</time>
      </trkpt>
      <trkpt lat="43.18459" lon="2.558">
        <ele>83</ele>
        <time>2020-06-11T14:34:12Z</time>
      </trkpt>
      <trkpt lat="43.18471" lon="2.55774">
        <ele>82</ele>
        <time>2020-06-11T14:34:16Z</time>
      </trkpt>
      <trkpt lat="43.18478" lon="2.55759">
        <ele>81</ele>
        <time>2020-06-11T14:34:18Z</time>
      </trkpt>
      <trkpt lat="43.18489" lon="2.55736">
        <ele>79</ele>
        <time>2020-06-11T14:34:21Z</time>
      </trkpt>
      <trkpt lat="43.18491" lon="2.55729">
        <ele>79</ele>
        <time>2020-06-11T14:34:22Z</time>
      </trkpt>
      <trkpt lat="43.18491" lon="2.55721">
        <ele>79</ele>
        <time>2020-06-11T14:34:23Z</time>
      </trkpt>
      <trkpt lat="43.18495" lon="2.55689">
        <ele>78</ele>
        <time>2020-06-11T14:34:27Z</time>
      </trkpt>
      <trkpt lat="43.185" lon="2.55659">
        <ele>78</ele>
        <time>2020-06-11T14:34:31Z</time>
      </trkpt>
      <trkpt lat="43.18503" lon="2.55644">
        <ele>78</ele>
        <time>2020-06-11T14:34:33Z</time>
      </trkpt>
      <trkpt lat="43.1851" lon="2.55619">
        <ele>79</ele>
        <time>2020-06-11T14:34:36Z</time>
      </trkpt>
      <trkpt lat="43.18513" lon="2.5561">
        <ele>79</ele>
        <time>2020-06-11T14:34:37Z</time>
      </trkpt>
      <trkpt lat="43.18523" lon="2.55586">
        <ele>79</ele>
        <time>2020-06-11T14:34:40Z</time>
      </trkpt>
      <trkpt lat="43.18543" lon="2.5553">
        <ele>80</ele>
        <time>2020-06-11T14:34:47Z</time>
      </trkpt>
      <trkpt lat="43.18546" lon="2.55521">
        <ele>81</ele>
        <time>2020-06-11T14:34:48Z</time>
      </trkpt>
      <trkpt lat="43.18559" lon="2.55481">
        <ele>81</ele>
        <time>2020-06-11T14:34:53Z</time>
      </trkpt>
      <trkpt lat="43.18576" lon="2.55433">
        <ele>82</ele>
        <time>2020-06-11T14:34:59Z</time>
      </trkpt>
      <trkpt lat="43.18581" lon="2.55416">
        <ele>83</ele>
        <time>2020-06-11T14:35:01Z</time>
      </trkpt>
      <trkpt lat="43.18593" lon="2.55386">
        <ele>84</ele>
        <time>2020-06-11T14:35:05Z</time>
      </trkpt>
      <trkpt lat="43.18604" lon="2.55364">
        <ele>84</ele>
        <time>2020-06-11T14:35:08Z</time>
      </trkpt>
      <trkpt lat="43.18618" lon="2.55336">
        <ele>84</ele>
        <time>2020-06-11T14:35:12Z</time>
      </trkpt>
      <trkpt lat="43.18645" lon="2.55288">
        <ele>83</ele>
        <time>2020-06-11T14:35:19Z</time>
      </trkpt>
      <trkpt lat="43.1867" lon="2.55236">
        <ele>84</ele>
        <time>2020-06-11T14:35:27Z</time>
      </trkpt>
      <trkpt lat="43.18698" lon="2.5517">
        <ele>84</ele>
        <time>2020-06-11T14:35:37Z</time>
      </trkpt>
      <trkpt lat="43.18703" lon="2.55157">
        <ele>83</ele>
        <time>2020-06-11T14:35:39Z</time>
      </trkpt>
      <trkpt lat="43.18706" lon="2.55151">
        <ele>83</ele>
        <time>2020-06-11T14:35:40Z</time>
      </trkpt>
      <trkpt lat="43.18709" lon="2.55144">
        <ele>83</ele>
        <time>2020-06-11T14:35:41Z</time>
      </trkpt>
      <trkpt lat="43.18711" lon="2.55138">
        <ele>83</ele>
        <time>2020-06-11T14:35:42Z</time>
      </trkpt>
      <trkpt lat="43.18714" lon="2.55132">
        <ele>83</ele>
        <time>2020-06-11T14:35:43Z</time>
      </trkpt>
      <trkpt lat="43.18721" lon="2.55113">
        <ele>82</ele>
        <time>2020-06-11T14:35:46Z</time>
      </trkpt>
      <trkpt lat="43.18726" lon="2.55101">
        <ele>81</ele>
        <time>2020-06-11T14:35:48Z</time>
      </trkpt>
      <trkpt lat="43.18734" lon="2.55086">
        <ele>81</ele>
        <time>2020-06-11T14:35:51Z</time>
      </trkpt>
      <trkpt lat="43.18741" lon="2.55074">
        <ele>80</ele>
        <time>2020-06-11T14:35:56Z</time>
      </trkpt>
      <trkpt lat="43.18741" lon="2.55074">
        <ele>80</ele>
        <time>2020-06-11T14:35:57Z</time>
      </trkpt>
      <trkpt lat="43.18743" lon="2.55071">
        <ele>80</ele>
        <time>2020-06-11T14:36:28Z</time>
      </trkpt>
      <trkpt lat="43.18745" lon="2.5507">
        <ele>80</ele>
        <time>2020-06-11T14:36:29Z</time>
      </trkpt>
      <trkpt lat="43.18747" lon="2.55069">
        <ele>80</ele>
        <time>2020-06-11T14:36:30Z</time>
      </trkpt>
      <trkpt lat="43.18755" lon="2.55059">
        <ele>80</ele>
        <time>2020-06-11T14:36:34Z</time>
      </trkpt>
      <trkpt lat="43.18756" lon="2.55054">
        <ele>80</ele>
        <time>2020-06-11T14:36:35Z</time>
      </trkpt>
      <trkpt lat="43.18758" lon="2.55048">
        <ele>80</ele>
        <time>2020-06-11T14:36:36Z</time>
      </trkpt>
      <trkpt lat="43.18759" lon="2.55034">
        <ele>80</ele>
        <time>2020-06-11T14:36:38Z</time>
      </trkpt>
      <trkpt lat="43.18762" lon="2.55019">
        <ele>79</ele>
        <time>2020-06-11T14:36:40Z</time>
      </trkpt>
      <trkpt lat="43.18768" lon="2.55004">
        <ele>79</ele>
        <time>2020-06-11T14:36:42Z</time>
      </trkpt>
      <trkpt lat="43.18772" lon="2.54997">
        <ele>79</ele>
        <time>2020-06-11T14:36:43Z</time>
      </trkpt>
      <trkpt lat="43.18795" lon="2.5495">
        <ele>79</ele>
        <time>2020-06-11T14:36:49Z</time>
      </trkpt>
      <trkpt lat="43.18799" lon="2.54942">
        <ele>79</ele>
        <time>2020-06-11T14:36:50Z</time>
      </trkpt>
      <trkpt lat="43.18803" lon="2.54934">
        <ele>79</ele>
        <time>2020-06-11T14:36:51Z</time>
      </trkpt>
      <trkpt lat="43.18829" lon="2.54875">
        <ele>78</ele>
        <time>2020-06-11T14:36:58Z</time>
      </trkpt>
      <trkpt lat="43.18848" lon="2.54811">
        <ele>76</ele>
        <time>2020-06-11T14:37:05Z</time>
      </trkpt>
      <trkpt lat="43.18852" lon="2.54792">
        <ele>76</ele>
        <time>2020-06-11T14:37:07Z</time>
      </trkpt>
      <trkpt lat="43.18855" lon="2.54783">
        <ele>77</ele>
        <time>2020-06-11T14:37:08Z</time>
      </trkpt>
      <trkpt lat="43.18866" lon="2.54744">
        <ele>76</ele>
        <time>2020-06-11T14:37:12Z</time>
      </trkpt>
      <trkpt lat="43.18873" lon="2.54726">
        <ele>76</ele>
        <time>2020-06-11T14:37:14Z</time>
      </trkpt>
      <trkpt lat="43.18876" lon="2.54717">
        <ele>76</ele>
        <time>2020-06-11T14:37:15Z</time>
      </trkpt>
      <trkpt lat="43.18879" lon="2.54708">
        <ele>76</ele>
        <time>2020-06-11T14:37:16Z</time>
      </trkpt>
      <trkpt lat="43.18889" lon="2.54679">
        <ele>75</ele>
        <time>2020-06-11T14:37:19Z</time>
      </trkpt>
      <trkpt lat="43.18912" lon="2.54616">
        <ele>75</ele>
        <time>2020-06-11T14:37:25Z</time>
      </trkpt>
      <trkpt lat="43.18919" lon="2.54594">
        <ele>75</ele>
        <time>2020-06-11T14:37:27Z</time>
      </trkpt>
      <trkpt lat="43.1893" lon="2.54561">
        <ele>73</ele>
        <time>2020-06-11T14:37:30Z</time>
      </trkpt>
      <trkpt lat="43.18941" lon="2.5453">
        <ele>72</ele>
        <time>2020-06-11T14:37:33Z</time>
      </trkpt>
      <trkpt lat="43.18945" lon="2.5452">
        <ele>71</ele>
        <time>2020-06-11T14:37:34Z</time>
      </trkpt>
      <trkpt lat="43.18955" lon="2.54501">
        <ele>71</ele>
        <time>2020-06-11T14:37:36Z</time>
      </trkpt>
      <trkpt lat="43.18967" lon="2.54484">
        <ele>71</ele>
        <time>2020-06-11T14:37:38Z</time>
      </trkpt>
      <trkpt lat="43.19009" lon="2.54444">
        <ele>70</ele>
        <time>2020-06-11T14:37:44Z</time>
      </trkpt>
      <trkpt lat="43.19016" lon="2.54439">
        <ele>70</ele>
        <time>2020-06-11T14:37:45Z</time>
      </trkpt>
      <trkpt lat="43.19031" lon="2.54433">
        <ele>70</ele>
        <time>2020-06-11T14:37:47Z</time>
      </trkpt>
      <trkpt lat="43.19039" lon="2.54431">
        <ele>70</ele>
        <time>2020-06-11T14:37:48Z</time>
      </trkpt>
      <trkpt lat="43.19069" lon="2.54431">
        <ele>70</ele>
        <time>2020-06-11T14:37:52Z</time>
      </trkpt>
      <trkpt lat="43.19076" lon="2.5443">
        <ele>70</ele>
        <time>2020-06-11T14:37:53Z</time>
      </trkpt>
      <trkpt lat="43.19084" lon="2.5443">
        <ele>70</ele>
        <time>2020-06-11T14:37:54Z</time>
      </trkpt>
      <trkpt lat="43.19106" lon="2.54429">
        <ele>70</ele>
        <time>2020-06-11T14:37:57Z</time>
      </trkpt>
      <trkpt lat="43.1912" lon="2.54428">
        <ele>71</ele>
        <time>2020-06-11T14:37:59Z</time>
      </trkpt>
      <trkpt lat="43.19135" lon="2.54427">
        <ele>71</ele>
        <time>2020-06-11T14:38:01Z</time>
      </trkpt>
      <trkpt lat="43.19148" lon="2.54426">
        <ele>70</ele>
        <time>2020-06-11T14:38:03Z</time>
      </trkpt>
      <trkpt lat="43.19162" lon="2.54424">
        <ele>69</ele>
        <time>2020-06-11T14:38:05Z</time>
      </trkpt>
      <trkpt lat="43.19197" lon="2.54422">
        <ele>68</ele>
        <time>2020-06-11T14:38:10Z</time>
      </trkpt>
      <trkpt lat="43.1921" lon="2.54421">
        <ele>68</ele>
        <time>2020-06-11T14:38:12Z</time>
      </trkpt>
      <trkpt lat="43.19216" lon="2.54421">
        <ele>68</ele>
        <time>2020-06-11T14:38:13Z</time>
      </trkpt>
      <trkpt lat="43.19263" lon="2.54417">
        <ele>68</ele>
        <time>2020-06-11T14:38:20Z</time>
      </trkpt>
      <trkpt lat="43.1927" lon="2.54416">
        <ele>69</ele>
        <time>2020-06-11T14:38:21Z</time>
      </trkpt>
      <trkpt lat="43.19285" lon="2.54415">
        <ele>69</ele>
        <time>2020-06-11T14:38:23Z</time>
      </trkpt>
      <trkpt lat="43.19292" lon="2.54414">
        <ele>69</ele>
        <time>2020-06-11T14:38:24Z</time>
      </trkpt>
      <trkpt lat="43.19299" lon="2.54413">
        <ele>69</ele>
        <time>2020-06-11T14:38:25Z</time>
      </trkpt>
      <trkpt lat="43.19321" lon="2.54411">
        <ele>70</ele>
        <time>2020-06-11T14:38:28Z</time>
      </trkpt>
      <trkpt lat="43.19329" lon="2.54411">
        <ele>70</ele>
        <time>2020-06-11T14:38:29Z</time>
      </trkpt>
      <trkpt lat="43.19343" lon="2.54409">
        <ele>70</ele>
        <time>2020-06-11T14:38:31Z</time>
      </trkpt>
      <trkpt lat="43.1935" lon="2.54408">
        <ele>69</ele>
        <time>2020-06-11T14:38:32Z</time>
      </trkpt>
      <trkpt lat="43.19358" lon="2.54407">
        <ele>69</ele>
        <time>2020-06-11T14:38:33Z</time>
      </trkpt>
      <trkpt lat="43.19374" lon="2.54406">
        <ele>68</ele>
        <time>2020-06-11T14:38:35Z</time>
      </trkpt>
      <trkpt lat="43.19389" lon="2.54406">
        <ele>68</ele>
        <time>2020-06-11T14:38:37Z</time>
      </trkpt>
      <trkpt lat="43.19405" lon="2.54407">
        <ele>68</ele>
        <time>2020-06-11T14:38:39Z</time>
      </trkpt>
      <trkpt lat="43.1942" lon="2.54407">
        <ele>68</ele>
        <time>2020-06-11T14:38:41Z</time>
      </trkpt>
      <trkpt lat="43.19428" lon="2.54408">
        <ele>68</ele>
        <time>2020-06-11T14:38:42Z</time>
      </trkpt>
      <trkpt lat="43.19449" lon="2.54408">
        <ele>68</ele>
        <time>2020-06-11T14:38:45Z</time>
      </trkpt>
      <trkpt lat="43.19456" lon="2.54407">
        <ele>68</ele>
        <time>2020-06-11T14:38:46Z</time>
      </trkpt>
      <trkpt lat="43.19469" lon="2.54407">
        <ele>68</ele>
        <time>2020-06-11T14:38:48Z</time>
      </trkpt>
      <trkpt lat="43.19491" lon="2.54409">
        <ele>67</ele>
        <time>2020-06-11T14:38:51Z</time>
      </trkpt>
      <trkpt lat="43.19498" lon="2.54409">
        <ele>67</ele>
        <time>2020-06-11T14:38:52Z</time>
      </trkpt>
      <trkpt lat="43.19506" lon="2.5441">
        <ele>67</ele>
        <time>2020-06-11T14:38:53Z</time>
      </trkpt>
      <trkpt lat="43.19522" lon="2.54409">
        <ele>67</ele>
        <time>2020-06-11T14:38:55Z</time>
      </trkpt>
      <trkpt lat="43.19537" lon="2.54405">
        <ele>67</ele>
        <time>2020-06-11T14:38:57Z</time>
      </trkpt>
      <trkpt lat="43.19545" lon="2.54402">
        <ele>67</ele>
        <time>2020-06-11T14:38:58Z</time>
      </trkpt>
      <trkpt lat="43.19552" lon="2.54397">
        <ele>67</ele>
        <time>2020-06-11T14:38:59Z</time>
      </trkpt>
      <trkpt lat="43.19559" lon="2.54393">
        <ele>68</ele>
        <time>2020-06-11T14:39:00Z</time>
      </trkpt>
      <trkpt lat="43.19566" lon="2.54387">
        <ele>68</ele>
        <time>2020-06-11T14:39:01Z</time>
      </trkpt>
      <trkpt lat="43.19572" lon="2.5438">
        <ele>68</ele>
        <time>2020-06-11T14:39:02Z</time>
      </trkpt>
      <trkpt lat="43.19584" lon="2.54364">
        <ele>67</ele>
        <time>2020-06-11T14:39:04Z</time>
      </trkpt>
      <trkpt lat="43.19589" lon="2.54356">
        <ele>68</ele>
        <time>2020-06-11T14:39:05Z</time>
      </trkpt>
      <trkpt lat="43.19598" lon="2.54337">
        <ele>68</ele>
        <time>2020-06-11T14:39:07Z</time>
      </trkpt>
      <trkpt lat="43.19607" lon="2.54307">
        <ele>68</ele>
        <time>2020-06-11T14:39:10Z</time>
      </trkpt>
      <trkpt lat="43.19612" lon="2.54286">
        <ele>67</ele>
        <time>2020-06-11T14:39:12Z</time>
      </trkpt>
      <trkpt lat="43.19615" lon="2.54276">
        <ele>67</ele>
        <time>2020-06-11T14:39:13Z</time>
      </trkpt>
      <trkpt lat="43.19627" lon="2.54225">
        <ele>67</ele>
        <time>2020-06-11T14:39:18Z</time>
      </trkpt>
      <trkpt lat="43.1964" lon="2.54174">
        <ele>66</ele>
        <time>2020-06-11T14:39:23Z</time>
      </trkpt>
      <trkpt lat="43.19643" lon="2.54164">
        <ele>66</ele>
        <time>2020-06-11T14:39:24Z</time>
      </trkpt>
      <trkpt lat="43.19655" lon="2.54113">
        <ele>66</ele>
        <time>2020-06-11T14:39:29Z</time>
      </trkpt>
      <trkpt lat="43.19658" lon="2.54103">
        <ele>66</ele>
        <time>2020-06-11T14:39:30Z</time>
      </trkpt>
      <trkpt lat="43.19677" lon="2.54032">
        <ele>66</ele>
        <time>2020-06-11T14:39:37Z</time>
      </trkpt>
      <trkpt lat="43.19681" lon="2.54023">
        <ele>66</ele>
        <time>2020-06-11T14:39:38Z</time>
      </trkpt>
      <trkpt lat="43.19687" lon="2.54015">
        <ele>66</ele>
        <time>2020-06-11T14:39:39Z</time>
      </trkpt>
      <trkpt lat="43.19702" lon="2.54005">
        <ele>66</ele>
        <time>2020-06-11T14:39:41Z</time>
      </trkpt>
      <trkpt lat="43.19718" lon="2.54002">
        <ele>66</ele>
        <time>2020-06-11T14:39:43Z</time>
      </trkpt>
      <trkpt lat="43.19726" lon="2.54002">
        <ele>66</ele>
        <time>2020-06-11T14:39:44Z</time>
      </trkpt>
      <trkpt lat="43.19734" lon="2.54002">
        <ele>66</ele>
        <time>2020-06-11T14:39:45Z</time>
      </trkpt>
      <trkpt lat="43.1979" lon="2.54001">
        <ele>68</ele>
        <time>2020-06-11T14:39:52Z</time>
      </trkpt>
      <trkpt lat="43.19805" lon="2.54001">
        <ele>68</ele>
        <time>2020-06-11T14:39:54Z</time>
      </trkpt>
      <trkpt lat="43.19812" lon="2.54">
        <ele>68</ele>
        <time>2020-06-11T14:39:55Z</time>
      </trkpt>
      <trkpt lat="43.19819" lon="2.54">
        <ele>68</ele>
        <time>2020-06-11T14:39:56Z</time>
      </trkpt>
      <trkpt lat="43.19827" lon="2.54">
        <ele>68</ele>
        <time>2020-06-11T14:39:57Z</time>
      </trkpt>
      <trkpt lat="43.19847" lon="2.54">
        <ele>69</ele>
        <time>2020-06-11T14:40:00Z</time>
      </trkpt>
      <trkpt lat="43.19872" lon="2.54">
        <ele>70</ele>
        <time>2020-06-11T14:40:04Z</time>
      </trkpt>
      <trkpt lat="43.19884" lon="2.54">
        <ele>70</ele>
        <time>2020-06-11T14:40:06Z</time>
      </trkpt>
      <trkpt lat="43.19906" lon="2.53999">
        <ele>71</ele>
        <time>2020-06-11T14:40:10Z</time>
      </trkpt>
      <trkpt lat="43.19917" lon="2.53998">
        <ele>71</ele>
        <time>2020-06-11T14:40:12Z</time>
      </trkpt>
      <trkpt lat="43.19933" lon="2.53998">
        <ele>69</ele>
        <time>2020-06-11T14:40:15Z</time>
      </trkpt>
      <trkpt lat="43.19949" lon="2.53997">
        <ele>68</ele>
        <time>2020-06-11T14:40:18Z</time>
      </trkpt>
      <trkpt lat="43.19983" lon="2.53996">
        <ele>67</ele>
        <time>2020-06-11T14:40:24Z</time>
      </trkpt>
      <trkpt lat="43.19995" lon="2.53996">
        <ele>67</ele>
        <time>2020-06-11T14:40:26Z</time>
      </trkpt>
      <trkpt lat="43.20033" lon="2.53996">
        <ele>68</ele>
        <time>2020-06-11T14:40:32Z</time>
      </trkpt>
      <trkpt lat="43.20061" lon="2.53995">
        <ele>69</ele>
        <time>2020-06-11T14:40:36Z</time>
      </trkpt>
      <trkpt lat="43.20074" lon="2.53994">
        <ele>69</ele>
        <time>2020-06-11T14:40:38Z</time>
      </trkpt>
      <trkpt lat="43.20111" lon="2.53992">
        <ele>70</ele>
        <time>2020-06-11T14:40:44Z</time>
      </trkpt>
      <trkpt lat="43.20122" lon="2.5399">
        <ele>71</ele>
        <time>2020-06-11T14:40:46Z</time>
      </trkpt>
      <trkpt lat="43.20145" lon="2.53989">
        <ele>72</ele>
        <time>2020-06-11T14:40:50Z</time>
      </trkpt>
      <trkpt lat="43.20151" lon="2.53989">
        <ele>72</ele>
        <time>2020-06-11T14:40:51Z</time>
      </trkpt>
      <trkpt lat="43.20181" lon="2.5399">
        <ele>74</ele>
        <time>2020-06-11T14:40:56Z</time>
      </trkpt>
      <trkpt lat="43.20203" lon="2.5399">
        <ele>77</ele>
        <time>2020-06-11T14:41:00Z</time>
      </trkpt>
      <trkpt lat="43.20208" lon="2.5399">
        <ele>77</ele>
        <time>2020-06-11T14:41:01Z</time>
      </trkpt>
      <trkpt lat="43.20214" lon="2.5399">
        <ele>78</ele>
        <time>2020-06-11T14:41:02Z</time>
      </trkpt>
      <trkpt lat="43.20245" lon="2.53991">
        <ele>80</ele>
        <time>2020-06-11T14:41:08Z</time>
      </trkpt>
      <trkpt lat="43.20282" lon="2.5399">
        <ele>81</ele>
        <time>2020-06-11T14:41:15Z</time>
      </trkpt>
      <trkpt lat="43.20286" lon="2.5399">
        <ele>81</ele>
        <time>2020-06-11T14:41:16Z</time>
      </trkpt>
      <trkpt lat="43.2029" lon="2.53991">
        <ele>81</ele>
        <time>2020-06-11T14:41:17Z</time>
      </trkpt>
      <trkpt lat="43.20309" lon="2.5399">
        <ele>81</ele>
        <time>2020-06-11T14:41:22Z</time>
      </trkpt>
      <trkpt lat="43.20312" lon="2.5399">
        <ele>81</ele>
        <time>2020-06-11T14:41:23Z</time>
      </trkpt>
      <trkpt lat="43.2032" lon="2.53991">
        <ele>82</ele>
        <time>2020-06-11T14:41:27Z</time>
      </trkpt>
      <trkpt lat="43.20321" lon="2.53991">
        <ele>82</ele>
        <time>2020-06-11T14:41:28Z</time>
      </trkpt>
      <trkpt lat="43.20321" lon="2.53991">
        <ele>82</ele>
        <time>2020-06-11T14:41:29Z</time>
      </trkpt>
      <trkpt lat="43.20327" lon="2.53989">
        <ele>82</ele>
        <time>2020-06-11T14:41:34Z</time>
      </trkpt>
      <trkpt lat="43.20328" lon="2.53986">
        <ele>82</ele>
        <time>2020-06-11T14:41:35Z</time>
      </trkpt>
      <trkpt lat="43.20333" lon="2.53967">
        <ele>82</ele>
        <time>2020-06-11T14:41:40Z</time>
      </trkpt>
      <trkpt lat="43.20338" lon="2.53943">
        <ele>83</ele>
        <time>2020-06-11T14:41:44Z</time>
      </trkpt>
      <trkpt lat="43.20353" lon="2.53882">
        <ele>83</ele>
        <time>2020-06-11T14:41:53Z</time>
      </trkpt>
      <trkpt lat="43.20363" lon="2.53849">
        <ele>83</ele>
        <time>2020-06-11T14:41:58Z</time>
      </trkpt>
      <trkpt lat="43.20367" lon="2.53844">
        <ele>83</ele>
        <time>2020-06-11T14:41:59Z</time>
      </trkpt>
      <trkpt lat="43.20371" lon="2.53839">
        <ele>83</ele>
        <time>2020-06-11T14:42:00Z</time>
      </trkpt>
      <trkpt lat="43.20392" lon="2.53825">
        <ele>82</ele>
        <time>2020-06-11T14:42:04Z</time>
      </trkpt>
      <trkpt lat="43.20402" lon="2.53817">
        <ele>82</ele>
        <time>2020-06-11T14:42:06Z</time>
      </trkpt>
      <trkpt lat="43.20407" lon="2.53812">
        <ele>81</ele>
        <time>2020-06-11T14:42:07Z</time>
      </trkpt>
      <trkpt lat="43.20411" lon="2.53805">
        <ele>81</ele>
        <time>2020-06-11T14:42:08Z</time>
      </trkpt>
      <trkpt lat="43.20416" lon="2.53788">
        <ele>81</ele>
        <time>2020-06-11T14:42:10Z</time>
      </trkpt>
      <trkpt lat="43.20417" lon="2.53779">
        <ele>81</ele>
        <time>2020-06-11T14:42:11Z</time>
      </trkpt>
      <trkpt lat="43.2042" lon="2.53701">
        <ele>82</ele>
        <time>2020-06-11T14:42:19Z</time>
      </trkpt>
      <trkpt lat="43.2042" lon="2.53691">
        <ele>83</ele>
        <time>2020-06-11T14:42:20Z</time>
      </trkpt>
      <trkpt lat="43.20421" lon="2.53672">
        <ele>84</ele>
        <time>2020-06-11T14:42:22Z</time>
      </trkpt>
      <trkpt lat="43.20425" lon="2.53654">
        <ele>84</ele>
        <time>2020-06-11T14:42:24Z</time>
      </trkpt>
      <trkpt lat="43.20428" lon="2.53645">
        <ele>85</ele>
        <time>2020-06-11T14:42:25Z</time>
      </trkpt>
      <trkpt lat="43.20435" lon="2.53628">
        <ele>85</ele>
        <time>2020-06-11T14:42:27Z</time>
      </trkpt>
      <trkpt lat="43.2044" lon="2.53621">
        <ele>85</ele>
        <time>2020-06-11T14:42:28Z</time>
      </trkpt>
      <trkpt lat="43.20459" lon="2.53592">
        <ele>84</ele>
        <time>2020-06-11T14:42:32Z</time>
      </trkpt>
      <trkpt lat="43.20479" lon="2.53563">
        <ele>84</ele>
        <time>2020-06-11T14:42:36Z</time>
      </trkpt>
      <trkpt lat="43.20483" lon="2.53556">
        <ele>84</ele>
        <time>2020-06-11T14:42:37Z</time>
      </trkpt>
      <trkpt lat="43.20488" lon="2.53548">
        <ele>83</ele>
        <time>2020-06-11T14:42:38Z</time>
      </trkpt>
      <trkpt lat="43.20522" lon="2.53499">
        <ele>83</ele>
        <time>2020-06-11T14:42:45Z</time>
      </trkpt>
      <trkpt lat="43.20558" lon="2.53441">
        <ele>84</ele>
        <time>2020-06-11T14:42:53Z</time>
      </trkpt>
      <trkpt lat="43.20562" lon="2.53434">
        <ele>84</ele>
        <time>2020-06-11T14:42:54Z</time>
      </trkpt>
      <trkpt lat="43.2058" lon="2.53406">
        <ele>83</ele>
        <time>2020-06-11T14:42:58Z</time>
      </trkpt>
      <trkpt lat="43.20583" lon="2.53399">
        <ele>83</ele>
        <time>2020-06-11T14:42:59Z</time>
      </trkpt>
      <trkpt lat="43.20587" lon="2.53392">
        <ele>83</ele>
        <time>2020-06-11T14:43:00Z</time>
      </trkpt>
      <trkpt lat="43.20614" lon="2.53334">
        <ele>83</ele>
        <time>2020-06-11T14:43:08Z</time>
      </trkpt>
      <trkpt lat="43.20621" lon="2.53319">
        <ele>84</ele>
        <time>2020-06-11T14:43:10Z</time>
      </trkpt>
      <trkpt lat="43.20631" lon="2.53296">
        <ele>84</ele>
        <time>2020-06-11T14:43:13Z</time>
      </trkpt>
      <trkpt lat="43.20638" lon="2.53281">
        <ele>84</ele>
        <time>2020-06-11T14:43:15Z</time>
      </trkpt>
      <trkpt lat="43.20642" lon="2.53273">
        <ele>84</ele>
        <time>2020-06-11T14:43:16Z</time>
      </trkpt>
      <trkpt lat="43.20645" lon="2.53266">
        <ele>84</ele>
        <time>2020-06-11T14:43:17Z</time>
      </trkpt>
      <trkpt lat="43.20648" lon="2.53258">
        <ele>84</ele>
        <time>2020-06-11T14:43:18Z</time>
      </trkpt>
      <trkpt lat="43.20652" lon="2.53251">
        <ele>84</ele>
        <time>2020-06-11T14:43:19Z</time>
      </trkpt>
      <trkpt lat="43.20666" lon="2.53223">
        <ele>85</ele>
        <time>2020-06-11T14:43:23Z</time>
      </trkpt>
      <trkpt lat="43.2067" lon="2.53217">
        <ele>86</ele>
        <time>2020-06-11T14:43:24Z</time>
      </trkpt>
      <trkpt lat="43.20683" lon="2.53199">
        <ele>86</ele>
        <time>2020-06-11T14:43:27Z</time>
      </trkpt>
      <trkpt lat="43.20688" lon="2.53193">
        <ele>86</ele>
        <time>2020-06-11T14:43:28Z</time>
      </trkpt>
      <trkpt lat="43.20697" lon="2.53182">
        <ele>86</ele>
        <time>2020-06-11T14:43:30Z</time>
      </trkpt>
      <trkpt lat="43.20702" lon="2.53176">
        <ele>86</ele>
        <time>2020-06-11T14:43:31Z</time>
      </trkpt>
      <trkpt lat="43.20744" lon="2.53121">
        <ele>88</ele>
        <time>2020-06-11T14:43:40Z</time>
      </trkpt>
      <trkpt lat="43.20749" lon="2.53114">
        <ele>88</ele>
        <time>2020-06-11T14:43:41Z</time>
      </trkpt>
      <trkpt lat="43.20758" lon="2.53102">
        <ele>88</ele>
        <time>2020-06-11T14:43:43Z</time>
      </trkpt>
      <trkpt lat="43.20763" lon="2.53096">
        <ele>88</ele>
        <time>2020-06-11T14:43:44Z</time>
      </trkpt>
      <trkpt lat="43.20768" lon="2.53089">
        <ele>88</ele>
        <time>2020-06-11T14:43:45Z</time>
      </trkpt>
      <trkpt lat="43.20777" lon="2.53077">
        <ele>88</ele>
        <time>2020-06-11T14:43:47Z</time>
      </trkpt>
      <trkpt lat="43.20782" lon="2.53071">
        <ele>88</ele>
        <time>2020-06-11T14:43:48Z</time>
      </trkpt>
      <trkpt lat="43.20791" lon="2.53058">
        <ele>89</ele>
        <time>2020-06-11T14:43:50Z</time>
      </trkpt>
      <trkpt lat="43.20796" lon="2.53052">
        <ele>89</ele>
        <time>2020-06-11T14:43:51Z</time>
      </trkpt>
      <trkpt lat="43.2082" lon="2.53021">
        <ele>90</ele>
        <time>2020-06-11T14:43:56Z</time>
      </trkpt>
      <trkpt lat="43.20829" lon="2.53008">
        <ele>90</ele>
        <time>2020-06-11T14:43:58Z</time>
      </trkpt>
      <trkpt lat="43.20839" lon="2.52995">
        <ele>91</ele>
        <time>2020-06-11T14:44:00Z</time>
      </trkpt>
      <trkpt lat="43.20844" lon="2.52989">
        <ele>91</ele>
        <time>2020-06-11T14:44:01Z</time>
      </trkpt>
      <trkpt lat="43.20853" lon="2.52976">
        <ele>91</ele>
        <time>2020-06-11T14:44:03Z</time>
      </trkpt>
      <trkpt lat="43.20868" lon="2.52957">
        <ele>91</ele>
        <time>2020-06-11T14:44:06Z</time>
      </trkpt>
      <trkpt lat="43.20873" lon="2.52951">
        <ele>91</ele>
        <time>2020-06-11T14:44:07Z</time>
      </trkpt>
      <trkpt lat="43.20878" lon="2.52946">
        <ele>91</ele>
        <time>2020-06-11T14:44:08Z</time>
      </trkpt>
      <trkpt lat="43.20883" lon="2.5294">
        <ele>91</ele>
        <time>2020-06-11T14:44:09Z</time>
      </trkpt>
      <trkpt lat="43.20899" lon="2.52923">
        <ele>91</ele>
        <time>2020-06-11T14:44:12Z</time>
      </trkpt>
      <trkpt lat="43.20918" lon="2.52897">
        <ele>92</ele>
        <time>2020-06-11T14:44:16Z</time>
      </trkpt>
      <trkpt lat="43.20922" lon="2.5289">
        <ele>92</ele>
        <time>2020-06-11T14:44:17Z</time>
      </trkpt>
      <trkpt lat="43.20935" lon="2.52869">
        <ele>92</ele>
        <time>2020-06-11T14:44:20Z</time>
      </trkpt>
      <trkpt lat="43.20957" lon="2.52835">
        <ele>93</ele>
        <time>2020-06-11T14:44:25Z</time>
      </trkpt>
      <trkpt lat="43.20962" lon="2.52828">
        <ele>93</ele>
        <time>2020-06-11T14:44:26Z</time>
      </trkpt>
      <trkpt lat="43.2097" lon="2.52814">
        <ele>93</ele>
        <time>2020-06-11T14:44:28Z</time>
      </trkpt>
      <trkpt lat="43.20994" lon="2.52772">
        <ele>95</ele>
        <time>2020-06-11T14:44:34Z</time>
      </trkpt>
      <trkpt lat="43.21018" lon="2.52726">
        <ele>95</ele>
        <time>2020-06-11T14:44:41Z</time>
      </trkpt>
      <trkpt lat="43.21024" lon="2.52713">
        <ele>96</ele>
        <time>2020-06-11T14:44:43Z</time>
      </trkpt>
      <trkpt lat="43.21028" lon="2.52706">
        <ele>96</ele>
        <time>2020-06-11T14:44:44Z</time>
      </trkpt>
      <trkpt lat="43.21044" lon="2.52673">
        <ele>96</ele>
        <time>2020-06-11T14:44:49Z</time>
      </trkpt>
      <trkpt lat="43.21051" lon="2.52659">
        <ele>96</ele>
        <time>2020-06-11T14:44:51Z</time>
      </trkpt>
      <trkpt lat="43.21054" lon="2.52652">
        <ele>97</ele>
        <time>2020-06-11T14:44:52Z</time>
      </trkpt>
      <trkpt lat="43.21057" lon="2.52645">
        <ele>97</ele>
        <time>2020-06-11T14:44:53Z</time>
      </trkpt>
      <trkpt lat="43.21064" lon="2.52632">
        <ele>97</ele>
        <time>2020-06-11T14:44:55Z</time>
      </trkpt>
      <trkpt lat="43.21073" lon="2.52615">
        <ele>97</ele>
        <time>2020-06-11T14:44:58Z</time>
      </trkpt>
      <trkpt lat="43.21076" lon="2.52609">
        <ele>98</ele>
        <time>2020-06-11T14:44:59Z</time>
      </trkpt>
      <trkpt lat="43.21086" lon="2.52589">
        <ele>98</ele>
        <time>2020-06-11T14:45:02Z</time>
      </trkpt>
      <trkpt lat="43.21091" lon="2.52576">
        <ele>98</ele>
        <time>2020-06-11T14:45:04Z</time>
      </trkpt>
      <trkpt lat="43.21106" lon="2.52545">
        <ele>99</ele>
        <time>2020-06-11T14:45:09Z</time>
      </trkpt>
      <trkpt lat="43.21116" lon="2.52526">
        <ele>101</ele>
        <time>2020-06-11T14:45:12Z</time>
      </trkpt>
      <trkpt lat="43.21136" lon="2.52484">
        <ele>102</ele>
        <time>2020-06-11T14:45:19Z</time>
      </trkpt>
      <trkpt lat="43.21139" lon="2.52479">
        <ele>102</ele>
        <time>2020-06-11T14:45:20Z</time>
      </trkpt>
      <trkpt lat="43.21156" lon="2.52455">
        <ele>103</ele>
        <time>2020-06-11T14:45:25Z</time>
      </trkpt>
      <trkpt lat="43.21166" lon="2.52443">
        <ele>103</ele>
        <time>2020-06-11T14:45:28Z</time>
      </trkpt>
      <trkpt lat="43.21174" lon="2.52436">
        <ele>104</ele>
        <time>2020-06-11T14:45:30Z</time>
      </trkpt>
      <trkpt lat="43.21178" lon="2.52432">
        <ele>104</ele>
        <time>2020-06-11T14:45:31Z</time>
      </trkpt>
      <trkpt lat="43.21182" lon="2.52429">
        <ele>105</ele>
        <time>2020-06-11T14:45:32Z</time>
      </trkpt>
      <trkpt lat="43.21197" lon="2.52419">
        <ele>106</ele>
        <time>2020-06-11T14:45:36Z</time>
      </trkpt>
      <trkpt lat="43.21204" lon="2.52415">
        <ele>106</ele>
        <time>2020-06-11T14:45:38Z</time>
      </trkpt>
      <trkpt lat="43.2123" lon="2.52404">
        <ele>108</ele>
        <time>2020-06-11T14:45:44Z</time>
      </trkpt>
      <trkpt lat="43.21235" lon="2.52403">
        <ele>107</ele>
        <time>2020-06-11T14:45:45Z</time>
      </trkpt>
      <trkpt lat="43.21247" lon="2.524">
        <ele>106</ele>
        <time>2020-06-11T14:45:47Z</time>
      </trkpt>
      <trkpt lat="43.21259" lon="2.52396">
        <ele>105</ele>
        <time>2020-06-11T14:45:49Z</time>
      </trkpt>
      <trkpt lat="43.21266" lon="2.52392">
        <ele>105</ele>
        <time>2020-06-11T14:45:50Z</time>
      </trkpt>
      <trkpt lat="43.21272" lon="2.52389">
        <ele>104</ele>
        <time>2020-06-11T14:45:51Z</time>
      </trkpt>
      <trkpt lat="43.21279" lon="2.52383">
        <ele>103</ele>
        <time>2020-06-11T14:45:52Z</time>
      </trkpt>
      <trkpt lat="43.21285" lon="2.52377">
        <ele>102</ele>
        <time>2020-06-11T14:45:53Z</time>
      </trkpt>
      <trkpt lat="43.21291" lon="2.5237">
        <ele>101</ele>
        <time>2020-06-11T14:45:54Z</time>
      </trkpt>
      <trkpt lat="43.21308" lon="2.52344">
        <ele>100</ele>
        <time>2020-06-11T14:45:57Z</time>
      </trkpt>
      <trkpt lat="43.21319" lon="2.52326">
        <ele>100</ele>
        <time>2020-06-11T14:45:59Z</time>
      </trkpt>
      <trkpt lat="43.21357" lon="2.52262">
        <ele>99</ele>
        <time>2020-06-11T14:46:06Z</time>
      </trkpt>
      <trkpt lat="43.21367" lon="2.52244">
        <ele>98</ele>
        <time>2020-06-11T14:46:08Z</time>
      </trkpt>
      <trkpt lat="43.21385" lon="2.52205">
        <ele>98</ele>
        <time>2020-06-11T14:46:12Z</time>
      </trkpt>
      <trkpt lat="43.21398" lon="2.52175">
        <ele>98</ele>
        <time>2020-06-11T14:46:15Z</time>
      </trkpt>
      <trkpt lat="43.21402" lon="2.52165">
        <ele>98</ele>
        <time>2020-06-11T14:46:16Z</time>
      </trkpt>
      <trkpt lat="43.2143" lon="2.52091">
        <ele>98</ele>
        <time>2020-06-11T14:46:23Z</time>
      </trkpt>
      <trkpt lat="43.21434" lon="2.52081">
        <ele>98</ele>
        <time>2020-06-11T14:46:24Z</time>
      </trkpt>
      <trkpt lat="43.21446" lon="2.52049">
        <ele>97</ele>
        <time>2020-06-11T14:46:27Z</time>
      </trkpt>
      <trkpt lat="43.21455" lon="2.52029">
        <ele>97</ele>
        <time>2020-06-11T14:46:29Z</time>
      </trkpt>
      <trkpt lat="43.21469" lon="2.51999">
        <ele>96</ele>
        <time>2020-06-11T14:46:32Z</time>
      </trkpt>
      <trkpt lat="43.21489" lon="2.5196">
        <ele>94</ele>
        <time>2020-06-11T14:46:36Z</time>
      </trkpt>
      <trkpt lat="43.21503" lon="2.51929">
        <ele>93</ele>
        <time>2020-06-11T14:46:39Z</time>
      </trkpt>
      <trkpt lat="43.21512" lon="2.51907">
        <ele>94</ele>
        <time>2020-06-11T14:46:41Z</time>
      </trkpt>
      <trkpt lat="43.21516" lon="2.51895">
        <ele>94</ele>
        <time>2020-06-11T14:46:42Z</time>
      </trkpt>
      <trkpt lat="43.21524" lon="2.5187">
        <ele>94</ele>
        <time>2020-06-11T14:46:44Z</time>
      </trkpt>
      <trkpt lat="43.21527" lon="2.51856">
        <ele>94</ele>
        <time>2020-06-11T14:46:45Z</time>
      </trkpt>
      <trkpt lat="43.2153" lon="2.51841">
        <ele>93</ele>
        <time>2020-06-11T14:46:46Z</time>
      </trkpt>
      <trkpt lat="43.21538" lon="2.51796">
        <ele>91</ele>
        <time>2020-06-11T14:46:49Z</time>
      </trkpt>
      <trkpt lat="43.21545" lon="2.51764">
        <ele>89</ele>
        <time>2020-06-11T14:46:51Z</time>
      </trkpt>
      <trkpt lat="43.21549" lon="2.51748">
        <ele>88</ele>
        <time>2020-06-11T14:46:52Z</time>
      </trkpt>
      <trkpt lat="43.2156" lon="2.51717">
        <ele>87</ele>
        <time>2020-06-11T14:46:54Z</time>
      </trkpt>
      <trkpt lat="43.21573" lon="2.51687">
        <ele>86</ele>
        <time>2020-06-11T14:46:56Z</time>
      </trkpt>
      <trkpt lat="43.21593" lon="2.51643">
        <ele>83</ele>
        <time>2020-06-11T14:46:59Z</time>
      </trkpt>
      <trkpt lat="43.21599" lon="2.51628">
        <ele>83</ele>
        <time>2020-06-11T14:47:00Z</time>
      </trkpt>
      <trkpt lat="43.21612" lon="2.51599">
        <ele>82</ele>
        <time>2020-06-11T14:47:02Z</time>
      </trkpt>
      <trkpt lat="43.21631" lon="2.51557">
        <ele>81</ele>
        <time>2020-06-11T14:47:05Z</time>
      </trkpt>
      <trkpt lat="43.21651" lon="2.51514">
        <ele>79</ele>
        <time>2020-06-11T14:47:08Z</time>
      </trkpt>
      <trkpt lat="43.21681" lon="2.51445">
        <ele>78</ele>
        <time>2020-06-11T14:47:13Z</time>
      </trkpt>
      <trkpt lat="43.21694" lon="2.51418">
        <ele>78</ele>
        <time>2020-06-11T14:47:15Z</time>
      </trkpt>
      <trkpt lat="43.21723" lon="2.51352">
        <ele>80</ele>
        <time>2020-06-11T14:47:20Z</time>
      </trkpt>
      <trkpt lat="43.21728" lon="2.51339">
        <ele>80</ele>
        <time>2020-06-11T14:47:21Z</time>
      </trkpt>
      <trkpt lat="43.21734" lon="2.51327">
        <ele>81</ele>
        <time>2020-06-11T14:47:22Z</time>
      </trkpt>
      <trkpt lat="43.2174" lon="2.51314">
        <ele>81</ele>
        <time>2020-06-11T14:47:23Z</time>
      </trkpt>
      <trkpt lat="43.21746" lon="2.51302">
        <ele>81</ele>
        <time>2020-06-11T14:47:24Z</time>
      </trkpt>
      <trkpt lat="43.21772" lon="2.51258">
        <ele>81</ele>
        <time>2020-06-11T14:47:28Z</time>
      </trkpt>
      <trkpt lat="43.21778" lon="2.51247">
        <ele>80</ele>
        <time>2020-06-11T14:47:29Z</time>
      </trkpt>
      <trkpt lat="43.21795" lon="2.51214">
        <ele>80</ele>
        <time>2020-06-11T14:47:32Z</time>
      </trkpt>
      <trkpt lat="43.21806" lon="2.51194">
        <ele>80</ele>
        <time>2020-06-11T14:47:34Z</time>
      </trkpt>
      <trkpt lat="43.21812" lon="2.51185">
        <ele>80</ele>
        <time>2020-06-11T14:47:35Z</time>
      </trkpt>
      <trkpt lat="43.21817" lon="2.51175">
        <ele>80</ele>
        <time>2020-06-11T14:47:36Z</time>
      </trkpt>
      <trkpt lat="43.21822" lon="2.51165">
        <ele>80</ele>
        <time>2020-06-11T14:47:37Z</time>
      </trkpt>
      <trkpt lat="43.21832" lon="2.51148">
        <ele>80</ele>
        <time>2020-06-11T14:47:39Z</time>
      </trkpt>
      <trkpt lat="43.21838" lon="2.5114">
        <ele>80</ele>
        <time>2020-06-11T14:47:40Z</time>
      </trkpt>
      <trkpt lat="43.21843" lon="2.51131">
        <ele>80</ele>
        <time>2020-06-11T14:47:41Z</time>
      </trkpt>
      <trkpt lat="43.21868" lon="2.51096">
        <ele>81</ele>
        <time>2020-06-11T14:47:46Z</time>
      </trkpt>
      <trkpt lat="43.21878" lon="2.51087">
        <ele>81</ele>
        <time>2020-06-11T14:47:48Z</time>
      </trkpt>
      <trkpt lat="43.21892" lon="2.51073">
        <ele>81</ele>
        <time>2020-06-11T14:47:51Z</time>
      </trkpt>
      <trkpt lat="43.21908" lon="2.51059">
        <ele>81</ele>
        <time>2020-06-11T14:47:55Z</time>
      </trkpt>
      <trkpt lat="43.21911" lon="2.51057">
        <ele>81</ele>
        <time>2020-06-11T14:47:56Z</time>
      </trkpt>
      <trkpt lat="43.21916" lon="2.51055">
        <ele>81</ele>
        <time>2020-06-11T14:47:58Z</time>
      </trkpt>
      <trkpt lat="43.21918" lon="2.51053">
        <ele>80</ele>
        <time>2020-06-11T14:47:59Z</time>
      </trkpt>
      <trkpt lat="43.21919" lon="2.51051">
        <ele>80</ele>
        <time>2020-06-11T14:48:00Z</time>
      </trkpt>
      <trkpt lat="43.21924" lon="2.5104">
        <ele>80</ele>
        <time>2020-06-11T14:48:03Z</time>
      </trkpt>
      <trkpt lat="43.21929" lon="2.5103">
        <ele>80</ele>
        <time>2020-06-11T14:48:05Z</time>
      </trkpt>
      <trkpt lat="43.21931" lon="2.51025">
        <ele>80</ele>
        <time>2020-06-11T14:48:06Z</time>
      </trkpt>
      <trkpt lat="43.21945" lon="2.50998">
        <ele>79</ele>
        <time>2020-06-11T14:48:11Z</time>
      </trkpt>
      <trkpt lat="43.21947" lon="2.50992">
        <ele>79</ele>
        <time>2020-06-11T14:48:12Z</time>
      </trkpt>
      <trkpt lat="43.21954" lon="2.50966">
        <ele>80</ele>
        <time>2020-06-11T14:48:16Z</time>
      </trkpt>
      <trkpt lat="43.21955" lon="2.50959">
        <ele>80</ele>
        <time>2020-06-11T14:48:17Z</time>
      </trkpt>
      <trkpt lat="43.21955" lon="2.50952">
        <ele>80</ele>
        <time>2020-06-11T14:48:18Z</time>
      </trkpt>
      <trkpt lat="43.21956" lon="2.50946">
        <ele>80</ele>
        <time>2020-06-11T14:48:19Z</time>
      </trkpt>
      <trkpt lat="43.21956" lon="2.50939">
        <ele>80</ele>
        <time>2020-06-11T14:48:20Z</time>
      </trkpt>
      <trkpt lat="43.21957" lon="2.50927">
        <ele>80</ele>
        <time>2020-06-11T14:48:22Z</time>
      </trkpt>
      <trkpt lat="43.21962" lon="2.50909">
        <ele>80</ele>
        <time>2020-06-11T14:48:25Z</time>
      </trkpt>
      <trkpt lat="43.21967" lon="2.50897">
        <ele>80</ele>
        <time>2020-06-11T14:48:27Z</time>
      </trkpt>
      <trkpt lat="43.21975" lon="2.50872">
        <ele>80</ele>
        <time>2020-06-11T14:48:31Z</time>
      </trkpt>
      <trkpt lat="43.21977" lon="2.50859">
        <ele>80</ele>
        <time>2020-06-11T14:48:33Z</time>
      </trkpt>
      <trkpt lat="43.21976" lon="2.50852">
        <ele>81</ele>
        <time>2020-06-11T14:48:34Z</time>
      </trkpt>
      <trkpt lat="43.21976" lon="2.50839">
        <ele>82</ele>
        <time>2020-06-11T14:48:36Z</time>
      </trkpt>
      <trkpt lat="43.21978" lon="2.50827">
        <ele>83</ele>
        <time>2020-06-11T14:48:38Z</time>
      </trkpt>
      <trkpt lat="43.21984" lon="2.50817">
        <ele>83</ele>
        <time>2020-06-11T14:48:40Z</time>
      </trkpt>
      <trkpt lat="43.21986" lon="2.50811">
        <ele>83</ele>
        <time>2020-06-11T14:48:41Z</time>
      </trkpt>
      <trkpt lat="43.21989" lon="2.50806">
        <ele>83</ele>
        <time>2020-06-11T14:48:42Z</time>
      </trkpt>
      <trkpt lat="43.21998" lon="2.50783">
        <ele>83</ele>
        <time>2020-06-11T14:48:46Z</time>
      </trkpt>
      <trkpt lat="43.22004" lon="2.50764">
        <ele>83</ele>
        <time>2020-06-11T14:48:49Z</time>
      </trkpt>
      <trkpt lat="43.22009" lon="2.50746">
        <ele>83</ele>
        <time>2020-06-11T14:48:52Z</time>
      </trkpt>
      <trkpt lat="43.22015" lon="2.50721">
        <ele>83</ele>
        <time>2020-06-11T14:48:56Z</time>
      </trkpt>
      <trkpt lat="43.22019" lon="2.50709">
        <ele>83</ele>
        <time>2020-06-11T14:48:58Z</time>
      </trkpt>
      <trkpt lat="43.22026" lon="2.50685">
        <ele>84</ele>
        <time>2020-06-11T14:49:02Z</time>
      </trkpt>
      <trkpt lat="43.22029" lon="2.50674">
        <ele>84</ele>
        <time>2020-06-11T14:49:04Z</time>
      </trkpt>
      <trkpt lat="43.22036" lon="2.50651">
        <ele>84</ele>
        <time>2020-06-11T14:49:08Z</time>
      </trkpt>
      <trkpt lat="43.22041" lon="2.50632">
        <ele>84</ele>
        <time>2020-06-11T14:49:11Z</time>
      </trkpt>
      <trkpt lat="43.22043" lon="2.50626">
        <ele>84</ele>
        <time>2020-06-11T14:49:12Z</time>
      </trkpt>
      <trkpt lat="43.22045" lon="2.50619">
        <ele>84</ele>
        <time>2020-06-11T14:49:13Z</time>
      </trkpt>
      <trkpt lat="43.2205" lon="2.50607">
        <ele>85</ele>
        <time>2020-06-11T14:49:15Z</time>
      </trkpt>
      <trkpt lat="43.22074" lon="2.50568">
        <ele>84</ele>
        <time>2020-06-11T14:49:22Z</time>
      </trkpt>
      <trkpt lat="43.22077" lon="2.50562">
        <ele>84</ele>
        <time>2020-06-11T14:49:23Z</time>
      </trkpt>
      <trkpt lat="43.22081" lon="2.50557">
        <ele>84</ele>
        <time>2020-06-11T14:49:24Z</time>
      </trkpt>
      <trkpt lat="43.22085" lon="2.50552">
        <ele>84</ele>
        <time>2020-06-11T14:49:25Z</time>
      </trkpt>
      <trkpt lat="43.22095" lon="2.50537">
        <ele>84</ele>
        <time>2020-06-11T14:49:28Z</time>
      </trkpt>
      <trkpt lat="43.22099" lon="2.50532">
        <ele>84</ele>
        <time>2020-06-11T14:49:29Z</time>
      </trkpt>
      <trkpt lat="43.22102" lon="2.50527">
        <ele>84</ele>
        <time>2020-06-11T14:49:30Z</time>
      </trkpt>
      <trkpt lat="43.22124" lon="2.50494">
        <ele>83</ele>
        <time>2020-06-11T14:49:36Z</time>
      </trkpt>
      <trkpt lat="43.22128" lon="2.50488">
        <ele>83</ele>
        <time>2020-06-11T14:49:37Z</time>
      </trkpt>
      <trkpt lat="43.22134" lon="2.50476">
        <ele>83</ele>
        <time>2020-06-11T14:49:39Z</time>
      </trkpt>
      <trkpt lat="43.22138" lon="2.50471">
        <ele>83</ele>
        <time>2020-06-11T14:49:40Z</time>
      </trkpt>
      <trkpt lat="43.22154" lon="2.50443">
        <ele>84</ele>
        <time>2020-06-11T14:49:45Z</time>
      </trkpt>
      <trkpt lat="43.2218" lon="2.50406">
        <ele>83</ele>
        <time>2020-06-11T14:49:52Z</time>
      </trkpt>
      <trkpt lat="43.22199" lon="2.5038">
        <ele>83</ele>
        <time>2020-06-11T14:49:57Z</time>
      </trkpt>
      <trkpt lat="43.22214" lon="2.50361">
        <ele>84</ele>
        <time>2020-06-11T14:50:01Z</time>
      </trkpt>
      <trkpt lat="43.22217" lon="2.50356">
        <ele>84</ele>
        <time>2020-06-11T14:50:02Z</time>
      </trkpt>
      <trkpt lat="43.22236" lon="2.50332">
        <ele>84</ele>
        <time>2020-06-11T14:50:07Z</time>
      </trkpt>
      <trkpt lat="43.22244" lon="2.50321">
        <ele>84</ele>
        <time>2020-06-11T14:50:09Z</time>
      </trkpt>
      <trkpt lat="43.22251" lon="2.5031">
        <ele>85</ele>
        <time>2020-06-11T14:50:11Z</time>
      </trkpt>
      <trkpt lat="43.22268" lon="2.50276">
        <ele>85</ele>
        <time>2020-06-11T14:50:17Z</time>
      </trkpt>
      <trkpt lat="43.22279" lon="2.50253">
        <ele>84</ele>
        <time>2020-06-11T14:50:23Z</time>
      </trkpt>
      <trkpt lat="43.22292" lon="2.50223">
        <ele>84</ele>
        <time>2020-06-11T14:50:30Z</time>
      </trkpt>
      <trkpt lat="43.22302" lon="2.50202">
        <ele>84</ele>
        <time>2020-06-11T14:50:35Z</time>
      </trkpt>
      <trkpt lat="43.22304" lon="2.50197">
        <ele>84</ele>
        <time>2020-06-11T14:50:36Z</time>
      </trkpt>
      <trkpt lat="43.22313" lon="2.50184">
        <ele>85</ele>
        <time>2020-06-11T14:50:39Z</time>
      </trkpt>
      <trkpt lat="43.22326" lon="2.50168">
        <ele>85</ele>
        <time>2020-06-11T14:50:43Z</time>
      </trkpt>
      <trkpt lat="43.22333" lon="2.50161">
        <ele>85</ele>
        <time>2020-06-11T14:50:45Z</time>
      </trkpt>
      <trkpt lat="43.22345" lon="2.5015">
        <ele>85</ele>
        <time>2020-06-11T14:50:48Z</time>
      </trkpt>
      <trkpt lat="43.22349" lon="2.50146">
        <ele>85</ele>
        <time>2020-06-11T14:50:49Z</time>
      </trkpt>
      <trkpt lat="43.22364" lon="2.50132">
        <ele>85</ele>
        <time>2020-06-11T14:50:53Z</time>
      </trkpt>
      <trkpt lat="43.22393" lon="2.50106">
        <ele>86</ele>
        <time>2020-06-11T14:51:00Z</time>
      </trkpt>
      <trkpt lat="43.224" lon="2.50098">
        <ele>86</ele>
        <time>2020-06-11T14:51:02Z</time>
      </trkpt>
      <trkpt lat="43.2242" lon="2.50068">
        <ele>87</ele>
        <time>2020-06-11T14:51:08Z</time>
      </trkpt>
      <trkpt lat="43.22427" lon="2.50049">
        <ele>87</ele>
        <time>2020-06-11T14:51:11Z</time>
      </trkpt>
      <trkpt lat="43.22431" lon="2.50036">
        <ele>87</ele>
        <time>2020-06-11T14:51:13Z</time>
      </trkpt>
      <trkpt lat="43.22433" lon="2.50029">
        <ele>87</ele>
        <time>2020-06-11T14:51:14Z</time>
      </trkpt>
      <trkpt lat="43.22436" lon="2.50016">
        <ele>87</ele>
        <time>2020-06-11T14:51:16Z</time>
      </trkpt>
      <trkpt lat="43.22438" lon="2.5001">
        <ele>87</ele>
        <time>2020-06-11T14:51:17Z</time>
      </trkpt>
      <trkpt lat="43.22445" lon="2.4999">
        <ele>86</ele>
        <time>2020-06-11T14:51:20Z</time>
      </trkpt>
      <trkpt lat="43.22447" lon="2.49984">
        <ele>86</ele>
        <time>2020-06-11T14:51:21Z</time>
      </trkpt>
      <trkpt lat="43.2245" lon="2.49978">
        <ele>86</ele>
        <time>2020-06-11T14:51:22Z</time>
      </trkpt>
      <trkpt lat="43.22453" lon="2.49972">
        <ele>86</ele>
        <time>2020-06-11T14:51:23Z</time>
      </trkpt>
      <trkpt lat="43.22456" lon="2.49966">
        <ele>86</ele>
        <time>2020-06-11T14:51:24Z</time>
      </trkpt>
      <trkpt lat="43.2248" lon="2.49919">
        <ele>88</ele>
        <time>2020-06-11T14:51:32Z</time>
      </trkpt>
      <trkpt lat="43.22492" lon="2.4988">
        <ele>88</ele>
        <time>2020-06-11T14:51:38Z</time>
      </trkpt>
      <trkpt lat="43.22495" lon="2.49866">
        <ele>88</ele>
        <time>2020-06-11T14:51:40Z</time>
      </trkpt>
      <trkpt lat="43.22506" lon="2.49826">
        <ele>87</ele>
        <time>2020-06-11T14:51:46Z</time>
      </trkpt>
      <trkpt lat="43.22508" lon="2.49819">
        <ele>87</ele>
        <time>2020-06-11T14:51:47Z</time>
      </trkpt>
      <trkpt lat="43.22513" lon="2.49806">
        <ele>87</ele>
        <time>2020-06-11T14:51:49Z</time>
      </trkpt>
      <trkpt lat="43.22516" lon="2.49799">
        <ele>88</ele>
        <time>2020-06-11T14:51:50Z</time>
      </trkpt>
      <trkpt lat="43.22521" lon="2.49787">
        <ele>88</ele>
        <time>2020-06-11T14:51:52Z</time>
      </trkpt>
      <trkpt lat="43.22528" lon="2.49767">
        <ele>88</ele>
        <time>2020-06-11T14:51:55Z</time>
      </trkpt>
      <trkpt lat="43.2253" lon="2.4976">
        <ele>88</ele>
        <time>2020-06-11T14:51:56Z</time>
      </trkpt>
      <trkpt lat="43.22541" lon="2.49712">
        <ele>90</ele>
        <time>2020-06-11T14:52:03Z</time>
      </trkpt>
      <trkpt lat="43.22549" lon="2.49679">
        <ele>91</ele>
        <time>2020-06-11T14:52:08Z</time>
      </trkpt>
      <trkpt lat="43.22556" lon="2.4966">
        <ele>92</ele>
        <time>2020-06-11T14:52:11Z</time>
      </trkpt>
      <trkpt lat="43.22558" lon="2.49654">
        <ele>92</ele>
        <time>2020-06-11T14:52:12Z</time>
      </trkpt>
      <trkpt lat="43.22568" lon="2.49637">
        <ele>93</ele>
        <time>2020-06-11T14:52:15Z</time>
      </trkpt>
      <trkpt lat="43.22571" lon="2.49632">
        <ele>93</ele>
        <time>2020-06-11T14:52:16Z</time>
      </trkpt>
      <trkpt lat="43.22581" lon="2.49615">
        <ele>93</ele>
        <time>2020-06-11T14:52:19Z</time>
      </trkpt>
      <trkpt lat="43.22586" lon="2.49604">
        <ele>94</ele>
        <time>2020-06-11T14:52:21Z</time>
      </trkpt>
      <trkpt lat="43.2259" lon="2.49591">
        <ele>94</ele>
        <time>2020-06-11T14:52:23Z</time>
      </trkpt>
      <trkpt lat="43.22591" lon="2.49584">
        <ele>95</ele>
        <time>2020-06-11T14:52:24Z</time>
      </trkpt>
      <trkpt lat="43.22591" lon="2.49578">
        <ele>95</ele>
        <time>2020-06-11T14:52:25Z</time>
      </trkpt>
      <trkpt lat="43.22591" lon="2.49571">
        <ele>95</ele>
        <time>2020-06-11T14:52:26Z</time>
      </trkpt>
      <trkpt lat="43.2259" lon="2.49564">
        <ele>95</ele>
        <time>2020-06-11T14:52:27Z</time>
      </trkpt>
      <trkpt lat="43.22588" lon="2.49551">
        <ele>95</ele>
        <time>2020-06-11T14:52:29Z</time>
      </trkpt>
      <trkpt lat="43.22579" lon="2.4952">
        <ele>95</ele>
        <time>2020-06-11T14:52:34Z</time>
      </trkpt>
      <trkpt lat="43.22573" lon="2.49495">
        <ele>96</ele>
        <time>2020-06-11T14:52:38Z</time>
      </trkpt>
      <trkpt lat="43.22571" lon="2.49489">
        <ele>97</ele>
        <time>2020-06-11T14:52:39Z</time>
      </trkpt>
      <trkpt lat="43.2256" lon="2.4945">
        <ele>100</ele>
        <time>2020-06-11T14:52:45Z</time>
      </trkpt>
      <trkpt lat="43.22557" lon="2.49438">
        <ele>101</ele>
        <time>2020-06-11T14:52:47Z</time>
      </trkpt>
      <trkpt lat="43.22554" lon="2.49425">
        <ele>101</ele>
        <time>2020-06-11T14:52:49Z</time>
      </trkpt>
      <trkpt lat="43.22549" lon="2.49402">
        <ele>102</ele>
        <time>2020-06-11T14:52:53Z</time>
      </trkpt>
      <trkpt lat="43.22548" lon="2.49397">
        <ele>102</ele>
        <time>2020-06-11T14:52:54Z</time>
      </trkpt>
      <trkpt lat="43.22542" lon="2.49377">
        <ele>102</ele>
        <time>2020-06-11T14:52:59Z</time>
      </trkpt>
      <trkpt lat="43.22526" lon="2.49344">
        <ele>101</ele>
        <time>2020-06-11T14:53:05Z</time>
      </trkpt>
      <trkpt lat="43.22511" lon="2.49315">
        <ele>99</ele>
        <time>2020-06-11T14:53:09Z</time>
      </trkpt>
      <trkpt lat="43.22501" lon="2.49299">
        <ele>98</ele>
        <time>2020-06-11T14:53:11Z</time>
      </trkpt>
      <trkpt lat="43.22495" lon="2.49291">
        <ele>97</ele>
        <time>2020-06-11T14:53:12Z</time>
      </trkpt>
      <trkpt lat="43.2249" lon="2.49283">
        <ele>96</ele>
        <time>2020-06-11T14:53:13Z</time>
      </trkpt>
      <trkpt lat="43.22478" lon="2.49268">
        <ele>95</ele>
        <time>2020-06-11T14:53:15Z</time>
      </trkpt>
      <trkpt lat="43.22465" lon="2.49253">
        <ele>94</ele>
        <time>2020-06-11T14:53:17Z</time>
      </trkpt>
      <trkpt lat="43.22426" lon="2.49211">
        <ele>93</ele>
        <time>2020-06-11T14:53:23Z</time>
      </trkpt>
      <trkpt lat="43.22413" lon="2.49197">
        <ele>92</ele>
        <time>2020-06-11T14:53:25Z</time>
      </trkpt>
      <trkpt lat="43.224" lon="2.49182">
        <ele>92</ele>
        <time>2020-06-11T14:53:27Z</time>
      </trkpt>
      <trkpt lat="43.22375" lon="2.49155">
        <ele>93</ele>
        <time>2020-06-11T14:53:31Z</time>
      </trkpt>
      <trkpt lat="43.22363" lon="2.49142">
        <ele>93</ele>
        <time>2020-06-11T14:53:33Z</time>
      </trkpt>
      <trkpt lat="43.22352" lon="2.49129">
        <ele>94</ele>
        <time>2020-06-11T14:53:35Z</time>
      </trkpt>
      <trkpt lat="43.22306" lon="2.49078">
        <ele>94</ele>
        <time>2020-06-11T14:53:43Z</time>
      </trkpt>
      <trkpt lat="43.22292" lon="2.49058">
        <ele>94</ele>
        <time>2020-06-11T14:53:46Z</time>
      </trkpt>
      <trkpt lat="43.22286" lon="2.49043">
        <ele>95</ele>
        <time>2020-06-11T14:53:48Z</time>
      </trkpt>
      <trkpt lat="43.22282" lon="2.49026">
        <ele>95</ele>
        <time>2020-06-11T14:53:50Z</time>
      </trkpt>
      <trkpt lat="43.22274" lon="2.48993">
        <ele>94</ele>
        <time>2020-06-11T14:53:54Z</time>
      </trkpt>
      <trkpt lat="43.22264" lon="2.48947">
        <ele>95</ele>
        <time>2020-06-11T14:54:00Z</time>
      </trkpt>
      <trkpt lat="43.22257" lon="2.48916">
        <ele>96</ele>
        <time>2020-06-11T14:54:04Z</time>
      </trkpt>
      <trkpt lat="43.22251" lon="2.48887">
        <ele>98</ele>
        <time>2020-06-11T14:54:08Z</time>
      </trkpt>
      <trkpt lat="43.22249" lon="2.48879">
        <ele>98</ele>
        <time>2020-06-11T14:54:09Z</time>
      </trkpt>
      <trkpt lat="43.22244" lon="2.48858">
        <ele>98</ele>
        <time>2020-06-11T14:54:12Z</time>
      </trkpt>
      <trkpt lat="43.22241" lon="2.48844">
        <ele>98</ele>
        <time>2020-06-11T14:54:14Z</time>
      </trkpt>
      <trkpt lat="43.2224" lon="2.48837">
        <ele>98</ele>
        <time>2020-06-11T14:54:15Z</time>
      </trkpt>
      <trkpt lat="43.22226" lon="2.48774">
        <ele>99</ele>
        <time>2020-06-11T14:54:24Z</time>
      </trkpt>
      <trkpt lat="43.22223" lon="2.4876">
        <ele>99</ele>
        <time>2020-06-11T14:54:26Z</time>
      </trkpt>
      <trkpt lat="43.2221" lon="2.48701">
        <ele>99</ele>
        <time>2020-06-11T14:54:34Z</time>
      </trkpt>
      <trkpt lat="43.22208" lon="2.48694">
        <ele>99</ele>
        <time>2020-06-11T14:54:35Z</time>
      </trkpt>
      <trkpt lat="43.22191" lon="2.48627">
        <ele>99</ele>
        <time>2020-06-11T14:54:44Z</time>
      </trkpt>
      <trkpt lat="43.22182" lon="2.48607">
        <ele>99</ele>
        <time>2020-06-11T14:54:47Z</time>
      </trkpt>
      <trkpt lat="43.22169" lon="2.48582">
        <ele>100</ele>
        <time>2020-06-11T14:54:51Z</time>
      </trkpt>
      <trkpt lat="43.2215" lon="2.48544">
        <ele>101</ele>
        <time>2020-06-11T14:54:57Z</time>
      </trkpt>
      <trkpt lat="43.22141" lon="2.48525">
        <ele>102</ele>
        <time>2020-06-11T14:55:00Z</time>
      </trkpt>
      <trkpt lat="43.22132" lon="2.485">
        <ele>105</ele>
        <time>2020-06-11T14:55:04Z</time>
      </trkpt>
      <trkpt lat="43.22125" lon="2.48475">
        <ele>106</ele>
        <time>2020-06-11T14:55:08Z</time>
      </trkpt>
      <trkpt lat="43.22122" lon="2.48456">
        <ele>107</ele>
        <time>2020-06-11T14:55:11Z</time>
      </trkpt>
      <trkpt lat="43.22116" lon="2.48423">
        <ele>109</ele>
        <time>2020-06-11T14:55:16Z</time>
      </trkpt>
      <trkpt lat="43.2211" lon="2.48383">
        <ele>110</ele>
        <time>2020-06-11T14:55:22Z</time>
      </trkpt>
      <trkpt lat="43.22108" lon="2.48365">
        <ele>110</ele>
        <time>2020-06-11T14:55:25Z</time>
      </trkpt>
      <trkpt lat="43.22104" lon="2.48336">
        <ele>111</ele>
        <time>2020-06-11T14:55:30Z</time>
      </trkpt>
      <trkpt lat="43.22102" lon="2.48324">
        <ele>112</ele>
        <time>2020-06-11T14:55:32Z</time>
      </trkpt>
      <trkpt lat="43.22101" lon="2.48319">
        <ele>112</ele>
        <time>2020-06-11T14:55:33Z</time>
      </trkpt>
      <trkpt lat="43.22099" lon="2.48307">
        <ele>113</ele>
        <time>2020-06-11T14:55:35Z</time>
      </trkpt>
      <trkpt lat="43.22091" lon="2.48285">
        <ele>114</ele>
        <time>2020-06-11T14:55:39Z</time>
      </trkpt>
      <trkpt lat="43.22086" lon="2.48274">
        <ele>115</ele>
        <time>2020-06-11T14:55:41Z</time>
      </trkpt>
      <trkpt lat="43.22073" lon="2.48258">
        <ele>116</ele>
        <time>2020-06-11T14:55:45Z</time>
      </trkpt>
      <trkpt lat="43.22069" lon="2.48255">
        <ele>117</ele>
        <time>2020-06-11T14:55:46Z</time>
      </trkpt>
      <trkpt lat="43.22065" lon="2.48253">
        <ele>117</ele>
        <time>2020-06-11T14:55:47Z</time>
      </trkpt>
      <trkpt lat="43.22057" lon="2.4825">
        <ele>117</ele>
        <time>2020-06-11T14:55:49Z</time>
      </trkpt>
      <trkpt lat="43.22044" lon="2.48247">
        <ele>119</ele>
        <time>2020-06-11T14:55:52Z</time>
      </trkpt>
      <trkpt lat="43.22019" lon="2.48249">
        <ele>121</ele>
        <time>2020-06-11T14:55:58Z</time>
      </trkpt>
      <trkpt lat="43.22016" lon="2.48249">
        <ele>121</ele>
        <time>2020-06-11T14:55:59Z</time>
      </trkpt>
      <trkpt lat="43.22003" lon="2.48249">
        <ele>121</ele>
        <time>2020-06-11T14:56:02Z</time>
      </trkpt>
      <trkpt lat="43.21994" lon="2.48249">
        <ele>121</ele>
        <time>2020-06-11T14:56:04Z</time>
      </trkpt>
      <trkpt lat="43.2199" lon="2.48249">
        <ele>121</ele>
        <time>2020-06-11T14:56:05Z</time>
      </trkpt>
      <trkpt lat="43.21986" lon="2.48248">
        <ele>121</ele>
        <time>2020-06-11T14:56:06Z</time>
      </trkpt>
      <trkpt lat="43.21968" lon="2.48242">
        <ele>121</ele>
        <time>2020-06-11T14:56:10Z</time>
      </trkpt>
      <trkpt lat="43.21964" lon="2.48239">
        <ele>121</ele>
        <time>2020-06-11T14:56:11Z</time>
      </trkpt>
      <trkpt lat="43.21959" lon="2.48237">
        <ele>120</ele>
        <time>2020-06-11T14:56:12Z</time>
      </trkpt>
      <trkpt lat="43.21941" lon="2.48224">
        <ele>119</ele>
        <time>2020-06-11T14:56:16Z</time>
      </trkpt>
      <trkpt lat="43.21929" lon="2.48213">
        <ele>118</ele>
        <time>2020-06-11T14:56:19Z</time>
      </trkpt>
      <trkpt lat="43.21912" lon="2.48197">
        <ele>118</ele>
        <time>2020-06-11T14:56:23Z</time>
      </trkpt>
      <trkpt lat="43.21904" lon="2.4819">
        <ele>118</ele>
        <time>2020-06-11T14:56:25Z</time>
      </trkpt>
      <trkpt lat="43.219" lon="2.48186">
        <ele>118</ele>
        <time>2020-06-11T14:56:26Z</time>
      </trkpt>
      <trkpt lat="43.21892" lon="2.48177">
        <ele>118</ele>
        <time>2020-06-11T14:56:28Z</time>
      </trkpt>
      <trkpt lat="43.21888" lon="2.48172">
        <ele>118</ele>
        <time>2020-06-11T14:56:29Z</time>
      </trkpt>
      <trkpt lat="43.21881" lon="2.48162">
        <ele>118</ele>
        <time>2020-06-11T14:56:31Z</time>
      </trkpt>
      <trkpt lat="43.21877" lon="2.48148">
        <ele>119</ele>
        <time>2020-06-11T14:56:33Z</time>
      </trkpt>
      <trkpt lat="43.21875" lon="2.48141">
        <ele>119</ele>
        <time>2020-06-11T14:56:34Z</time>
      </trkpt>
      <trkpt lat="43.21875" lon="2.48133">
        <ele>120</ele>
        <time>2020-06-11T14:56:35Z</time>
      </trkpt>
      <trkpt lat="43.21875" lon="2.48119">
        <ele>121</ele>
        <time>2020-06-11T14:56:37Z</time>
      </trkpt>
      <trkpt lat="43.21876" lon="2.48104">
        <ele>121</ele>
        <time>2020-06-11T14:56:39Z</time>
      </trkpt>
      <trkpt lat="43.21878" lon="2.48076">
        <ele>122</ele>
        <time>2020-06-11T14:56:43Z</time>
      </trkpt>
      <trkpt lat="43.21878" lon="2.48056">
        <ele>123</ele>
        <time>2020-06-11T14:56:46Z</time>
      </trkpt>
      <trkpt lat="43.21877" lon="2.4805">
        <ele>124</ele>
        <time>2020-06-11T14:56:47Z</time>
      </trkpt>
      <trkpt lat="43.21874" lon="2.48045">
        <ele>124</ele>
        <time>2020-06-11T14:56:48Z</time>
      </trkpt>
      <trkpt lat="43.21868" lon="2.48036">
        <ele>124</ele>
        <time>2020-06-11T14:56:50Z</time>
      </trkpt>
      <trkpt lat="43.2186" lon="2.4803">
        <ele>124</ele>
        <time>2020-06-11T14:56:52Z</time>
      </trkpt>
      <trkpt lat="43.2185" lon="2.48029">
        <ele>124</ele>
        <time>2020-06-11T14:56:54Z</time>
      </trkpt>
      <trkpt lat="43.21821" lon="2.48038">
        <ele>123</ele>
        <time>2020-06-11T14:57:00Z</time>
      </trkpt>
      <trkpt lat="43.21816" lon="2.48038">
        <ele>123</ele>
        <time>2020-06-11T14:57:01Z</time>
      </trkpt>
      <trkpt lat="43.21805" lon="2.48035">
        <ele>123</ele>
        <time>2020-06-11T14:57:03Z</time>
      </trkpt>
      <trkpt lat="43.21801" lon="2.48031">
        <ele>123</ele>
        <time>2020-06-11T14:57:04Z</time>
      </trkpt>
      <trkpt lat="43.21799" lon="2.48024">
        <ele>123</ele>
        <time>2020-06-11T14:57:05Z</time>
      </trkpt>
      <trkpt lat="43.21799" lon="2.48017">
        <ele>123</ele>
        <time>2020-06-11T14:57:06Z</time>
      </trkpt>
      <trkpt lat="43.218" lon="2.4801">
        <ele>124</ele>
        <time>2020-06-11T14:57:07Z</time>
      </trkpt>
      <trkpt lat="43.21803" lon="2.47996">
        <ele>125</ele>
        <time>2020-06-11T14:57:09Z</time>
      </trkpt>
      <trkpt lat="43.21805" lon="2.47989">
        <ele>125</ele>
        <time>2020-06-11T14:57:10Z</time>
      </trkpt>
      <trkpt lat="43.2181" lon="2.47969">
        <ele>125</ele>
        <time>2020-06-11T14:57:13Z</time>
      </trkpt>
      <trkpt lat="43.21811" lon="2.47963">
        <ele>125</ele>
        <time>2020-06-11T14:57:14Z</time>
      </trkpt>
      <trkpt lat="43.21812" lon="2.4795">
        <ele>125</ele>
        <time>2020-06-11T14:57:16Z</time>
      </trkpt>
      <trkpt lat="43.2181" lon="2.47909">
        <ele>126</ele>
        <time>2020-06-11T14:57:22Z</time>
      </trkpt>
      <trkpt lat="43.21809" lon="2.47902">
        <ele>126</ele>
        <time>2020-06-11T14:57:23Z</time>
      </trkpt>
      <trkpt lat="43.21803" lon="2.47891">
        <ele>126</ele>
        <time>2020-06-11T14:57:25Z</time>
      </trkpt>
      <trkpt lat="43.21798" lon="2.47887">
        <ele>126</ele>
        <time>2020-06-11T14:57:26Z</time>
      </trkpt>
      <trkpt lat="43.21793" lon="2.47883">
        <ele>126</ele>
        <time>2020-06-11T14:57:27Z</time>
      </trkpt>
      <trkpt lat="43.21788" lon="2.4788">
        <ele>126</ele>
        <time>2020-06-11T14:57:28Z</time>
      </trkpt>
      <trkpt lat="43.21782" lon="2.47877">
        <ele>126</ele>
        <time>2020-06-11T14:57:29Z</time>
      </trkpt>
      <trkpt lat="43.21771" lon="2.47873">
        <ele>125</ele>
        <time>2020-06-11T14:57:31Z</time>
      </trkpt>
      <trkpt lat="43.21755" lon="2.47868">
        <ele>124</ele>
        <time>2020-06-11T14:57:34Z</time>
      </trkpt>
      <trkpt lat="43.21744" lon="2.47865">
        <ele>124</ele>
        <time>2020-06-11T14:57:36Z</time>
      </trkpt>
      <trkpt lat="43.21733" lon="2.47863">
        <ele>124</ele>
        <time>2020-06-11T14:57:38Z</time>
      </trkpt>
      <trkpt lat="43.21723" lon="2.47859">
        <ele>125</ele>
        <time>2020-06-11T14:57:40Z</time>
      </trkpt>
      <trkpt lat="43.21713" lon="2.47854">
        <ele>124</ele>
        <time>2020-06-11T14:57:42Z</time>
      </trkpt>
      <trkpt lat="43.21705" lon="2.47847">
        <ele>124</ele>
        <time>2020-06-11T14:57:44Z</time>
      </trkpt>
      <trkpt lat="43.21703" lon="2.47842">
        <ele>124</ele>
        <time>2020-06-11T14:57:45Z</time>
      </trkpt>
      <trkpt lat="43.21701" lon="2.47836">
        <ele>125</ele>
        <time>2020-06-11T14:57:46Z</time>
      </trkpt>
      <trkpt lat="43.217" lon="2.4783">
        <ele>125</ele>
        <time>2020-06-11T14:57:47Z</time>
      </trkpt>
      <trkpt lat="43.217" lon="2.47824">
        <ele>125</ele>
        <time>2020-06-11T14:57:48Z</time>
      </trkpt>
      <trkpt lat="43.21703" lon="2.47791">
        <ele>126</ele>
        <time>2020-06-11T14:57:53Z</time>
      </trkpt>
      <trkpt lat="43.21705" lon="2.47776">
        <ele>126</ele>
        <time>2020-06-11T14:57:55Z</time>
      </trkpt>
      <trkpt lat="43.21706" lon="2.47762">
        <ele>126</ele>
        <time>2020-06-11T14:57:57Z</time>
      </trkpt>
      <trkpt lat="43.21707" lon="2.4774">
        <ele>125</ele>
        <time>2020-06-11T14:58:00Z</time>
      </trkpt>
      <trkpt lat="43.21708" lon="2.47733">
        <ele>125</ele>
        <time>2020-06-11T14:58:01Z</time>
      </trkpt>
      <trkpt lat="43.21709" lon="2.47725">
        <ele>125</ele>
        <time>2020-06-11T14:58:02Z</time>
      </trkpt>
      <trkpt lat="43.2171" lon="2.47686">
        <ele>125</ele>
        <time>2020-06-11T14:58:07Z</time>
      </trkpt>
      <trkpt lat="43.21708" lon="2.4767">
        <ele>125</ele>
        <time>2020-06-11T14:58:09Z</time>
      </trkpt>
      <trkpt lat="43.21706" lon="2.47654">
        <ele>125</ele>
        <time>2020-06-11T14:58:11Z</time>
      </trkpt>
      <trkpt lat="43.21705" lon="2.47647">
        <ele>125</ele>
        <time>2020-06-11T14:58:12Z</time>
      </trkpt>
      <trkpt lat="43.21702" lon="2.47633">
        <ele>125</ele>
        <time>2020-06-11T14:58:14Z</time>
      </trkpt>
      <trkpt lat="43.217" lon="2.47626">
        <ele>125</ele>
        <time>2020-06-11T14:58:15Z</time>
      </trkpt>
      <trkpt lat="43.21699" lon="2.47619">
        <ele>125</ele>
        <time>2020-06-11T14:58:16Z</time>
      </trkpt>
      <trkpt lat="43.21694" lon="2.47598">
        <ele>125</ele>
        <time>2020-06-11T14:58:19Z</time>
      </trkpt>
      <trkpt lat="43.21689" lon="2.47577">
        <ele>125</ele>
        <time>2020-06-11T14:58:22Z</time>
      </trkpt>
      <trkpt lat="43.2168" lon="2.47523">
        <ele>124</ele>
        <time>2020-06-11T14:58:29Z</time>
      </trkpt>
      <trkpt lat="43.2168" lon="2.47514">
        <ele>124</ele>
        <time>2020-06-11T14:58:30Z</time>
      </trkpt>
      <trkpt lat="43.21682" lon="2.47471">
        <ele>124</ele>
        <time>2020-06-11T14:58:35Z</time>
      </trkpt>
      <trkpt lat="43.21682" lon="2.47462">
        <ele>124</ele>
        <time>2020-06-11T14:58:36Z</time>
      </trkpt>
      <trkpt lat="43.21681" lon="2.47434">
        <ele>124</ele>
        <time>2020-06-11T14:58:39Z</time>
      </trkpt>
      <trkpt lat="43.21681" lon="2.47415">
        <ele>123</ele>
        <time>2020-06-11T14:58:41Z</time>
      </trkpt>
      <trkpt lat="43.21682" lon="2.47385">
        <ele>122</ele>
        <time>2020-06-11T14:58:44Z</time>
      </trkpt>
      <trkpt lat="43.2168" lon="2.47365">
        <ele>122</ele>
        <time>2020-06-11T14:58:46Z</time>
      </trkpt>
      <trkpt lat="43.21674" lon="2.4735">
        <ele>122</ele>
        <time>2020-06-11T14:58:48Z</time>
      </trkpt>
      <trkpt lat="43.21668" lon="2.47346">
        <ele>122</ele>
        <time>2020-06-11T14:58:49Z</time>
      </trkpt>
      <trkpt lat="43.21653" lon="2.47341">
        <ele>122</ele>
        <time>2020-06-11T14:58:51Z</time>
      </trkpt>
      <trkpt lat="43.21646" lon="2.47337">
        <ele>122</ele>
        <time>2020-06-11T14:58:52Z</time>
      </trkpt>
      <trkpt lat="43.2164" lon="2.47332">
        <ele>122</ele>
        <time>2020-06-11T14:58:53Z</time>
      </trkpt>
      <trkpt lat="43.21634" lon="2.47326">
        <ele>121</ele>
        <time>2020-06-11T14:58:54Z</time>
      </trkpt>
      <trkpt lat="43.21626" lon="2.47312">
        <ele>121</ele>
        <time>2020-06-11T14:58:56Z</time>
      </trkpt>
      <trkpt lat="43.21623" lon="2.47295">
        <ele>121</ele>
        <time>2020-06-11T14:58:58Z</time>
      </trkpt>
      <trkpt lat="43.2162" lon="2.47278">
        <ele>121</ele>
        <time>2020-06-11T14:59:00Z</time>
      </trkpt>
      <trkpt lat="43.21617" lon="2.4727">
        <ele>121</ele>
        <time>2020-06-11T14:59:01Z</time>
      </trkpt>
      <trkpt lat="43.2161" lon="2.47258">
        <ele>123</ele>
        <time>2020-06-11T14:59:03Z</time>
      </trkpt>
      <trkpt lat="43.21595" lon="2.47249">
        <ele>123</ele>
        <time>2020-06-11T14:59:06Z</time>
      </trkpt>
      <trkpt lat="43.2159" lon="2.47248">
        <ele>123</ele>
        <time>2020-06-11T14:59:07Z</time>
      </trkpt>
      <trkpt lat="43.21581" lon="2.47244">
        <ele>123</ele>
        <time>2020-06-11T14:59:09Z</time>
      </trkpt>
      <trkpt lat="43.21572" lon="2.47241">
        <ele>123</ele>
        <time>2020-06-11T14:59:11Z</time>
      </trkpt>
      <trkpt lat="43.21563" lon="2.47238">
        <ele>123</ele>
        <time>2020-06-11T14:59:13Z</time>
      </trkpt>
      <trkpt lat="43.2155" lon="2.47234">
        <ele>123</ele>
        <time>2020-06-11T14:59:16Z</time>
      </trkpt>
      <trkpt lat="43.21532" lon="2.47225">
        <ele>124</ele>
        <time>2020-06-11T14:59:20Z</time>
      </trkpt>
      <trkpt lat="43.21528" lon="2.47223">
        <ele>124</ele>
        <time>2020-06-11T14:59:21Z</time>
      </trkpt>
      <trkpt lat="43.21523" lon="2.47221">
        <ele>125</ele>
        <time>2020-06-11T14:59:22Z</time>
      </trkpt>
      <trkpt lat="43.21513" lon="2.47218">
        <ele>125</ele>
        <time>2020-06-11T14:59:24Z</time>
      </trkpt>
      <trkpt lat="43.21508" lon="2.47218">
        <ele>125</ele>
        <time>2020-06-11T14:59:25Z</time>
      </trkpt>
      <trkpt lat="43.21492" lon="2.47217">
        <ele>125</ele>
        <time>2020-06-11T14:59:28Z</time>
      </trkpt>
      <trkpt lat="43.21486" lon="2.47217">
        <ele>124</ele>
        <time>2020-06-11T14:59:29Z</time>
      </trkpt>
      <trkpt lat="43.21475" lon="2.47218">
        <ele>124</ele>
        <time>2020-06-11T14:59:31Z</time>
      </trkpt>
      <trkpt lat="43.21469" lon="2.4722">
        <ele>124</ele>
        <time>2020-06-11T14:59:32Z</time>
      </trkpt>
      <trkpt lat="43.21457" lon="2.47221">
        <ele>123</ele>
        <time>2020-06-11T14:59:34Z</time>
      </trkpt>
      <trkpt lat="43.21428" lon="2.47224">
        <ele>122</ele>
        <time>2020-06-11T14:59:39Z</time>
      </trkpt>
      <trkpt lat="43.21422" lon="2.47225">
        <ele>122</ele>
        <time>2020-06-11T14:59:40Z</time>
      </trkpt>
      <trkpt lat="43.21416" lon="2.47225">
        <ele>121</ele>
        <time>2020-06-11T14:59:41Z</time>
      </trkpt>
      <trkpt lat="43.2141" lon="2.47226">
        <ele>121</ele>
        <time>2020-06-11T14:59:42Z</time>
      </trkpt>
      <trkpt lat="43.21364" lon="2.4722">
        <ele>123</ele>
        <time>2020-06-11T14:59:49Z</time>
      </trkpt>
      <trkpt lat="43.21338" lon="2.47207">
        <ele>123</ele>
        <time>2020-06-11T14:59:53Z</time>
      </trkpt>
      <trkpt lat="43.21332" lon="2.47201">
        <ele>123</ele>
        <time>2020-06-11T14:59:54Z</time>
      </trkpt>
      <trkpt lat="43.21326" lon="2.47194">
        <ele>124</ele>
        <time>2020-06-11T14:59:55Z</time>
      </trkpt>
      <trkpt lat="43.21317" lon="2.47179">
        <ele>124</ele>
        <time>2020-06-11T14:59:57Z</time>
      </trkpt>
      <trkpt lat="43.21313" lon="2.47171">
        <ele>124</ele>
        <time>2020-06-11T14:59:58Z</time>
      </trkpt>
      <trkpt lat="43.21309" lon="2.47162">
        <ele>125</ele>
        <time>2020-06-11T14:59:59Z</time>
      </trkpt>
      <trkpt lat="43.21307" lon="2.47152">
        <ele>125</ele>
        <time>2020-06-11T15:00:00Z</time>
      </trkpt>
      <trkpt lat="43.21304" lon="2.47132">
        <ele>124</ele>
        <time>2020-06-11T15:00:02Z</time>
      </trkpt>
      <trkpt lat="43.21304" lon="2.47111">
        <ele>123</ele>
        <time>2020-06-11T15:00:04Z</time>
      </trkpt>
      <trkpt lat="43.21305" lon="2.471">
        <ele>123</ele>
        <time>2020-06-11T15:00:05Z</time>
      </trkpt>
      <trkpt lat="43.21307" lon="2.47089">
        <ele>123</ele>
        <time>2020-06-11T15:00:06Z</time>
      </trkpt>
      <trkpt lat="43.21309" lon="2.47079">
        <ele>123</ele>
        <time>2020-06-11T15:00:07Z</time>
      </trkpt>
      <trkpt lat="43.21321" lon="2.47038">
        <ele>123</ele>
        <time>2020-06-11T15:00:11Z</time>
      </trkpt>
      <trkpt lat="43.21326" lon="2.47018">
        <ele>122</ele>
        <time>2020-06-11T15:00:13Z</time>
      </trkpt>
      <trkpt lat="43.21332" lon="2.46997">
        <ele>122</ele>
        <time>2020-06-11T15:00:15Z</time>
      </trkpt>
      <trkpt lat="43.21338" lon="2.46977">
        <ele>122</ele>
        <time>2020-06-11T15:00:17Z</time>
      </trkpt>
      <trkpt lat="43.21341" lon="2.46966">
        <ele>122</ele>
        <time>2020-06-11T15:00:18Z</time>
      </trkpt>
      <trkpt lat="43.21362" lon="2.46895">
        <ele>123</ele>
        <time>2020-06-11T15:00:25Z</time>
      </trkpt>
      <trkpt lat="43.21369" lon="2.46865">
        <ele>123</ele>
        <time>2020-06-11T15:00:28Z</time>
      </trkpt>
      <trkpt lat="43.21375" lon="2.46824">
        <ele>122</ele>
        <time>2020-06-11T15:00:32Z</time>
      </trkpt>
      <trkpt lat="43.21374" lon="2.46813">
        <ele>122</ele>
        <time>2020-06-11T15:00:33Z</time>
      </trkpt>
      <trkpt lat="43.2137" lon="2.4678">
        <ele>121</ele>
        <time>2020-06-11T15:00:36Z</time>
      </trkpt>
      <trkpt lat="43.21368" lon="2.46769">
        <ele>121</ele>
        <time>2020-06-11T15:00:37Z</time>
      </trkpt>
      <trkpt lat="43.21363" lon="2.46745">
        <ele>120</ele>
        <time>2020-06-11T15:00:39Z</time>
      </trkpt>
      <trkpt lat="43.21354" lon="2.46704">
        <ele>119</ele>
        <time>2020-06-11T15:00:42Z</time>
      </trkpt>
      <trkpt lat="43.21351" lon="2.4669">
        <ele>118</ele>
        <time>2020-06-11T15:00:43Z</time>
      </trkpt>
      <trkpt lat="43.21347" lon="2.46675">
        <ele>116</ele>
        <time>2020-06-11T15:00:44Z</time>
      </trkpt>
      <trkpt lat="43.21344" lon="2.46659">
        <ele>115</ele>
        <time>2020-06-11T15:00:45Z</time>
      </trkpt>
      <trkpt lat="43.2134" lon="2.46643">
        <ele>114</ele>
        <time>2020-06-11T15:00:46Z</time>
      </trkpt>
      <trkpt lat="43.21337" lon="2.46627">
        <ele>112</ele>
        <time>2020-06-11T15:00:47Z</time>
      </trkpt>
      <trkpt lat="43.2133" lon="2.46593">
        <ele>110</ele>
        <time>2020-06-11T15:00:49Z</time>
      </trkpt>
      <trkpt lat="43.21322" lon="2.46559">
        <ele>110</ele>
        <time>2020-06-11T15:00:51Z</time>
      </trkpt>
      <trkpt lat="43.21318" lon="2.46541">
        <ele>110</ele>
        <time>2020-06-11T15:00:52Z</time>
      </trkpt>
      <trkpt lat="43.21314" lon="2.46523">
        <ele>111</ele>
        <time>2020-06-11T15:00:53Z</time>
      </trkpt>
      <trkpt lat="43.2131" lon="2.46505">
        <ele>111</ele>
        <time>2020-06-11T15:00:54Z</time>
      </trkpt>
      <trkpt lat="43.21306" lon="2.46487">
        <ele>110</ele>
        <time>2020-06-11T15:00:55Z</time>
      </trkpt>
      <trkpt lat="43.21298" lon="2.4645">
        <ele>109</ele>
        <time>2020-06-11T15:00:57Z</time>
      </trkpt>
      <trkpt lat="43.21292" lon="2.46413">
        <ele>109</ele>
        <time>2020-06-11T15:00:59Z</time>
      </trkpt>
      <trkpt lat="43.21289" lon="2.46395">
        <ele>109</ele>
        <time>2020-06-11T15:01:00Z</time>
      </trkpt>
      <trkpt lat="43.21283" lon="2.46337">
        <ele>107</ele>
        <time>2020-06-11T15:01:03Z</time>
      </trkpt>
      <trkpt lat="43.21279" lon="2.46298">
        <ele>107</ele>
        <time>2020-06-11T15:01:05Z</time>
      </trkpt>
      <trkpt lat="43.21273" lon="2.4624">
        <ele>108</ele>
        <time>2020-06-11T15:01:08Z</time>
      </trkpt>
      <trkpt lat="43.21269" lon="2.46221">
        <ele>108</ele>
        <time>2020-06-11T15:01:09Z</time>
      </trkpt>
      <trkpt lat="43.21264" lon="2.46202">
        <ele>108</ele>
        <time>2020-06-11T15:01:10Z</time>
      </trkpt>
      <trkpt lat="43.21258" lon="2.46183">
        <ele>107</ele>
        <time>2020-06-11T15:01:11Z</time>
      </trkpt>
      <trkpt lat="43.21252" lon="2.46165">
        <ele>107</ele>
        <time>2020-06-11T15:01:12Z</time>
      </trkpt>
      <trkpt lat="43.21246" lon="2.46146">
        <ele>106</ele>
        <time>2020-06-11T15:01:13Z</time>
      </trkpt>
      <trkpt lat="43.21234" lon="2.4611">
        <ele>105</ele>
        <time>2020-06-11T15:01:15Z</time>
      </trkpt>
      <trkpt lat="43.21229" lon="2.46091">
        <ele>105</ele>
        <time>2020-06-11T15:01:16Z</time>
      </trkpt>
      <trkpt lat="43.2122" lon="2.46055">
        <ele>105</ele>
        <time>2020-06-11T15:01:18Z</time>
      </trkpt>
      <trkpt lat="43.21215" lon="2.46019">
        <ele>106</ele>
        <time>2020-06-11T15:01:20Z</time>
      </trkpt>
      <trkpt lat="43.21213" lon="2.46">
        <ele>106</ele>
        <time>2020-06-11T15:01:21Z</time>
      </trkpt>
      <trkpt lat="43.21212" lon="2.45982">
        <ele>107</ele>
        <time>2020-06-11T15:01:22Z</time>
      </trkpt>
      <trkpt lat="43.21209" lon="2.45946">
        <ele>106</ele>
        <time>2020-06-11T15:01:24Z</time>
      </trkpt>
      <trkpt lat="43.21207" lon="2.45929">
        <ele>106</ele>
        <time>2020-06-11T15:01:25Z</time>
      </trkpt>
      <trkpt lat="43.212" lon="2.45856">
        <ele>105</ele>
        <time>2020-06-11T15:01:29Z</time>
      </trkpt>
      <trkpt lat="43.21197" lon="2.45839">
        <ele>105</ele>
        <time>2020-06-11T15:01:30Z</time>
      </trkpt>
      <trkpt lat="43.21194" lon="2.45822">
        <ele>104</ele>
        <time>2020-06-11T15:01:31Z</time>
      </trkpt>
      <trkpt lat="43.21191" lon="2.45805">
        <ele>104</ele>
        <time>2020-06-11T15:01:32Z</time>
      </trkpt>
      <trkpt lat="43.21189" lon="2.45788">
        <ele>104</ele>
        <time>2020-06-11T15:01:33Z</time>
      </trkpt>
      <trkpt lat="43.21186" lon="2.45771">
        <ele>103</ele>
        <time>2020-06-11T15:01:34Z</time>
      </trkpt>
      <trkpt lat="43.21182" lon="2.45739">
        <ele>104</ele>
        <time>2020-06-11T15:01:36Z</time>
      </trkpt>
      <trkpt lat="43.21181" lon="2.45723">
        <ele>104</ele>
        <time>2020-06-11T15:01:37Z</time>
      </trkpt>
      <trkpt lat="43.21177" lon="2.45662">
        <ele>103</ele>
        <time>2020-06-11T15:01:41Z</time>
      </trkpt>
      <trkpt lat="43.21176" lon="2.45647">
        <ele>103</ele>
        <time>2020-06-11T15:01:42Z</time>
      </trkpt>
      <trkpt lat="43.21175" lon="2.45633">
        <ele>104</ele>
        <time>2020-06-11T15:01:43Z</time>
      </trkpt>
      <trkpt lat="43.21169" lon="2.45552">
        <ele>106</ele>
        <time>2020-06-11T15:01:49Z</time>
      </trkpt>
      <trkpt lat="43.21168" lon="2.45539">
        <ele>106</ele>
        <time>2020-06-11T15:01:50Z</time>
      </trkpt>
      <trkpt lat="43.21165" lon="2.45502">
        <ele>106</ele>
        <time>2020-06-11T15:01:53Z</time>
      </trkpt>
      <trkpt lat="43.2116" lon="2.45468">
        <ele>107</ele>
        <time>2020-06-11T15:01:56Z</time>
      </trkpt>
      <trkpt lat="43.21156" lon="2.45447">
        <ele>107</ele>
        <time>2020-06-11T15:01:58Z</time>
      </trkpt>
      <trkpt lat="43.21151" lon="2.45428">
        <ele>107</ele>
        <time>2020-06-11T15:02:00Z</time>
      </trkpt>
      <trkpt lat="43.21148" lon="2.4542">
        <ele>107</ele>
        <time>2020-06-11T15:02:01Z</time>
      </trkpt>
      <trkpt lat="43.21128" lon="2.45375">
        <ele>105</ele>
        <time>2020-06-11T15:02:07Z</time>
      </trkpt>
      <trkpt lat="43.21124" lon="2.45361">
        <ele>104</ele>
        <time>2020-06-11T15:02:09Z</time>
      </trkpt>
      <trkpt lat="43.21125" lon="2.45347">
        <ele>104</ele>
        <time>2020-06-11T15:02:11Z</time>
      </trkpt>
      <trkpt lat="43.21133" lon="2.45336">
        <ele>104</ele>
        <time>2020-06-11T15:02:13Z</time>
      </trkpt>
      <trkpt lat="43.21138" lon="2.45333">
        <ele>104</ele>
        <time>2020-06-11T15:02:14Z</time>
      </trkpt>
      <trkpt lat="43.21158" lon="2.4532">
        <ele>106</ele>
        <time>2020-06-11T15:02:18Z</time>
      </trkpt>
      <trkpt lat="43.21167" lon="2.45314">
        <ele>106</ele>
        <time>2020-06-11T15:02:20Z</time>
      </trkpt>
      <trkpt lat="43.2117" lon="2.45311">
        <ele>106</ele>
        <time>2020-06-11T15:02:21Z</time>
      </trkpt>
      <trkpt lat="43.21178" lon="2.45304">
        <ele>107</ele>
        <time>2020-06-11T15:02:23Z</time>
      </trkpt>
      <trkpt lat="43.21184" lon="2.45297">
        <ele>107</ele>
        <time>2020-06-11T15:02:25Z</time>
      </trkpt>
      <trkpt lat="43.21188" lon="2.45293">
        <ele>108</ele>
        <time>2020-06-11T15:02:26Z</time>
      </trkpt>
      <trkpt lat="43.21191" lon="2.45288">
        <ele>108</ele>
        <time>2020-06-11T15:02:27Z</time>
      </trkpt>
      <trkpt lat="43.21213" lon="2.45261">
        <ele>109</ele>
        <time>2020-06-11T15:02:33Z</time>
      </trkpt>
      <trkpt lat="43.21234" lon="2.45227">
        <ele>109</ele>
        <time>2020-06-11T15:02:39Z</time>
      </trkpt>
      <trkpt lat="43.21248" lon="2.45199">
        <ele>109</ele>
        <time>2020-06-11T15:02:43Z</time>
      </trkpt>
      <trkpt lat="43.21251" lon="2.45191">
        <ele>108</ele>
        <time>2020-06-11T15:02:44Z</time>
      </trkpt>
      <trkpt lat="43.21255" lon="2.45184">
        <ele>108</ele>
        <time>2020-06-11T15:02:45Z</time>
      </trkpt>
      <trkpt lat="43.21258" lon="2.45176">
        <ele>108</ele>
        <time>2020-06-11T15:02:46Z</time>
      </trkpt>
      <trkpt lat="43.21264" lon="2.45159">
        <ele>108</ele>
        <time>2020-06-11T15:02:48Z</time>
      </trkpt>
      <trkpt lat="43.21271" lon="2.45141">
        <ele>108</ele>
        <time>2020-06-11T15:02:50Z</time>
      </trkpt>
      <trkpt lat="43.21278" lon="2.45122">
        <ele>108</ele>
        <time>2020-06-11T15:02:52Z</time>
      </trkpt>
      <trkpt lat="43.21286" lon="2.45102">
        <ele>108</ele>
        <time>2020-06-11T15:02:54Z</time>
      </trkpt>
      <trkpt lat="43.21289" lon="2.45092">
        <ele>108</ele>
        <time>2020-06-11T15:02:55Z</time>
      </trkpt>
      <trkpt lat="43.21295" lon="2.45072">
        <ele>107</ele>
        <time>2020-06-11T15:02:57Z</time>
      </trkpt>
      <trkpt lat="43.21312" lon="2.45028">
        <ele>108</ele>
        <time>2020-06-11T15:03:02Z</time>
      </trkpt>
      <trkpt lat="43.21316" lon="2.45019">
        <ele>108</ele>
        <time>2020-06-11T15:03:03Z</time>
      </trkpt>
      <trkpt lat="43.2132" lon="2.4501">
        <ele>109</ele>
        <time>2020-06-11T15:03:04Z</time>
      </trkpt>
      <trkpt lat="43.21334" lon="2.44973">
        <ele>110</ele>
        <time>2020-06-11T15:03:08Z</time>
      </trkpt>
      <trkpt lat="43.21338" lon="2.44965">
        <ele>109</ele>
        <time>2020-06-11T15:03:09Z</time>
      </trkpt>
      <trkpt lat="43.2134" lon="2.44957">
        <ele>109</ele>
        <time>2020-06-11T15:03:10Z</time>
      </trkpt>
      <trkpt lat="43.21346" lon="2.44942">
        <ele>109</ele>
        <time>2020-06-11T15:03:12Z</time>
      </trkpt>
      <trkpt lat="43.21357" lon="2.44912">
        <ele>109</ele>
        <time>2020-06-11T15:03:16Z</time>
      </trkpt>
      <trkpt lat="43.2136" lon="2.44905">
        <ele>109</ele>
        <time>2020-06-11T15:03:17Z</time>
      </trkpt>
      <trkpt lat="43.21377" lon="2.44861">
        <ele>111</ele>
        <time>2020-06-11T15:03:23Z</time>
      </trkpt>
      <trkpt lat="43.21389" lon="2.44815">
        <ele>109</ele>
        <time>2020-06-11T15:03:29Z</time>
      </trkpt>
      <trkpt lat="43.21395" lon="2.44791">
        <ele>108</ele>
        <time>2020-06-11T15:03:32Z</time>
      </trkpt>
      <trkpt lat="43.21397" lon="2.44784">
        <ele>108</ele>
        <time>2020-06-11T15:03:33Z</time>
      </trkpt>
      <trkpt lat="43.214" lon="2.44779">
        <ele>108</ele>
        <time>2020-06-11T15:03:34Z</time>
      </trkpt>
      <trkpt lat="43.21405" lon="2.44772">
        <ele>107</ele>
        <time>2020-06-11T15:03:36Z</time>
      </trkpt>
      <trkpt lat="43.21408" lon="2.44773">
        <ele>107</ele>
        <time>2020-06-11T15:03:37Z</time>
      </trkpt>
      <trkpt lat="43.21412" lon="2.4478">
        <ele>108</ele>
        <time>2020-06-11T15:03:39Z</time>
      </trkpt>
      <trkpt lat="43.21413" lon="2.44785">
        <ele>108</ele>
        <time>2020-06-11T15:03:40Z</time>
      </trkpt>
      <trkpt lat="43.21414" lon="2.44791">
        <ele>108</ele>
        <time>2020-06-11T15:03:41Z</time>
      </trkpt>
      <trkpt lat="43.2142" lon="2.44816">
        <ele>110</ele>
        <time>2020-06-11T15:03:45Z</time>
      </trkpt>
      <trkpt lat="43.21423" lon="2.44835">
        <ele>111</ele>
        <time>2020-06-11T15:03:48Z</time>
      </trkpt>
      <trkpt lat="43.21424" lon="2.44853">
        <ele>111</ele>
        <time>2020-06-11T15:03:51Z</time>
      </trkpt>
      <trkpt lat="43.21426" lon="2.44859">
        <ele>111</ele>
        <time>2020-06-11T15:03:52Z</time>
      </trkpt>
      <trkpt lat="43.21429" lon="2.44869">
        <ele>111</ele>
        <time>2020-06-11T15:03:54Z</time>
      </trkpt>
      <trkpt lat="43.21431" lon="2.44873">
        <ele>111</ele>
        <time>2020-06-11T15:03:55Z</time>
      </trkpt>
      <trkpt lat="43.21435" lon="2.44876">
        <ele>111</ele>
        <time>2020-06-11T15:03:56Z</time>
      </trkpt>
      <trkpt lat="43.21438" lon="2.44878">
        <ele>111</ele>
        <time>2020-06-11T15:03:57Z</time>
      </trkpt>
      <trkpt lat="43.21442" lon="2.44877">
        <ele>111</ele>
        <time>2020-06-11T15:03:58Z</time>
      </trkpt>
      <trkpt lat="43.21446" lon="2.44876">
        <ele>111</ele>
        <time>2020-06-11T15:03:59Z</time>
      </trkpt>
      <trkpt lat="43.21463" lon="2.4487">
        <ele>111</ele>
        <time>2020-06-11T15:04:04Z</time>
      </trkpt>
      <trkpt lat="43.21469" lon="2.44861">
        <ele>110</ele>
        <time>2020-06-11T15:04:10Z</time>
      </trkpt>
      <trkpt lat="43.21469" lon="2.4486">
        <ele>110</ele>
        <time>2020-06-11T15:04:11Z</time>
      </trkpt>
      <trkpt lat="43.21465" lon="2.44861">
        <ele>110</ele>
        <time>2020-06-11T15:37:35Z</time>
      </trkpt>
      <trkpt lat="43.21464" lon="2.44862">
        <ele>111</ele>
        <time>2020-06-11T15:37:36Z</time>
      </trkpt>
      <trkpt lat="43.21463" lon="2.44863">
        <ele>111</ele>
        <time>2020-06-11T15:37:37Z</time>
      </trkpt>
      <trkpt lat="43.21451" lon="2.44868">
        <ele>111</ele>
        <time>2020-06-11T15:37:42Z</time>
      </trkpt>
      <trkpt lat="43.21443" lon="2.44871">
        <ele>111</ele>
        <time>2020-06-11T15:37:45Z</time>
      </trkpt>
      <trkpt lat="43.21438" lon="2.44872">
        <ele>111</ele>
        <time>2020-06-11T15:37:47Z</time>
      </trkpt>
      <trkpt lat="43.21433" lon="2.44867">
        <ele>111</ele>
        <time>2020-06-11T15:37:50Z</time>
      </trkpt>
      <trkpt lat="43.21431" lon="2.44864">
        <ele>111</ele>
        <time>2020-06-11T15:37:51Z</time>
      </trkpt>
      <trkpt lat="43.2143" lon="2.44861">
        <ele>111</ele>
        <time>2020-06-11T15:37:52Z</time>
      </trkpt>
      <trkpt lat="43.21429" lon="2.44848">
        <ele>111</ele>
        <time>2020-06-11T15:37:55Z</time>
      </trkpt>
      <trkpt lat="43.21426" lon="2.44813">
        <ele>110</ele>
        <time>2020-06-11T15:38:01Z</time>
      </trkpt>
      <trkpt lat="43.21423" lon="2.44801">
        <ele>109</ele>
        <time>2020-06-11T15:38:03Z</time>
      </trkpt>
      <trkpt lat="43.21422" lon="2.44795">
        <ele>109</ele>
        <time>2020-06-11T15:38:04Z</time>
      </trkpt>
      <trkpt lat="43.21418" lon="2.44772">
        <ele>107</ele>
        <time>2020-06-11T15:38:08Z</time>
      </trkpt>
      <trkpt lat="43.21417" lon="2.44766">
        <ele>107</ele>
        <time>2020-06-11T15:38:09Z</time>
      </trkpt>
      <trkpt lat="43.21417" lon="2.44753">
        <ele>107</ele>
        <time>2020-06-11T15:38:11Z</time>
      </trkpt>
      <trkpt lat="43.21412" lon="2.44742">
        <ele>106</ele>
        <time>2020-06-11T15:38:13Z</time>
      </trkpt>
      <trkpt lat="43.21407" lon="2.4474">
        <ele>106</ele>
        <time>2020-06-11T15:38:14Z</time>
      </trkpt>
      <trkpt lat="43.21398" lon="2.44746">
        <ele>106</ele>
        <time>2020-06-11T15:38:16Z</time>
      </trkpt>
      <trkpt lat="43.21394" lon="2.44751">
        <ele>107</ele>
        <time>2020-06-11T15:38:17Z</time>
      </trkpt>
      <trkpt lat="43.21387" lon="2.44759">
        <ele>107</ele>
        <time>2020-06-11T15:38:19Z</time>
      </trkpt>
      <trkpt lat="43.21382" lon="2.44774">
        <ele>108</ele>
        <time>2020-06-11T15:38:22Z</time>
      </trkpt>
      <trkpt lat="43.21376" lon="2.44797">
        <ele>108</ele>
        <time>2020-06-11T15:38:27Z</time>
      </trkpt>
      <trkpt lat="43.21375" lon="2.44802">
        <ele>108</ele>
        <time>2020-06-11T15:38:28Z</time>
      </trkpt>
      <trkpt lat="43.21367" lon="2.4483">
        <ele>110</ele>
        <time>2020-06-11T15:38:35Z</time>
      </trkpt>
      <trkpt lat="43.21356" lon="2.44864">
        <ele>109</ele>
        <time>2020-06-11T15:38:43Z</time>
      </trkpt>
      <trkpt lat="43.21354" lon="2.44869">
        <ele>109</ele>
        <time>2020-06-11T15:38:44Z</time>
      </trkpt>
      <trkpt lat="43.21349" lon="2.44882">
        <ele>109</ele>
        <time>2020-06-11T15:38:47Z</time>
      </trkpt>
      <trkpt lat="43.21344" lon="2.44897">
        <ele>109</ele>
        <time>2020-06-11T15:38:51Z</time>
      </trkpt>
      <trkpt lat="43.21332" lon="2.44928">
        <ele>109</ele>
        <time>2020-06-11T15:38:58Z</time>
      </trkpt>
      <trkpt lat="43.21321" lon="2.44954">
        <ele>109</ele>
        <time>2020-06-11T15:39:03Z</time>
      </trkpt>
      <trkpt lat="43.21314" lon="2.44969">
        <ele>109</ele>
        <time>2020-06-11T15:39:06Z</time>
      </trkpt>
      <trkpt lat="43.21304" lon="2.44994">
        <ele>108</ele>
        <time>2020-06-11T15:39:10Z</time>
      </trkpt>
      <trkpt lat="43.21298" lon="2.45007">
        <ele>108</ele>
        <time>2020-06-11T15:39:12Z</time>
      </trkpt>
      <trkpt lat="43.21283" lon="2.45047">
        <ele>107</ele>
        <time>2020-06-11T15:39:17Z</time>
      </trkpt>
      <trkpt lat="43.2128" lon="2.45055">
        <ele>107</ele>
        <time>2020-06-11T15:39:18Z</time>
      </trkpt>
      <trkpt lat="43.21268" lon="2.45087">
        <ele>107</ele>
        <time>2020-06-11T15:39:22Z</time>
      </trkpt>
      <trkpt lat="43.21259" lon="2.4511">
        <ele>107</ele>
        <time>2020-06-11T15:39:25Z</time>
      </trkpt>
      <trkpt lat="43.21257" lon="2.45117">
        <ele>107</ele>
        <time>2020-06-11T15:39:26Z</time>
      </trkpt>
      <trkpt lat="43.21254" lon="2.45124">
        <ele>107</ele>
        <time>2020-06-11T15:39:27Z</time>
      </trkpt>
      <trkpt lat="43.21241" lon="2.45157">
        <ele>108</ele>
        <time>2020-06-11T15:39:32Z</time>
      </trkpt>
      <trkpt lat="43.21239" lon="2.45164">
        <ele>108</ele>
        <time>2020-06-11T15:39:33Z</time>
      </trkpt>
      <trkpt lat="43.21222" lon="2.452">
        <ele>109</ele>
        <time>2020-06-11T15:39:39Z</time>
      </trkpt>
      <trkpt lat="43.21219" lon="2.45206">
        <ele>109</ele>
        <time>2020-06-11T15:39:40Z</time>
      </trkpt>
      <trkpt lat="43.21205" lon="2.45228">
        <ele>109</ele>
        <time>2020-06-11T15:39:44Z</time>
      </trkpt>
      <trkpt lat="43.21202" lon="2.45233">
        <ele>109</ele>
        <time>2020-06-11T15:39:45Z</time>
      </trkpt>
      <trkpt lat="43.21198" lon="2.45239">
        <ele>109</ele>
        <time>2020-06-11T15:39:46Z</time>
      </trkpt>
      <trkpt lat="43.21187" lon="2.45255">
        <ele>108</ele>
        <time>2020-06-11T15:39:49Z</time>
      </trkpt>
      <trkpt lat="43.21174" lon="2.45272">
        <ele>107</ele>
        <time>2020-06-11T15:39:52Z</time>
      </trkpt>
      <trkpt lat="43.21163" lon="2.45284">
        <ele>106</ele>
        <time>2020-06-11T15:39:54Z</time>
      </trkpt>
      <trkpt lat="43.21157" lon="2.4529">
        <ele>106</ele>
        <time>2020-06-11T15:39:55Z</time>
      </trkpt>
      <trkpt lat="43.21151" lon="2.45297">
        <ele>105</ele>
        <time>2020-06-11T15:39:56Z</time>
      </trkpt>
      <trkpt lat="43.21145" lon="2.45302">
        <ele>105</ele>
        <time>2020-06-11T15:39:57Z</time>
      </trkpt>
      <trkpt lat="43.21132" lon="2.4531">
        <ele>104</ele>
        <time>2020-06-11T15:39:59Z</time>
      </trkpt>
      <trkpt lat="43.21119" lon="2.45311">
        <ele>102</ele>
        <time>2020-06-11T15:40:01Z</time>
      </trkpt>
      <trkpt lat="43.21104" lon="2.45313">
        <ele>102</ele>
        <time>2020-06-11T15:40:03Z</time>
      </trkpt>
      <trkpt lat="43.21099" lon="2.45318">
        <ele>102</ele>
        <time>2020-06-11T15:40:04Z</time>
      </trkpt>
      <trkpt lat="43.21095" lon="2.45325">
        <ele>102</ele>
        <time>2020-06-11T15:40:05Z</time>
      </trkpt>
      <trkpt lat="43.21093" lon="2.45341">
        <ele>103</ele>
        <time>2020-06-11T15:40:07Z</time>
      </trkpt>
      <trkpt lat="43.21098" lon="2.45355">
        <ele>104</ele>
        <time>2020-06-11T15:40:09Z</time>
      </trkpt>
      <trkpt lat="43.21102" lon="2.4536">
        <ele>104</ele>
        <time>2020-06-11T15:40:10Z</time>
      </trkpt>
      <trkpt lat="43.21115" lon="2.45375">
        <ele>105</ele>
        <time>2020-06-11T15:40:13Z</time>
      </trkpt>
      <trkpt lat="43.21118" lon="2.4538">
        <ele>105</ele>
        <time>2020-06-11T15:40:14Z</time>
      </trkpt>
      <trkpt lat="43.21122" lon="2.45386">
        <ele>105</ele>
        <time>2020-06-11T15:40:15Z</time>
      </trkpt>
      <trkpt lat="43.21143" lon="2.45424">
        <ele>108</ele>
        <time>2020-06-11T15:40:22Z</time>
      </trkpt>
      <trkpt lat="43.21146" lon="2.4543">
        <ele>108</ele>
        <time>2020-06-11T15:40:23Z</time>
      </trkpt>
      <trkpt lat="43.21159" lon="2.45472">
        <ele>107</ele>
        <time>2020-06-11T15:40:30Z</time>
      </trkpt>
      <trkpt lat="43.21161" lon="2.45484">
        <ele>107</ele>
        <time>2020-06-11T15:40:32Z</time>
      </trkpt>
      <trkpt lat="43.21163" lon="2.45498">
        <ele>107</ele>
        <time>2020-06-11T15:40:34Z</time>
      </trkpt>
      <trkpt lat="43.21165" lon="2.45511">
        <ele>106</ele>
        <time>2020-06-11T15:40:36Z</time>
      </trkpt>
      <trkpt lat="43.21166" lon="2.45525">
        <ele>106</ele>
        <time>2020-06-11T15:40:38Z</time>
      </trkpt>
      <trkpt lat="43.21171" lon="2.45605">
        <ele>104</ele>
        <time>2020-06-11T15:40:49Z</time>
      </trkpt>
      <trkpt lat="43.21174" lon="2.45656">
        <ele>103</ele>
        <time>2020-06-11T15:40:56Z</time>
      </trkpt>
      <trkpt lat="43.21175" lon="2.4567">
        <ele>103</ele>
        <time>2020-06-11T15:40:58Z</time>
      </trkpt>
      <trkpt lat="43.21176" lon="2.45677">
        <ele>103</ele>
        <time>2020-06-11T15:40:59Z</time>
      </trkpt>
      <trkpt lat="43.21177" lon="2.45697">
        <ele>103</ele>
        <time>2020-06-11T15:41:02Z</time>
      </trkpt>
      <trkpt lat="43.21178" lon="2.45711">
        <ele>103</ele>
        <time>2020-06-11T15:41:04Z</time>
      </trkpt>
      <trkpt lat="43.21179" lon="2.45724">
        <ele>104</ele>
        <time>2020-06-11T15:41:06Z</time>
      </trkpt>
      <trkpt lat="43.2118" lon="2.45731">
        <ele>104</ele>
        <time>2020-06-11T15:41:07Z</time>
      </trkpt>
      <trkpt lat="43.21181" lon="2.45743">
        <ele>104</ele>
        <time>2020-06-11T15:41:09Z</time>
      </trkpt>
      <trkpt lat="43.21187" lon="2.45788">
        <ele>103</ele>
        <time>2020-06-11T15:41:16Z</time>
      </trkpt>
      <trkpt lat="43.21188" lon="2.45794">
        <ele>104</ele>
        <time>2020-06-11T15:41:17Z</time>
      </trkpt>
      <trkpt lat="43.21189" lon="2.458">
        <ele>104</ele>
        <time>2020-06-11T15:41:18Z</time>
      </trkpt>
      <trkpt lat="43.2119" lon="2.45806">
        <ele>104</ele>
        <time>2020-06-11T15:41:19Z</time>
      </trkpt>
      <trkpt lat="43.21191" lon="2.45812">
        <ele>104</ele>
        <time>2020-06-11T15:41:20Z</time>
      </trkpt>
      <trkpt lat="43.21191" lon="2.45818">
        <ele>104</ele>
        <time>2020-06-11T15:41:21Z</time>
      </trkpt>
      <trkpt lat="43.21193" lon="2.45823">
        <ele>104</ele>
        <time>2020-06-11T15:41:22Z</time>
      </trkpt>
      <trkpt lat="43.21194" lon="2.45834">
        <ele>105</ele>
        <time>2020-06-11T15:41:24Z</time>
      </trkpt>
      <trkpt lat="43.21196" lon="2.45845">
        <ele>105</ele>
        <time>2020-06-11T15:41:26Z</time>
      </trkpt>
      <trkpt lat="43.21197" lon="2.45851">
        <ele>105</ele>
        <time>2020-06-11T15:41:27Z</time>
      </trkpt>
      <trkpt lat="43.21203" lon="2.4589">
        <ele>106</ele>
        <time>2020-06-11T15:41:34Z</time>
      </trkpt>
      <trkpt lat="43.21204" lon="2.45902">
        <ele>106</ele>
        <time>2020-06-11T15:41:36Z</time>
      </trkpt>
      <trkpt lat="43.21207" lon="2.45936">
        <ele>106</ele>
        <time>2020-06-11T15:41:42Z</time>
      </trkpt>
      <trkpt lat="43.21207" lon="2.45941">
        <ele>106</ele>
        <time>2020-06-11T15:41:43Z</time>
      </trkpt>
      <trkpt lat="43.21209" lon="2.45958">
        <ele>106</ele>
        <time>2020-06-11T15:41:46Z</time>
      </trkpt>
      <trkpt lat="43.2121" lon="2.45975">
        <ele>107</ele>
        <time>2020-06-11T15:41:49Z</time>
      </trkpt>
      <trkpt lat="43.21214" lon="2.46019">
        <ele>106</ele>
        <time>2020-06-11T15:41:57Z</time>
      </trkpt>
      <trkpt lat="43.21214" lon="2.46024">
        <ele>106</ele>
        <time>2020-06-11T15:41:58Z</time>
      </trkpt>
      <trkpt lat="43.21218" lon="2.46056">
        <ele>105</ele>
        <time>2020-06-11T15:42:04Z</time>
      </trkpt>
      <trkpt lat="43.21219" lon="2.46061">
        <ele>105</ele>
        <time>2020-06-11T15:42:05Z</time>
      </trkpt>
      <trkpt lat="43.2122" lon="2.46066">
        <ele>105</ele>
        <time>2020-06-11T15:42:06Z</time>
      </trkpt>
      <trkpt lat="43.21223" lon="2.46081">
        <ele>105</ele>
        <time>2020-06-11T15:42:09Z</time>
      </trkpt>
      <trkpt lat="43.21231" lon="2.46113">
        <ele>106</ele>
        <time>2020-06-11T15:42:15Z</time>
      </trkpt>
      <trkpt lat="43.21236" lon="2.4613">
        <ele>106</ele>
        <time>2020-06-11T15:42:18Z</time>
      </trkpt>
      <trkpt lat="43.21237" lon="2.46135">
        <ele>106</ele>
        <time>2020-06-11T15:42:19Z</time>
      </trkpt>
      <trkpt lat="43.21239" lon="2.46141">
        <ele>106</ele>
        <time>2020-06-11T15:42:20Z</time>
      </trkpt>
      <trkpt lat="43.21243" lon="2.46152">
        <ele>106</ele>
        <time>2020-06-11T15:42:22Z</time>
      </trkpt>
      <trkpt lat="43.21255" lon="2.46186">
        <ele>107</ele>
        <time>2020-06-11T15:42:28Z</time>
      </trkpt>
      <trkpt lat="43.2126" lon="2.46204">
        <ele>108</ele>
        <time>2020-06-11T15:42:31Z</time>
      </trkpt>
      <trkpt lat="43.21267" lon="2.46228">
        <ele>108</ele>
        <time>2020-06-11T15:42:35Z</time>
      </trkpt>
      <trkpt lat="43.2127" lon="2.46246">
        <ele>108</ele>
        <time>2020-06-11T15:42:38Z</time>
      </trkpt>
      <trkpt lat="43.21273" lon="2.46264">
        <ele>108</ele>
        <time>2020-06-11T15:42:41Z</time>
      </trkpt>
      <trkpt lat="43.21276" lon="2.46289">
        <ele>107</ele>
        <time>2020-06-11T15:42:45Z</time>
      </trkpt>
      <trkpt lat="43.21277" lon="2.46294">
        <ele>107</ele>
        <time>2020-06-11T15:42:46Z</time>
      </trkpt>
      <trkpt lat="43.21277" lon="2.463">
        <ele>107</ele>
        <time>2020-06-11T15:42:47Z</time>
      </trkpt>
      <trkpt lat="43.21281" lon="2.46348">
        <ele>107</ele>
        <time>2020-06-11T15:42:55Z</time>
      </trkpt>
      <trkpt lat="43.21282" lon="2.46354">
        <ele>107</ele>
        <time>2020-06-11T15:42:56Z</time>
      </trkpt>
      <trkpt lat="43.21283" lon="2.4636">
        <ele>107</ele>
        <time>2020-06-11T15:42:57Z</time>
      </trkpt>
      <trkpt lat="43.21285" lon="2.46378">
        <ele>108</ele>
        <time>2020-06-11T15:43:00Z</time>
      </trkpt>
      <trkpt lat="43.21287" lon="2.46397">
        <ele>109</ele>
        <time>2020-06-11T15:43:03Z</time>
      </trkpt>
      <trkpt lat="43.21288" lon="2.46409">
        <ele>109</ele>
        <time>2020-06-11T15:43:05Z</time>
      </trkpt>
      <trkpt lat="43.21294" lon="2.46445">
        <ele>109</ele>
        <time>2020-06-11T15:43:11Z</time>
      </trkpt>
      <trkpt lat="43.21297" lon="2.46462">
        <ele>109</ele>
        <time>2020-06-11T15:43:14Z</time>
      </trkpt>
      <trkpt lat="43.21299" lon="2.46468">
        <ele>109</ele>
        <time>2020-06-11T15:43:15Z</time>
      </trkpt>
      <trkpt lat="43.21301" lon="2.46479">
        <ele>110</ele>
        <time>2020-06-11T15:43:17Z</time>
      </trkpt>
      <trkpt lat="43.21308" lon="2.46513">
        <ele>111</ele>
        <time>2020-06-11T15:43:23Z</time>
      </trkpt>
      <trkpt lat="43.21311" lon="2.46524">
        <ele>111</ele>
        <time>2020-06-11T15:43:25Z</time>
      </trkpt>
      <trkpt lat="43.21313" lon="2.46535">
        <ele>110</ele>
        <time>2020-06-11T15:43:27Z</time>
      </trkpt>
      <trkpt lat="43.21316" lon="2.46549">
        <ele>110</ele>
        <time>2020-06-11T15:43:30Z</time>
      </trkpt>
      <trkpt lat="43.21317" lon="2.46553">
        <ele>110</ele>
        <time>2020-06-11T15:43:31Z</time>
      </trkpt>
      <trkpt lat="43.21325" lon="2.46593">
        <ele>110</ele>
        <time>2020-06-11T15:43:40Z</time>
      </trkpt>
      <trkpt lat="43.21326" lon="2.46597">
        <ele>110</ele>
        <time>2020-06-11T15:43:41Z</time>
      </trkpt>
      <trkpt lat="43.21327" lon="2.46601">
        <ele>111</ele>
        <time>2020-06-11T15:43:42Z</time>
      </trkpt>
      <trkpt lat="43.2133" lon="2.46614">
        <ele>111</ele>
        <time>2020-06-11T15:43:45Z</time>
      </trkpt>
      <trkpt lat="43.21332" lon="2.46622">
        <ele>112</ele>
        <time>2020-06-11T15:43:47Z</time>
      </trkpt>
      <trkpt lat="43.21333" lon="2.46627">
        <ele>112</ele>
        <time>2020-06-11T15:43:48Z</time>
      </trkpt>
      <trkpt lat="43.21335" lon="2.46635">
        <ele>112</ele>
        <time>2020-06-11T15:43:50Z</time>
      </trkpt>
      <trkpt lat="43.21339" lon="2.46656">
        <ele>114</ele>
        <time>2020-06-11T15:43:55Z</time>
      </trkpt>
      <trkpt lat="43.21344" lon="2.46676">
        <ele>116</ele>
        <time>2020-06-11T15:44:00Z</time>
      </trkpt>
      <trkpt lat="43.21345" lon="2.4668">
        <ele>117</ele>
        <time>2020-06-11T15:44:01Z</time>
      </trkpt>
      <trkpt lat="43.21347" lon="2.46691">
        <ele>118</ele>
        <time>2020-06-11T15:44:04Z</time>
      </trkpt>
      <trkpt lat="43.21349" lon="2.467">
        <ele>118</ele>
        <time>2020-06-11T15:44:06Z</time>
      </trkpt>
      <trkpt lat="43.21351" lon="2.46708">
        <ele>119</ele>
        <time>2020-06-11T15:44:08Z</time>
      </trkpt>
      <trkpt lat="43.21352" lon="2.46713">
        <ele>119</ele>
        <time>2020-06-11T15:44:09Z</time>
      </trkpt>
      <trkpt lat="43.21356" lon="2.46734">
        <ele>120</ele>
        <time>2020-06-11T15:44:14Z</time>
      </trkpt>
      <trkpt lat="43.21358" lon="2.46742">
        <ele>120</ele>
        <time>2020-06-11T15:44:16Z</time>
      </trkpt>
      <trkpt lat="43.21359" lon="2.46746">
        <ele>120</ele>
        <time>2020-06-11T15:44:17Z</time>
      </trkpt>
      <trkpt lat="43.21361" lon="2.46755">
        <ele>121</ele>
        <time>2020-06-11T15:44:19Z</time>
      </trkpt>
      <trkpt lat="43.21365" lon="2.46773">
        <ele>121</ele>
        <time>2020-06-11T15:44:23Z</time>
      </trkpt>
      <trkpt lat="43.21368" lon="2.46787">
        <ele>121</ele>
        <time>2020-06-11T15:44:26Z</time>
      </trkpt>
      <trkpt lat="43.21368" lon="2.46791">
        <ele>121</ele>
        <time>2020-06-11T15:44:27Z</time>
      </trkpt>
      <trkpt lat="43.21371" lon="2.46816">
        <ele>122</ele>
        <time>2020-06-11T15:44:32Z</time>
      </trkpt>
      <trkpt lat="43.21371" lon="2.46821">
        <ele>122</ele>
        <time>2020-06-11T15:44:33Z</time>
      </trkpt>
      <trkpt lat="43.21371" lon="2.46826">
        <ele>122</ele>
        <time>2020-06-11T15:44:34Z</time>
      </trkpt>
      <trkpt lat="43.21371" lon="2.46831">
        <ele>122</ele>
        <time>2020-06-11T15:44:35Z</time>
      </trkpt>
      <trkpt lat="43.21371" lon="2.46836">
        <ele>123</ele>
        <time>2020-06-11T15:44:36Z</time>
      </trkpt>
      <trkpt lat="43.2137" lon="2.46841">
        <ele>123</ele>
        <time>2020-06-11T15:44:37Z</time>
      </trkpt>
      <trkpt lat="43.2137" lon="2.46846">
        <ele>123</ele>
        <time>2020-06-11T15:44:38Z</time>
      </trkpt>
      <trkpt lat="43.21367" lon="2.46866">
        <ele>123</ele>
        <time>2020-06-11T15:44:42Z</time>
      </trkpt>
      <trkpt lat="43.21362" lon="2.46885">
        <ele>123</ele>
        <time>2020-06-11T15:44:46Z</time>
      </trkpt>
      <trkpt lat="43.21358" lon="2.469">
        <ele>123</ele>
        <time>2020-06-11T15:44:49Z</time>
      </trkpt>
      <trkpt lat="43.21355" lon="2.4691">
        <ele>123</ele>
        <time>2020-06-11T15:44:51Z</time>
      </trkpt>
      <trkpt lat="43.21341" lon="2.46957">
        <ele>122</ele>
        <time>2020-06-11T15:45:00Z</time>
      </trkpt>
      <trkpt lat="43.21326" lon="2.47012">
        <ele>122</ele>
        <time>2020-06-11T15:45:09Z</time>
      </trkpt>
      <trkpt lat="43.21324" lon="2.47018">
        <ele>122</ele>
        <time>2020-06-11T15:45:10Z</time>
      </trkpt>
      <trkpt lat="43.21322" lon="2.47025">
        <ele>122</ele>
        <time>2020-06-11T15:45:11Z</time>
      </trkpt>
      <trkpt lat="43.21308" lon="2.47073">
        <ele>122</ele>
        <time>2020-06-11T15:45:18Z</time>
      </trkpt>
      <trkpt lat="43.21306" lon="2.4708">
        <ele>122</ele>
        <time>2020-06-11T15:45:19Z</time>
      </trkpt>
      <trkpt lat="43.21302" lon="2.47094">
        <ele>122</ele>
        <time>2020-06-11T15:45:21Z</time>
      </trkpt>
      <trkpt lat="43.213" lon="2.47109">
        <ele>123</ele>
        <time>2020-06-11T15:45:23Z</time>
      </trkpt>
      <trkpt lat="43.21298" lon="2.47124">
        <ele>123</ele>
        <time>2020-06-11T15:45:25Z</time>
      </trkpt>
      <trkpt lat="43.21299" lon="2.4714">
        <ele>124</ele>
        <time>2020-06-11T15:45:27Z</time>
      </trkpt>
      <trkpt lat="43.213" lon="2.47154">
        <ele>124</ele>
        <time>2020-06-11T15:45:29Z</time>
      </trkpt>
      <trkpt lat="43.21302" lon="2.47161">
        <ele>124</ele>
        <time>2020-06-11T15:45:30Z</time>
      </trkpt>
      <trkpt lat="43.21304" lon="2.47168">
        <ele>124</ele>
        <time>2020-06-11T15:45:31Z</time>
      </trkpt>
      <trkpt lat="43.21309" lon="2.4718">
        <ele>124</ele>
        <time>2020-06-11T15:45:33Z</time>
      </trkpt>
      <trkpt lat="43.21318" lon="2.47197">
        <ele>123</ele>
        <time>2020-06-11T15:45:36Z</time>
      </trkpt>
      <trkpt lat="43.21331" lon="2.47211">
        <ele>122</ele>
        <time>2020-06-11T15:45:39Z</time>
      </trkpt>
      <trkpt lat="43.2134" lon="2.47219">
        <ele>122</ele>
        <time>2020-06-11T15:45:41Z</time>
      </trkpt>
      <trkpt lat="43.21345" lon="2.47222">
        <ele>122</ele>
        <time>2020-06-11T15:45:42Z</time>
      </trkpt>
      <trkpt lat="43.2135" lon="2.47225">
        <ele>122</ele>
        <time>2020-06-11T15:45:43Z</time>
      </trkpt>
      <trkpt lat="43.21355" lon="2.47227">
        <ele>122</ele>
        <time>2020-06-11T15:45:44Z</time>
      </trkpt>
      <trkpt lat="43.21365" lon="2.4723">
        <ele>122</ele>
        <time>2020-06-11T15:45:46Z</time>
      </trkpt>
      <trkpt lat="43.2138" lon="2.47233">
        <ele>122</ele>
        <time>2020-06-11T15:45:49Z</time>
      </trkpt>
      <trkpt lat="43.21396" lon="2.47233">
        <ele>121</ele>
        <time>2020-06-11T15:45:52Z</time>
      </trkpt>
      <trkpt lat="43.21407" lon="2.47232">
        <ele>121</ele>
        <time>2020-06-11T15:45:54Z</time>
      </trkpt>
      <trkpt lat="43.21418" lon="2.47231">
        <ele>121</ele>
        <time>2020-06-11T15:45:56Z</time>
      </trkpt>
      <trkpt lat="43.21428" lon="2.4723">
        <ele>121</ele>
        <time>2020-06-11T15:45:58Z</time>
      </trkpt>
      <trkpt lat="43.21434" lon="2.4723">
        <ele>122</ele>
        <time>2020-06-11T15:45:59Z</time>
      </trkpt>
      <trkpt lat="43.21439" lon="2.47229">
        <ele>122</ele>
        <time>2020-06-11T15:46:00Z</time>
      </trkpt>
      <trkpt lat="43.21445" lon="2.47229">
        <ele>122</ele>
        <time>2020-06-11T15:46:01Z</time>
      </trkpt>
      <trkpt lat="43.21456" lon="2.47228">
        <ele>122</ele>
        <time>2020-06-11T15:46:03Z</time>
      </trkpt>
      <trkpt lat="43.21473" lon="2.47227">
        <ele>123</ele>
        <time>2020-06-11T15:46:06Z</time>
      </trkpt>
      <trkpt lat="43.2148" lon="2.47226">
        <ele>123</ele>
        <time>2020-06-11T15:46:07Z</time>
      </trkpt>
      <trkpt lat="43.21492" lon="2.47226">
        <ele>124</ele>
        <time>2020-06-11T15:46:09Z</time>
      </trkpt>
      <trkpt lat="43.21511" lon="2.47229">
        <ele>124</ele>
        <time>2020-06-11T15:46:12Z</time>
      </trkpt>
      <trkpt lat="43.2154" lon="2.47238">
        <ele>123</ele>
        <time>2020-06-11T15:46:17Z</time>
      </trkpt>
      <trkpt lat="43.21547" lon="2.4724">
        <ele>123</ele>
        <time>2020-06-11T15:46:18Z</time>
      </trkpt>
      <trkpt lat="43.21573" lon="2.47248">
        <ele>122</ele>
        <time>2020-06-11T15:46:22Z</time>
      </trkpt>
      <trkpt lat="43.21586" lon="2.47252">
        <ele>122</ele>
        <time>2020-06-11T15:46:24Z</time>
      </trkpt>
      <trkpt lat="43.21599" lon="2.47257">
        <ele>122</ele>
        <time>2020-06-11T15:46:26Z</time>
      </trkpt>
      <trkpt lat="43.21609" lon="2.47266">
        <ele>122</ele>
        <time>2020-06-11T15:46:28Z</time>
      </trkpt>
      <trkpt lat="43.21616" lon="2.47281">
        <ele>121</ele>
        <time>2020-06-11T15:46:30Z</time>
      </trkpt>
      <trkpt lat="43.21618" lon="2.4729">
        <ele>121</ele>
        <time>2020-06-11T15:46:31Z</time>
      </trkpt>
      <trkpt lat="43.21619" lon="2.47299">
        <ele>121</ele>
        <time>2020-06-11T15:46:32Z</time>
      </trkpt>
      <trkpt lat="43.21621" lon="2.47308">
        <ele>121</ele>
        <time>2020-06-11T15:46:33Z</time>
      </trkpt>
      <trkpt lat="43.21629" lon="2.47323">
        <ele>121</ele>
        <time>2020-06-11T15:46:35Z</time>
      </trkpt>
      <trkpt lat="43.2164" lon="2.47336">
        <ele>122</ele>
        <time>2020-06-11T15:46:37Z</time>
      </trkpt>
      <trkpt lat="43.21646" lon="2.4734">
        <ele>122</ele>
        <time>2020-06-11T15:46:38Z</time>
      </trkpt>
      <trkpt lat="43.21653" lon="2.47344">
        <ele>122</ele>
        <time>2020-06-11T15:46:39Z</time>
      </trkpt>
      <trkpt lat="43.21659" lon="2.47346">
        <ele>122</ele>
        <time>2020-06-11T15:46:40Z</time>
      </trkpt>
      <trkpt lat="43.21665" lon="2.47348">
        <ele>122</ele>
        <time>2020-06-11T15:46:41Z</time>
      </trkpt>
      <trkpt lat="43.2167" lon="2.47351">
        <ele>122</ele>
        <time>2020-06-11T15:46:42Z</time>
      </trkpt>
      <trkpt lat="43.21674" lon="2.47357">
        <ele>122</ele>
        <time>2020-06-11T15:46:43Z</time>
      </trkpt>
      <trkpt lat="43.21676" lon="2.47364">
        <ele>122</ele>
        <time>2020-06-11T15:46:44Z</time>
      </trkpt>
      <trkpt lat="43.21676" lon="2.47371">
        <ele>122</ele>
        <time>2020-06-11T15:46:45Z</time>
      </trkpt>
      <trkpt lat="43.21676" lon="2.47379">
        <ele>122</ele>
        <time>2020-06-11T15:46:46Z</time>
      </trkpt>
      <trkpt lat="43.21677" lon="2.47393">
        <ele>123</ele>
        <time>2020-06-11T15:46:48Z</time>
      </trkpt>
      <trkpt lat="43.21678" lon="2.4741">
        <ele>123</ele>
        <time>2020-06-11T15:46:50Z</time>
      </trkpt>
      <trkpt lat="43.21678" lon="2.47418">
        <ele>124</ele>
        <time>2020-06-11T15:46:51Z</time>
      </trkpt>
      <trkpt lat="43.21676" lon="2.47456">
        <ele>124</ele>
        <time>2020-06-11T15:46:56Z</time>
      </trkpt>
      <trkpt lat="43.21676" lon="2.47464">
        <ele>125</ele>
        <time>2020-06-11T15:46:57Z</time>
      </trkpt>
      <trkpt lat="43.21676" lon="2.47478">
        <ele>124</ele>
        <time>2020-06-11T15:46:59Z</time>
      </trkpt>
      <trkpt lat="43.21675" lon="2.47486">
        <ele>124</ele>
        <time>2020-06-11T15:47:00Z</time>
      </trkpt>
      <trkpt lat="43.21675" lon="2.47494">
        <ele>124</ele>
        <time>2020-06-11T15:47:01Z</time>
      </trkpt>
      <trkpt lat="43.21674" lon="2.47508">
        <ele>124</ele>
        <time>2020-06-11T15:47:03Z</time>
      </trkpt>
      <trkpt lat="43.21674" lon="2.47515">
        <ele>124</ele>
        <time>2020-06-11T15:47:04Z</time>
      </trkpt>
      <trkpt lat="43.21674" lon="2.47522">
        <ele>124</ele>
        <time>2020-06-11T15:47:05Z</time>
      </trkpt>
      <trkpt lat="43.21679" lon="2.47549">
        <ele>124</ele>
        <time>2020-06-11T15:47:09Z</time>
      </trkpt>
      <trkpt lat="43.21686" lon="2.47576">
        <ele>125</ele>
        <time>2020-06-11T15:47:13Z</time>
      </trkpt>
      <trkpt lat="43.2169" lon="2.4759">
        <ele>125</ele>
        <time>2020-06-11T15:47:15Z</time>
      </trkpt>
      <trkpt lat="43.21694" lon="2.47605">
        <ele>125</ele>
        <time>2020-06-11T15:47:17Z</time>
      </trkpt>
      <trkpt lat="43.21701" lon="2.47636">
        <ele>125</ele>
        <time>2020-06-11T15:47:21Z</time>
      </trkpt>
      <trkpt lat="43.21703" lon="2.47643">
        <ele>125</ele>
        <time>2020-06-11T15:47:22Z</time>
      </trkpt>
      <trkpt lat="43.21705" lon="2.47651">
        <ele>125</ele>
        <time>2020-06-11T15:47:23Z</time>
      </trkpt>
      <trkpt lat="43.21707" lon="2.47659">
        <ele>125</ele>
        <time>2020-06-11T15:47:24Z</time>
      </trkpt>
      <trkpt lat="43.21709" lon="2.47674">
        <ele>125</ele>
        <time>2020-06-11T15:47:26Z</time>
      </trkpt>
      <trkpt lat="43.2171" lon="2.47682">
        <ele>125</ele>
        <time>2020-06-11T15:47:27Z</time>
      </trkpt>
      <trkpt lat="43.2171" lon="2.47698">
        <ele>125</ele>
        <time>2020-06-11T15:47:29Z</time>
      </trkpt>
      <trkpt lat="43.2171" lon="2.47707">
        <ele>125</ele>
        <time>2020-06-11T15:47:30Z</time>
      </trkpt>
      <trkpt lat="43.21709" lon="2.47715">
        <ele>125</ele>
        <time>2020-06-11T15:47:31Z</time>
      </trkpt>
      <trkpt lat="43.21707" lon="2.47739">
        <ele>125</ele>
        <time>2020-06-11T15:47:34Z</time>
      </trkpt>
      <trkpt lat="43.21705" lon="2.47769">
        <ele>126</ele>
        <time>2020-06-11T15:47:38Z</time>
      </trkpt>
      <trkpt lat="43.21704" lon="2.47791">
        <ele>126</ele>
        <time>2020-06-11T15:47:41Z</time>
      </trkpt>
      <trkpt lat="43.21702" lon="2.4782">
        <ele>125</ele>
        <time>2020-06-11T15:47:45Z</time>
      </trkpt>
      <trkpt lat="43.21701" lon="2.47827">
        <ele>125</ele>
        <time>2020-06-11T15:47:46Z</time>
      </trkpt>
      <trkpt lat="43.21702" lon="2.47834">
        <ele>125</ele>
        <time>2020-06-11T15:47:47Z</time>
      </trkpt>
      <trkpt lat="43.21704" lon="2.47841">
        <ele>125</ele>
        <time>2020-06-11T15:47:48Z</time>
      </trkpt>
      <trkpt lat="43.21706" lon="2.47847">
        <ele>124</ele>
        <time>2020-06-11T15:47:49Z</time>
      </trkpt>
      <trkpt lat="43.2171" lon="2.47853">
        <ele>124</ele>
        <time>2020-06-11T15:47:50Z</time>
      </trkpt>
      <trkpt lat="43.2172" lon="2.4786">
        <ele>124</ele>
        <time>2020-06-11T15:47:52Z</time>
      </trkpt>
      <trkpt lat="43.21729" lon="2.47864">
        <ele>124</ele>
        <time>2020-06-11T15:47:54Z</time>
      </trkpt>
      <trkpt lat="43.21736" lon="2.47871">
        <ele>124</ele>
        <time>2020-06-11T15:47:56Z</time>
      </trkpt>
      <trkpt lat="43.21737" lon="2.47878">
        <ele>123</ele>
        <time>2020-06-11T15:47:57Z</time>
      </trkpt>
      <trkpt lat="43.21736" lon="2.47886">
        <ele>123</ele>
        <time>2020-06-11T15:47:58Z</time>
      </trkpt>
      <trkpt lat="43.2173" lon="2.47904">
        <ele>122</ele>
        <time>2020-06-11T15:48:00Z</time>
      </trkpt>
      <trkpt lat="43.21727" lon="2.47915">
        <ele>121</ele>
        <time>2020-06-11T15:48:01Z</time>
      </trkpt>
      <trkpt lat="43.21723" lon="2.47925">
        <ele>121</ele>
        <time>2020-06-11T15:48:02Z</time>
      </trkpt>
      <trkpt lat="43.21715" lon="2.47954">
        <ele>119</ele>
        <time>2020-06-11T15:48:05Z</time>
      </trkpt>
      <trkpt lat="43.21714" lon="2.47961">
        <ele>119</ele>
        <time>2020-06-11T15:48:06Z</time>
      </trkpt>
      <trkpt lat="43.21716" lon="2.47981">
        <ele>118</ele>
        <time>2020-06-11T15:48:10Z</time>
      </trkpt>
      <trkpt lat="43.21718" lon="2.47985">
        <ele>117</ele>
        <time>2020-06-11T15:48:11Z</time>
      </trkpt>
      <trkpt lat="43.21722" lon="2.47993">
        <ele>117</ele>
        <time>2020-06-11T15:48:14Z</time>
      </trkpt>
      <trkpt lat="43.21722" lon="2.47994">
        <ele>117</ele>
        <time>2020-06-11T15:48:15Z</time>
      </trkpt>
    </trkseg>
  </trk>
</gpx>